<?xml version='1.0' encoding='UTF-8'?><gpx version="1.1" creator="JPX - https://github.com/jenetics/jpx" xmlns="http://www.topografix.com/GPX/1/1"><trk><trkseg><trkpt lat="45.95214800173901" lon="10.222658638421441"><ele>1017.0</ele><time>2026-04-04T12:45:02.998Z</time></trkpt><trkpt lat="45.95213252964968" lon="10.222555979635585"><ele>1016.9999999999999</ele><time>2026-04-04T12:45:04.998Z</time></trkpt><trkpt lat="45.95209052654212" lon="10.222464651169691"><ele>1017.0</ele><time>2026-04-04T12:45:07.999Z</time></trkpt><trkpt lat="45.952083251424774" lon="10.22237117399061"><ele>1017.0</ele><time>2026-04-04T12:45:11.999Z</time></trkpt><trkpt lat="45.95207262399248" lon="10.222270288245747"><ele>1016.9999999999999</ele><time>2026-04-04T12:45:15.999Z</time></trkpt><trkpt lat="45.95214979661281" lon="10.222286200463456"><ele>1017.0</ele><time>2026-04-04T12:49:51Z</time></trkpt><trkpt lat="45.95221824879546" lon="10.222322610783744"><ele>1017.0</ele><time>2026-04-04T12:49:55Z</time></trkpt><trkpt lat="45.952286869595724" lon="10.222358826088053"><ele>1017.0</ele><time>2026-04-04T12:49:57Z</time></trkpt><trkpt lat="45.952365450245765" lon="10.222356005037836"><ele>1017.0</ele><time>2026-04-04T12:50:00Z</time></trkpt><trkpt lat="45.952423152350285" lon="10.222395379786253"><ele>1017.0</ele><time>2026-04-04T12:50:06Z</time></trkpt><trkpt lat="45.95250277800402" lon="10.222423586664133"><ele>1017.0</ele><time>2026-04-04T12:50:09Z</time></trkpt><trkpt lat="45.95258639409596" lon="10.22238551282939"><ele>1017.0</ele><time>2026-04-04T12:50:11Z</time></trkpt><trkpt lat="45.95267796921561" lon="10.222298123592076"><ele>1017.0</ele><time>2026-04-04T12:50:13Z</time></trkpt><trkpt lat="45.95275005584246" lon="10.222257327419873"><ele>1014.5</ele><time>2026-04-04T12:50:15Z</time></trkpt><trkpt lat="45.95286121366969" lon="10.222260790773673"><ele>1012.0</ele><time>2026-04-04T12:50:17Z</time></trkpt><trkpt lat="45.952960086090094" lon="10.222293851944166"><ele>1009.5</ele><time>2026-04-04T12:50:19Z</time></trkpt><trkpt lat="45.953025447699055" lon="10.222307696904695"><ele>1007.0</ele><time>2026-04-04T12:50:20Z</time></trkpt><trkpt lat="45.95310435540657" lon="10.222301397493395"><ele>1004.5</ele><time>2026-04-04T12:50:21Z</time></trkpt><trkpt lat="45.95318941680961" lon="10.222295771603276"><ele>1002.0</ele><time>2026-04-04T12:50:22Z</time></trkpt><trkpt lat="45.95325683174681" lon="10.222291676073842"><ele>1002.0</ele><time>2026-04-04T12:50:23Z</time></trkpt><trkpt lat="45.95332926574972" lon="10.222271042039917"><ele>1002.0</ele><time>2026-04-04T12:50:24Z</time></trkpt><trkpt lat="45.95339433372668" lon="10.222214007013052"><ele>1002.0</ele><time>2026-04-04T12:50:25Z</time></trkpt><trkpt lat="45.95349961117512" lon="10.222159909450829"><ele>1002.0</ele><time>2026-04-04T12:50:27Z</time></trkpt><trkpt lat="45.95354565494125" lon="10.222283132525584"><ele>1002.0</ele><time>2026-04-04T12:50:29Z</time></trkpt><trkpt lat="45.95359381216786" lon="10.222353830407105"><ele>1002.0</ele><time>2026-04-04T12:50:30Z</time></trkpt><trkpt lat="45.95362054903826" lon="10.222501343067682"><ele>1007.0</ele><time>2026-04-04T12:50:31Z</time></trkpt><trkpt lat="45.95368639959762" lon="10.222564005427193"><ele>1012.0</ele><time>2026-04-04T12:50:32Z</time></trkpt><trkpt lat="45.953754790072324" lon="10.22257915366495"><ele>1017.0</ele><time>2026-04-04T12:50:33Z</time></trkpt><trkpt lat="45.95383507267853" lon="10.222592973145574"><ele>1022.0</ele><time>2026-04-04T12:50:34Z</time></trkpt><trkpt lat="45.95390408850055" lon="10.2226161206961"><ele>1027.0</ele><time>2026-04-04T12:50:35Z</time></trkpt><trkpt lat="45.95400547090458" lon="10.222603554259072"><ele>1032.0</ele><time>2026-04-04T12:50:36Z</time></trkpt><trkpt lat="45.95411441478466" lon="10.222582856467072"><ele>1034.4</ele><time>2026-04-04T12:50:37Z</time></trkpt><trkpt lat="45.95420946859042" lon="10.222562990830797"><ele>1036.8000000000002</ele><time>2026-04-04T12:50:38Z</time></trkpt><trkpt lat="45.954296852583916" lon="10.222550063526064"><ele>1039.2</ele><time>2026-04-04T12:50:39Z</time></trkpt><trkpt lat="45.954421088970975" lon="10.222509234994344"><ele>1041.6000000000001</ele><time>2026-04-04T12:50:40Z</time></trkpt><trkpt lat="45.95452151203719" lon="10.222464469966257"><ele>1044.0</ele><time>2026-04-04T12:50:41Z</time></trkpt><trkpt lat="45.954593033506995" lon="10.222413309402906"><ele>1044.0</ele><time>2026-04-04T12:50:42Z</time></trkpt><trkpt lat="45.95464534553452" lon="10.22236096529085"><ele>1044.0</ele><time>2026-04-04T12:50:44Z</time></trkpt><trkpt lat="45.95471407746402" lon="10.222386082893893"><ele>1044.0</ele><time>2026-04-04T12:51:02Z</time></trkpt><trkpt lat="45.95475243666855" lon="10.222497274905093"><ele>1044.0</ele><time>2026-04-04T12:51:05Z</time></trkpt><trkpt lat="45.95477834981107" lon="10.222660158511717"><ele>1044.0</ele><time>2026-04-04T12:51:07Z</time></trkpt><trkpt lat="45.954772116530556" lon="10.222805058985722"><ele>1044.0</ele><time>2026-04-04T12:51:09Z</time></trkpt><trkpt lat="45.954808856852225" lon="10.222916177872369"><ele>1044.0</ele><time>2026-04-04T12:51:11Z</time></trkpt><trkpt lat="45.954912095929394" lon="10.222943186770602"><ele>1044.0</ele><time>2026-04-04T12:51:13Z</time></trkpt><trkpt lat="45.95497726551245" lon="10.22290013016364"><ele>1044.0</ele><time>2026-04-04T12:51:14Z</time></trkpt><trkpt lat="45.955074678926515" lon="10.222769111469805"><ele>1044.0</ele><time>2026-04-04T12:51:16Z</time></trkpt><trkpt lat="45.955146453401525" lon="10.222724395350378"><ele>1044.0</ele><time>2026-04-04T12:51:18Z</time></trkpt><trkpt lat="45.95525447944042" lon="10.222738410690507"><ele>1043.6000000000001</ele><time>2026-04-04T12:51:23Z</time></trkpt><trkpt lat="45.95535558232905" lon="10.222799070458063"><ele>1043.2</ele><time>2026-04-04T12:51:25Z</time></trkpt><trkpt lat="45.955435452977135" lon="10.222840951533406"><ele>1042.8000000000002</ele><time>2026-04-04T12:51:26Z</time></trkpt><trkpt lat="45.95550302734736" lon="10.222945749065152"><ele>1042.4</ele><time>2026-04-04T12:51:28Z</time></trkpt><trkpt lat="45.95559330398738" lon="10.222952563490871"><ele>1042.0</ele><time>2026-04-04T12:51:30Z</time></trkpt><trkpt lat="45.95566460201895" lon="10.222986984535082"><ele>1042.0</ele><time>2026-04-04T12:51:31Z</time></trkpt><trkpt lat="45.955740803288435" lon="10.223034909700699"><ele>1042.0</ele><time>2026-04-04T12:51:32Z</time></trkpt><trkpt lat="45.95582834902315" lon="10.223078488141727"><ele>1042.0</ele><time>2026-04-04T12:51:33Z</time></trkpt><trkpt lat="45.95591656576513" lon="10.223075873383003"><ele>1042.0</ele><time>2026-04-04T12:51:34Z</time></trkpt><trkpt lat="45.95599201006337" lon="10.223052532643571"><ele>1042.0</ele><time>2026-04-04T12:51:35Z</time></trkpt><trkpt lat="45.956081501128914" lon="10.22305141984376"><ele>1042.0</ele><time>2026-04-04T12:51:37Z</time></trkpt><trkpt lat="45.95617810713669" lon="10.223108789478182"><ele>1047.2</ele><time>2026-04-04T12:51:39Z</time></trkpt><trkpt lat="45.95627501230692" lon="10.223178420479313"><ele>1052.4</ele><time>2026-04-04T12:51:41Z</time></trkpt><trkpt lat="45.95636550595384" lon="10.223290571176326"><ele>1057.6</ele><time>2026-04-04T12:51:43Z</time></trkpt><trkpt lat="45.95643564502276" lon="10.223398783325427"><ele>1062.8</ele><time>2026-04-04T12:51:45Z</time></trkpt><trkpt lat="45.95648261503159" lon="10.223461671000425"><ele>1068.0</ele><time>2026-04-04T12:51:47Z</time></trkpt><trkpt lat="45.956543462204294" lon="10.223509992999201"><ele>1068.0</ele><time>2026-04-04T12:51:49Z</time></trkpt><trkpt lat="45.95663679144145" lon="10.223543944736969"><ele>1068.0</ele><time>2026-04-04T12:51:51Z</time></trkpt><trkpt lat="45.956722027490244" lon="10.22359854912769"><ele>1068.0</ele><time>2026-04-04T12:51:54Z</time></trkpt><trkpt lat="45.95678891507865" lon="10.223672579961697"><ele>1068.0</ele><time>2026-04-04T12:51:56Z</time></trkpt><trkpt lat="45.9568981697182" lon="10.223730139043488"><ele>1068.0</ele><time>2026-04-04T12:51:58Z</time></trkpt><trkpt lat="45.95695402108259" lon="10.223797645542426"><ele>1071.5</ele><time>2026-04-04T12:51:59Z</time></trkpt><trkpt lat="45.9570347403111" lon="10.223819061678801"><ele>1075.0</ele><time>2026-04-04T12:52:01Z</time></trkpt><trkpt lat="45.957097966814864" lon="10.223938143544823"><ele>1078.5</ele><time>2026-04-04T12:52:03Z</time></trkpt><trkpt lat="45.95714826493736" lon="10.224017217040707"><ele>1082.0</ele><time>2026-04-04T12:52:05Z</time></trkpt><trkpt lat="45.95720557046909" lon="10.224068508473543"><ele>1085.5</ele><time>2026-04-04T12:52:12Z</time></trkpt><trkpt lat="45.95720840826592" lon="10.224196936650284"><ele>1089.0</ele><time>2026-04-04T12:52:22Z</time></trkpt><trkpt lat="45.957239448974626" lon="10.224309300880872"><ele>1091.3333333333333</ele><time>2026-04-04T12:52:24Z</time></trkpt><trkpt lat="45.95724093055895" lon="10.224434357748722"><ele>1093.6666666666667</ele><time>2026-04-04T12:52:26Z</time></trkpt><trkpt lat="45.95728923957919" lon="10.224523054191101"><ele>1096.0</ele><time>2026-04-04T12:52:28Z</time></trkpt><trkpt lat="45.957352075484316" lon="10.224624062084114"><ele>1098.3333333333335</ele><time>2026-04-04T12:52:31Z</time></trkpt><trkpt lat="45.95743715956422" lon="10.224624324881324"><ele>1100.6666666666667</ele><time>2026-04-04T12:52:34Z</time></trkpt><trkpt lat="45.95750040279829" lon="10.22468064179827"><ele>1103.0</ele><time>2026-04-04T12:52:38Z</time></trkpt><trkpt lat="45.95746222319033" lon="10.224601137977686"><ele>1103.0</ele><time>2026-04-04T12:52:47Z</time></trkpt><trkpt lat="45.957431143715624" lon="10.224481970357434"><ele>1103.0</ele><time>2026-04-04T12:52:49Z</time></trkpt><trkpt lat="45.95736396415598" lon="10.224414731678873"><ele>1103.0</ele><time>2026-04-04T12:52:51Z</time></trkpt><trkpt lat="45.957299536958395" lon="10.224366177937728"><ele>1103.0</ele><time>2026-04-04T12:52:53Z</time></trkpt><trkpt lat="45.95729725259429" lon="10.224266522426266"><ele>1103.0</ele><time>2026-04-04T12:52:57Z</time></trkpt><trkpt lat="45.957272462286404" lon="10.224153781464475"><ele>1103.0</ele><time>2026-04-04T12:53:01Z</time></trkpt><trkpt lat="45.95725415021564" lon="10.224062821217192"><ele>1103.0</ele><time>2026-04-04T12:53:05Z</time></trkpt><trkpt lat="45.95715805685585" lon="10.2240396403609"><ele>1103.0</ele><time>2026-04-04T12:53:11Z</time></trkpt><trkpt lat="45.957086082967" lon="10.22399196741458"><ele>1103.0</ele><time>2026-04-04T12:53:13Z</time></trkpt><trkpt lat="45.957068576544145" lon="10.223904349036513"><ele>1103.0</ele><time>2026-04-04T12:53:14Z</time></trkpt><trkpt lat="45.95705784888787" lon="10.223812101350687"><ele>1103.0</ele><time>2026-04-04T12:53:15Z</time></trkpt><trkpt lat="45.95701657139036" lon="10.223695955173179"><ele>1103.0</ele><time>2026-04-04T12:53:16Z</time></trkpt><trkpt lat="45.95699357842696" lon="10.223578910412812"><ele>1100.6666666666667</ele><time>2026-04-04T12:53:17Z</time></trkpt><trkpt lat="45.95687221595628" lon="10.223592681390526"><ele>1098.3333333333335</ele><time>2026-04-04T12:53:19Z</time></trkpt><trkpt lat="45.95680441600191" lon="10.223567727119564"><ele>1096.0</ele><time>2026-04-04T12:53:20Z</time></trkpt><trkpt lat="45.95673387725434" lon="10.22352791798379"><ele>1093.6666666666667</ele><time>2026-04-04T12:53:21Z</time></trkpt><trkpt lat="45.956643354838945" lon="10.223456250731653"><ele>1091.3333333333333</ele><time>2026-04-04T12:53:23Z</time></trkpt><trkpt lat="45.95656510008304" lon="10.223459676192519"><ele>1089.0</ele><time>2026-04-04T12:53:24Z</time></trkpt><trkpt lat="45.95647277527706" lon="10.223471377280395"><ele>1084.8</ele><time>2026-04-04T12:53:25Z</time></trkpt><trkpt lat="45.95639345956296" lon="10.22338575829016"><ele>1080.6000000000001</ele><time>2026-04-04T12:53:27Z</time></trkpt><trkpt lat="45.956359524631665" lon="10.22327631376346"><ele>1076.4</ele><time>2026-04-04T12:53:28Z</time></trkpt><trkpt lat="45.95630411224781" lon="10.223125130983071"><ele>1072.2</ele><time>2026-04-04T12:53:29Z</time></trkpt><trkpt lat="45.956239887142345" lon="10.223042685742458"><ele>1068.0</ele><time>2026-04-04T12:53:30Z</time></trkpt><trkpt lat="45.95617216821138" lon="10.222979449544995"><ele>1065.5</ele><time>2026-04-04T12:53:31Z</time></trkpt><trkpt lat="45.956099950730376" lon="10.222936008986292"><ele>1063.0</ele><time>2026-04-04T12:53:32Z</time></trkpt><trkpt lat="45.9560371932075" lon="10.222944034891858"><ele>1060.5</ele><time>2026-04-04T12:53:33Z</time></trkpt><trkpt lat="45.95596244670449" lon="10.222973628910191"><ele>1058.0</ele><time>2026-04-04T12:53:34Z</time></trkpt><trkpt lat="45.95588381379111" lon="10.222986006795724"><ele>1055.5</ele><time>2026-04-04T12:53:35Z</time></trkpt><trkpt lat="45.955793642933294" lon="10.222890557840602"><ele>1053.0</ele><time>2026-04-04T12:53:37Z</time></trkpt><trkpt lat="45.95572887618633" lon="10.222826621506055"><ele>1051.1666666666667</ele><time>2026-04-04T12:53:52Z</time></trkpt><trkpt lat="45.9556924215114" lon="10.222749501661502"><ele>1049.3333333333333</ele><time>2026-04-04T12:53:54Z</time></trkpt><trkpt lat="45.95563242952635" lon="10.222666544196324"><ele>1047.5</ele><time>2026-04-04T12:53:56Z</time></trkpt><trkpt lat="45.95550068264846" lon="10.222706796839423"><ele>1045.6666666666665</ele><time>2026-04-04T12:53:58Z</time></trkpt><trkpt lat="45.955431790788786" lon="10.222716574809613"><ele>1043.8333333333333</ele><time>2026-04-04T12:53:59Z</time></trkpt><trkpt lat="45.95536287061482" lon="10.222707927604349"><ele>1042.0</ele><time>2026-04-04T12:54:00Z</time></trkpt><trkpt lat="45.95527762993452" lon="10.222653602980314"><ele>1042.0</ele><time>2026-04-04T12:54:01Z</time></trkpt><trkpt lat="45.95519778223101" lon="10.222574823450811"><ele>1042.0</ele><time>2026-04-04T12:54:02Z</time></trkpt><trkpt lat="45.95512610276248" lon="10.222512620323288"><ele>1042.0</ele><time>2026-04-04T12:54:03Z</time></trkpt><trkpt lat="45.95504962819269" lon="10.222458571800075"><ele>1042.0</ele><time>2026-04-04T12:54:04Z</time></trkpt><trkpt lat="45.9549751454182" lon="10.222557192226795"><ele>1042.0</ele><time>2026-04-04T12:54:06Z</time></trkpt><trkpt lat="45.954944461679595" lon="10.222656457323813"><ele>1042.0</ele><time>2026-04-04T12:54:07Z</time></trkpt><trkpt lat="45.95492329742733" lon="10.222754692107854"><ele>1042.3333333333333</ele><time>2026-04-04T12:54:08Z</time></trkpt><trkpt lat="45.95486004402466" lon="10.222819256064161"><ele>1042.6666666666665</ele><time>2026-04-04T12:54:09Z</time></trkpt><trkpt lat="45.95479786461662" lon="10.222851031582339"><ele>1043.0</ele><time>2026-04-04T12:54:10Z</time></trkpt><trkpt lat="45.95478288968623" lon="10.222734307124274"><ele>1043.3333333333333</ele><time>2026-04-04T12:54:15Z</time></trkpt><trkpt lat="45.95470940863406" lon="10.222576798109614"><ele>1043.6666666666667</ele><time>2026-04-04T12:54:17Z</time></trkpt><trkpt lat="45.954698050595844" lon="10.222487440282507"><ele>1044.0</ele><time>2026-04-04T12:54:18Z</time></trkpt><trkpt lat="45.95470411274178" lon="10.222396516090967"><ele>1044.0</ele><time>2026-04-04T12:54:19Z</time></trkpt><trkpt lat="45.95458512925883" lon="10.222332440318267"><ele>1044.0</ele><time>2026-04-04T12:54:22Z</time></trkpt><trkpt lat="45.95452679187798" lon="10.22237327595371"><ele>1044.0</ele><time>2026-04-04T12:54:23Z</time></trkpt><trkpt lat="45.95444076269129" lon="10.2224098440859"><ele>1044.0</ele><time>2026-04-04T12:54:24Z</time></trkpt><trkpt lat="45.95428973309348" lon="10.222462256616787"><ele>1044.0</ele><time>2026-04-04T12:54:25Z</time></trkpt><trkpt lat="45.95416289580479" lon="10.2224765488357"><ele>1041.6000000000001</ele><time>2026-04-04T12:54:26Z</time></trkpt><trkpt lat="45.95406341172762" lon="10.222494453662511"><ele>1039.2</ele><time>2026-04-04T12:54:27Z</time></trkpt><trkpt lat="45.9539780647796" lon="10.22250998472759"><ele>1036.8000000000002</ele><time>2026-04-04T12:54:28Z</time></trkpt><trkpt lat="45.95387159109805" lon="10.222518526307239"><ele>1034.4</ele><time>2026-04-04T12:54:29Z</time></trkpt><trkpt lat="45.95378865457458" lon="10.222487115796497"><ele>1032.0</ele><time>2026-04-04T12:54:30Z</time></trkpt><trkpt lat="45.95370490016672" lon="10.22244491739871"><ele>1032.0</ele><time>2026-04-04T12:54:31Z</time></trkpt><trkpt lat="45.95360990509622" lon="10.222453619091366"><ele>1032.0</ele><time>2026-04-04T12:54:32Z</time></trkpt><trkpt lat="45.95355062384447" lon="10.222389711724716"><ele>1032.0</ele><time>2026-04-04T12:54:33Z</time></trkpt><trkpt lat="45.95350023391165" lon="10.222312643472828"><ele>1032.0</ele><time>2026-04-04T12:54:34Z</time></trkpt><trkpt lat="45.95341146920223" lon="10.222244827911693"><ele>1032.0</ele><time>2026-04-04T12:54:36Z</time></trkpt><trkpt lat="45.95333927318542" lon="10.222204970019307"><ele>1032.0</ele><time>2026-04-04T12:54:38Z</time></trkpt><trkpt lat="45.953414111642616" lon="10.222217730127864"><ele>1028.8571428571427</ele><time>2026-04-04T12:54:42Z</time></trkpt><trkpt lat="45.9533506005755" lon="10.222170364336181"><ele>1025.7142857142858</ele><time>2026-04-04T12:54:44Z</time></trkpt><trkpt lat="45.953400492042974" lon="10.222111525021962"><ele>1022.5714285714284</ele><time>2026-04-04T12:54:46Z</time></trkpt><trkpt lat="45.95343565376483" lon="10.222032862002225"><ele>1019.4285714285713</ele><time>2026-04-04T12:54:49Z</time></trkpt><trkpt lat="45.95349026764861" lon="10.221980885336022"><ele>1016.2857142857142</ele><time>2026-04-04T12:54:53Z</time></trkpt><trkpt lat="45.95354989116609" lon="10.221932913370633"><ele>1013.1428571428571</ele><time>2026-04-04T12:54:57Z</time></trkpt><trkpt lat="45.95359178259618" lon="10.221798343683513"><ele>1010.0</ele><time>2026-04-04T12:55:00Z</time></trkpt><trkpt lat="45.95363092163497" lon="10.221675208800864"><ele>1010.0000000000001</ele><time>2026-04-04T12:55:02Z</time></trkpt><trkpt lat="45.953638573532515" lon="10.22148453923995"><ele>1010.0</ele><time>2026-04-04T12:55:04Z</time></trkpt><trkpt lat="45.953639602682244" lon="10.221393482383718"><ele>1010.0</ele><time>2026-04-04T12:55:05Z</time></trkpt><trkpt lat="45.95363643740126" lon="10.221287398019616"><ele>1010.0</ele><time>2026-04-04T12:55:06Z</time></trkpt><trkpt lat="45.95362568770414" lon="10.221175097578394"><ele>1010.0000000000001</ele><time>2026-04-04T12:55:07Z</time></trkpt><trkpt lat="45.95361858740427" lon="10.221057125168148"><ele>1010.0</ele><time>2026-04-04T12:55:08Z</time></trkpt><trkpt lat="45.953609752864466" lon="10.220943511254006"><ele>1007.0000000000001</ele><time>2026-04-04T12:55:09Z</time></trkpt><trkpt lat="45.953608487112426" lon="10.220788339288019"><ele>1004.0</ele><time>2026-04-04T12:55:11Z</time></trkpt><trkpt lat="45.953596122185076" lon="10.220672373893835"><ele>1001.0</ele><time>2026-04-04T12:55:13Z</time></trkpt><trkpt lat="45.95355378396199" lon="10.220590994373199"><ele>998.0</ele><time>2026-04-04T12:55:16Z</time></trkpt><trkpt lat="45.95362025142712" lon="10.220555014168466"><ele>995.0000000000001</ele><time>2026-04-04T12:55:24Z</time></trkpt><trkpt lat="45.95367532506075" lon="10.220649017256846"><ele>992.0</ele><time>2026-04-04T12:55:26Z</time></trkpt><trkpt lat="45.95371422224961" lon="10.220758964846102"><ele>988.4000000000001</ele><time>2026-04-04T12:55:28Z</time></trkpt><trkpt lat="45.953728008910176" lon="10.220618157251451"><ele>984.8000000000001</ele><time>2026-04-04T12:55:31Z</time></trkpt><trkpt lat="45.953718267162756" lon="10.220462675512893"><ele>981.2</ele><time>2026-04-04T12:55:32Z</time></trkpt><trkpt lat="45.95374922664477" lon="10.220327700178805"><ele>977.6</ele><time>2026-04-04T12:55:33Z</time></trkpt><trkpt lat="45.95376518041033" lon="10.220215230420267"><ele>974.0</ele><time>2026-04-04T12:55:34Z</time></trkpt><trkpt lat="45.95377934685013" lon="10.220086995883252"><ele>974.0000000000001</ele><time>2026-04-04T12:55:35Z</time></trkpt><trkpt lat="45.95377492605426" lon="10.219963445566023"><ele>974.0</ele><time>2026-04-04T12:55:36Z</time></trkpt><trkpt lat="45.9537626371839" lon="10.219861289559944"><ele>974.0</ele><time>2026-04-04T12:55:37Z</time></trkpt><trkpt lat="45.95377055058555" lon="10.219757024487581"><ele>974.0</ele><time>2026-04-04T12:55:38Z</time></trkpt><trkpt lat="45.95376501276379" lon="10.219637276460448"><ele>974.0000000000001</ele><time>2026-04-04T12:55:39Z</time></trkpt><trkpt lat="45.95376393604286" lon="10.219517758300999"><ele>974.0</ele><time>2026-04-04T12:55:40Z</time></trkpt><trkpt lat="45.95376944309912" lon="10.219417737204093"><ele>971.2</ele><time>2026-04-04T12:55:41Z</time></trkpt><trkpt lat="45.95374669601466" lon="10.219263128190805"><ele>968.4000000000001</ele><time>2026-04-04T12:55:43Z</time></trkpt><trkpt lat="45.95383632834345" lon="10.219240159099702"><ele>965.6</ele><time>2026-04-04T12:56:03Z</time></trkpt><trkpt lat="45.95392893197272" lon="10.219268300997188"><ele>962.8</ele><time>2026-04-04T12:56:04Z</time></trkpt><trkpt lat="45.95404508816781" lon="10.2193171972744"><ele>960.0</ele><time>2026-04-04T12:56:05Z</time></trkpt><trkpt lat="45.95412017017945" lon="10.21932889270399"><ele>960.0</ele><time>2026-04-04T12:56:06Z</time></trkpt><trkpt lat="45.95420066758479" lon="10.219373816633066"><ele>960.0</ele><time>2026-04-04T12:56:07Z</time></trkpt><trkpt lat="45.95427164107816" lon="10.219409483230121"><ele>960.0</ele><time>2026-04-04T12:56:08Z</time></trkpt><trkpt lat="45.954362964578756" lon="10.219389965501145"><ele>960.0</ele><time>2026-04-04T12:56:10Z</time></trkpt><trkpt lat="45.95442134189801" lon="10.21927416119046"><ele>960.0</ele><time>2026-04-04T12:56:12Z</time></trkpt><trkpt lat="45.95445555473231" lon="10.219168680500132"><ele>960.0</ele><time>2026-04-04T12:56:14Z</time></trkpt><trkpt lat="45.95440334764426" lon="10.218908019653501"><ele>960.2</ele><time>2026-04-04T12:56:16Z</time></trkpt><trkpt lat="45.95431554177291" lon="10.21879910620912"><ele>960.4</ele><time>2026-04-04T12:56:17Z</time></trkpt><trkpt lat="45.95425494941031" lon="10.218684149579488"><ele>960.5999999999999</ele><time>2026-04-04T12:56:18Z</time></trkpt><trkpt lat="45.95419470915898" lon="10.218555556836606"><ele>960.8</ele><time>2026-04-04T12:56:19Z</time></trkpt><trkpt lat="45.954133379614845" lon="10.21842576438407"><ele>961.0</ele><time>2026-04-04T12:56:20Z</time></trkpt><trkpt lat="45.954072772025384" lon="10.218299980567508"><ele>961.0</ele><time>2026-04-04T12:56:21Z</time></trkpt><trkpt lat="45.954027749177556" lon="10.21815488453216"><ele>960.9999999999999</ele><time>2026-04-04T12:56:22Z</time></trkpt><trkpt lat="45.95397793650609" lon="10.218022758757073"><ele>960.9999999999999</ele><time>2026-04-04T12:56:23Z</time></trkpt><trkpt lat="45.95394231240453" lon="10.217909902941928"><ele>961.0</ele><time>2026-04-04T12:56:24Z</time></trkpt><trkpt lat="45.95391845892884" lon="10.217812113972183"><ele>961.0</ele><time>2026-04-04T12:56:27Z</time></trkpt><trkpt lat="45.95390342444019" lon="10.21767164460147"><ele>962.0</ele><time>2026-04-04T12:56:29Z</time></trkpt><trkpt lat="45.95397187092798" lon="10.217543851438224"><ele>962.9999999999999</ele><time>2026-04-04T12:56:40Z</time></trkpt><trkpt lat="45.95392831520149" lon="10.217433101759076"><ele>963.9999999999999</ele><time>2026-04-04T12:56:43Z</time></trkpt><trkpt lat="45.95385358165722" lon="10.217383096493338"><ele>965.0</ele><time>2026-04-04T12:56:44Z</time></trkpt><trkpt lat="45.95378860877255" lon="10.217345062564261"><ele>966.0</ele><time>2026-04-04T12:56:45Z</time></trkpt><trkpt lat="45.95376323343835" lon="10.217187862962701"><ele>970.5</ele><time>2026-04-04T12:56:46Z</time></trkpt><trkpt lat="45.95369171886722" lon="10.217153928178211"><ele>975.0</ele><time>2026-04-04T12:56:47Z</time></trkpt><trkpt lat="45.953621747370704" lon="10.217118989367401"><ele>979.5</ele><time>2026-04-04T12:56:48Z</time></trkpt><trkpt lat="45.95355256708537" lon="10.21708444578365"><ele>984.0</ele><time>2026-04-04T12:56:49Z</time></trkpt><trkpt lat="45.95344416797481" lon="10.217030319070396"><ele>988.5</ele><time>2026-04-04T12:56:51Z</time></trkpt><trkpt lat="45.953508753448396" lon="10.217077749265867"><ele>993.0</ele><time>2026-04-04T12:56:55Z</time></trkpt><trkpt lat="45.95357382686425" lon="10.217076921879668"><ele>993.0</ele><time>2026-04-04T12:56:56Z</time></trkpt><trkpt lat="45.95367902110585" lon="10.217112721078093"><ele>993.0</ele><time>2026-04-04T12:56:58Z</time></trkpt><trkpt lat="45.95379347460522" lon="10.217117774910523"><ele>993.0</ele><time>2026-04-04T12:56:59Z</time></trkpt><trkpt lat="45.95388297821067" lon="10.21711070116022"><ele>993.0</ele><time>2026-04-04T12:57:00Z</time></trkpt><trkpt lat="45.95397024389344" lon="10.217120733744288"><ele>993.0</ele><time>2026-04-04T12:57:01Z</time></trkpt><trkpt lat="45.95406686454701" lon="10.217125309524008"><ele>993.0</ele><time>2026-04-04T12:57:02Z</time></trkpt><trkpt lat="45.95415778375293" lon="10.21712534404938"><ele>993.0</ele><time>2026-04-04T12:57:03Z</time></trkpt><trkpt lat="45.954232368523485" lon="10.217114568407577"><ele>993.0</ele><time>2026-04-04T12:57:04Z</time></trkpt><trkpt lat="45.95430326704574" lon="10.217120609460075"><ele>993.0</ele><time>2026-04-04T12:57:05Z</time></trkpt><trkpt lat="45.95444069522816" lon="10.217120086358564"><ele>993.0</ele><time>2026-04-04T12:57:07Z</time></trkpt><trkpt lat="45.95450409692119" lon="10.217128828239632"><ele>993.0</ele><time>2026-04-04T12:57:08Z</time></trkpt><trkpt lat="45.95457197054361" lon="10.217126575176978"><ele>997.8333333333334</ele><time>2026-04-04T12:57:09Z</time></trkpt><trkpt lat="45.95464183367006" lon="10.21713696242072"><ele>1002.6666666666667</ele><time>2026-04-04T12:57:11Z</time></trkpt><trkpt lat="45.95461484917086" lon="10.217032738331172"><ele>1007.5</ele><time>2026-04-04T12:57:14Z</time></trkpt><trkpt lat="45.95454786891905" lon="10.216914846249722"><ele>1012.3333333333334</ele><time>2026-04-04T12:57:16Z</time></trkpt><trkpt lat="45.954514453048944" lon="10.216836820430434"><ele>1017.1666666666667</ele><time>2026-04-04T12:57:17Z</time></trkpt><trkpt lat="45.954430611811695" lon="10.216748805222489"><ele>1022.0</ele><time>2026-04-04T12:57:19Z</time></trkpt><trkpt lat="45.95437262088317" lon="10.21670946056463"><ele>1022.0000000000001</ele><time>2026-04-04T12:57:20Z</time></trkpt><trkpt lat="45.9542779768321" lon="10.216607215408112"><ele>1022.0</ele><time>2026-04-04T12:57:22Z</time></trkpt><trkpt lat="45.95424795725857" lon="10.216470848794641"><ele>1022.0</ele><time>2026-04-04T12:57:23Z</time></trkpt><trkpt lat="45.954209742687894" lon="10.216372345422283"><ele>1022.0</ele><time>2026-04-04T12:57:25Z</time></trkpt><trkpt lat="45.95417815705898" lon="10.216288641880942"><ele>1022.0000000000001</ele><time>2026-04-04T12:57:26Z</time></trkpt><trkpt lat="45.9541802463281" lon="10.216191199587694"><ele>1022.0</ele><time>2026-04-04T12:57:27Z</time></trkpt><trkpt lat="45.95413778584593" lon="10.21610283408855"><ele>1023.0</ele><time>2026-04-04T12:57:29Z</time></trkpt><trkpt lat="45.9540912142519" lon="10.216011229296281"><ele>1024.0</ele><time>2026-04-04T12:57:31Z</time></trkpt><trkpt lat="45.95399146389282" lon="10.215854852824883"><ele>1025.0</ele><time>2026-04-04T12:57:33Z</time></trkpt><trkpt lat="45.9539155902643" lon="10.215738215011006"><ele>1026.0</ele><time>2026-04-04T12:57:34Z</time></trkpt><trkpt lat="45.95385143383974" lon="10.215656687864998"><ele>1027.0</ele><time>2026-04-04T12:57:35Z</time></trkpt><trkpt lat="45.95378683641468" lon="10.215591804248405"><ele>1032.6</ele><time>2026-04-04T12:57:36Z</time></trkpt><trkpt lat="45.953700296117916" lon="10.215388943027278"><ele>1038.2</ele><time>2026-04-04T12:57:38Z</time></trkpt><trkpt lat="45.95365332350836" lon="10.215278493839644"><ele>1043.8</ele><time>2026-04-04T12:57:39Z</time></trkpt><trkpt lat="45.95362259816679" lon="10.215153684214197"><ele>1049.4</ele><time>2026-04-04T12:57:40Z</time></trkpt><trkpt lat="45.95358592059423" lon="10.215023975296951"><ele>1055.0</ele><time>2026-04-04T12:57:41Z</time></trkpt><trkpt lat="45.95351889236152" lon="10.214895307112547"><ele>1056.0</ele><time>2026-04-04T12:57:43Z</time></trkpt><trkpt lat="45.95349357443407" lon="10.214789126245812"><ele>1057.0</ele><time>2026-04-04T12:57:44Z</time></trkpt><trkpt lat="45.95347255712786" lon="10.21466395404523"><ele>1058.0</ele><time>2026-04-04T12:57:45Z</time></trkpt><trkpt lat="45.953446174809834" lon="10.214533309981375"><ele>1059.0</ele><time>2026-04-04T12:57:46Z</time></trkpt><trkpt lat="45.95341110258613" lon="10.2144121461745"><ele>1060.0</ele><time>2026-04-04T12:57:47Z</time></trkpt><trkpt lat="45.95339804925574" lon="10.214318968155965"><ele>1061.0</ele><time>2026-04-04T12:57:48Z</time></trkpt><trkpt lat="45.95340659873225" lon="10.214208047422364"><ele>1061.0</ele><time>2026-04-04T12:57:51Z</time></trkpt><trkpt lat="45.95343216420188" lon="10.214105250196688"><ele>1061.0</ele><time>2026-04-04T12:57:54Z</time></trkpt><trkpt lat="45.95348179346394" lon="10.213973854111538"><ele>1061.0</ele><time>2026-04-04T12:57:56Z</time></trkpt><trkpt lat="45.95352681505856" lon="10.213861977091145"><ele>1061.0</ele><time>2026-04-04T12:57:58Z</time></trkpt><trkpt lat="45.95358240555209" lon="10.213783835253238"><ele>1061.0</ele><time>2026-04-04T12:58:00.001Z</time></trkpt><trkpt lat="45.95362169837497" lon="10.213709991518646"><ele>1061.0</ele><time>2026-04-04T12:58:03.001Z</time></trkpt><trkpt lat="45.95354960129414" lon="10.2137059525621"><ele>1061.0</ele><time>2026-04-04T12:58:05.001Z</time></trkpt><trkpt lat="45.95353380849332" lon="10.213860210814913"><ele>1061.0</ele><time>2026-04-04T12:58:08.001Z</time></trkpt><trkpt lat="45.95356956971194" lon="10.214021972494855"><ele>1061.0</ele><time>2026-04-04T12:58:10.001Z</time></trkpt><trkpt lat="45.953592984833875" lon="10.214110428574068"><ele>1061.0</ele><time>2026-04-04T12:58:11.001Z</time></trkpt><trkpt lat="45.95366411917375" lon="10.214247720035097"><ele>1061.0</ele><time>2026-04-04T12:58:14.001Z</time></trkpt><trkpt lat="45.95372083656677" lon="10.214329283311328"><ele>1061.0</ele><time>2026-04-04T12:58:16.001Z</time></trkpt><trkpt lat="45.953796520853025" lon="10.214402850039672"><ele>1061.0</ele><time>2026-04-04T12:58:18.001Z</time></trkpt><trkpt lat="45.953853263876624" lon="10.21447432701754"><ele>1061.0</ele><time>2026-04-04T12:58:20.001Z</time></trkpt><trkpt lat="45.953936029870874" lon="10.214553404236334"><ele>1061.0</ele><time>2026-04-04T12:58:23.001Z</time></trkpt><trkpt lat="45.95399786061241" lon="10.214643403390212"><ele>1061.0</ele><time>2026-04-04T12:58:25.001Z</time></trkpt><trkpt lat="45.95405290776485" lon="10.214741621516996"><ele>1061.0</ele><time>2026-04-04T12:58:27.001Z</time></trkpt><trkpt lat="45.9541369958218" lon="10.214845086526237"><ele>1059.8</ele><time>2026-04-04T12:58:29.001Z</time></trkpt><trkpt lat="45.95419649548391" lon="10.214969286660613"><ele>1058.6</ele><time>2026-04-04T12:58:31.001Z</time></trkpt><trkpt lat="45.95430634849705" lon="10.21505684236896"><ele>1057.4</ele><time>2026-04-04T12:58:33.001Z</time></trkpt><trkpt lat="45.95439981203363" lon="10.21512391028294"><ele>1056.2</ele><time>2026-04-04T12:58:35.001Z</time></trkpt><trkpt lat="45.954488180973556" lon="10.215198828723336"><ele>1055.0</ele><time>2026-04-04T12:58:37.001Z</time></trkpt><trkpt lat="45.95455626123685" lon="10.215212565660215"><ele>1062.1666666666667</ele><time>2026-04-04T12:58:38.001Z</time></trkpt><trkpt lat="45.95467055998405" lon="10.215257609435758"><ele>1069.3333333333335</ele><time>2026-04-04T12:58:40.001Z</time></trkpt><trkpt lat="45.95473263367922" lon="10.215292089303789"><ele>1076.5</ele><time>2026-04-04T12:58:41.001Z</time></trkpt><trkpt lat="45.954821776564806" lon="10.21533906299744"><ele>1083.6666666666667</ele><time>2026-04-04T12:58:43.001Z</time></trkpt><trkpt lat="45.95490278973338" lon="10.215285364061288"><ele>1090.8333333333333</ele><time>2026-04-04T12:58:45.001Z</time></trkpt><trkpt lat="45.954977089226304" lon="10.215317544667757"><ele>1098.0</ele><time>2026-04-04T12:58:47.001Z</time></trkpt><trkpt lat="45.95504221755283" lon="10.215314307067477"><ele>1101.857142857143</ele><time>2026-04-04T12:58:50.001Z</time></trkpt><trkpt lat="45.955098163558944" lon="10.215264757029047"><ele>1105.7142857142858</ele><time>2026-04-04T12:59:51.001Z</time></trkpt><trkpt lat="45.95517357332332" lon="10.21527603710996"><ele>1109.5714285714287</ele><time>2026-04-04T12:59:55.001Z</time></trkpt><trkpt lat="45.95524284060621" lon="10.215259898187202"><ele>1113.4285714285716</ele><time>2026-04-04T12:59:59.001Z</time></trkpt><trkpt lat="45.955310149372515" lon="10.215273351987124"><ele>1117.2857142857144</ele><time>2026-04-04T13:00:03.001Z</time></trkpt><trkpt lat="45.95538078524344" lon="10.215268189375776"><ele>1121.142857142857</ele><time>2026-04-04T13:00:06.001Z</time></trkpt><trkpt lat="45.95546870355419" lon="10.21528593030005"><ele>1125.0</ele><time>2026-04-04T13:00:08.001Z</time></trkpt><trkpt lat="45.9555486910684" lon="10.215252944668155"><ele>1125.0</ele><time>2026-04-04T13:00:11.001Z</time></trkpt><trkpt lat="45.95562488456604" lon="10.215232049621656"><ele>1125.0</ele><time>2026-04-04T13:00:13.001Z</time></trkpt><trkpt lat="45.95569918479314" lon="10.215188872906005"><ele>1125.0</ele><time>2026-04-04T13:00:16.001Z</time></trkpt><trkpt lat="45.955745733038306" lon="10.215121843301981"><ele>1125.0</ele><time>2026-04-04T13:00:18.001Z</time></trkpt><trkpt lat="45.95582150797813" lon="10.215030233442185"><ele>1125.0</ele><time>2026-04-04T13:00:20.001Z</time></trkpt><trkpt lat="45.95592662292735" lon="10.214946137240048"><ele>1125.0</ele><time>2026-04-04T13:00:22.001Z</time></trkpt><trkpt lat="45.9559865054027" lon="10.214869891284122"><ele>1133.1666666666667</ele><time>2026-04-04T13:00:24.001Z</time></trkpt><trkpt lat="45.95605765139041" lon="10.214787309247873"><ele>1141.3333333333333</ele><time>2026-04-04T13:00:26.001Z</time></trkpt><trkpt lat="45.9561435066419" lon="10.21467535047654"><ele>1149.5</ele><time>2026-04-04T13:00:28.001Z</time></trkpt><trkpt lat="45.956201919548775" lon="10.214634923364786"><ele>1157.6666666666665</ele><time>2026-04-04T13:00:29.001Z</time></trkpt><trkpt lat="45.95626229969148" lon="10.214575002869829"><ele>1165.8333333333333</ele><time>2026-04-04T13:00:30.001Z</time></trkpt><trkpt lat="45.95633738911234" lon="10.21448461346373"><ele>1174.0</ele><time>2026-04-04T13:00:32.001Z</time></trkpt><trkpt lat="45.956448848794786" lon="10.214385207792873"><ele>1174.0</ele><time>2026-04-04T13:00:35.001Z</time></trkpt><trkpt lat="45.956496043401216" lon="10.214314812185485"><ele>1174.0</ele><time>2026-04-04T13:00:38.001Z</time></trkpt><trkpt lat="45.9565289576382" lon="10.21422675370672"><ele>1174.0</ele><time>2026-04-04T13:00:47.001Z</time></trkpt><trkpt lat="45.95649469141068" lon="10.21413421487969"><ele>1174.0</ele><time>2026-04-04T13:01:50.001Z</time></trkpt><trkpt lat="45.95644815128332" lon="10.21421758807896"><ele>1174.0</ele><time>2026-04-04T13:02:28.001Z</time></trkpt><trkpt lat="45.95639714287237" lon="10.214280993839543"><ele>1174.0</ele><time>2026-04-04T13:02:31.001Z</time></trkpt><trkpt lat="45.956342094067935" lon="10.21432725000317"><ele>1174.0</ele><time>2026-04-04T13:02:33.001Z</time></trkpt><trkpt lat="45.956313462785246" lon="10.214413875515055"><ele>1174.0</ele><time>2026-04-04T13:02:35.001Z</time></trkpt><trkpt lat="45.95624429186465" lon="10.214513342847523"><ele>1174.0</ele><time>2026-04-04T13:02:39.001Z</time></trkpt><trkpt lat="45.956180758422676" lon="10.214600595569463"><ele>1174.0</ele><time>2026-04-04T13:04:25Z</time></trkpt><trkpt lat="45.956108059412244" lon="10.214654444119809"><ele>1174.0</ele><time>2026-04-04T13:04:29Z</time></trkpt><trkpt lat="45.95606160624011" lon="10.214732030244576"><ele>1174.0</ele><time>2026-04-04T13:04:33Z</time></trkpt><trkpt lat="45.95598405078228" lon="10.214777433682947"><ele>1174.0</ele><time>2026-04-04T13:04:40Z</time></trkpt><trkpt lat="45.95592244847106" lon="10.214757645717519"><ele>1174.0</ele><time>2026-04-04T13:04:44Z</time></trkpt><trkpt lat="45.95588802998579" lon="10.21464277709899"><ele>1174.0</ele><time>2026-04-04T13:04:48Z</time></trkpt><trkpt lat="45.95581090923347" lon="10.214670443762317"><ele>1174.0</ele><time>2026-04-04T13:04:51Z</time></trkpt><trkpt lat="45.95587297660649" lon="10.214734318540625"><ele>1174.0</ele><time>2026-04-04T13:04:55Z</time></trkpt><trkpt lat="45.95594501209081" lon="10.21479328489508"><ele>1174.0</ele><time>2026-04-04T13:04:58Z</time></trkpt><trkpt lat="45.956039133598544" lon="10.21477776845089"><ele>1174.0</ele><time>2026-04-04T13:05:43Z</time></trkpt><trkpt lat="45.956095712969315" lon="10.214716597455661"><ele>1174.0</ele><time>2026-04-04T13:05:45Z</time></trkpt><trkpt lat="45.95616327767534" lon="10.214661585103524"><ele>1174.0</ele><time>2026-04-04T13:05:47Z</time></trkpt><trkpt lat="45.956252366933384" lon="10.214602976239984"><ele>1174.0</ele><time>2026-04-04T13:05:49Z</time></trkpt><trkpt lat="45.956315448872424" lon="10.214485174989193"><ele>1174.0</ele><time>2026-04-04T13:05:51Z</time></trkpt><trkpt lat="45.9563834820812" lon="10.214410442314671"><ele>1174.0</ele><time>2026-04-04T13:05:53Z</time></trkpt><trkpt lat="45.95646984417728" lon="10.214312178069157"><ele>1174.0</ele><time>2026-04-04T13:05:55Z</time></trkpt><trkpt lat="45.956525205262594" lon="10.214241061725433"><ele>1174.0</ele><time>2026-04-04T13:05:57Z</time></trkpt><trkpt lat="45.956446734341455" lon="10.214228437711256"><ele>1174.0</ele><time>2026-04-04T13:06:10Z</time></trkpt><trkpt lat="45.9563905620096" lon="10.21429499428145"><ele>1174.0</ele><time>2026-04-04T13:06:12Z</time></trkpt><trkpt lat="45.95633358742085" lon="10.214350047242855"><ele>1174.0</ele><time>2026-04-04T13:06:14Z</time></trkpt><trkpt lat="45.95628745749637" lon="10.214471514007366"><ele>1174.0</ele><time>2026-04-04T13:06:16Z</time></trkpt><trkpt lat="45.95622650719784" lon="10.214554232788247"><ele>1174.0</ele><time>2026-04-04T13:06:19Z</time></trkpt><trkpt lat="45.956158837396664" lon="10.214608067454265"><ele>1174.0</ele><time>2026-04-04T13:06:22Z</time></trkpt><trkpt lat="45.95608088787496" lon="10.214673024851137"><ele>1174.0</ele><time>2026-04-04T13:06:25Z</time></trkpt><trkpt lat="45.95602288783866" lon="10.21475230501589"><ele>1174.0</ele><time>2026-04-04T13:06:29Z</time></trkpt><trkpt lat="45.95594997840292" lon="10.214776178429506"><ele>1174.0</ele><time>2026-04-04T13:06:32Z</time></trkpt><trkpt lat="45.95590992888115" lon="10.214686166874722"><ele>1174.0</ele><time>2026-04-04T13:06:35Z</time></trkpt><trkpt lat="45.955873803043986" lon="10.214604587644105"><ele>1174.0</ele><time>2026-04-04T13:06:38Z</time></trkpt><trkpt lat="45.95583299700151" lon="10.214684333979308"><ele>1174.0</ele><time>2026-04-04T13:06:41Z</time></trkpt><trkpt lat="45.95588766785344" lon="10.214774264110396"><ele>1174.0</ele><time>2026-04-04T13:06:45Z</time></trkpt><trkpt lat="45.955943751219365" lon="10.214843188443076"><ele>1174.0</ele><time>2026-04-04T13:06:54Z</time></trkpt><trkpt lat="45.95603209008028" lon="10.214787850754254"><ele>1174.0</ele><time>2026-04-04T13:07:03Z</time></trkpt><trkpt lat="45.95609565225821" lon="10.214699909502068"><ele>1174.0</ele><time>2026-04-04T13:07:05Z</time></trkpt><trkpt lat="45.95619853660469" lon="10.214641738550876"><ele>1174.0</ele><time>2026-04-04T13:07:07Z</time></trkpt><trkpt lat="45.956259898427334" lon="10.214573629487584"><ele>1174.0</ele><time>2026-04-04T13:07:08Z</time></trkpt><trkpt lat="45.956309534349536" lon="10.214512692118918"><ele>1174.0</ele><time>2026-04-04T13:07:09Z</time></trkpt><trkpt lat="45.95636861960609" lon="10.214418704207429"><ele>1174.0</ele><time>2026-04-04T13:07:11Z</time></trkpt><trkpt lat="45.95644440365325" lon="10.21434584884059"><ele>1174.0</ele><time>2026-04-04T13:07:13Z</time></trkpt><trkpt lat="45.95653234890099" lon="10.214251416082565"><ele>1174.0</ele><time>2026-04-04T13:07:15Z</time></trkpt><trkpt lat="45.956621535403414" lon="10.214202992369035"><ele>1174.0</ele><time>2026-04-04T13:07:17Z</time></trkpt><trkpt lat="45.956667397943804" lon="10.214127774075958"><ele>1174.0</ele><time>2026-04-04T13:07:19Z</time></trkpt><trkpt lat="45.95671608426439" lon="10.21405278918815"><ele>1174.0</ele><time>2026-04-04T13:07:25Z</time></trkpt><trkpt lat="45.956747068225944" lon="10.213957182044929"><ele>1174.0</ele><time>2026-04-04T13:07:28Z</time></trkpt><trkpt lat="45.95681150255876" lon="10.213869848074335"><ele>1174.0</ele><time>2026-04-04T13:07:30Z</time></trkpt><trkpt lat="45.956876131659676" lon="10.213822016049765"><ele>1174.0</ele><time>2026-04-04T13:07:32Z</time></trkpt><trkpt lat="45.95693811703871" lon="10.213803166241979"><ele>1174.0</ele><time>2026-04-04T13:07:36Z</time></trkpt><trkpt lat="45.956893473019385" lon="10.213725861477718"><ele>1174.142857142857</ele><time>2026-04-04T13:07:51Z</time></trkpt><trkpt lat="45.95683911808981" lon="10.213666162811114"><ele>1174.2857142857144</ele><time>2026-04-04T13:07:56Z</time></trkpt><trkpt lat="45.95676769639079" lon="10.2136743397689"><ele>1174.4285714285716</ele><time>2026-04-04T13:08:02Z</time></trkpt><trkpt lat="45.95675118465326" lon="10.213772247430146"><ele>1174.5714285714287</ele><time>2026-04-04T13:09:40Z</time></trkpt><trkpt lat="45.956815594842766" lon="10.21381700683079"><ele>1174.7142857142858</ele><time>2026-04-04T13:09:45Z</time></trkpt><trkpt lat="45.956734023698296" lon="10.213843147453629"><ele>1174.857142857143</ele><time>2026-04-04T13:10:36Z</time></trkpt><trkpt lat="45.95666975307795" lon="10.213889741585284"><ele>1175.0</ele><time>2026-04-04T13:10:40Z</time></trkpt><trkpt lat="45.95661356828149" lon="10.213968420481295"><ele>1174.8333333333335</ele><time>2026-04-04T13:10:43Z</time></trkpt><trkpt lat="45.95658828735987" lon="10.214063495578989"><ele>1174.6666666666667</ele><time>2026-04-04T13:10:46Z</time></trkpt><trkpt lat="45.95651614554822" lon="10.214110174050482"><ele>1174.5</ele><time>2026-04-04T13:10:49Z</time></trkpt><trkpt lat="45.956446125316745" lon="10.214219672169863"><ele>1174.3333333333333</ele><time>2026-04-04T13:10:52Z</time></trkpt><trkpt lat="45.95640402364402" lon="10.214291624935603"><ele>1174.1666666666665</ele><time>2026-04-04T13:10:54Z</time></trkpt><trkpt lat="45.95633704091271" lon="10.214393147825824"><ele>1174.0</ele><time>2026-04-04T13:10:56Z</time></trkpt><trkpt lat="45.95625914292362" lon="10.214494146575321"><ele>1174.0</ele><time>2026-04-04T13:10:58Z</time></trkpt><trkpt lat="45.956206832102616" lon="10.214559290902725"><ele>1174.0</ele><time>2026-04-04T13:11:00Z</time></trkpt><trkpt lat="45.95614572425276" lon="10.214631788934584"><ele>1174.0</ele><time>2026-04-04T13:11:02Z</time></trkpt><trkpt lat="45.956079716587716" lon="10.214703417227982"><ele>1174.0</ele><time>2026-04-04T13:11:04Z</time></trkpt><trkpt lat="45.95600128931483" lon="10.214793646433215"><ele>1174.0</ele><time>2026-04-04T13:11:06Z</time></trkpt><trkpt lat="45.95594715373024" lon="10.21486408245157"><ele>1174.0</ele><time>2026-04-04T13:11:07Z</time></trkpt><trkpt lat="45.95585923013541" lon="10.214950134297291"><ele>1165.8333333333333</ele><time>2026-04-04T13:11:09Z</time></trkpt><trkpt lat="45.955778784427096" lon="10.215032208079274"><ele>1157.6666666666665</ele><time>2026-04-04T13:11:11Z</time></trkpt><trkpt lat="45.95568998101025" lon="10.215108967098752"><ele>1149.5</ele><time>2026-04-04T13:11:13Z</time></trkpt><trkpt lat="45.95563601614619" lon="10.215180774722828"><ele>1141.3333333333333</ele><time>2026-04-04T13:11:15Z</time></trkpt><trkpt lat="45.955568178418915" lon="10.21519337110585"><ele>1133.1666666666667</ele><time>2026-04-04T13:11:17Z</time></trkpt><trkpt lat="45.955481627772954" lon="10.215261454343892"><ele>1125.0</ele><time>2026-04-04T13:11:20Z</time></trkpt><trkpt lat="45.95540583396973" lon="10.215251534548717"><ele>1125.0</ele><time>2026-04-04T13:11:32Z</time></trkpt><trkpt lat="45.95533907359134" lon="10.215221992156184"><ele>1125.0</ele><time>2026-04-04T13:11:35Z</time></trkpt><trkpt lat="45.955268624404894" lon="10.215227558956988"><ele>1125.0</ele><time>2026-04-04T13:11:49Z</time></trkpt><trkpt lat="45.955200895397894" lon="10.215241748361633"><ele>1125.0</ele><time>2026-04-04T13:11:53Z</time></trkpt><trkpt lat="45.95512624434071" lon="10.215230319269393"><ele>1125.0</ele><time>2026-04-04T13:12:11Z</time></trkpt><trkpt lat="45.955178604637" lon="10.215319063643115"><ele>1125.0</ele><time>2026-04-04T13:12:32Z</time></trkpt><trkpt lat="45.95511236302991" lon="10.215281320056299"><ele>1125.0</ele><time>2026-04-04T13:13:00Z</time></trkpt><trkpt lat="45.95505070804893" lon="10.215241328262765"><ele>1120.5</ele><time>2026-04-04T13:17:58Z</time></trkpt><trkpt lat="45.954989428513" lon="10.215265513923587"><ele>1116.0</ele><time>2026-04-04T13:18:01Z</time></trkpt><trkpt lat="45.954919223598274" lon="10.21524185378572"><ele>1111.5</ele><time>2026-04-04T13:18:04Z</time></trkpt><trkpt lat="45.95485548035719" lon="10.215231795704641"><ele>1107.0</ele><time>2026-04-04T13:18:06Z</time></trkpt><trkpt lat="45.95475951678473" lon="10.21519886365996"><ele>1102.5</ele><time>2026-04-04T13:18:08Z</time></trkpt><trkpt lat="45.95468936827166" lon="10.215154203029893"><ele>1098.0</ele><time>2026-04-04T13:18:10Z</time></trkpt><trkpt lat="45.95459640336027" lon="10.215109204074329"><ele>1098.0</ele><time>2026-04-04T13:18:12Z</time></trkpt><trkpt lat="45.9544841577365" lon="10.215052297677335"><ele>1098.0</ele><time>2026-04-04T13:18:14Z</time></trkpt><trkpt lat="45.954407784771035" lon="10.21499824274975"><ele>1098.0</ele><time>2026-04-04T13:18:15Z</time></trkpt><trkpt lat="45.95431296219031" lon="10.21488360072913"><ele>1098.0</ele><time>2026-04-04T13:18:17Z</time></trkpt><trkpt lat="45.95421501767883" lon="10.214788216920532"><ele>1098.0</ele><time>2026-04-04T13:18:19Z</time></trkpt><trkpt lat="45.954153990638794" lon="10.214694284397883"><ele>1091.8333333333333</ele><time>2026-04-04T13:18:21Z</time></trkpt><trkpt lat="45.95412109432964" lon="10.214614803373387"><ele>1085.6666666666667</ele><time>2026-04-04T13:18:23Z</time></trkpt><trkpt lat="45.95405384214083" lon="10.21456192233766"><ele>1079.5</ele><time>2026-04-04T13:18:25Z</time></trkpt><trkpt lat="45.95399537281628" lon="10.214484458171238"><ele>1073.3333333333335</ele><time>2026-04-04T13:18:28Z</time></trkpt><trkpt lat="45.953932861678865" lon="10.21440472540952"><ele>1067.1666666666667</ele><time>2026-04-04T13:18:30Z</time></trkpt><trkpt lat="45.95386017579052" lon="10.21430466324138"><ele>1061.0</ele><time>2026-04-04T13:18:32Z</time></trkpt><trkpt lat="45.953786384476274" lon="10.214235132458732"><ele>1061.0</ele><time>2026-04-04T13:18:34Z</time></trkpt><trkpt lat="45.953738465246595" lon="10.214109873421481"><ele>1061.0</ele><time>2026-04-04T13:18:36Z</time></trkpt><trkpt lat="45.953697240288925" lon="10.214012812819895"><ele>1061.0</ele><time>2026-04-04T13:18:37Z</time></trkpt><trkpt lat="45.953651220269165" lon="10.213893079375273"><ele>1061.0</ele><time>2026-04-04T13:18:39Z</time></trkpt><trkpt lat="45.95368147125046" lon="10.213739575932893"><ele>1061.0</ele><time>2026-04-04T13:18:41Z</time></trkpt><trkpt lat="45.95366607105696" lon="10.213614218484775"><ele>1060.0</ele><time>2026-04-04T13:18:42Z</time></trkpt><trkpt lat="45.953675820704085" lon="10.21351076652339"><ele>1059.0</ele><time>2026-04-04T13:18:43Z</time></trkpt><trkpt lat="45.95365973252558" lon="10.213393612184104"><ele>1058.0</ele><time>2026-04-04T13:18:45Z</time></trkpt><trkpt lat="45.95362527294755" lon="10.213248834996122"><ele>1057.0</ele><time>2026-04-04T13:18:47Z</time></trkpt><trkpt lat="45.95359439777191" lon="10.213128865312886"><ele>1056.0</ele><time>2026-04-04T13:18:50Z</time></trkpt><trkpt lat="45.9535573142424" lon="10.213042693113774"><ele>1055.0</ele><time>2026-04-04T13:18:55Z</time></trkpt><trkpt lat="45.95354609811844" lon="10.212909341328608"><ele>1053.5</ele><time>2026-04-04T13:18:58Z</time></trkpt><trkpt lat="45.953572740265145" lon="10.212820163737307"><ele>1052.0</ele><time>2026-04-04T13:18:59Z</time></trkpt><trkpt lat="45.953627518190395" lon="10.212705059401923"><ele>1050.5</ele><time>2026-04-04T13:19:00Z</time></trkpt><trkpt lat="45.953651022762116" lon="10.212578188490468"><ele>1049.0</ele><time>2026-04-04T13:19:01Z</time></trkpt><trkpt lat="45.95366056345198" lon="10.212469373396011"><ele>1047.5</ele><time>2026-04-04T13:19:02Z</time></trkpt><trkpt lat="45.95367190558021" lon="10.212303119717623"><ele>1046.0</ele><time>2026-04-04T13:19:04Z</time></trkpt><trkpt lat="45.95371827640895" lon="10.21211709067171"><ele>1042.8333333333335</ele><time>2026-04-04T13:19:06Z</time></trkpt><trkpt lat="45.9537305055585" lon="10.211982241814212"><ele>1039.6666666666667</ele><time>2026-04-04T13:19:07Z</time></trkpt><trkpt lat="45.95372528267681" lon="10.211842729842802"><ele>1036.5</ele><time>2026-04-04T13:19:08Z</time></trkpt><trkpt lat="45.95372473692416" lon="10.21171561493912"><ele>1033.3333333333333</ele><time>2026-04-04T13:19:09Z</time></trkpt><trkpt lat="45.95371266754499" lon="10.211599329014355"><ele>1030.1666666666665</ele><time>2026-04-04T13:19:10Z</time></trkpt><trkpt lat="45.95368961722434" lon="10.21150080549377"><ele>1027.0</ele><time>2026-04-04T13:19:11Z</time></trkpt><trkpt lat="45.95365063032048" lon="10.2114269743273"><ele>1023.6</ele><time>2026-04-04T13:19:12Z</time></trkpt><trkpt lat="45.953536364962865" lon="10.211364465396933"><ele>1020.2</ele><time>2026-04-04T13:19:14Z</time></trkpt><trkpt lat="45.95344306845891" lon="10.211301949563786"><ele>1016.8</ele><time>2026-04-04T13:19:16Z</time></trkpt><trkpt lat="45.95338126657583" lon="10.21116867751152"><ele>1013.4</ele><time>2026-04-04T13:19:18Z</time></trkpt><trkpt lat="45.95331856997325" lon="10.21106004135445"><ele>1010.0</ele><time>2026-04-04T13:19:20Z</time></trkpt><trkpt lat="45.953259796148046" lon="10.210972180524132"><ele>1004.1666666666667</ele><time>2026-04-04T13:19:23Z</time></trkpt><trkpt lat="45.95319640814157" lon="10.210953942661934"><ele>998.3333333333334</ele><time>2026-04-04T13:19:27Z</time></trkpt><trkpt lat="45.95313459381916" lon="10.210996451627798"><ele>992.5</ele><time>2026-04-04T13:19:30Z</time></trkpt><trkpt lat="45.95305978610437" lon="10.21098146884757"><ele>986.6666666666667</ele><time>2026-04-04T13:19:32Z</time></trkpt><trkpt lat="45.952981728809895" lon="10.21092430376081"><ele>980.8333333333334</ele><time>2026-04-04T13:19:34Z</time></trkpt><trkpt lat="45.95289819375409" lon="10.210841578429442"><ele>975.0</ele><time>2026-04-04T13:19:36Z</time></trkpt><trkpt lat="45.95282209971463" lon="10.210797840816156"><ele>975.0</ele><time>2026-04-04T13:19:38Z</time></trkpt><trkpt lat="45.95273927287928" lon="10.210780410890171"><ele>975.0</ele><time>2026-04-04T13:19:40Z</time></trkpt><trkpt lat="45.95265938784208" lon="10.210740318508202"><ele>975.0</ele><time>2026-04-04T13:19:42Z</time></trkpt><trkpt lat="45.95259521209614" lon="10.21068604689073"><ele>975.0</ele><time>2026-04-04T13:19:44Z</time></trkpt><trkpt lat="45.95259329275486" lon="10.210592304754195"><ele>975.0</ele><time>2026-04-04T13:19:46Z</time></trkpt><trkpt lat="45.95266659100993" lon="10.21044491230798"><ele>975.0</ele><time>2026-04-04T13:19:48Z</time></trkpt><trkpt lat="45.95272104590858" lon="10.210373632560616"><ele>973.2</ele><time>2026-04-04T13:19:49Z</time></trkpt><trkpt lat="45.95277677739889" lon="10.210318978746969"><ele>971.4</ele><time>2026-04-04T13:19:50Z</time></trkpt><trkpt lat="45.952834319981925" lon="10.2101758591875"><ele>969.5999999999999</ele><time>2026-04-04T13:19:52Z</time></trkpt><trkpt lat="45.95287421563579" lon="10.21003520365492"><ele>967.8</ele><time>2026-04-04T13:19:54Z</time></trkpt><trkpt lat="45.95280718647536" lon="10.209947102251158"><ele>966.0</ele><time>2026-04-04T13:19:55Z</time></trkpt><trkpt lat="45.95275523537166" lon="10.209872213802223"><ele>965.4285714285714</ele><time>2026-04-04T13:19:56Z</time></trkpt><trkpt lat="45.95269806695378" lon="10.2097910462611"><ele>964.8571428571429</ele><time>2026-04-04T13:19:57Z</time></trkpt><trkpt lat="45.952646183186005" lon="10.209711744886922"><ele>964.2857142857142</ele><time>2026-04-04T13:19:58Z</time></trkpt><trkpt lat="45.95259855851463" lon="10.209647894756866"><ele>963.7142857142857</ele><time>2026-04-04T13:19:59Z</time></trkpt><trkpt lat="45.95254649063247" lon="10.209596595160324"><ele>963.1428571428571</ele><time>2026-04-04T13:20:00Z</time></trkpt><trkpt lat="45.95248744561348" lon="10.20953044892149"><ele>962.5714285714284</ele><time>2026-04-04T13:20:01Z</time></trkpt><trkpt lat="45.95240028367522" lon="10.209520911591207"><ele>961.9999999999999</ele><time>2026-04-04T13:20:02Z</time></trkpt><trkpt lat="45.95232930188642" lon="10.209485692006737"><ele>957.4000000000001</ele><time>2026-04-04T13:20:03Z</time></trkpt><trkpt lat="45.95226407064974" lon="10.209360150033683"><ele>952.8000000000001</ele><time>2026-04-04T13:20:05Z</time></trkpt><trkpt lat="45.952294209417374" lon="10.209256940690352"><ele>948.2</ele><time>2026-04-04T13:20:06Z</time></trkpt><trkpt lat="45.95235706632068" lon="10.209129885914223"><ele>943.6</ele><time>2026-04-04T13:20:07Z</time></trkpt><trkpt lat="45.95241810817502" lon="10.208971881068832"><ele>939.0</ele><time>2026-04-04T13:20:08Z</time></trkpt><trkpt lat="45.952476615367004" lon="10.208801161725416"><ele>937.6</ele><time>2026-04-04T13:20:09Z</time></trkpt><trkpt lat="45.95252375532649" lon="10.208645927729574"><ele>936.2</ele><time>2026-04-04T13:20:10Z</time></trkpt><trkpt lat="45.95256005934726" lon="10.208511881598756"><ele>934.8000000000001</ele><time>2026-04-04T13:20:11Z</time></trkpt><trkpt lat="45.95258351712661" lon="10.20840362371223"><ele>933.4000000000001</ele><time>2026-04-04T13:20:12Z</time></trkpt><trkpt lat="45.95259802925162" lon="10.208310907857395"><ele>932.0</ele><time>2026-04-04T13:20:13Z</time></trkpt><trkpt lat="45.952620322987585" lon="10.2081592745192"><ele>931.3333333333334</ele><time>2026-04-04T13:20:15Z</time></trkpt><trkpt lat="45.9525811738648" lon="10.20807077920196"><ele>930.6666666666667</ele><time>2026-04-04T13:20:22Z</time></trkpt><trkpt lat="45.95252567867774" lon="10.208019238832176"><ele>930.0</ele><time>2026-04-04T13:20:25Z</time></trkpt><trkpt lat="45.95249210320303" lon="10.207866944452903"><ele>929.3333333333333</ele><time>2026-04-04T13:20:27Z</time></trkpt><trkpt lat="45.95245706885661" lon="10.207785834054075"><ele>928.6666666666666</ele><time>2026-04-04T13:20:28Z</time></trkpt><trkpt lat="45.95241123649117" lon="10.207720652317708"><ele>928.0</ele><time>2026-04-04T13:20:29Z</time></trkpt><trkpt lat="45.95228301691437" lon="10.207706909966886"><ele>927.9999999999999</ele><time>2026-04-04T13:20:31Z</time></trkpt><trkpt lat="45.95220536515044" lon="10.20773840995523"><ele>928.0</ele><time>2026-04-04T13:20:32Z</time></trkpt><trkpt lat="45.95212584991123" lon="10.207785477419"><ele>928.0</ele><time>2026-04-04T13:20:33Z</time></trkpt><trkpt lat="45.95204507145047" lon="10.207819418560106"><ele>928.0</ele><time>2026-04-04T13:20:34Z</time></trkpt><trkpt lat="45.95195194433863" lon="10.207835557522023"><ele>927.9999999999999</ele><time>2026-04-04T13:20:35Z</time></trkpt><trkpt lat="45.95184991590452" lon="10.207837914649474"><ele>928.0</ele><time>2026-04-04T13:20:36Z</time></trkpt><trkpt lat="45.95175104863435" lon="10.207841066563509"><ele>923.25</ele><time>2026-04-04T13:20:37Z</time></trkpt><trkpt lat="45.95164501930184" lon="10.207841226313004"><ele>918.5</ele><time>2026-04-04T13:20:38Z</time></trkpt><trkpt lat="45.95153158001169" lon="10.207850544544248"><ele>913.75</ele><time>2026-04-04T13:20:39Z</time></trkpt><trkpt lat="45.95141725016634" lon="10.207874415741555"><ele>909.0</ele><time>2026-04-04T13:20:40Z</time></trkpt><trkpt lat="45.95130462104197" lon="10.207924534542787"><ele>909.0</ele><time>2026-04-04T13:20:41Z</time></trkpt><trkpt lat="45.95119186169153" lon="10.207981650906103"><ele>909.0</ele><time>2026-04-04T13:20:42Z</time></trkpt><trkpt lat="45.95108369516398" lon="10.20802563083646"><ele>909.0</ele><time>2026-04-04T13:20:43Z</time></trkpt><trkpt lat="45.95097419302591" lon="10.208075379756663"><ele>909.0</ele><time>2026-04-04T13:20:44Z</time></trkpt><trkpt lat="45.95087072073544" lon="10.208136446821822"><ele>905.25</ele><time>2026-04-04T13:20:45Z</time></trkpt><trkpt lat="45.950752287374534" lon="10.208169434518558"><ele>901.5</ele><time>2026-04-04T13:20:46Z</time></trkpt><trkpt lat="45.95063599708432" lon="10.208208000400738"><ele>897.75</ele><time>2026-04-04T13:20:47Z</time></trkpt><trkpt lat="45.950512119705216" lon="10.208235374856315"><ele>894.0</ele><time>2026-04-04T13:20:48Z</time></trkpt><trkpt lat="45.950387971127086" lon="10.208283711327654"><ele>894.0</ele><time>2026-04-04T13:20:49Z</time></trkpt><trkpt lat="45.95026360199238" lon="10.208333848743273"><ele>894.0</ele><time>2026-04-04T13:20:50Z</time></trkpt><trkpt lat="45.95013404110464" lon="10.20836531507106"><ele>894.0</ele><time>2026-04-04T13:20:51Z</time></trkpt><trkpt lat="45.950014017481166" lon="10.208394034169238"><ele>894.0</ele><time>2026-04-04T13:20:52Z</time></trkpt><trkpt lat="45.949900789002726" lon="10.208413368366989"><ele>890.2</ele><time>2026-04-04T13:20:53Z</time></trkpt><trkpt lat="45.94980036751455" lon="10.208431757021144"><ele>886.4000000000001</ele><time>2026-04-04T13:20:54Z</time></trkpt><trkpt lat="45.949707124144176" lon="10.208451893176154"><ele>882.6</ele><time>2026-04-04T13:20:55Z</time></trkpt><trkpt lat="45.949623944420395" lon="10.20850795046552"><ele>878.8</ele><time>2026-04-04T13:20:56Z</time></trkpt><trkpt lat="45.94956693434938" lon="10.208615551956044"><ele>875.0</ele><time>2026-04-04T13:20:57Z</time></trkpt><trkpt lat="45.94954623802844" lon="10.208740417953134"><ele>875.0</ele><time>2026-04-04T13:20:58Z</time></trkpt><trkpt lat="45.949556351271255" lon="10.208849363061207"><ele>875.0</ele><time>2026-04-04T13:20:59Z</time></trkpt><trkpt lat="45.949534545992215" lon="10.20900508890618"><ele>875.0</ele><time>2026-04-04T13:21:01Z</time></trkpt><trkpt lat="45.949510116068275" lon="10.209146767665805"><ele>875.0</ele><time>2026-04-04T13:21:03Z</time></trkpt><trkpt lat="45.94941745499806" lon="10.209079106460075"><ele>875.0</ele><time>2026-04-04T13:21:06Z</time></trkpt><trkpt lat="45.94938956099338" lon="10.208989536767012"><ele>875.0000000000001</ele><time>2026-04-04T13:21:07Z</time></trkpt><trkpt lat="45.949371449094095" lon="10.208880898746123"><ele>875.0</ele><time>2026-04-04T13:21:08Z</time></trkpt><trkpt lat="45.94936257312491" lon="10.208787245243697"><ele>875.0</ele><time>2026-04-04T13:21:09Z</time></trkpt><trkpt lat="45.94938170268828" lon="10.208675739394167"><ele>875.0</ele><time>2026-04-04T13:21:10Z</time></trkpt><trkpt lat="45.94940276307274" lon="10.208549476422066"><ele>875.0000000000001</ele><time>2026-04-04T13:21:11Z</time></trkpt><trkpt lat="45.949451364869006" lon="10.208449158860477"><ele>875.0</ele><time>2026-04-04T13:21:12Z</time></trkpt><trkpt lat="45.94949971628296" lon="10.208358975062556"><ele>875.0000000000001</ele><time>2026-04-04T13:21:13Z</time></trkpt><trkpt lat="45.94956598449363" lon="10.208256103454085"><ele>875.0</ele><time>2026-04-04T13:21:14Z</time></trkpt><trkpt lat="45.949615527667" lon="10.208163327319653"><ele>875.0</ele><time>2026-04-04T13:21:15Z</time></trkpt><trkpt lat="45.94967153775902" lon="10.208075522247862"><ele>875.0</ele><time>2026-04-04T13:21:16Z</time></trkpt><trkpt lat="45.9497105677611" lon="10.207985596442551"><ele>875.0000000000001</ele><time>2026-04-04T13:21:17Z</time></trkpt><trkpt lat="45.949748257541174" lon="10.207898186202872"><ele>875.0</ele><time>2026-04-04T13:21:18Z</time></trkpt><trkpt lat="45.94970527806979" lon="10.207747518600573"><ele>874.2</ele><time>2026-04-04T13:21:20Z</time></trkpt><trkpt lat="45.9496333571686" lon="10.207700558093961"><ele>873.4</ele><time>2026-04-04T13:21:21Z</time></trkpt><trkpt lat="45.94953665650925" lon="10.207641218798276"><ele>872.5999999999999</ele><time>2026-04-04T13:21:22Z</time></trkpt><trkpt lat="45.949434673331346" lon="10.207569819527345"><ele>871.8</ele><time>2026-04-04T13:21:23Z</time></trkpt><trkpt lat="45.949345758748436" lon="10.207518949910924"><ele>871.0</ele><time>2026-04-04T13:21:24Z</time></trkpt><trkpt lat="45.9492550731493" lon="10.207481098679564"><ele>870.1999999999999</ele><time>2026-04-04T13:21:25Z</time></trkpt><trkpt lat="45.949183358448515" lon="10.207457490110993"><ele>869.3999999999999</ele><time>2026-04-04T13:21:26Z</time></trkpt><trkpt lat="45.949075910257825" lon="10.20740754718397"><ele>868.6</ele><time>2026-04-04T13:21:28Z</time></trkpt><trkpt lat="45.948978588663785" lon="10.207379967835925"><ele>867.8</ele><time>2026-04-04T13:21:29Z</time></trkpt><trkpt lat="45.948880078272715" lon="10.207352220157482"><ele>867.0</ele><time>2026-04-04T13:21:30Z</time></trkpt><trkpt lat="45.94882547657643" lon="10.207135570910603"><ele>869.0</ele><time>2026-04-04T13:21:31Z</time></trkpt><trkpt lat="45.948737293677276" lon="10.207010652225911"><ele>871.0</ele><time>2026-04-04T13:21:32Z</time></trkpt><trkpt lat="45.9486615642296" lon="10.206879777478024"><ele>873.0</ele><time>2026-04-04T13:21:33Z</time></trkpt><trkpt lat="45.948592531549465" lon="10.206775713122832"><ele>875.0</ele><time>2026-04-04T13:21:34Z</time></trkpt><trkpt lat="45.94851011841279" lon="10.20674990969701"><ele>877.0</ele><time>2026-04-04T13:21:35Z</time></trkpt><trkpt lat="45.94843417795844" lon="10.206778854327624"><ele>876.25</ele><time>2026-04-04T13:21:36Z</time></trkpt><trkpt lat="45.94832537564992" lon="10.206838992300376"><ele>875.5</ele><time>2026-04-04T13:21:37Z</time></trkpt><trkpt lat="45.94820855780624" lon="10.206898545657646"><ele>874.75</ele><time>2026-04-04T13:21:38Z</time></trkpt><trkpt lat="45.94808213953062" lon="10.20697126779117"><ele>874.0</ele><time>2026-04-04T13:21:39Z</time></trkpt><trkpt lat="45.94797735364776" lon="10.207057910281403"><ele>874.0</ele><time>2026-04-04T13:21:40Z</time></trkpt><trkpt lat="45.94790156777643" lon="10.20715433073193"><ele>874.0000000000001</ele><time>2026-04-04T13:21:41Z</time></trkpt><trkpt lat="45.94783955736856" lon="10.207286435355908"><ele>874.0000000000001</ele><time>2026-04-04T13:21:42Z</time></trkpt><trkpt lat="45.94777256364536" lon="10.207397047564237"><ele>874.0</ele><time>2026-04-04T13:21:43Z</time></trkpt><trkpt lat="45.94771921089244" lon="10.207516592153317"><ele>874.0</ele><time>2026-04-04T13:21:44Z</time></trkpt><trkpt lat="45.94766214012939" lon="10.20762658830305"><ele>874.3333333333333</ele><time>2026-04-04T13:21:45Z</time></trkpt><trkpt lat="45.947613647134006" lon="10.207716554926357"><ele>874.6666666666666</ele><time>2026-04-04T13:21:46Z</time></trkpt><trkpt lat="45.94756690053313" lon="10.207802321254297"><ele>875.0</ele><time>2026-04-04T13:21:47Z</time></trkpt><trkpt lat="45.947513020487555" lon="10.20789509387582"><ele>875.3333333333333</ele><time>2026-04-04T13:21:48Z</time></trkpt><trkpt lat="45.9474538939404" lon="10.207988978704542"><ele>875.6666666666666</ele><time>2026-04-04T13:21:49Z</time></trkpt><trkpt lat="45.9473900478047" lon="10.2080574226862"><ele>876.0</ele><time>2026-04-04T13:21:50Z</time></trkpt><trkpt lat="45.947329113328706" lon="10.20810936088748"><ele>875.1428571428572</ele><time>2026-04-04T13:21:51Z</time></trkpt><trkpt lat="45.94726942174754" lon="10.208162570676802"><ele>874.2857142857142</ele><time>2026-04-04T13:21:52Z</time></trkpt><trkpt lat="45.947207903103134" lon="10.20821349483746"><ele>873.4285714285714</ele><time>2026-04-04T13:21:53Z</time></trkpt><trkpt lat="45.94715068126612" lon="10.208279191466893"><ele>872.5714285714287</ele><time>2026-04-04T13:21:54Z</time></trkpt><trkpt lat="45.94708524728723" lon="10.208332219444141"><ele>871.7142857142858</ele><time>2026-04-04T13:21:55Z</time></trkpt><trkpt lat="45.947019797497106" lon="10.208377084995114"><ele>870.8571428571429</ele><time>2026-04-04T13:21:56Z</time></trkpt><trkpt lat="45.94696255659211" lon="10.2084436613412"><ele>870.0</ele><time>2026-04-04T13:21:57Z</time></trkpt><trkpt lat="45.94689313703501" lon="10.208490035716176"><ele>870.0</ele><time>2026-04-04T13:21:58Z</time></trkpt><trkpt lat="45.946825371369044" lon="10.208506782791858"><ele>870.0</ele><time>2026-04-04T13:21:59Z</time></trkpt><trkpt lat="45.94675465818524" lon="10.208503794276275"><ele>870.0</ele><time>2026-04-04T13:22:00Z</time></trkpt><trkpt lat="45.94667941876533" lon="10.208440548716197"><ele>870.0</ele><time>2026-04-04T13:22:01Z</time></trkpt><trkpt lat="45.94663336189103" lon="10.20833756942694"><ele>870.0</ele><time>2026-04-04T13:22:02Z</time></trkpt><trkpt lat="45.94657838663006" lon="10.208252303007182"><ele>870.0</ele><time>2026-04-04T13:22:03Z</time></trkpt><trkpt lat="45.946543585173174" lon="10.20813924072543"><ele>872.4</ele><time>2026-04-04T13:22:04Z</time></trkpt><trkpt lat="45.946517711330806" lon="10.20803879061307"><ele>874.8</ele><time>2026-04-04T13:22:05Z</time></trkpt><trkpt lat="45.946484056814796" lon="10.207937834202097"><ele>877.2</ele><time>2026-04-04T13:22:06Z</time></trkpt><trkpt lat="45.946452422148965" lon="10.207815833036836"><ele>879.6</ele><time>2026-04-04T13:22:07Z</time></trkpt><trkpt lat="45.94641391344663" lon="10.207677554405604"><ele>882.0</ele><time>2026-04-04T13:22:08Z</time></trkpt><trkpt lat="45.946381274254485" lon="10.20752341436074"><ele>882.0</ele><time>2026-04-04T13:22:09Z</time></trkpt><trkpt lat="45.946361095298414" lon="10.207368198381781"><ele>882.0</ele><time>2026-04-04T13:22:10Z</time></trkpt><trkpt lat="45.94634529186133" lon="10.207230754672288"><ele>882.0</ele><time>2026-04-04T13:22:11Z</time></trkpt><trkpt lat="45.946341221794796" lon="10.20709837934729"><ele>882.0</ele><time>2026-04-04T13:22:12Z</time></trkpt><trkpt lat="45.94635025790749" lon="10.206969144212286"><ele>882.0</ele><time>2026-04-04T13:22:13Z</time></trkpt><trkpt lat="45.946359319371474" lon="10.206844245209933"><ele>882.0</ele><time>2026-04-04T13:22:14Z</time></trkpt><trkpt lat="45.94637411791076" lon="10.206732385685596"><ele>882.0</ele><time>2026-04-04T13:22:15Z</time></trkpt><trkpt lat="45.94638422188791" lon="10.206632512663278"><ele>882.0</ele><time>2026-04-04T13:22:16Z</time></trkpt><trkpt lat="45.94639620770153" lon="10.20653024625851"><ele>882.0</ele><time>2026-04-04T13:22:17Z</time></trkpt><trkpt lat="45.946413736164054" lon="10.206429198404614"><ele>882.0</ele><time>2026-04-04T13:22:18Z</time></trkpt><trkpt lat="45.94643309327078" lon="10.206338329861094"><ele>882.0</ele><time>2026-04-04T13:22:19Z</time></trkpt><trkpt lat="45.946504154922714" lon="10.206202694304102"><ele>881.6</ele><time>2026-04-04T13:22:21Z</time></trkpt><trkpt lat="45.9465579601273" lon="10.20614581973905"><ele>881.2</ele><time>2026-04-04T13:22:22Z</time></trkpt><trkpt lat="45.94659296066189" lon="10.206067896461139"><ele>880.8</ele><time>2026-04-04T13:22:23Z</time></trkpt><trkpt lat="45.946600824752444" lon="10.205886775939414"><ele>880.4</ele><time>2026-04-04T13:22:25Z</time></trkpt><trkpt lat="45.946621439397745" lon="10.205716737287682"><ele>880.0</ele><time>2026-04-04T13:22:27Z</time></trkpt><trkpt lat="45.94665257629902" lon="10.205563902267482"><ele>880.0</ele><time>2026-04-04T13:22:29Z</time></trkpt><trkpt lat="45.94669821874969" lon="10.20545062541731"><ele>880.0</ele><time>2026-04-04T13:22:31Z</time></trkpt><trkpt lat="45.94671094535775" lon="10.205317769623392"><ele>880.0</ele><time>2026-04-04T13:22:33Z</time></trkpt><trkpt lat="45.94660161865896" lon="10.205169908117073"><ele>880.0</ele><time>2026-04-04T13:22:34.999Z</time></trkpt><trkpt lat="45.946539769788465" lon="10.205093326326924"><ele>880.0</ele><time>2026-04-04T13:22:35.999Z</time></trkpt><trkpt lat="45.94647920482735" lon="10.205023769717982"><ele>879.9999999999999</ele><time>2026-04-04T13:22:36.999Z</time></trkpt><trkpt lat="45.94641043686808" lon="10.204953797963215"><ele>880.0</ele><time>2026-04-04T13:22:37.999Z</time></trkpt><trkpt lat="45.94634618081716" lon="10.204883529978183"><ele>880.0</ele><time>2026-04-04T13:22:38.999Z</time></trkpt><trkpt lat="45.94626867834322" lon="10.204832471412288"><ele>880.0</ele><time>2026-04-04T13:22:39.999Z</time></trkpt><trkpt lat="45.946196890461515" lon="10.204745275971126"><ele>879.9999999999999</ele><time>2026-04-04T13:22:40.999Z</time></trkpt><trkpt lat="45.94611328995868" lon="10.204657619421583"><ele>880.0</ele><time>2026-04-04T13:22:41.999Z</time></trkpt><trkpt lat="45.9460190553852" lon="10.204566205488614"><ele>879.0</ele><time>2026-04-04T13:22:42.999Z</time></trkpt><trkpt lat="45.94593441191821" lon="10.204459189635383"><ele>878.0</ele><time>2026-04-04T13:22:43.999Z</time></trkpt><trkpt lat="45.945858960037114" lon="10.204350807121436"><ele>877.0</ele><time>2026-04-04T13:22:45Z</time></trkpt><trkpt lat="45.94578780698185" lon="10.204258963588012"><ele>876.0</ele><time>2026-04-04T13:22:46Z</time></trkpt><trkpt lat="45.94571869041105" lon="10.20415880506331"><ele>875.0</ele><time>2026-04-04T13:22:47Z</time></trkpt><trkpt lat="45.945634540647326" lon="10.204040565055157"><ele>876.75</ele><time>2026-04-04T13:22:48Z</time></trkpt><trkpt lat="45.94552268140628" lon="10.203902044365899"><ele>878.5</ele><time>2026-04-04T13:22:49Z</time></trkpt><trkpt lat="45.94542348670646" lon="10.203747934688476"><ele>880.25</ele><time>2026-04-04T13:22:50Z</time></trkpt><trkpt lat="45.945330449566995" lon="10.203618625106182"><ele>882.0</ele><time>2026-04-04T13:22:51Z</time></trkpt><trkpt lat="45.94525342841736" lon="10.20350739051921"><ele>882.0</ele><time>2026-04-04T13:22:52Z</time></trkpt><trkpt lat="45.9451829405996" lon="10.20340696278807"><ele>882.0</ele><time>2026-04-04T13:22:53Z</time></trkpt><trkpt lat="45.9451337361518" lon="10.203326026772753"><ele>882.0</ele><time>2026-04-04T13:22:54Z</time></trkpt><trkpt lat="45.94507732068072" lon="10.203255984580432"><ele>882.0</ele><time>2026-04-04T13:22:55Z</time></trkpt><trkpt lat="45.945028840732235" lon="10.20317624683386"><ele>882.0</ele><time>2026-04-04T13:22:56Z</time></trkpt><trkpt lat="45.94497963948013" lon="10.20309128673009"><ele>882.0</ele><time>2026-04-04T13:22:57Z</time></trkpt><trkpt lat="45.944929715542585" lon="10.20299884406744"><ele>880.2</ele><time>2026-04-04T13:22:58Z</time></trkpt><trkpt lat="45.94488438383039" lon="10.202895482995293"><ele>878.4000000000001</ele><time>2026-04-04T13:22:59Z</time></trkpt><trkpt lat="45.9448144215197" lon="10.202804524530436"><ele>876.5999999999999</ele><time>2026-04-04T13:23:00Z</time></trkpt><trkpt lat="45.94478852169668" lon="10.202672622211844"><ele>874.8</ele><time>2026-04-04T13:23:01Z</time></trkpt><trkpt lat="45.94473782692204" lon="10.202558966898426"><ele>873.0</ele><time>2026-04-04T13:23:02Z</time></trkpt><trkpt lat="45.94467814089367" lon="10.20243204690706"><ele>873.4</ele><time>2026-04-04T13:23:03Z</time></trkpt><trkpt lat="45.94462280529297" lon="10.202310464778977"><ele>873.8</ele><time>2026-04-04T13:23:04Z</time></trkpt><trkpt lat="45.94457576975818" lon="10.202187815952938"><ele>874.2</ele><time>2026-04-04T13:23:05Z</time></trkpt><trkpt lat="45.9445287398006" lon="10.20206602294526"><ele>874.6</ele><time>2026-04-04T13:23:06Z</time></trkpt><trkpt lat="45.944485341772385" lon="10.201922873888858"><ele>875.0</ele><time>2026-04-04T13:23:07Z</time></trkpt><trkpt lat="45.94443264137644" lon="10.201754907211493"><ele>875.0</ele><time>2026-04-04T13:23:08Z</time></trkpt><trkpt lat="45.94437642247987" lon="10.201545350568622"><ele>875.0</ele><time>2026-04-04T13:23:09Z</time></trkpt><trkpt lat="45.94433679599157" lon="10.201344074046931"><ele>875.0</ele><time>2026-04-04T13:23:10Z</time></trkpt><trkpt lat="45.94429558391023" lon="10.201160359246787"><ele>875.0</ele><time>2026-04-04T13:23:11Z</time></trkpt><trkpt lat="45.94426307669037" lon="10.200990968377589"><ele>875.0</ele><time>2026-04-04T13:23:12Z</time></trkpt><trkpt lat="45.944241180421514" lon="10.200830513148592"><ele>875.0</ele><time>2026-04-04T13:23:13Z</time></trkpt><trkpt lat="45.94423410280543" lon="10.200667415394364"><ele>875.0</ele><time>2026-04-04T13:23:14Z</time></trkpt><trkpt lat="45.9442196331448" lon="10.200509841515345"><ele>875.0</ele><time>2026-04-04T13:23:15Z</time></trkpt><trkpt lat="45.94421071106504" lon="10.200367775402254"><ele>875.0</ele><time>2026-04-04T13:23:16Z</time></trkpt><trkpt lat="45.94418776936473" lon="10.20023993649365"><ele>873.0000000000001</ele><time>2026-04-04T13:23:17Z</time></trkpt><trkpt lat="45.94416600897766" lon="10.2001279480564"><ele>871.0</ele><time>2026-04-04T13:23:18Z</time></trkpt><trkpt lat="45.94412054392906" lon="10.200055164803006"><ele>869.0</ele><time>2026-04-04T13:23:19Z</time></trkpt><trkpt lat="45.94401284338198" lon="10.199985463896033"><ele>867.0</ele><time>2026-04-04T13:23:21Z</time></trkpt><trkpt lat="45.943947273022" lon="10.2000109222534"><ele>865.0000000000001</ele><time>2026-04-04T13:23:22Z</time></trkpt><trkpt lat="45.94386397761021" lon="10.200070158381626"><ele>863.0</ele><time>2026-04-04T13:23:24Z</time></trkpt><trkpt lat="45.94380141673646" lon="10.200023338921167"><ele>863.0000000000001</ele><time>2026-04-04T13:23:26Z</time></trkpt><trkpt lat="45.94375128207632" lon="10.199945562247922"><ele>863.0</ele><time>2026-04-04T13:23:28Z</time></trkpt><trkpt lat="45.94370933236833" lon="10.199865759668619"><ele>863.0</ele><time>2026-04-04T13:23:31Z</time></trkpt><trkpt lat="45.94366074916088" lon="10.199807145296958"><ele>863.0</ele><time>2026-04-04T13:23:33Z</time></trkpt><trkpt lat="45.943603881702586" lon="10.199750323191846"><ele>863.0000000000001</ele><time>2026-04-04T13:23:35Z</time></trkpt><trkpt lat="45.94367955395041" lon="10.199542542010022"><ele>863.0</ele><time>2026-04-04T13:23:38Z</time></trkpt><trkpt lat="45.943678699674706" lon="10.199437661459713"><ele>863.4</ele><time>2026-04-04T13:23:42Z</time></trkpt><trkpt lat="45.94362668301274" lon="10.199314250340578"><ele>863.8</ele><time>2026-04-04T13:23:45Z</time></trkpt><trkpt lat="45.94358115285107" lon="10.199157895086724"><ele>864.2</ele><time>2026-04-04T13:23:47Z</time></trkpt><trkpt lat="45.94357000376055" lon="10.199037383923498"><ele>864.6</ele><time>2026-04-04T13:23:49Z</time></trkpt><trkpt lat="45.943633364870244" lon="10.198982748501187"><ele>865.0</ele><time>2026-04-04T13:23:51Z</time></trkpt><trkpt lat="45.94364129549544" lon="10.198855543800972"><ele>865.3333333333333</ele><time>2026-04-04T13:23:53Z</time></trkpt><trkpt lat="45.94359921699265" lon="10.1987373465049"><ele>865.6666666666666</ele><time>2026-04-04T13:23:55Z</time></trkpt><trkpt lat="45.94358135219384" lon="10.198629216329365"><ele>866.0</ele><time>2026-04-04T13:23:56Z</time></trkpt><trkpt lat="45.94356044877424" lon="10.198519656209577"><ele>866.3333333333333</ele><time>2026-04-04T13:23:57Z</time></trkpt><trkpt lat="45.94352847940974" lon="10.198408985958384"><ele>866.6666666666666</ele><time>2026-04-04T13:23:58Z</time></trkpt><trkpt lat="45.943492156845345" lon="10.198305909814646"><ele>867.0</ele><time>2026-04-04T13:23:59Z</time></trkpt><trkpt lat="45.943447347423366" lon="10.198185180314558"><ele>867.6</ele><time>2026-04-04T13:24:00Z</time></trkpt><trkpt lat="45.943389245967225" lon="10.198072025282498"><ele>868.2</ele><time>2026-04-04T13:24:01Z</time></trkpt><trkpt lat="45.94334918141627" lon="10.19799597422414"><ele>868.8</ele><time>2026-04-04T13:24:02Z</time></trkpt><trkpt lat="45.94325086144441" lon="10.197910212306624"><ele>869.4</ele><time>2026-04-04T13:24:04Z</time></trkpt><trkpt lat="45.943175420738555" lon="10.19777363753509"><ele>870.0</ele><time>2026-04-04T13:24:06Z</time></trkpt><trkpt lat="45.94312419244564" lon="10.197583754745217"><ele>870.0</ele><time>2026-04-04T13:24:08Z</time></trkpt><trkpt lat="45.94308325491104" lon="10.197466750632227"><ele>870.0</ele><time>2026-04-04T13:24:09Z</time></trkpt><trkpt lat="45.943014251653906" lon="10.197380247847553"><ele>870.0</ele><time>2026-04-04T13:24:10Z</time></trkpt><trkpt lat="45.94296640373868" lon="10.197298412432847"><ele>870.0</ele><time>2026-04-04T13:24:11Z</time></trkpt><trkpt lat="45.94290279149237" lon="10.19721989272"><ele>870.0</ele><time>2026-04-04T13:24:12Z</time></trkpt><trkpt lat="45.942851517855715" lon="10.19715813308833"><ele>870.0</ele><time>2026-04-04T13:24:13Z</time></trkpt><trkpt lat="45.94279129902765" lon="10.197076874908609"><ele>871.6</ele><time>2026-04-04T13:24:14Z</time></trkpt><trkpt lat="45.942733147686006" lon="10.196993880632508"><ele>873.2</ele><time>2026-04-04T13:24:15Z</time></trkpt><trkpt lat="45.94268256328561" lon="10.196929218615882"><ele>874.8</ele><time>2026-04-04T13:24:16Z</time></trkpt><trkpt lat="45.94262092023499" lon="10.196760481058766"><ele>876.4</ele><time>2026-04-04T13:24:18Z</time></trkpt><trkpt lat="45.94261518290246" lon="10.196662423785657"><ele>878.0</ele><time>2026-04-04T13:24:19Z</time></trkpt><trkpt lat="45.942607931500646" lon="10.196491306952113"><ele>879.1666666666667</ele><time>2026-04-04T13:24:21Z</time></trkpt><trkpt lat="45.94259177611072" lon="10.196387306131536"><ele>880.3333333333334</ele><time>2026-04-04T13:24:22Z</time></trkpt><trkpt lat="45.94257994476834" lon="10.196288859073446"><ele>881.5</ele><time>2026-04-04T13:24:23Z</time></trkpt><trkpt lat="45.942572656926416" lon="10.196175751058448"><ele>882.6666666666667</ele><time>2026-04-04T13:24:24Z</time></trkpt><trkpt lat="45.94254186706708" lon="10.196016534175852"><ele>883.8333333333334</ele><time>2026-04-04T13:24:26Z</time></trkpt><trkpt lat="45.942505673969876" lon="10.195928744270583"><ele>885.0</ele><time>2026-04-04T13:24:27Z</time></trkpt><trkpt lat="45.94245369488077" lon="10.195785925365616"><ele>885.0</ele><time>2026-04-04T13:24:29Z</time></trkpt><trkpt lat="45.942407798296124" lon="10.19567383869233"><ele>885.0</ele><time>2026-04-04T13:24:31Z</time></trkpt><trkpt lat="45.942424484444174" lon="10.195534887940186"><ele>885.0</ele><time>2026-04-04T13:24:33Z</time></trkpt><trkpt lat="45.94244590667634" lon="10.195383750855592"><ele>885.0</ele><time>2026-04-04T13:24:35Z</time></trkpt><trkpt lat="45.942504537372336" lon="10.195260844908221"><ele>885.0</ele><time>2026-04-04T13:24:37Z</time></trkpt><trkpt lat="45.94253381322753" lon="10.19512384299312"><ele>886.1666666666666</ele><time>2026-04-04T13:24:39Z</time></trkpt><trkpt lat="45.942573606931745" lon="10.195018201404272"><ele>887.3333333333333</ele><time>2026-04-04T13:24:40.999Z</time></trkpt><trkpt lat="45.94260207062107" lon="10.194917926232126"><ele>888.5</ele><time>2026-04-04T13:24:43.999Z</time></trkpt><trkpt lat="45.942660152858664" lon="10.194817820499745"><ele>889.6666666666666</ele><time>2026-04-04T13:24:46.999Z</time></trkpt><trkpt lat="45.942677994198306" lon="10.194699520417695"><ele>890.8333333333333</ele><time>2026-04-04T13:24:48.999Z</time></trkpt><trkpt lat="45.94268761024458" lon="10.19456941182267"><ele>892.0</ele><time>2026-04-04T13:24:51Z</time></trkpt><trkpt lat="45.9426478889825" lon="10.194477247193861"><ele>892.9999999999999</ele><time>2026-04-04T13:24:53Z</time></trkpt><trkpt lat="45.94263141183333" lon="10.194376136984104"><ele>894.0</ele><time>2026-04-04T13:24:55Z</time></trkpt><trkpt lat="45.94259724354157" lon="10.194276241243719"><ele>895.0</ele><time>2026-04-04T13:24:58Z</time></trkpt><trkpt lat="45.94257695935313" lon="10.194164472774483"><ele>896.0</ele><time>2026-04-04T13:25:00Z</time></trkpt><trkpt lat="45.94257769671085" lon="10.194058233192004"><ele>896.9999999999999</ele><time>2026-04-04T13:25:03Z</time></trkpt><trkpt lat="45.94259607550142" lon="10.19397071135957"><ele>898.0</ele><time>2026-04-04T13:25:06Z</time></trkpt><trkpt lat="45.942570897039204" lon="10.193858133361257"><ele>899.2</ele><time>2026-04-04T13:25:08Z</time></trkpt><trkpt lat="45.94255940726522" lon="10.19361708563483"><ele>900.4</ele><time>2026-04-04T13:25:10Z</time></trkpt><trkpt lat="45.942563893343596" lon="10.193501498777339"><ele>901.6000000000001</ele><time>2026-04-04T13:25:12Z</time></trkpt><trkpt lat="45.9426013246905" lon="10.193386129204983"><ele>902.8000000000001</ele><time>2026-04-04T13:25:15Z</time></trkpt><trkpt lat="45.942637888493486" lon="10.193270011031522"><ele>904.0</ele><time>2026-04-04T13:25:17Z</time></trkpt><trkpt lat="45.94265835611348" lon="10.193140794520733"><ele>905.4999999999999</ele><time>2026-04-04T13:25:19Z</time></trkpt><trkpt lat="45.942645752298716" lon="10.193025519462218"><ele>907.0</ele><time>2026-04-04T13:25:21Z</time></trkpt><trkpt lat="45.94260174268698" lon="10.192947995830826"><ele>908.5</ele><time>2026-04-04T13:25:23Z</time></trkpt><trkpt lat="45.942615368599576" lon="10.192840461256106"><ele>910.0</ele><time>2026-04-04T13:25:25Z</time></trkpt><trkpt lat="45.94268636616319" lon="10.192921686732793"><ele>911.4999999999999</ele><time>2026-04-04T13:25:29Z</time></trkpt><trkpt lat="45.94269201478605" lon="10.193042412988525"><ele>913.0</ele><time>2026-04-04T13:25:31Z</time></trkpt><trkpt lat="45.94275189666056" lon="10.19308239569856"><ele>913.0</ele><time>2026-04-04T13:25:41Z</time></trkpt><trkpt lat="45.94277520459824" lon="10.192934532077023"><ele>913.0</ele><time>2026-04-04T13:25:43Z</time></trkpt><trkpt lat="45.942747417434774" lon="10.192804314861382"><ele>913.0</ele><time>2026-04-04T13:25:45Z</time></trkpt><trkpt lat="45.94271579221686" lon="10.192655250606947"><ele>913.0</ele><time>2026-04-04T13:25:47Z</time></trkpt><trkpt lat="45.942696759046115" lon="10.192544356310112"><ele>913.0</ele><time>2026-04-04T13:25:48Z</time></trkpt><trkpt lat="45.94268098892126" lon="10.192434289728238"><ele>912.3333333333333</ele><time>2026-04-04T13:25:49Z</time></trkpt><trkpt lat="45.94266759314028" lon="10.192330691067983"><ele>911.6666666666666</ele><time>2026-04-04T13:25:50Z</time></trkpt><trkpt lat="45.942656167623845" lon="10.19223593661758"><ele>911.0</ele><time>2026-04-04T13:25:51Z</time></trkpt><trkpt lat="45.94263474453652" lon="10.192069293992894"><ele>910.3333333333333</ele><time>2026-04-04T13:25:53Z</time></trkpt><trkpt lat="45.94259434099939" lon="10.191966965962594"><ele>909.6666666666666</ele><time>2026-04-04T13:25:55Z</time></trkpt><trkpt lat="45.942571469939026" lon="10.191877034662197"><ele>909.0</ele><time>2026-04-04T13:25:57Z</time></trkpt><trkpt lat="45.94254482246546" lon="10.191768383471256"><ele>909.0</ele><time>2026-04-04T13:25:59Z</time></trkpt><trkpt lat="45.94249480832347" lon="10.191694213524361"><ele>909.0</ele><time>2026-04-04T13:26:00Z</time></trkpt><trkpt lat="45.94239859392326" lon="10.191561361006537"><ele>909.0</ele><time>2026-04-04T13:26:02Z</time></trkpt><trkpt lat="45.94233570388036" lon="10.191366519328282"><ele>909.0</ele><time>2026-04-04T13:26:03Z</time></trkpt><trkpt lat="45.9423267415263" lon="10.191223450601136"><ele>911.2</ele><time>2026-04-04T13:26:04Z</time></trkpt><trkpt lat="45.942373695340436" lon="10.191017683638664"><ele>913.4000000000001</ele><time>2026-04-04T13:26:05Z</time></trkpt><trkpt lat="45.942386397851685" lon="10.190897533186202"><ele>915.6</ele><time>2026-04-04T13:26:06Z</time></trkpt><trkpt lat="45.9423893080506" lon="10.1907844132113"><ele>917.8</ele><time>2026-04-04T13:26:07Z</time></trkpt><trkpt lat="45.942394565749865" lon="10.19065082711164"><ele>920.0</ele><time>2026-04-04T13:26:08Z</time></trkpt><trkpt lat="45.94243113239544" lon="10.190482376412403"><ele>920.6</ele><time>2026-04-04T13:26:09Z</time></trkpt><trkpt lat="45.94246380245517" lon="10.1903093131266"><ele>921.2</ele><time>2026-04-04T13:26:10Z</time></trkpt><trkpt lat="45.94246524493175" lon="10.190159257420719"><ele>921.8</ele><time>2026-04-04T13:26:11Z</time></trkpt><trkpt lat="45.942477016398456" lon="10.190061590847364"><ele>922.4</ele><time>2026-04-04T13:26:12Z</time></trkpt><trkpt lat="45.94244294351908" lon="10.18995098648229"><ele>923.0</ele><time>2026-04-04T13:26:14Z</time></trkpt><trkpt lat="45.94242789044125" lon="10.189847606880592"><ele>925.0000000000001</ele><time>2026-04-04T13:26:16Z</time></trkpt><trkpt lat="45.942453513806306" lon="10.189750638752756"><ele>927.0</ele><time>2026-04-04T13:26:18Z</time></trkpt><trkpt lat="45.94243647697212" lon="10.189646787781284"><ele>929.0</ele><time>2026-04-04T13:26:20Z</time></trkpt><trkpt lat="45.94241165960251" lon="10.189539059593915"><ele>931.0</ele><time>2026-04-04T13:26:26Z</time></trkpt><trkpt lat="45.94238045760982" lon="10.189459154431981"><ele>933.0000000000001</ele><time>2026-04-04T13:26:31Z</time></trkpt><trkpt lat="45.94230608874373" lon="10.189459203361846"><ele>935.0</ele><time>2026-04-04T13:26:34Z</time></trkpt><trkpt lat="45.94220123681499" lon="10.189367514330172"><ele>935.0</ele><time>2026-04-04T13:26:37Z</time></trkpt><trkpt lat="45.942173479039575" lon="10.18920461792483"><ele>935.0</ele><time>2026-04-04T13:26:39Z</time></trkpt><trkpt lat="45.94209875951118" lon="10.188965324070125"><ele>935.0</ele><time>2026-04-04T13:26:41Z</time></trkpt><trkpt lat="45.94201664727913" lon="10.1887976398779"><ele>935.0</ele><time>2026-04-04T13:26:42Z</time></trkpt><trkpt lat="45.94193373360008" lon="10.188639610482536"><ele>937.0000000000001</ele><time>2026-04-04T13:26:43Z</time></trkpt><trkpt lat="45.94188541006379" lon="10.188538842544697"><ele>939.0</ele><time>2026-04-04T13:26:44Z</time></trkpt><trkpt lat="45.941855185532226" lon="10.188436599269664"><ele>941.0</ele><time>2026-04-04T13:26:45Z</time></trkpt><trkpt lat="45.94183858973734" lon="10.188343281482776"><ele>943.0</ele><time>2026-04-04T13:26:45.999Z</time></trkpt><trkpt lat="45.941826690646685" lon="10.188171314167281"><ele>945.0000000000001</ele><time>2026-04-04T13:26:48Z</time></trkpt><trkpt lat="45.9418340226305" lon="10.18807427377793"><ele>947.0</ele><time>2026-04-04T13:26:49Z</time></trkpt><trkpt lat="45.94177172190284" lon="10.187941965875051"><ele>947.6</ele><time>2026-04-04T13:26:51Z</time></trkpt><trkpt lat="45.94171509884064" lon="10.187815871966935"><ele>948.2</ele><time>2026-04-04T13:26:53Z</time></trkpt><trkpt lat="45.9417528288114" lon="10.18767075299714"><ele>948.8</ele><time>2026-04-04T13:27:02Z</time></trkpt><trkpt lat="45.94170530073192" lon="10.187584866175168"><ele>949.4</ele><time>2026-04-04T13:27:07Z</time></trkpt><trkpt lat="45.94161173566306" lon="10.187567975829221"><ele>950.0</ele><time>2026-04-04T13:27:10Z</time></trkpt><trkpt lat="45.941565050243206" lon="10.187497683819032"><ele>949.1666666666667</ele><time>2026-04-04T13:27:12Z</time></trkpt><trkpt lat="45.941544792899286" lon="10.187392181420194"><ele>948.3333333333334</ele><time>2026-04-04T13:27:15Z</time></trkpt><trkpt lat="45.94155916610197" lon="10.187287197615543"><ele>947.5</ele><time>2026-04-04T13:27:18Z</time></trkpt><trkpt lat="45.94152265590002" lon="10.187180606587582"><ele>946.6666666666667</ele><time>2026-04-04T13:27:21Z</time></trkpt><trkpt lat="45.94149203187872" lon="10.18709955471811"><ele>945.8333333333334</ele><time>2026-04-04T13:27:24Z</time></trkpt><trkpt lat="45.941440927667514" lon="10.187003886250663"><ele>945.0</ele><time>2026-04-04T13:27:26Z</time></trkpt><trkpt lat="45.94136335567908" lon="10.186871683417058"><ele>945.0</ele><time>2026-04-04T13:27:29Z</time></trkpt><trkpt lat="45.941332540225794" lon="10.186748429235143"><ele>945.0</ele><time>2026-04-04T13:27:31Z</time></trkpt><trkpt lat="45.941305634836645" lon="10.18663049269766"><ele>945.0</ele><time>2026-04-04T13:27:34Z</time></trkpt><trkpt lat="45.94127215415763" lon="10.186503755405981"><ele>945.0</ele><time>2026-04-04T13:27:37Z</time></trkpt><trkpt lat="45.94123067603481" lon="10.186412638386473"><ele>945.0</ele><time>2026-04-04T13:27:40Z</time></trkpt><trkpt lat="45.94122958660483" lon="10.18630307068424"><ele>945.0</ele><time>2026-04-04T13:27:43Z</time></trkpt><trkpt lat="45.94118981084093" lon="10.186183530061399"><ele>944.5</ele><time>2026-04-04T13:27:47Z</time></trkpt><trkpt lat="45.94112758443963" lon="10.186142089169717"><ele>944.0</ele><time>2026-04-04T13:27:48Z</time></trkpt><trkpt lat="45.94104342135774" lon="10.186071787739024"><ele>943.5</ele><time>2026-04-04T13:27:50Z</time></trkpt><trkpt lat="45.94097473253154" lon="10.186029525679997"><ele>943.0</ele><time>2026-04-04T13:27:52Z</time></trkpt><trkpt lat="45.94089869556784" lon="10.185938084607276"><ele>942.5</ele><time>2026-04-04T13:27:54Z</time></trkpt><trkpt lat="45.94084249772609" lon="10.185828818107439"><ele>942.0</ele><time>2026-04-04T13:27:57Z</time></trkpt><trkpt lat="45.94078528937466" lon="10.185767955157402"><ele>942.0</ele><time>2026-04-04T13:28:00Z</time></trkpt><trkpt lat="45.9407206479614" lon="10.185732628245235"><ele>942.0</ele><time>2026-04-04T13:28:02Z</time></trkpt><trkpt lat="45.94066735994578" lon="10.18566435241503"><ele>942.0</ele><time>2026-04-04T13:28:06Z</time></trkpt><trkpt lat="45.94069591713763" lon="10.185569286245066"><ele>942.0</ele><time>2026-04-04T13:28:13Z</time></trkpt><trkpt lat="45.94068503134353" lon="10.185459403250384"><ele>942.0</ele><time>2026-04-04T13:28:15Z</time></trkpt><trkpt lat="45.94064450768774" lon="10.185355749609423"><ele>942.0</ele><time>2026-04-04T13:28:18Z</time></trkpt><trkpt lat="45.940586431636476" lon="10.185277063827186"><ele>941.857142857143</ele><time>2026-04-04T13:28:21Z</time></trkpt><trkpt lat="45.94051773557827" lon="10.185218878111284"><ele>941.7142857142858</ele><time>2026-04-04T13:28:25Z</time></trkpt><trkpt lat="45.9404746007973" lon="10.185148859568184"><ele>941.5714285714286</ele><time>2026-04-04T13:28:28Z</time></trkpt><trkpt lat="45.94046454370588" lon="10.185053242288305"><ele>941.4285714285714</ele><time>2026-04-04T13:28:31Z</time></trkpt><trkpt lat="45.94047849090673" lon="10.184960763260658"><ele>941.2857142857142</ele><time>2026-04-04T13:28:34Z</time></trkpt><trkpt lat="45.94044080057927" lon="10.184878524498568"><ele>941.142857142857</ele><time>2026-04-04T13:28:37Z</time></trkpt><trkpt lat="45.940443850116615" lon="10.184786326564705"><ele>940.9999999999999</ele><time>2026-04-04T13:28:41Z</time></trkpt><trkpt lat="45.94050167249529" lon="10.184724316505243"><ele>940.9999999999999</ele><time>2026-04-04T13:28:45Z</time></trkpt><trkpt lat="45.940476732183164" lon="10.184634695332708"><ele>941.0</ele><time>2026-04-04T13:28:47Z</time></trkpt><trkpt lat="45.94039787795876" lon="10.184536767658491"><ele>940.9999999999999</ele><time>2026-04-04T13:28:49Z</time></trkpt><trkpt lat="45.94038171108807" lon="10.184444556826309"><ele>940.9999999999999</ele><time>2026-04-04T13:28:52Z</time></trkpt><trkpt lat="45.94040277064709" lon="10.184358430755067"><ele>941.0</ele><time>2026-04-04T13:28:53Z</time></trkpt><trkpt lat="45.94045822670116" lon="10.184292338515208"><ele>940.9999999999999</ele><time>2026-04-04T13:28:54Z</time></trkpt><trkpt lat="45.940513232637784" lon="10.184244287707322"><ele>940.9999999999999</ele><time>2026-04-04T13:28:55Z</time></trkpt><trkpt lat="45.940607365388196" lon="10.184166211741408"><ele>941.0000000000001</ele><time>2026-04-04T13:28:57Z</time></trkpt><trkpt lat="45.940647399189984" lon="10.18409160011585"><ele>941.0</ele><time>2026-04-04T13:28:58Z</time></trkpt><trkpt lat="45.940690427933085" lon="10.183989023806824"><ele>941.0</ele><time>2026-04-04T13:28:59Z</time></trkpt><trkpt lat="45.94073590615616" lon="10.183920285915473"><ele>941.0</ele><time>2026-04-04T13:29:00Z</time></trkpt><trkpt lat="45.94077214253039" lon="10.183744775310643"><ele>941.0000000000001</ele><time>2026-04-04T13:29:02Z</time></trkpt><trkpt lat="45.940813769234325" lon="10.183636151098167"><ele>941.0</ele><time>2026-04-04T13:29:03Z</time></trkpt><trkpt lat="45.94084954826251" lon="10.183547852015908"><ele>941.6666666666667</ele><time>2026-04-04T13:29:04Z</time></trkpt><trkpt lat="45.940880200514854" lon="10.183403289263975"><ele>942.3333333333334</ele><time>2026-04-04T13:29:06Z</time></trkpt><trkpt lat="45.94088882492543" lon="10.18328317606173"><ele>943.0</ele><time>2026-04-04T13:29:09Z</time></trkpt><trkpt lat="45.940860754952304" lon="10.183194576458357"><ele>943.6666666666667</ele><time>2026-04-04T13:30:22Z</time></trkpt><trkpt lat="45.94086458184523" lon="10.183065814101353"><ele>944.3333333333334</ele><time>2026-04-04T13:30:24Z</time></trkpt><trkpt lat="45.94085646562185" lon="10.182950240310312"><ele>945.0</ele><time>2026-04-04T13:30:26Z</time></trkpt><trkpt lat="45.94088473074308" lon="10.182768485040842"><ele>945.3333333333334</ele><time>2026-04-04T13:30:28Z</time></trkpt><trkpt lat="45.940905980839965" lon="10.182634455437132"><ele>945.6666666666667</ele><time>2026-04-04T13:30:29Z</time></trkpt><trkpt lat="45.94090231825622" lon="10.18250922981011"><ele>946.0</ele><time>2026-04-04T13:30:30Z</time></trkpt><trkpt lat="45.94090879137096" lon="10.182391255850632"><ele>946.3333333333334</ele><time>2026-04-04T13:30:31Z</time></trkpt><trkpt lat="45.940919735807626" lon="10.182275447263924"><ele>946.6666666666667</ele><time>2026-04-04T13:30:32Z</time></trkpt><trkpt lat="45.94093524260583" lon="10.182157001902503"><ele>947.0</ele><time>2026-04-04T13:30:34.001Z</time></trkpt><trkpt lat="45.94099438652173" lon="10.182088199585783"><ele>947.0000000000001</ele><time>2026-04-04T13:30:36.001Z</time></trkpt><trkpt lat="45.941020868511515" lon="10.18194841705501"><ele>947.0</ele><time>2026-04-04T13:30:38.001Z</time></trkpt><trkpt lat="45.94100572691245" lon="10.181860378164933"><ele>947.0</ele><time>2026-04-04T13:30:39.001Z</time></trkpt><trkpt lat="45.94099932121655" lon="10.181740041461714"><ele>947.0</ele><time>2026-04-04T13:30:40.001Z</time></trkpt><trkpt lat="45.9409877685488" lon="10.181629424923422"><ele>947.0000000000001</ele><time>2026-04-04T13:30:41.001Z</time></trkpt><trkpt lat="45.940971854170584" lon="10.181469211882872"><ele>947.0</ele><time>2026-04-04T13:30:43.001Z</time></trkpt><trkpt lat="45.940970414236055" lon="10.181364260059675"><ele>947.4000000000001</ele><time>2026-04-04T13:30:44.001Z</time></trkpt><trkpt lat="45.94096210202447" lon="10.18124932585744"><ele>947.8000000000001</ele><time>2026-04-04T13:30:45.001Z</time></trkpt><trkpt lat="45.94105775184757" lon="10.181179922737812"><ele>948.2</ele><time>2026-04-04T13:30:48.001Z</time></trkpt><trkpt lat="45.941136006517766" lon="10.181109166953545"><ele>948.6</ele><time>2026-04-04T13:30:50.001Z</time></trkpt><trkpt lat="45.941210916004685" lon="10.181017638040187"><ele>949.0</ele><time>2026-04-04T13:30:53.001Z</time></trkpt><trkpt lat="45.94125691996851" lon="10.180915984762946"><ele>949.0</ele><time>2026-04-04T13:30:55.001Z</time></trkpt><trkpt lat="45.94124365480493" lon="10.180778134030747"><ele>949.0000000000001</ele><time>2026-04-04T13:30:57.001Z</time></trkpt><trkpt lat="45.94121044877707" lon="10.180575469469836"><ele>949.0000000000001</ele><time>2026-04-04T13:30:59.001Z</time></trkpt><trkpt lat="45.941188859715574" lon="10.180473962433695"><ele>949.0</ele><time>2026-04-04T13:31:00.001Z</time></trkpt><trkpt lat="45.94116599262934" lon="10.18035685939348"><ele>949.0</ele><time>2026-04-04T13:31:01.001Z</time></trkpt><trkpt lat="45.94110223898468" lon="10.18019360966984"><ele>948.8000000000001</ele><time>2026-04-04T13:31:03.001Z</time></trkpt><trkpt lat="45.94102639810899" lon="10.180087178189167"><ele>948.6000000000001</ele><time>2026-04-04T13:31:05.001Z</time></trkpt><trkpt lat="45.94097871981794" lon="10.179975358437574"><ele>948.4</ele><time>2026-04-04T13:31:07.001Z</time></trkpt><trkpt lat="45.94096786910407" lon="10.179823150540152"><ele>948.2</ele><time>2026-04-04T13:31:09.001Z</time></trkpt><trkpt lat="45.94094010959129" lon="10.179673970549281"><ele>948.0</ele><time>2026-04-04T13:31:11.001Z</time></trkpt><trkpt lat="45.940898378263874" lon="10.179519625569169"><ele>948.0</ele><time>2026-04-04T13:31:13.001Z</time></trkpt><trkpt lat="45.940884970876965" lon="10.179394911348279"><ele>948.0</ele><time>2026-04-04T13:31:15.001Z</time></trkpt><trkpt lat="45.94085883219719" lon="10.179275826159492"><ele>948.0</ele><time>2026-04-04T13:31:17.001Z</time></trkpt><trkpt lat="45.94079138612937" lon="10.179137999202311"><ele>948.0</ele><time>2026-04-04T13:31:19.001Z</time></trkpt><trkpt lat="45.94075961016593" lon="10.179005109682489"><ele>948.0</ele><time>2026-04-04T13:31:22.001Z</time></trkpt><trkpt lat="45.94073483420825" lon="10.1788769647944"><ele>948.5</ele><time>2026-04-04T13:31:25.001Z</time></trkpt><trkpt lat="45.940759765121406" lon="10.178768606259835"><ele>949.0</ele><time>2026-04-04T13:31:28.001Z</time></trkpt><trkpt lat="45.940824813300296" lon="10.17876767369513"><ele>949.5</ele><time>2026-04-04T13:31:31.001Z</time></trkpt><trkpt lat="45.940891359829436" lon="10.178823411941737"><ele>950.0</ele><time>2026-04-04T13:31:34.001Z</time></trkpt><trkpt lat="45.94096363908719" lon="10.178804265504445"><ele>950.5</ele><time>2026-04-04T13:31:38.001Z</time></trkpt><trkpt lat="45.94101240326613" lon="10.178704832803437"><ele>951.0</ele><time>2026-04-04T13:32:03.001Z</time></trkpt><trkpt lat="45.940918447787695" lon="10.178700240024122"><ele>952.0</ele><time>2026-04-04T13:32:05.001Z</time></trkpt><trkpt lat="45.9408371278617" lon="10.178730487992134"><ele>953.0</ele><time>2026-04-04T13:32:07.001Z</time></trkpt><trkpt lat="45.940770048091885" lon="10.17873915406674"><ele>954.0</ele><time>2026-04-04T13:32:09.001Z</time></trkpt><trkpt lat="45.940691762605134" lon="10.178736089668234"><ele>955.0</ele><time>2026-04-04T13:32:11.001Z</time></trkpt><trkpt lat="45.94062667901677" lon="10.178765030507472"><ele>956.0</ele><time>2026-04-04T13:32:13.001Z</time></trkpt><trkpt lat="45.94055334431948" lon="10.178827646250285"><ele>957.0</ele><time>2026-04-04T13:32:15.001Z</time></trkpt><trkpt lat="45.94050566142402" lon="10.178890287461494"><ele>958.0</ele><time>2026-04-04T13:32:16.001Z</time></trkpt><trkpt lat="45.94045435248042" lon="10.17895202291573"><ele>958.0</ele><time>2026-04-04T13:32:17.001Z</time></trkpt><trkpt lat="45.940400501054675" lon="10.179015264750445"><ele>958.0</ele><time>2026-04-04T13:32:18.001Z</time></trkpt><trkpt lat="45.94033700827007" lon="10.179123023008552"><ele>958.0</ele><time>2026-04-04T13:32:20.001Z</time></trkpt><trkpt lat="45.94027340595813" lon="10.179220760410681"><ele>958.0</ele><time>2026-04-04T13:32:22.001Z</time></trkpt><trkpt lat="45.94017791903172" lon="10.179368721595644"><ele>958.0</ele><time>2026-04-04T13:32:24.001Z</time></trkpt><trkpt lat="45.94012440686795" lon="10.179459487932936"><ele>958.1666666666666</ele><time>2026-04-04T13:32:25.001Z</time></trkpt><trkpt lat="45.94008475220639" lon="10.179538646370657"><ele>958.3333333333333</ele><time>2026-04-04T13:32:26.001Z</time></trkpt><trkpt lat="45.940003368834" lon="10.179670113924432"><ele>958.5</ele><time>2026-04-04T13:32:28.001Z</time></trkpt><trkpt lat="45.9399557002065" lon="10.179743098403874"><ele>958.6666666666667</ele><time>2026-04-04T13:32:29.001Z</time></trkpt><trkpt lat="45.939915464576345" lon="10.17981281782553"><ele>958.8333333333334</ele><time>2026-04-04T13:32:30.001Z</time></trkpt><trkpt lat="45.93984035818334" lon="10.179914727473454"><ele>959.0</ele><time>2026-04-04T13:32:32.001Z</time></trkpt><trkpt lat="45.939780904012565" lon="10.180009046057712"><ele>959.0</ele><time>2026-04-04T13:32:34.001Z</time></trkpt><trkpt lat="45.93987765788197" lon="10.179948792610155"><ele>959.0000000000001</ele><time>2026-04-04T13:32:41.001Z</time></trkpt><trkpt lat="45.93992732951675" lon="10.179885365450117"><ele>959.0000000000001</ele><time>2026-04-04T13:32:42.001Z</time></trkpt><trkpt lat="45.939993787505415" lon="10.179769625050698"><ele>959.0</ele><time>2026-04-04T13:32:43.001Z</time></trkpt><trkpt lat="45.940099373489765" lon="10.179606886642523"><ele>959.0</ele><time>2026-04-04T13:32:44.001Z</time></trkpt><trkpt lat="45.940223191410624" lon="10.179429442279144"><ele>958.75</ele><time>2026-04-04T13:32:45.001Z</time></trkpt><trkpt lat="45.9403284775487" lon="10.179268699857687"><ele>958.5</ele><time>2026-04-04T13:32:46.001Z</time></trkpt><trkpt lat="45.94039047165092" lon="10.179136468791404"><ele>958.25</ele><time>2026-04-04T13:32:47.001Z</time></trkpt><trkpt lat="45.9404486463842" lon="10.179028913398131"><ele>958.0</ele><time>2026-04-04T13:32:48.001Z</time></trkpt><trkpt lat="45.94051338405384" lon="10.178938154793183"><ele>958.0</ele><time>2026-04-04T13:32:49.001Z</time></trkpt><trkpt lat="45.94055714542101" lon="10.17885635012896"><ele>958.0</ele><time>2026-04-04T13:32:50.001Z</time></trkpt><trkpt lat="45.940483733809586" lon="10.17876247772401"><ele>958.0</ele><time>2026-04-04T13:32:54.001Z</time></trkpt><trkpt lat="45.94046434431845" lon="10.178667250542393"><ele>958.0</ele><time>2026-04-04T13:32:56.001Z</time></trkpt><trkpt lat="45.94043987333066" lon="10.178499016380343"><ele>958.0</ele><time>2026-04-04T13:32:58.001Z</time></trkpt><trkpt lat="45.940378824834234" lon="10.178338512165693"><ele>957.9999999999999</ele><time>2026-04-04T13:33:00.001Z</time></trkpt><trkpt lat="45.94033342596328" lon="10.178259154412814"><ele>958.0</ele><time>2026-04-04T13:33:01.001Z</time></trkpt><trkpt lat="45.94027177632913" lon="10.178165538180204"><ele>958.0</ele><time>2026-04-04T13:33:04.001Z</time></trkpt><trkpt lat="45.9402337203586" lon="10.17807332443277"><ele>958.0</ele><time>2026-04-04T13:33:06.001Z</time></trkpt><trkpt lat="45.940182547349295" lon="10.17798454926378"><ele>957.9999999999999</ele><time>2026-04-04T13:33:09.001Z</time></trkpt><trkpt lat="45.94012469669686" lon="10.177912920058025"><ele>958.0</ele><time>2026-04-04T13:33:12.001Z</time></trkpt><trkpt lat="45.940051132165024" lon="10.177913176624571"><ele>957.9999999999999</ele><time>2026-04-04T13:33:22.001Z</time></trkpt><trkpt lat="45.9400785485911" lon="10.178012586528482"><ele>958.0</ele><time>2026-04-04T13:33:29.001Z</time></trkpt><trkpt lat="45.94017424843757" lon="10.178043204835921"><ele>958.0</ele><time>2026-04-04T13:33:32.001Z</time></trkpt><trkpt lat="45.940268674157224" lon="10.178111410707626"><ele>958.0</ele><time>2026-04-04T13:33:35.001Z</time></trkpt><trkpt lat="45.94032981611102" lon="10.178140260183984"><ele>957.9999999999999</ele><time>2026-04-04T13:33:37.001Z</time></trkpt><trkpt lat="45.94040127659061" lon="10.178160291590617"><ele>958.0</ele><time>2026-04-04T13:33:39.001Z</time></trkpt><trkpt lat="45.94045683871477" lon="10.17822270550907"><ele>957.9999999999999</ele><time>2026-04-04T13:33:42.001Z</time></trkpt><trkpt lat="45.94052904268383" lon="10.178353319492752"><ele>958.0</ele><time>2026-04-04T13:33:44.001Z</time></trkpt><trkpt lat="45.940559933628286" lon="10.17844768087184"><ele>958.0</ele><time>2026-04-04T13:33:45.001Z</time></trkpt><trkpt lat="45.94060582048628" lon="10.178540901268272"><ele>958.0</ele><time>2026-04-04T13:33:46.001Z</time></trkpt><trkpt lat="45.94066319492651" lon="10.178618185467029"><ele>957.9999999999999</ele><time>2026-04-04T13:33:47.001Z</time></trkpt><trkpt lat="45.94070634880388" lon="10.178692621018481"><ele>958.0</ele><time>2026-04-04T13:33:48.001Z</time></trkpt><trkpt lat="45.940781998662764" lon="10.178800177538484"><ele>956.5999999999999</ele><time>2026-04-04T13:33:50.001Z</time></trkpt><trkpt lat="45.94089909703937" lon="10.17881465836721"><ele>955.1999999999999</ele><time>2026-04-04T13:33:52.001Z</time></trkpt><trkpt lat="45.94096637739293" lon="10.178763761969057"><ele>953.8</ele><time>2026-04-04T13:33:53.001Z</time></trkpt><trkpt lat="45.94104484549993" lon="10.178644331993633"><ele>952.4</ele><time>2026-04-04T13:33:54.001Z</time></trkpt><trkpt lat="45.941121456357834" lon="10.178520462322492"><ele>951.0</ele><time>2026-04-04T13:33:55.001Z</time></trkpt><trkpt lat="45.94119575794187" lon="10.178356435120552"><ele>952.25</ele><time>2026-04-04T13:33:56.001Z</time></trkpt><trkpt lat="45.94122824411782" lon="10.178157423630504"><ele>953.5</ele><time>2026-04-04T13:33:57.001Z</time></trkpt><trkpt lat="45.94128373205217" lon="10.178006516113399"><ele>954.75</ele><time>2026-04-04T13:33:58.001Z</time></trkpt><trkpt lat="45.94133169718119" lon="10.177876067871987"><ele>956.0</ele><time>2026-04-04T13:33:59.001Z</time></trkpt><trkpt lat="45.941374728869434" lon="10.177759036826854"><ele>956.0</ele><time>2026-04-04T13:34:00.001Z</time></trkpt><trkpt lat="45.94141491339003" lon="10.177667068985633"><ele>956.0</ele><time>2026-04-04T13:34:01.001Z</time></trkpt><trkpt lat="45.94145475801083" lon="10.17754138594651"><ele>956.0</ele><time>2026-04-04T13:34:03.001Z</time></trkpt><trkpt lat="45.94128699051221" lon="10.177345575233442"><ele>956.0</ele><time>2026-04-04T13:34:05.001Z</time></trkpt><trkpt lat="45.94117604670015" lon="10.177260518452877"><ele>958.0</ele><time>2026-04-04T13:34:06.001Z</time></trkpt><trkpt lat="45.94104710185987" lon="10.177158522743875"><ele>960.0</ele><time>2026-04-04T13:34:07.001Z</time></trkpt><trkpt lat="45.940890103920495" lon="10.17701163643557"><ele>962.0</ele><time>2026-04-04T13:34:08.001Z</time></trkpt><trkpt lat="45.94068112431902" lon="10.176857912773547"><ele>964.0</ele><time>2026-04-04T13:34:09.001Z</time></trkpt><trkpt lat="45.940508669145146" lon="10.176676044486404"><ele>966.0</ele><time>2026-04-04T13:34:10.001Z</time></trkpt><trkpt lat="45.940368844542036" lon="10.17647828795121"><ele>968.0</ele><time>2026-04-04T13:34:11.001Z</time></trkpt><trkpt lat="45.940279513054605" lon="10.176245507962953"><ele>969.0</ele><time>2026-04-04T13:34:12.001Z</time></trkpt><trkpt lat="45.94017564062059" lon="10.176071696977038"><ele>970.0</ele><time>2026-04-04T13:34:13.001Z</time></trkpt><trkpt lat="45.94008092440519" lon="10.1759424707846"><ele>971.0</ele><time>2026-04-04T13:34:14.001Z</time></trkpt><trkpt lat="45.939955401732604" lon="10.175862814604226"><ele>972.0</ele><time>2026-04-04T13:34:15.001Z</time></trkpt><trkpt lat="45.93978742802541" lon="10.175845621527253"><ele>973.0</ele><time>2026-04-04T13:34:16.001Z</time></trkpt><trkpt lat="45.93958005216273" lon="10.175853754683727"><ele>974.0</ele><time>2026-04-04T13:34:17.001Z</time></trkpt><trkpt lat="45.93937145397345" lon="10.175836225169489"><ele>975.0</ele><time>2026-04-04T13:34:18.001Z</time></trkpt><trkpt lat="45.939123999687446" lon="10.175800297386482"><ele>978.0</ele><time>2026-04-04T13:34:19.001Z</time></trkpt><trkpt lat="45.93889255683167" lon="10.175763283118853"><ele>981.0</ele><time>2026-04-04T13:34:20.001Z</time></trkpt><trkpt lat="45.93865345396814" lon="10.175661050469282"><ele>981.0</ele><time>2026-04-04T13:34:21.001Z</time></trkpt><trkpt lat="45.938410102577116" lon="10.175563184975616"><ele>981.0</ele><time>2026-04-04T13:34:22.001Z</time></trkpt><trkpt lat="45.93822351624393" lon="10.175448844693863"><ele>983.3333333333333</ele><time>2026-04-04T13:34:23.001Z</time></trkpt><trkpt lat="45.93800920776389" lon="10.175402436739267"><ele>985.6666666666666</ele><time>2026-04-04T13:34:24.001Z</time></trkpt><trkpt lat="45.93779888546821" lon="10.175345025774071"><ele>988.0</ele><time>2026-04-04T13:34:25.001Z</time></trkpt><trkpt lat="45.93753624742978" lon="10.175353717773527"><ele>991.3333333333333</ele><time>2026-04-04T13:34:26.001Z</time></trkpt><trkpt lat="45.937328558074626" lon="10.175342245918568"><ele>994.6666666666667</ele><time>2026-04-04T13:34:27.001Z</time></trkpt><trkpt lat="45.93713845152775" lon="10.175356087255421"><ele>998.0</ele><time>2026-04-04T13:34:28.001Z</time></trkpt><trkpt lat="45.936998605399396" lon="10.175443730522305"><ele>998.0</ele><time>2026-04-04T13:34:29.001Z</time></trkpt><trkpt lat="45.936907500762096" lon="10.175569931228525"><ele>998.0</ele><time>2026-04-04T13:34:30.001Z</time></trkpt><trkpt lat="45.936864070417876" lon="10.17568947262194"><ele>998.0</ele><time>2026-04-04T13:34:31.001Z</time></trkpt><trkpt lat="45.936826070029866" lon="10.175797591318297"><ele>998.0</ele><time>2026-04-04T13:34:32.001Z</time></trkpt><trkpt lat="45.93678828815229" lon="10.175883483215511"><ele>998.0</ele><time>2026-04-04T13:34:33.001Z</time></trkpt><trkpt lat="45.936310604849346" lon="10.175643662929277"><ele>999.0</ele><time>2026-04-04T13:34:34.001Z</time></trkpt><trkpt lat="45.93620971586037" lon="10.175682067632343"><ele>1000.0</ele><time>2026-04-04T13:34:35.001Z</time></trkpt><trkpt lat="45.9361153843086" lon="10.175735428420488"><ele>1001.0</ele><time>2026-04-04T13:34:36.001Z</time></trkpt><trkpt lat="45.93604571948271" lon="10.175849991941615"><ele>1002.0</ele><time>2026-04-04T13:34:37.001Z</time></trkpt><trkpt lat="45.936064750378925" lon="10.17595315943646"><ele>1003.0</ele><time>2026-04-04T13:34:38.001Z</time></trkpt><trkpt lat="45.936200750491885" lon="10.17604074609149"><ele>1003.0</ele><time>2026-04-04T13:34:39.001Z</time></trkpt><trkpt lat="45.93628239181126" lon="10.176071969508165"><ele>1003.0</ele><time>2026-04-04T13:34:40.001Z</time></trkpt><trkpt lat="45.936397684468616" lon="10.17613686105248"><ele>1003.0</ele><time>2026-04-04T13:34:42.001Z</time></trkpt><trkpt lat="45.936464555375586" lon="10.176189327926767"><ele>1003.0</ele><time>2026-04-04T13:34:44.001Z</time></trkpt><trkpt lat="45.936626331253436" lon="10.176369337527516"><ele>1002.9999999999999</ele><time>2026-04-04T13:34:50.001Z</time></trkpt><trkpt lat="45.936688942013106" lon="10.17641784340756"><ele>1003.0</ele><time>2026-04-04T13:34:52.001Z</time></trkpt><trkpt lat="45.936744800996976" lon="10.17650922470195"><ele>1003.0</ele><time>2026-04-04T13:34:56.001Z</time></trkpt><trkpt lat="45.936766874586205" lon="10.176625928148278"><ele>1003.0</ele><time>2026-04-04T13:34:58.001Z</time></trkpt><trkpt lat="45.93673807833691" lon="10.17674639458955"><ele>1002.9999999999999</ele><time>2026-04-04T13:35:00.001Z</time></trkpt><trkpt lat="45.93671303881576" lon="10.176904405040919"><ele>1003.0</ele><time>2026-04-04T13:35:02.001Z</time></trkpt><trkpt lat="45.93670448120248" lon="10.177003314623837"><ele>1002.1666666666666</ele><time>2026-04-04T13:35:03.001Z</time></trkpt><trkpt lat="45.936686545397784" lon="10.177104395090549"><ele>1001.3333333333333</ele><time>2026-04-04T13:35:04.001Z</time></trkpt><trkpt lat="45.93666531795829" lon="10.177206318983213"><ele>1000.5</ele><time>2026-04-04T13:35:05.001Z</time></trkpt><trkpt lat="45.93665634249975" lon="10.177311675907431"><ele>999.6666666666667</ele><time>2026-04-04T13:35:06.001Z</time></trkpt><trkpt lat="45.93665935686941" lon="10.177424456272965"><ele>998.8333333333334</ele><time>2026-04-04T13:35:07.001Z</time></trkpt><trkpt lat="45.936669184739415" lon="10.177526177672576"><ele>998.0</ele><time>2026-04-04T13:35:08.001Z</time></trkpt><trkpt lat="45.93667980607026" lon="10.177694111976507"><ele>997.8333333333334</ele><time>2026-04-04T13:35:10Z</time></trkpt><trkpt lat="45.93666467861281" lon="10.177827866556106"><ele>997.6666666666667</ele><time>2026-04-04T13:35:12Z</time></trkpt><trkpt lat="45.93668057579617" lon="10.177928656409463"><ele>997.5</ele><time>2026-04-04T13:35:56Z</time></trkpt><trkpt lat="45.9367191191056" lon="10.178048917882705"><ele>997.3333333333333</ele><time>2026-04-04T13:35:59Z</time></trkpt><trkpt lat="45.936734831924305" lon="10.178184830650105"><ele>997.1666666666666</ele><time>2026-04-04T13:36:02Z</time></trkpt><trkpt lat="45.936757619436754" lon="10.17829019499213"><ele>997.0</ele><time>2026-04-04T13:36:04.001Z</time></trkpt><trkpt lat="45.93677246281513" lon="10.178397753497277"><ele>994.4999999999999</ele><time>2026-04-04T13:36:06.001Z</time></trkpt><trkpt lat="45.93672991040825" lon="10.178496882470757"><ele>992.0</ele><time>2026-04-04T13:36:08.001Z</time></trkpt><trkpt lat="45.936740436733736" lon="10.178607454494657"><ele>989.5</ele><time>2026-04-04T13:36:11.001Z</time></trkpt><trkpt lat="45.93677553442939" lon="10.178691354378813"><ele>987.0</ele><time>2026-04-04T13:36:16.001Z</time></trkpt><trkpt lat="45.93684230433975" lon="10.178725496353094"><ele>984.4999999999999</ele><time>2026-04-04T13:36:18.001Z</time></trkpt><trkpt lat="45.93694080790481" lon="10.178741239848451"><ele>982.0</ele><time>2026-04-04T13:36:20.001Z</time></trkpt><trkpt lat="45.93703000012553" lon="10.178745058033458"><ele>981.9999999999999</ele><time>2026-04-04T13:36:22.001Z</time></trkpt><trkpt lat="45.937111902329185" lon="10.178803447557186"><ele>982.0</ele><time>2026-04-04T13:36:25.001Z</time></trkpt><trkpt lat="45.93714098626815" lon="10.178896842872119"><ele>982.0</ele><time>2026-04-04T13:36:27.001Z</time></trkpt><trkpt lat="45.93711909216708" lon="10.179049457437888"><ele>982.0</ele><time>2026-04-04T13:36:29.001Z</time></trkpt><trkpt lat="45.93709035195747" lon="10.179139102022422"><ele>981.9999999999999</ele><time>2026-04-04T13:36:30.001Z</time></trkpt><trkpt lat="45.937051456240596" lon="10.17924464076608"><ele>982.0</ele><time>2026-04-04T13:36:31.001Z</time></trkpt><trkpt lat="45.93699658724425" lon="10.17934631470216"><ele>982.4999999999999</ele><time>2026-04-04T13:36:32.001Z</time></trkpt><trkpt lat="45.93694291625763" lon="10.179447404039179"><ele>983.0</ele><time>2026-04-04T13:36:33.001Z</time></trkpt><trkpt lat="45.93689617112955" lon="10.17951317941036"><ele>983.5</ele><time>2026-04-04T13:36:34.001Z</time></trkpt><trkpt lat="45.93681239393272" lon="10.179560682705612"><ele>984.0</ele><time>2026-04-04T13:36:38.001Z</time></trkpt><trkpt lat="45.93674626774443" lon="10.17957838446152"><ele>984.4999999999999</ele><time>2026-04-04T13:36:40.001Z</time></trkpt><trkpt lat="45.9366375554494" lon="10.17961996847716"><ele>985.0</ele><time>2026-04-04T13:36:42.001Z</time></trkpt><trkpt lat="45.9365744058902" lon="10.179647188373226"><ele>991.5</ele><time>2026-04-04T13:36:43.001Z</time></trkpt><trkpt lat="45.93643534266839" lon="10.179741532985677"><ele>998.0</ele><time>2026-04-04T13:36:45.001Z</time></trkpt><trkpt lat="45.936315407617414" lon="10.179833938301076"><ele>1004.5</ele><time>2026-04-04T13:36:46.001Z</time></trkpt><trkpt lat="45.9361955461477" lon="10.17989744502238"><ele>1011.0</ele><time>2026-04-04T13:36:47.001Z</time></trkpt><trkpt lat="45.936110262114966" lon="10.179968048858065"><ele>1011.0</ele><time>2026-04-04T13:36:48.001Z</time></trkpt><trkpt lat="45.936019770331" lon="10.179963685013236"><ele>1011.0</ele><time>2026-04-04T13:36:50.001Z</time></trkpt><trkpt lat="45.935996364770574" lon="10.179868297059185"><ele>1011.0</ele><time>2026-04-04T13:36:51.001Z</time></trkpt><trkpt lat="45.935958172849666" lon="10.179758700830147"><ele>1011.0</ele><time>2026-04-04T13:36:52.001Z</time></trkpt><trkpt lat="45.935916401703146" lon="10.179641752290623"><ele>1011.0</ele><time>2026-04-04T13:36:53.001Z</time></trkpt><trkpt lat="45.935865507484216" lon="10.179533751038237"><ele>1011.0</ele><time>2026-04-04T13:36:55.001Z</time></trkpt><trkpt lat="45.93577594172611" lon="10.179540600501682"><ele>1014.8333333333334</ele><time>2026-04-04T13:36:58.001Z</time></trkpt><trkpt lat="45.93571279424759" lon="10.17944951438621"><ele>1018.6666666666667</ele><time>2026-04-04T13:37:02.001Z</time></trkpt><trkpt lat="45.935664129781536" lon="10.179369498372552"><ele>1022.5</ele><time>2026-04-04T13:37:04.001Z</time></trkpt><trkpt lat="45.93561264092138" lon="10.179312555457743"><ele>1026.3333333333335</ele><time>2026-04-04T13:37:27Z</time></trkpt><trkpt lat="45.93562895894194" lon="10.179402133881998"><ele>1030.1666666666667</ele><time>2026-04-04T13:37:32Z</time></trkpt><trkpt lat="45.935665319393756" lon="10.1795014339141"><ele>1034.0</ele><time>2026-04-04T13:37:34Z</time></trkpt><trkpt lat="45.935698936779204" lon="10.179616014499766"><ele>1034.0</ele><time>2026-04-04T13:37:36Z</time></trkpt><trkpt lat="45.93573976778508" lon="10.179749340599665"><ele>1034.0</ele><time>2026-04-04T13:37:38Z</time></trkpt><trkpt lat="45.93570360672408" lon="10.179916554078162"><ele>1034.0</ele><time>2026-04-04T13:37:41Z</time></trkpt><trkpt lat="45.93573774986416" lon="10.180027323889819"><ele>1034.0</ele><time>2026-04-04T13:37:42Z</time></trkpt><trkpt lat="45.93581158345181" lon="10.18011682322626"><ele>1034.0</ele><time>2026-04-04T13:37:43Z</time></trkpt><trkpt lat="45.935910323223176" lon="10.180159543372836"><ele>1031.0</ele><time>2026-04-04T13:37:44Z</time></trkpt><trkpt lat="45.9359932187773" lon="10.180152234099056"><ele>1028.0</ele><time>2026-04-04T13:37:45Z</time></trkpt><trkpt lat="45.936067057245154" lon="10.180164701230316"><ele>1025.0</ele><time>2026-04-04T13:37:46Z</time></trkpt><trkpt lat="45.93613290179748" lon="10.180205024284135"><ele>1022.0</ele><time>2026-04-04T13:37:47Z</time></trkpt><trkpt lat="45.93620549519462" lon="10.180258235544384"><ele>1019.0000000000001</ele><time>2026-04-04T13:37:49Z</time></trkpt><trkpt lat="45.936269066800705" lon="10.18024884112641"><ele>1016.0</ele><time>2026-04-04T13:37:51Z</time></trkpt><trkpt lat="45.93633893332272" lon="10.180231251246678"><ele>1013.0</ele><time>2026-04-04T13:38:00Z</time></trkpt><trkpt lat="45.9363918321157" lon="10.180173631914176"><ele>1013.0000000000001</ele><time>2026-04-04T13:38:02Z</time></trkpt><trkpt lat="45.93644306458054" lon="10.180112151874978"><ele>1013.0</ele><time>2026-04-04T13:38:05Z</time></trkpt><trkpt lat="45.9363748730683" lon="10.180140699447975"><ele>1013.0</ele><time>2026-04-04T13:38:10Z</time></trkpt><trkpt lat="45.9362950951874" lon="10.18018153679125"><ele>1013.0</ele><time>2026-04-04T13:38:15Z</time></trkpt><trkpt lat="45.93622738200494" lon="10.180269680410923"><ele>1013.0000000000001</ele><time>2026-04-04T13:38:18Z</time></trkpt><trkpt lat="45.9361899665692" lon="10.180345077344514"><ele>1013.0</ele><time>2026-04-04T13:38:21Z</time></trkpt><trkpt lat="45.93614721761219" lon="10.180428337669767"><ele>1013.0000000000001</ele><time>2026-04-04T13:38:25Z</time></trkpt><trkpt lat="45.93610854519403" lon="10.18051613175297"><ele>1013.0</ele><time>2026-04-04T13:38:28Z</time></trkpt><trkpt lat="45.93605581179413" lon="10.180583218730538"><ele>1013.0</ele><time>2026-04-04T13:40:48Z</time></trkpt><trkpt lat="45.935999555403704" lon="10.18065968243431"><ele>1013.0</ele><time>2026-04-04T13:40:51Z</time></trkpt><trkpt lat="45.935924779990046" lon="10.18072876269153"><ele>1013.0000000000001</ele><time>2026-04-04T13:40:54Z</time></trkpt><trkpt lat="45.93582098186172" lon="10.18081109689072"><ele>1013.0</ele><time>2026-04-04T13:40:56Z</time></trkpt><trkpt lat="45.93573669668862" lon="10.180865849567875"><ele>1016.5714285714287</ele><time>2026-04-04T13:40:57Z</time></trkpt><trkpt lat="45.9356752155766" lon="10.180902641260204"><ele>1020.1428571428572</ele><time>2026-04-04T13:40:58Z</time></trkpt><trkpt lat="45.93561902489539" lon="10.180961733141938"><ele>1023.7142857142858</ele><time>2026-04-04T13:40:59Z</time></trkpt><trkpt lat="45.93555945230832" lon="10.181011516752378"><ele>1027.2857142857142</ele><time>2026-04-04T13:41:00Z</time></trkpt><trkpt lat="45.935507591733405" lon="10.181095901450306"><ele>1030.8571428571427</ele><time>2026-04-04T13:41:01Z</time></trkpt><trkpt lat="45.93544865212883" lon="10.181158445408853"><ele>1034.4285714285713</ele><time>2026-04-04T13:41:02Z</time></trkpt><trkpt lat="45.93538643268488" lon="10.18123136451022"><ele>1038.0</ele><time>2026-04-04T13:41:03Z</time></trkpt><trkpt lat="45.93530866808744" lon="10.1812830659825"><ele>1038.0</ele><time>2026-04-04T13:41:04Z</time></trkpt><trkpt lat="45.93521417877809" lon="10.181335403086317"><ele>1038.0</ele><time>2026-04-04T13:41:05Z</time></trkpt><trkpt lat="45.93512407961737" lon="10.181396589199643"><ele>1038.0</ele><time>2026-04-04T13:41:06Z</time></trkpt><trkpt lat="45.93502920433357" lon="10.181414760001463"><ele>1038.0</ele><time>2026-04-04T13:41:07Z</time></trkpt><trkpt lat="45.93496149014986" lon="10.181442280771053"><ele>1038.0</ele><time>2026-04-04T13:41:08Z</time></trkpt><trkpt lat="45.934877188655896" lon="10.181519131752395"><ele>1043.4</ele><time>2026-04-04T13:41:09Z</time></trkpt><trkpt lat="45.93478299972238" lon="10.181593860515383"><ele>1048.8</ele><time>2026-04-04T13:41:10Z</time></trkpt><trkpt lat="45.93469033391809" lon="10.181684113254633"><ele>1054.2</ele><time>2026-04-04T13:41:11Z</time></trkpt><trkpt lat="45.93463186081834" lon="10.181764919417365"><ele>1059.6</ele><time>2026-04-04T13:41:12Z</time></trkpt><trkpt lat="45.93457181460576" lon="10.181844787864005"><ele>1065.0</ele><time>2026-04-04T13:41:13Z</time></trkpt><trkpt lat="45.934499107522235" lon="10.18195315252448"><ele>1065.0</ele><time>2026-04-04T13:41:14Z</time></trkpt><trkpt lat="45.934417516382894" lon="10.182046224528115"><ele>1065.0</ele><time>2026-04-04T13:41:15Z</time></trkpt><trkpt lat="45.93433660255221" lon="10.182080828844974"><ele>1065.0</ele><time>2026-04-04T13:41:16Z</time></trkpt><trkpt lat="45.93423312720156" lon="10.18215041489732"><ele>1065.0</ele><time>2026-04-04T13:41:17Z</time></trkpt><trkpt lat="45.9341499261902" lon="10.182211424835206"><ele>1065.0</ele><time>2026-04-04T13:41:18Z</time></trkpt><trkpt lat="45.93408659016843" lon="10.182325510190381"><ele>1069.3333333333333</ele><time>2026-04-04T13:41:19Z</time></trkpt><trkpt lat="45.934033446779594" lon="10.18244036779411"><ele>1073.6666666666667</ele><time>2026-04-04T13:41:20Z</time></trkpt><trkpt lat="45.93393570510364" lon="10.182453583143166"><ele>1078.0</ele><time>2026-04-04T13:41:21Z</time></trkpt><trkpt lat="45.93382893516309" lon="10.182437834407022"><ele>1082.3333333333335</ele><time>2026-04-04T13:41:22Z</time></trkpt><trkpt lat="45.93375991687171" lon="10.182413797357897"><ele>1086.6666666666667</ele><time>2026-04-04T13:41:23Z</time></trkpt><trkpt lat="45.93368335710248" lon="10.182408843430803"><ele>1091.0</ele><time>2026-04-04T13:41:24Z</time></trkpt><trkpt lat="45.93354693873665" lon="10.182352203171174"><ele>1090.25</ele><time>2026-04-04T13:41:26Z</time></trkpt><trkpt lat="45.93344376620121" lon="10.182340822415151"><ele>1089.5</ele><time>2026-04-04T13:41:27Z</time></trkpt><trkpt lat="45.933310889292926" lon="10.182333015723206"><ele>1088.75</ele><time>2026-04-04T13:41:28Z</time></trkpt><trkpt lat="45.933171053403726" lon="10.182272848451902"><ele>1088.0</ele><time>2026-04-04T13:41:29Z</time></trkpt><trkpt lat="45.93304190038255" lon="10.182247034120238"><ele>1091.6</ele><time>2026-04-04T13:41:30Z</time></trkpt><trkpt lat="45.93294115525338" lon="10.182245006992712"><ele>1095.1999999999998</ele><time>2026-04-04T13:41:31Z</time></trkpt><trkpt lat="45.932864994461575" lon="10.182305566467292"><ele>1098.8</ele><time>2026-04-04T13:41:32Z</time></trkpt><trkpt lat="45.93278017849742" lon="10.182318911059253"><ele>1102.3999999999999</ele><time>2026-04-04T13:41:33Z</time></trkpt><trkpt lat="45.932676768134186" lon="10.182286801198055"><ele>1106.0</ele><time>2026-04-04T13:41:35Z</time></trkpt><trkpt lat="45.93260747873502" lon="10.182427532677893"><ele>1106.0</ele><time>2026-04-04T13:41:37Z</time></trkpt><trkpt lat="45.93268649810358" lon="10.182532937633646"><ele>1106.0</ele><time>2026-04-04T13:41:44Z</time></trkpt><trkpt lat="45.93277677976693" lon="10.182526316633005"><ele>1106.0</ele><time>2026-04-04T13:41:46Z</time></trkpt><trkpt lat="45.93280894612251" lon="10.18267344711176"><ele>1106.0</ele><time>2026-04-04T13:41:48Z</time></trkpt><trkpt lat="45.932760149372356" lon="10.182765637692517"><ele>1106.0</ele><time>2026-04-04T13:41:49Z</time></trkpt><trkpt lat="45.93272540797649" lon="10.182876806871182"><ele>1106.0</ele><time>2026-04-04T13:41:50Z</time></trkpt><trkpt lat="45.932717631583145" lon="10.18302346282432"><ele>1106.0</ele><time>2026-04-04T13:41:51Z</time></trkpt><trkpt lat="45.93269848930244" lon="10.183126642610128"><ele>1106.0</ele><time>2026-04-04T13:41:53Z</time></trkpt><trkpt lat="45.93274376841042" lon="10.183308895438655"><ele>1106.0</ele><time>2026-04-04T13:41:55Z</time></trkpt><trkpt lat="45.93264175590514" lon="10.183278563941231"><ele>1106.0</ele><time>2026-04-04T13:41:56Z</time></trkpt><trkpt lat="45.932661485791115" lon="10.183443231562565"><ele>1110.2</ele><time>2026-04-04T13:41:57Z</time></trkpt><trkpt lat="45.93262395758618" lon="10.18351890984686"><ele>1114.3999999999999</ele><time>2026-04-04T13:41:58Z</time></trkpt><trkpt lat="45.93262072409851" lon="10.183715539394745"><ele>1118.6</ele><time>2026-04-04T13:41:59Z</time></trkpt><trkpt lat="45.93261518939339" lon="10.183868864222946"><ele>1122.8</ele><time>2026-04-04T13:42:03Z</time></trkpt><trkpt lat="45.932608611220076" lon="10.183974658927372"><ele>1127.0</ele><time>2026-04-04T13:42:04Z</time></trkpt><trkpt lat="45.9326682015469" lon="10.184108913728508"><ele>1132.5</ele><time>2026-04-04T13:42:06Z</time></trkpt><trkpt lat="45.93263652426175" lon="10.184262684253559"><ele>1138.0</ele><time>2026-04-04T13:42:09Z</time></trkpt><trkpt lat="45.932553327607394" lon="10.184404784729466"><ele>1143.5</ele><time>2026-04-04T13:42:10Z</time></trkpt><trkpt lat="45.93256238399536" lon="10.184645146659383"><ele>1149.0</ele><time>2026-04-04T13:42:11Z</time></trkpt><trkpt lat="45.93252700555195" lon="10.18478002166613"><ele>1149.1666666666667</ele><time>2026-04-04T13:42:12Z</time></trkpt><trkpt lat="45.93247861862844" lon="10.184904360091467"><ele>1149.3333333333333</ele><time>2026-04-04T13:42:13Z</time></trkpt><trkpt lat="45.93245392295633" lon="10.184999263208969"><ele>1149.5</ele><time>2026-04-04T13:42:14Z</time></trkpt><trkpt lat="45.93243647469365" lon="10.185123820534505"><ele>1149.6666666666665</ele><time>2026-04-04T13:42:15Z</time></trkpt><trkpt lat="45.93238821901678" lon="10.18518773359426"><ele>1149.8333333333333</ele><time>2026-04-04T13:42:17Z</time></trkpt><trkpt lat="45.9324886006388" lon="10.18526191214005"><ele>1150.0</ele><time>2026-04-04T13:42:19Z</time></trkpt><trkpt lat="45.932571879502305" lon="10.18536853574592"><ele>1150.0</ele><time>2026-04-04T13:42:21Z</time></trkpt><trkpt lat="45.93265111095133" lon="10.18548242249652"><ele>1150.0</ele><time>2026-04-04T13:42:23Z</time></trkpt><trkpt lat="45.93280538677319" lon="10.185739590670686"><ele>1150.0</ele><time>2026-04-04T13:42:24Z</time></trkpt><trkpt lat="45.93288641737952" lon="10.185882137814966"><ele>1151.0</ele><time>2026-04-04T13:42:25Z</time></trkpt><trkpt lat="45.93299867212853" lon="10.186156481902696"><ele>1152.0</ele><time>2026-04-04T13:42:27Z</time></trkpt><trkpt lat="45.933055083550805" lon="10.186306833787171"><ele>1153.0</ele><time>2026-04-04T13:42:32Z</time></trkpt><trkpt lat="45.933110332328916" lon="10.18636051187899"><ele>1154.0</ele><time>2026-04-04T13:42:53Z</time></trkpt><trkpt lat="45.93311700857525" lon="10.186455387177475"><ele>1156.2</ele><time>2026-04-04T13:42:59Z</time></trkpt><trkpt lat="45.93311807136977" lon="10.186568549031165"><ele>1158.4</ele><time>2026-04-04T13:43:52Z</time></trkpt><trkpt lat="45.933142734441695" lon="10.186684882827622"><ele>1160.6</ele><time>2026-04-04T13:43:54Z</time></trkpt><trkpt lat="45.933137835260894" lon="10.186831123742841"><ele>1162.8</ele><time>2026-04-04T13:43:57Z</time></trkpt><trkpt lat="45.93313669150048" lon="10.186996962982889"><ele>1165.0</ele><time>2026-04-04T13:43:59Z</time></trkpt><trkpt lat="45.933139693404755" lon="10.18712872876187"><ele>1165.0</ele><time>2026-04-04T13:44:01Z</time></trkpt><trkpt lat="45.93310466538456" lon="10.187251932614247"><ele>1165.0</ele><time>2026-04-04T13:44:02Z</time></trkpt><trkpt lat="45.93306870322077" lon="10.187367703358984"><ele>1165.0</ele><time>2026-04-04T13:44:03Z</time></trkpt><trkpt lat="45.93302739023618" lon="10.187477188261616"><ele>1165.0</ele><time>2026-04-04T13:44:04Z</time></trkpt><trkpt lat="45.93297221176185" lon="10.187577681770765"><ele>1165.0</ele><time>2026-04-04T13:44:05Z</time></trkpt><trkpt lat="45.932915356515835" lon="10.187669539878478"><ele>1165.0</ele><time>2026-04-04T13:44:06Z</time></trkpt><trkpt lat="45.9328690737517" lon="10.187761397219802"><ele>1167.3333333333333</ele><time>2026-04-04T13:44:07Z</time></trkpt><trkpt lat="45.93281513618175" lon="10.187861332829435"><ele>1169.6666666666665</ele><time>2026-04-04T13:44:08Z</time></trkpt><trkpt lat="45.93277429398982" lon="10.187942140031515"><ele>1172.0</ele><time>2026-04-04T13:44:09Z</time></trkpt><trkpt lat="45.93272358316876" lon="10.188019117732491"><ele>1174.3333333333333</ele><time>2026-04-04T13:44:10Z</time></trkpt><trkpt lat="45.93266974558507" lon="10.188083659760776"><ele>1176.6666666666667</ele><time>2026-04-04T13:44:11Z</time></trkpt><trkpt lat="45.93260287360366" lon="10.188154149655997"><ele>1179.0</ele><time>2026-04-04T13:44:12Z</time></trkpt><trkpt lat="45.93254594346368" lon="10.188213598836853"><ele>1184.0</ele><time>2026-04-04T13:44:13Z</time></trkpt><trkpt lat="45.93250896453913" lon="10.188293206980106"><ele>1189.0</ele><time>2026-04-04T13:44:14Z</time></trkpt><trkpt lat="45.93251108597197" lon="10.188428769929361"><ele>1194.0</ele><time>2026-04-04T13:44:15Z</time></trkpt><trkpt lat="45.932471202046564" lon="10.18850865635213"><ele>1199.0</ele><time>2026-04-04T13:44:18Z</time></trkpt><trkpt lat="45.93238908684133" lon="10.188463469009944"><ele>1204.0</ele><time>2026-04-04T13:44:19Z</time></trkpt><trkpt lat="45.93233433978801" lon="10.18840367331349"><ele>1209.0</ele><time>2026-04-04T13:44:21Z</time></trkpt><trkpt lat="45.932270913325524" lon="10.188317713561105"><ele>1209.0</ele><time>2026-04-04T13:44:23Z</time></trkpt><trkpt lat="45.932222736298705" lon="10.188242566291274"><ele>1209.0</ele><time>2026-04-04T13:44:25Z</time></trkpt><trkpt lat="45.932188573315116" lon="10.188130930825269"><ele>1209.0</ele><time>2026-04-04T13:44:27Z</time></trkpt><trkpt lat="45.93214004879245" lon="10.188054369122868"><ele>1209.0</ele><time>2026-04-04T13:44:29Z</time></trkpt><trkpt lat="45.93218476157201" lon="10.187912418753642"><ele>1209.0</ele><time>2026-04-04T13:44:33Z</time></trkpt><trkpt lat="45.93214481760419" lon="10.187810063953878"><ele>1209.0</ele><time>2026-04-04T13:44:35Z</time></trkpt><trkpt lat="45.93208622446827" lon="10.187744595117172"><ele>1209.1666666666667</ele><time>2026-04-04T13:44:36Z</time></trkpt><trkpt lat="45.93203019191461" lon="10.18769865572773"><ele>1209.3333333333333</ele><time>2026-04-04T13:44:37Z</time></trkpt><trkpt lat="45.93197663122211" lon="10.18760495177643"><ele>1209.5</ele><time>2026-04-04T13:44:39Z</time></trkpt><trkpt lat="45.93194123909762" lon="10.187493084509622"><ele>1209.6666666666665</ele><time>2026-04-04T13:44:41Z</time></trkpt><trkpt lat="45.93194634320398" lon="10.187343036146567"><ele>1209.8333333333333</ele><time>2026-04-04T13:44:43Z</time></trkpt><trkpt lat="45.9319146119418" lon="10.187249703063634"><ele>1210.0</ele><time>2026-04-04T13:44:44Z</time></trkpt><trkpt lat="45.931903768900746" lon="10.187156331373945"><ele>1210.0</ele><time>2026-04-04T13:44:46Z</time></trkpt><trkpt lat="45.93184858259253" lon="10.18711260040335"><ele>1210.0</ele><time>2026-04-04T13:44:47Z</time></trkpt><trkpt lat="45.93177672551009" lon="10.187044864975654"><ele>1210.0</ele><time>2026-04-04T13:44:49Z</time></trkpt><trkpt lat="45.93168760558293" lon="10.187073690077476"><ele>1210.0</ele><time>2026-04-04T13:44:51Z</time></trkpt><trkpt lat="45.93157481714594" lon="10.187084263470178"><ele>1210.0</ele><time>2026-04-04T13:44:53Z</time></trkpt><trkpt lat="45.931506140097" lon="10.18717169681501"><ele>1210.0</ele><time>2026-04-04T13:44:55Z</time></trkpt><trkpt lat="45.931475336648916" lon="10.187317997956747"><ele>1217.0</ele><time>2026-04-04T13:44:57Z</time></trkpt><trkpt lat="45.93151795488148" lon="10.187385479580398"><ele>1224.0</ele><time>2026-04-04T13:45:00Z</time></trkpt><trkpt lat="45.93157372856135" lon="10.187429442515038"><ele>1231.0</ele><time>2026-04-04T13:45:01Z</time></trkpt><trkpt lat="45.931645744768076" lon="10.187450427421144"><ele>1238.0</ele><time>2026-04-04T13:45:05Z</time></trkpt><trkpt lat="45.93164993928194" lon="10.187579069760892"><ele>1245.0</ele><time>2026-04-04T13:45:27Z</time></trkpt><trkpt lat="45.93169720897487" lon="10.18765960372773"><ele>1252.0</ele><time>2026-04-04T13:51:23Z</time></trkpt><trkpt lat="45.93159954188308" lon="10.187611029511961"><ele>1252.0</ele><time>2026-04-04T13:51:26Z</time></trkpt><trkpt lat="45.931506827155474" lon="10.18751802618319"><ele>1252.0</ele><time>2026-04-04T13:51:28Z</time></trkpt><trkpt lat="45.93140559684142" lon="10.18751210148485"><ele>1252.0</ele><time>2026-04-04T13:51:30Z</time></trkpt><trkpt lat="45.93129728417819" lon="10.187649995851713"><ele>1252.0</ele><time>2026-04-04T13:51:33Z</time></trkpt><trkpt lat="45.93123609597266" lon="10.18770150313761"><ele>1252.0</ele><time>2026-04-04T13:51:34Z</time></trkpt><trkpt lat="45.93119017041832" lon="10.187767050128135"><ele>1252.0</ele><time>2026-04-04T13:51:35Z</time></trkpt><trkpt lat="45.93110911533249" lon="10.187885843612149"><ele>1252.0</ele><time>2026-04-04T13:51:37Z</time></trkpt><trkpt lat="45.93103209220263" lon="10.187858829163929"><ele>1252.0</ele><time>2026-04-04T13:51:41Z</time></trkpt><trkpt lat="45.93097820580423" lon="10.187910341717783"><ele>1252.0</ele><time>2026-04-04T13:51:43Z</time></trkpt><trkpt lat="45.930907234769876" lon="10.187919115468356"><ele>1252.0</ele><time>2026-04-04T13:51:46Z</time></trkpt><trkpt lat="45.93082030474545" lon="10.187996442682216"><ele>1252.0</ele><time>2026-04-04T13:51:49Z</time></trkpt><trkpt lat="45.930703599669265" lon="10.187962568474202"><ele>1258.8</ele><time>2026-04-04T13:51:54Z</time></trkpt><trkpt lat="45.93062343586589" lon="10.187960590172462"><ele>1265.6</ele><time>2026-04-04T13:51:56Z</time></trkpt><trkpt lat="45.930465134157444" lon="10.188018074780665"><ele>1272.3999999999999</ele><time>2026-04-04T13:51:58Z</time></trkpt><trkpt lat="45.93039524400566" lon="10.188070959153336"><ele>1279.2</ele><time>2026-04-04T13:51:59Z</time></trkpt><trkpt lat="45.930312177062206" lon="10.18814760984176"><ele>1286.0</ele><time>2026-04-04T13:52:00Z</time></trkpt><trkpt lat="45.93022379609307" lon="10.188216992291252"><ele>1286.0</ele><time>2026-04-04T13:52:01Z</time></trkpt><trkpt lat="45.930160584289546" lon="10.188262288649375"><ele>1286.0</ele><time>2026-04-04T13:52:02Z</time></trkpt><trkpt lat="45.93010172701501" lon="10.188306759166922"><ele>1286.0</ele><time>2026-04-04T13:52:03Z</time></trkpt><trkpt lat="45.930010138605454" lon="10.188377967626348"><ele>1286.0</ele><time>2026-04-04T13:52:04Z</time></trkpt><trkpt lat="45.929924266230586" lon="10.188456626027797"><ele>1286.0</ele><time>2026-04-04T13:52:05Z</time></trkpt><trkpt lat="45.92982774259242" lon="10.18854995804764"><ele>1293.8</ele><time>2026-04-04T13:52:06Z</time></trkpt><trkpt lat="45.92973375287776" lon="10.188636536695155"><ele>1301.6</ele><time>2026-04-04T13:52:07Z</time></trkpt><trkpt lat="45.92964550079346" lon="10.188671191515317"><ele>1309.4</ele><time>2026-04-04T13:52:08Z</time></trkpt><trkpt lat="45.92955637822839" lon="10.1887400395626"><ele>1317.2</ele><time>2026-04-04T13:52:10Z</time></trkpt><trkpt lat="45.92948985245604" lon="10.188836731322807"><ele>1325.0</ele><time>2026-04-04T13:52:12Z</time></trkpt><trkpt lat="45.92942804678404" lon="10.188957236966752"><ele>1321.6</ele><time>2026-04-04T13:52:14Z</time></trkpt><trkpt lat="45.92938209137622" lon="10.189029473292877"><ele>1318.2</ele><time>2026-04-04T13:52:15Z</time></trkpt><trkpt lat="45.92932460075205" lon="10.189114337756699"><ele>1314.8000000000002</ele><time>2026-04-04T13:52:16Z</time></trkpt><trkpt lat="45.929290731910996" lon="10.18923098509718"><ele>1311.4</ele><time>2026-04-04T13:52:18Z</time></trkpt><trkpt lat="45.92928110679651" lon="10.18935986355105"><ele>1308.0</ele><time>2026-04-04T13:52:20Z</time></trkpt><trkpt lat="45.92921415646864" lon="10.189505129776093"><ele>1314.3333333333333</ele><time>2026-04-04T13:52:22Z</time></trkpt><trkpt lat="45.929165297805305" lon="10.189624025662965"><ele>1320.6666666666667</ele><time>2026-04-04T13:52:25Z</time></trkpt><trkpt lat="45.92915221243146" lon="10.189763455314132"><ele>1327.0</ele><time>2026-04-04T13:52:27Z</time></trkpt><trkpt lat="45.92913210882623" lon="10.18986773970274"><ele>1333.3333333333335</ele><time>2026-04-04T13:52:29Z</time></trkpt><trkpt lat="45.929128248794726" lon="10.18995835504729"><ele>1339.6666666666667</ele><time>2026-04-04T13:52:32Z</time></trkpt><trkpt lat="45.9291017872344" lon="10.19006146249139"><ele>1346.0</ele><time>2026-04-04T13:52:35Z</time></trkpt><trkpt lat="45.92905888766947" lon="10.190154712850353"><ele>1346.0</ele><time>2026-04-04T13:52:38Z</time></trkpt><trkpt lat="45.928973736414335" lon="10.190168751898225"><ele>1346.0</ele><time>2026-04-04T13:52:51Z</time></trkpt><trkpt lat="45.928912734617136" lon="10.190067675360883"><ele>1346.0</ele><time>2026-04-04T13:52:55Z</time></trkpt><trkpt lat="45.92881434360376" lon="10.189995340556479"><ele>1346.0</ele><time>2026-04-04T13:52:58Z</time></trkpt><trkpt lat="45.92872282187332" lon="10.189954846045762"><ele>1346.0</ele><time>2026-04-04T13:53:00Z</time></trkpt><trkpt lat="45.928811190235486" lon="10.189998792381038"><ele>1346.0</ele><time>2026-04-04T13:53:15Z</time></trkpt><trkpt lat="45.928851401153715" lon="10.190072335684947"><ele>1346.0</ele><time>2026-04-04T13:53:17Z</time></trkpt><trkpt lat="45.92893489896217" lon="10.190117232670175"><ele>1346.0</ele><time>2026-04-04T13:53:20Z</time></trkpt><trkpt lat="45.92901174123637" lon="10.19018362368595"><ele>1346.0</ele><time>2026-04-04T13:53:23Z</time></trkpt><trkpt lat="45.92910170512478" lon="10.190152377993549"><ele>1346.0</ele><time>2026-04-04T13:53:25Z</time></trkpt><trkpt lat="45.92917005520058" lon="10.190201096242875"><ele>1346.0</ele><time>2026-04-04T13:53:32Z</time></trkpt><trkpt lat="45.929262966191985" lon="10.190264489036322"><ele>1346.0</ele><time>2026-04-04T13:53:35Z</time></trkpt><trkpt lat="45.92928836217952" lon="10.190349368691686"><ele>1346.0</ele><time>2026-04-04T13:53:41.001Z</time></trkpt><trkpt lat="45.92920411925251" lon="10.190335517602215"><ele>1346.0</ele><time>2026-04-04T13:53:48.001Z</time></trkpt><trkpt lat="45.92909726716612" lon="10.190381025856565"><ele>1346.0</ele><time>2026-04-04T13:53:50.001Z</time></trkpt><trkpt lat="45.929044856670856" lon="10.190456909904125"><ele>1346.0</ele><time>2026-04-04T13:53:51.001Z</time></trkpt><trkpt lat="45.92898790410837" lon="10.190568587080614"><ele>1346.0</ele><time>2026-04-04T13:53:53.001Z</time></trkpt><trkpt lat="45.92896187586319" lon="10.190653385719292"><ele>1347.8333333333335</ele><time>2026-04-04T13:53:54.001Z</time></trkpt><trkpt lat="45.92888601632649" lon="10.190706411854174"><ele>1349.6666666666667</ele><time>2026-04-04T13:53:55.001Z</time></trkpt><trkpt lat="45.92883073560051" lon="10.190769880128535"><ele>1351.5</ele><time>2026-04-04T13:53:56.001Z</time></trkpt><trkpt lat="45.92875322564516" lon="10.190837214132445"><ele>1353.3333333333333</ele><time>2026-04-04T13:53:58.001Z</time></trkpt><trkpt lat="45.928679391534644" lon="10.190821975225271"><ele>1355.1666666666665</ele><time>2026-04-04T13:54:00.001Z</time></trkpt><trkpt lat="45.92860233800488" lon="10.190790658333482"><ele>1357.0</ele><time>2026-04-04T13:54:03.001Z</time></trkpt><trkpt lat="45.928577355300405" lon="10.190880999484415"><ele>1357.0</ele><time>2026-04-04T13:54:06Z</time></trkpt><trkpt lat="45.92863790750233" lon="10.190913676686526"><ele>1357.0</ele><time>2026-04-04T13:54:24Z</time></trkpt><trkpt lat="45.92871293094661" lon="10.190902224519801"><ele>1357.0</ele><time>2026-04-04T13:54:28Z</time></trkpt><trkpt lat="45.9288014866685" lon="10.190854513322419"><ele>1357.0</ele><time>2026-04-04T13:54:32Z</time></trkpt><trkpt lat="45.928867766553495" lon="10.19081901046895"><ele>1357.0</ele><time>2026-04-04T13:54:35Z</time></trkpt><trkpt lat="45.928942223266354" lon="10.190776120082534"><ele>1357.0</ele><time>2026-04-04T13:54:38Z</time></trkpt><trkpt lat="45.92901530722388" lon="10.1907442238016"><ele>1357.0</ele><time>2026-04-04T13:54:41Z</time></trkpt><trkpt lat="45.92910719055517" lon="10.1907044576634"><ele>1357.0</ele><time>2026-04-04T13:54:45Z</time></trkpt><trkpt lat="45.92917116805635" lon="10.19064851943276"><ele>1357.0</ele><time>2026-04-04T13:54:48Z</time></trkpt><trkpt lat="45.92924264045697" lon="10.19064144532698"><ele>1357.0</ele><time>2026-04-04T13:54:50Z</time></trkpt><trkpt lat="45.929257779856954" lon="10.19038695909062"><ele>1357.0</ele><time>2026-04-04T13:55:29Z</time></trkpt><trkpt lat="45.92932992119881" lon="10.190272463015253"><ele>1348.8333333333333</ele><time>2026-04-04T13:56:20Z</time></trkpt><trkpt lat="45.929305171980396" lon="10.190149295667815"><ele>1340.6666666666665</ele><time>2026-04-04T13:56:22Z</time></trkpt><trkpt lat="45.929293808261534" lon="10.18996692400649"><ele>1332.5</ele><time>2026-04-04T13:56:24Z</time></trkpt><trkpt lat="45.929296391848055" lon="10.189861219752567"><ele>1324.3333333333333</ele><time>2026-04-04T13:56:25Z</time></trkpt><trkpt lat="45.929293226265635" lon="10.189754982000531"><ele>1316.1666666666667</ele><time>2026-04-04T13:56:26Z</time></trkpt><trkpt lat="45.92928904156618" lon="10.189648335910634"><ele>1308.0</ele><time>2026-04-04T13:56:27Z</time></trkpt><trkpt lat="45.92926843259321" lon="10.18953825356143"><ele>1308.0</ele><time>2026-04-04T13:56:28Z</time></trkpt><trkpt lat="45.92926478715227" lon="10.189423193330374"><ele>1308.0</ele><time>2026-04-04T13:56:29Z</time></trkpt><trkpt lat="45.92925304411957" lon="10.189314629012534"><ele>1308.0</ele><time>2026-04-04T13:56:30Z</time></trkpt><trkpt lat="45.92925157071308" lon="10.189202592423218"><ele>1308.0</ele><time>2026-04-04T13:56:31Z</time></trkpt><trkpt lat="45.92927749856327" lon="10.189090939437452"><ele>1308.0</ele><time>2026-04-04T13:56:32Z</time></trkpt><trkpt lat="45.92931603087345" lon="10.188970567039807"><ele>1308.0</ele><time>2026-04-04T13:56:33Z</time></trkpt><trkpt lat="45.92932247342582" lon="10.188835106133938"><ele>1309.8333333333333</ele><time>2026-04-04T13:56:34Z</time></trkpt><trkpt lat="45.929351541972125" lon="10.188700657920862"><ele>1311.6666666666667</ele><time>2026-04-04T13:56:35Z</time></trkpt><trkpt lat="45.92938310442958" lon="10.18856800514235"><ele>1313.5</ele><time>2026-04-04T13:56:36Z</time></trkpt><trkpt lat="45.929407179571406" lon="10.18843229680751"><ele>1315.3333333333335</ele><time>2026-04-04T13:56:37Z</time></trkpt><trkpt lat="45.92942386298716" lon="10.188340721777847"><ele>1317.1666666666667</ele><time>2026-04-04T13:56:38Z</time></trkpt><trkpt lat="45.92946629068541" lon="10.18826346773757"><ele>1319.0</ele><time>2026-04-04T13:56:39Z</time></trkpt><trkpt lat="45.929515775826125" lon="10.188169397359294"><ele>1319.0</ele><time>2026-04-04T13:56:40Z</time></trkpt><trkpt lat="45.929535650386775" lon="10.188058866190755"><ele>1319.0</ele><time>2026-04-04T13:56:41Z</time></trkpt><trkpt lat="45.92955382578018" lon="10.18795995983219"><ele>1319.0</ele><time>2026-04-04T13:56:42Z</time></trkpt><trkpt lat="45.92957142038229" lon="10.18786028147305"><ele>1319.0</ele><time>2026-04-04T13:56:43Z</time></trkpt><trkpt lat="45.92958734220823" lon="10.187768112472977"><ele>1319.0</ele><time>2026-04-04T13:56:44Z</time></trkpt><trkpt lat="45.92954812301167" lon="10.187572620961314"><ele>1319.0</ele><time>2026-04-04T13:56:46Z</time></trkpt><trkpt lat="45.92948701645157" lon="10.187487174181985"><ele>1319.0</ele><time>2026-04-04T13:56:47Z</time></trkpt><trkpt lat="45.92940127311429" lon="10.187435286570068"><ele>1319.0</ele><time>2026-04-04T13:56:48Z</time></trkpt><trkpt lat="45.92932207294231" lon="10.18738288889445"><ele>1319.0</ele><time>2026-04-04T13:56:49Z</time></trkpt><trkpt lat="45.929227315467365" lon="10.187357077956968"><ele>1319.0</ele><time>2026-04-04T13:56:50Z</time></trkpt><trkpt lat="45.92912454717895" lon="10.187330732206801"><ele>1319.0</ele><time>2026-04-04T13:56:51Z</time></trkpt><trkpt lat="45.929032947598515" lon="10.18729314030031"><ele>1320.6</ele><time>2026-04-04T13:56:52Z</time></trkpt><trkpt lat="45.92894585394752" lon="10.187269548453646"><ele>1322.2</ele><time>2026-04-04T13:56:53Z</time></trkpt><trkpt lat="45.92885802443396" lon="10.187260340935483"><ele>1323.8</ele><time>2026-04-04T13:56:54Z</time></trkpt><trkpt lat="45.92877867427443" lon="10.187207052802915"><ele>1325.3999999999999</ele><time>2026-04-04T13:56:55Z</time></trkpt><trkpt lat="45.9286842474248" lon="10.18710432116183"><ele>1327.0</ele><time>2026-04-04T13:56:56Z</time></trkpt><trkpt lat="45.928601157989" lon="10.186956648482559"><ele>1327.0</ele><time>2026-04-04T13:56:57Z</time></trkpt><trkpt lat="45.9285419874405" lon="10.186849581664994"><ele>1327.0</ele><time>2026-04-04T13:56:58Z</time></trkpt><trkpt lat="45.92848801494573" lon="10.186759311359545"><ele>1327.0</ele><time>2026-04-04T13:56:59Z</time></trkpt><trkpt lat="45.92844127763043" lon="10.18664741915438"><ele>1327.0</ele><time>2026-04-04T13:57:00Z</time></trkpt><trkpt lat="45.92840538739295" lon="10.186503229353114"><ele>1327.0</ele><time>2026-04-04T13:57:01Z</time></trkpt><trkpt lat="45.92835580211376" lon="10.186387287984573"><ele>1333.6</ele><time>2026-04-04T13:57:02Z</time></trkpt><trkpt lat="45.9283122957711" lon="10.186243298173643"><ele>1340.1999999999998</ele><time>2026-04-04T13:57:03Z</time></trkpt><trkpt lat="45.928286179700976" lon="10.186099301988737"><ele>1346.8</ele><time>2026-04-04T13:57:04Z</time></trkpt><trkpt lat="45.928269261912206" lon="10.185961554364566"><ele>1353.4</ele><time>2026-04-04T13:57:05Z</time></trkpt><trkpt lat="45.92825141137458" lon="10.185838294880092"><ele>1360.0</ele><time>2026-04-04T13:57:06Z</time></trkpt><trkpt lat="45.92822698790447" lon="10.185711591921313"><ele>1358.2</ele><time>2026-04-04T13:57:07Z</time></trkpt><trkpt lat="45.92821031228982" lon="10.18556925454413"><ele>1356.4</ele><time>2026-04-04T13:57:08Z</time></trkpt><trkpt lat="45.92820840326141" lon="10.18544670084238"><ele>1354.6</ele><time>2026-04-04T13:57:09Z</time></trkpt><trkpt lat="45.92818515615845" lon="10.185314387528704"><ele>1352.8</ele><time>2026-04-04T13:57:10Z</time></trkpt><trkpt lat="45.92815675030718" lon="10.185202022758727"><ele>1351.0</ele><time>2026-04-04T13:57:11Z</time></trkpt><trkpt lat="45.928113793233344" lon="10.185076618652108"><ele>1351.0</ele><time>2026-04-04T13:57:12Z</time></trkpt><trkpt lat="45.928063581314156" lon="10.184956925171571"><ele>1351.0</ele><time>2026-04-04T13:57:13Z</time></trkpt><trkpt lat="45.92800175991139" lon="10.184806906494417"><ele>1351.0</ele><time>2026-04-04T13:57:14Z</time></trkpt><trkpt lat="45.927942838717264" lon="10.184665589107363"><ele>1351.0</ele><time>2026-04-04T13:57:15Z</time></trkpt><trkpt lat="45.92791851684348" lon="10.184522092812706"><ele>1351.0</ele><time>2026-04-04T13:57:16Z</time></trkpt><trkpt lat="45.927908195817416" lon="10.184393442749922"><ele>1350.1999999999998</ele><time>2026-04-04T13:57:17Z</time></trkpt><trkpt lat="45.92790807395973" lon="10.184250964289328"><ele>1349.3999999999999</ele><time>2026-04-04T13:57:18Z</time></trkpt><trkpt lat="45.92790353286041" lon="10.184106186888604"><ele>1348.6</ele><time>2026-04-04T13:57:19Z</time></trkpt><trkpt lat="45.92788208350836" lon="10.183948111943392"><ele>1347.8</ele><time>2026-04-04T13:57:20Z</time></trkpt><trkpt lat="45.92787035204571" lon="10.183798732236774"><ele>1347.0</ele><time>2026-04-04T13:57:21Z</time></trkpt><trkpt lat="45.927858219065854" lon="10.183640600893378"><ele>1347.0</ele><time>2026-04-04T13:57:22Z</time></trkpt><trkpt lat="45.927870382148775" lon="10.18351917565487"><ele>1347.0</ele><time>2026-04-04T13:57:23Z</time></trkpt><trkpt lat="45.9278901772107" lon="10.183387432870113"><ele>1347.0</ele><time>2026-04-04T13:57:24Z</time></trkpt><trkpt lat="45.92790639424573" lon="10.18325253960758"><ele>1347.0</ele><time>2026-04-04T13:57:25Z</time></trkpt><trkpt lat="45.92792018041728" lon="10.183134586668375"><ele>1347.0</ele><time>2026-04-04T13:57:26Z</time></trkpt><trkpt lat="45.92790966566561" lon="10.1830110291597"><ele>1347.0</ele><time>2026-04-04T13:57:27Z</time></trkpt><trkpt lat="45.92789058424979" lon="10.182852991837684"><ele>1346.3999999999999</ele><time>2026-04-04T13:57:28Z</time></trkpt><trkpt lat="45.92785647986626" lon="10.182693702985102"><ele>1345.8</ele><time>2026-04-04T13:57:29Z</time></trkpt><trkpt lat="45.927846560952595" lon="10.182538417333333"><ele>1345.2</ele><time>2026-04-04T13:57:30Z</time></trkpt><trkpt lat="45.92782132372056" lon="10.182380958556655"><ele>1344.6</ele><time>2026-04-04T13:57:31Z</time></trkpt><trkpt lat="45.927797928334186" lon="10.182238623298987"><ele>1344.0</ele><time>2026-04-04T13:57:32Z</time></trkpt><trkpt lat="45.92778261460247" lon="10.182118784734268"><ele>1342.8333333333333</ele><time>2026-04-04T13:57:33Z</time></trkpt><trkpt lat="45.92776261534701" lon="10.181988908581795"><ele>1341.6666666666667</ele><time>2026-04-04T13:57:34Z</time></trkpt><trkpt lat="45.927748987203685" lon="10.181895190921939"><ele>1340.5</ele><time>2026-04-04T13:57:35Z</time></trkpt><trkpt lat="45.92775113482064" lon="10.181798147697751"><ele>1339.3333333333335</ele><time>2026-04-04T13:57:36Z</time></trkpt><trkpt lat="45.927730137155216" lon="10.181692839692193"><ele>1338.1666666666667</ele><time>2026-04-04T13:57:38Z</time></trkpt><trkpt lat="45.92765390694008" lon="10.181613099167153"><ele>1337.0</ele><time>2026-04-04T13:57:40Z</time></trkpt><trkpt lat="45.927591286125846" lon="10.18154730109615"><ele>1336.6</ele><time>2026-04-04T13:57:42Z</time></trkpt><trkpt lat="45.92757927065495" lon="10.18141397675434"><ele>1336.1999999999998</ele><time>2026-04-04T13:57:44Z</time></trkpt><trkpt lat="45.92762097510851" lon="10.18125466004265"><ele>1335.8</ele><time>2026-04-04T13:57:46Z</time></trkpt><trkpt lat="45.9276563179083" lon="10.18117608805922"><ele>1335.4</ele><time>2026-04-04T13:57:47Z</time></trkpt><trkpt lat="45.92768509807371" lon="10.181007183959467"><ele>1335.0</ele><time>2026-04-04T13:57:49Z</time></trkpt><trkpt lat="45.927702377754905" lon="10.180838747291796"><ele>1335.1666666666667</ele><time>2026-04-04T13:57:51Z</time></trkpt><trkpt lat="45.92768352826085" lon="10.180659993685177"><ele>1335.3333333333333</ele><time>2026-04-04T13:57:53Z</time></trkpt><trkpt lat="45.927656583035606" lon="10.180563498506181"><ele>1335.5</ele><time>2026-04-04T13:57:54Z</time></trkpt><trkpt lat="45.927611496074036" lon="10.180478310561613"><ele>1335.6666666666665</ele><time>2026-04-04T13:57:55Z</time></trkpt><trkpt lat="45.92756600640654" lon="10.180397837336262"><ele>1335.8333333333333</ele><time>2026-04-04T13:57:56Z</time></trkpt><trkpt lat="45.92751527165779" lon="10.180339495365214"><ele>1336.0</ele><time>2026-04-04T13:57:57Z</time></trkpt><trkpt lat="45.92739972255314" lon="10.180335859196747"><ele>1343.0</ele><time>2026-04-04T13:57:59Z</time></trkpt><trkpt lat="45.9272837468066" lon="10.180376097449482"><ele>1350.0</ele><time>2026-04-04T13:58:01.001Z</time></trkpt><trkpt lat="45.9271689492214" lon="10.180442971524569"><ele>1357.0</ele><time>2026-04-04T13:58:03.001Z</time></trkpt><trkpt lat="45.92709226373888" lon="10.180546097699796"><ele>1364.0</ele><time>2026-04-04T13:58:04.001Z</time></trkpt><trkpt lat="45.92701577171685" lon="10.180674820316932"><ele>1365.0</ele><time>2026-04-04T13:58:05.001Z</time></trkpt><trkpt lat="45.92691566872826" lon="10.180843860002305"><ele>1366.0</ele><time>2026-04-04T13:58:06.001Z</time></trkpt><trkpt lat="45.92682180115355" lon="10.181018619069974"><ele>1367.0</ele><time>2026-04-04T13:58:07.001Z</time></trkpt><trkpt lat="45.92673600640754" lon="10.181198624770467"><ele>1367.5</ele><time>2026-04-04T13:58:08.001Z</time></trkpt><trkpt lat="45.92663455219112" lon="10.181398586733115"><ele>1368.0</ele><time>2026-04-04T13:58:09.001Z</time></trkpt><trkpt lat="45.926575088435854" lon="10.181566762070855"><ele>1368.5</ele><time>2026-04-04T13:58:10.001Z</time></trkpt><trkpt lat="45.92651603080565" lon="10.181710033355401"><ele>1369.0</ele><time>2026-04-04T13:58:11.001Z</time></trkpt><trkpt lat="45.92645234078382" lon="10.181815705305672"><ele>1371.0</ele><time>2026-04-04T13:58:12.001Z</time></trkpt><trkpt lat="45.92639082902469" lon="10.181936806335518"><ele>1373.0</ele><time>2026-04-04T13:58:13.001Z</time></trkpt><trkpt lat="45.92634064835073" lon="10.182091648187182"><ele>1375.0</ele><time>2026-04-04T13:58:14.001Z</time></trkpt><trkpt lat="45.92629366788041" lon="10.182273663354064"><ele>1377.0</ele><time>2026-04-04T13:58:15.001Z</time></trkpt><trkpt lat="45.926245870468456" lon="10.18246054014658"><ele>1380.75</ele><time>2026-04-04T13:58:16Z</time></trkpt><trkpt lat="45.926199831275625" lon="10.182643184915525"><ele>1384.5</ele><time>2026-04-04T13:58:17Z</time></trkpt><trkpt lat="45.92613945137607" lon="10.182839035989025"><ele>1388.25</ele><time>2026-04-04T13:58:18Z</time></trkpt><trkpt lat="45.926081306725486" lon="10.183036286449218"><ele>1392.0</ele><time>2026-04-04T13:58:19Z</time></trkpt><trkpt lat="45.926023348193546" lon="10.18323272099393"><ele>1389.6666666666667</ele><time>2026-04-04T13:58:20Z</time></trkpt><trkpt lat="45.92596780882313" lon="10.183445511279515"><ele>1387.3333333333335</ele><time>2026-04-04T13:58:21Z</time></trkpt><trkpt lat="45.92589458244575" lon="10.183654911088697"><ele>1385.0</ele><time>2026-04-04T13:58:22Z</time></trkpt><trkpt lat="45.92583388109346" lon="10.183845296095836"><ele>1389.5</ele><time>2026-04-04T13:58:23Z</time></trkpt><trkpt lat="45.925785279253525" lon="10.184016211635326"><ele>1394.0</ele><time>2026-04-04T13:58:24Z</time></trkpt><trkpt lat="45.925732315854994" lon="10.184188377286706"><ele>1398.5</ele><time>2026-04-04T13:58:25Z</time></trkpt><trkpt lat="45.925676882144145" lon="10.184339080480653"><ele>1403.0</ele><time>2026-04-04T13:58:26Z</time></trkpt><trkpt lat="45.92564292920082" lon="10.184495833113694"><ele>1403.0</ele><time>2026-04-04T13:58:27Z</time></trkpt><trkpt lat="45.92562355498716" lon="10.184647671090971"><ele>1403.0</ele><time>2026-04-04T13:58:28Z</time></trkpt><trkpt lat="45.925609413127795" lon="10.184788855469288"><ele>1403.0</ele><time>2026-04-04T13:58:29Z</time></trkpt><trkpt lat="45.925589659884494" lon="10.184930506478251"><ele>1403.0</ele><time>2026-04-04T13:58:30Z</time></trkpt><trkpt lat="45.9255238816747" lon="10.185041222910087"><ele>1403.0</ele><time>2026-04-04T13:58:31Z</time></trkpt><trkpt lat="45.925514718773385" lon="10.18514559068987"><ele>1404.8000000000002</ele><time>2026-04-04T13:58:32Z</time></trkpt><trkpt lat="45.92549851493115" lon="10.185267708346643"><ele>1406.6</ele><time>2026-04-04T13:58:33Z</time></trkpt><trkpt lat="45.92547038482017" lon="10.18539491898916"><ele>1408.4</ele><time>2026-04-04T13:58:34Z</time></trkpt><trkpt lat="45.92544636857103" lon="10.185507746755434"><ele>1410.1999999999998</ele><time>2026-04-04T13:58:35Z</time></trkpt><trkpt lat="45.925416475719175" lon="10.18562341647342"><ele>1412.0</ele><time>2026-04-04T13:58:36Z</time></trkpt><trkpt lat="45.925254656033246" lon="10.185945102152797"><ele>1415.0</ele><time>2026-04-04T13:58:37Z</time></trkpt><trkpt lat="45.925032851367526" lon="10.185816799711281"><ele>1418.0</ele><time>2026-04-04T13:58:38Z</time></trkpt><trkpt lat="45.924947706899374" lon="10.18575405246271"><ele>1421.0</ele><time>2026-04-04T13:58:39Z</time></trkpt><trkpt lat="45.92485710053698" lon="10.1857237967795"><ele>1424.0</ele><time>2026-04-04T13:58:40Z</time></trkpt><trkpt lat="45.92476504897917" lon="10.185701419223255"><ele>1420.75</ele><time>2026-04-04T13:58:41Z</time></trkpt><trkpt lat="45.92465428410522" lon="10.185654309027983"><ele>1417.5</ele><time>2026-04-04T13:58:42Z</time></trkpt><trkpt lat="45.92453345265241" lon="10.185617608139665"><ele>1414.25</ele><time>2026-04-04T13:58:43Z</time></trkpt><trkpt lat="45.924412084316955" lon="10.185595614054582"><ele>1411.0</ele><time>2026-04-04T13:58:44Z</time></trkpt><trkpt lat="45.92428011544996" lon="10.18558389648711"><ele>1417.25</ele><time>2026-04-04T13:58:45Z</time></trkpt><trkpt lat="45.924145442272795" lon="10.185579251554078"><ele>1423.5</ele><time>2026-04-04T13:58:46Z</time></trkpt><trkpt lat="45.924015891030955" lon="10.185553438934134"><ele>1429.75</ele><time>2026-04-04T13:58:47Z</time></trkpt><trkpt lat="45.92390914445393" lon="10.185436154380916"><ele>1436.0</ele><time>2026-04-04T13:58:48Z</time></trkpt><trkpt lat="45.92381903596475" lon="10.185301135471638"><ele>1436.0</ele><time>2026-04-04T13:58:49Z</time></trkpt><trkpt lat="45.92373175908772" lon="10.185150762703106"><ele>1436.0</ele><time>2026-04-04T13:58:50Z</time></trkpt><trkpt lat="45.92365467962549" lon="10.185018457405421"><ele>1436.0</ele><time>2026-04-04T13:58:51Z</time></trkpt><trkpt lat="45.92358968332138" lon="10.184903123392305"><ele>1436.0</ele><time>2026-04-04T13:58:52Z</time></trkpt><trkpt lat="45.923519066052734" lon="10.184777913964082"><ele>1444.6666666666667</ele><time>2026-04-04T13:58:53Z</time></trkpt><trkpt lat="45.92338793017358" lon="10.18455690047007"><ele>1453.3333333333333</ele><time>2026-04-04T13:58:54Z</time></trkpt><trkpt lat="45.923288670594346" lon="10.184391299314013"><ele>1462.0</ele><time>2026-04-04T13:58:55Z</time></trkpt><trkpt lat="45.92318794091111" lon="10.184217465983272"><ele>1462.0</ele><time>2026-04-04T13:58:56Z</time></trkpt><trkpt lat="45.92309062826788" lon="10.184041915332795"><ele>1462.0</ele><time>2026-04-04T13:58:57Z</time></trkpt><trkpt lat="45.9229991118646" lon="10.183856069130666"><ele>1462.0</ele><time>2026-04-04T13:58:58Z</time></trkpt><trkpt lat="45.922928387731474" lon="10.183657217065058"><ele>1459.6666666666665</ele><time>2026-04-04T13:58:59Z</time></trkpt><trkpt lat="45.92287913644217" lon="10.183437391699304"><ele>1457.3333333333333</ele><time>2026-04-04T13:59:00Z</time></trkpt><trkpt lat="45.922833942717105" lon="10.183204949220835"><ele>1455.0</ele><time>2026-04-04T13:59:01Z</time></trkpt><trkpt lat="45.922790906932" lon="10.18296332013627"><ele>1453.5</ele><time>2026-04-04T13:59:02Z</time></trkpt><trkpt lat="45.922736858497785" lon="10.182761909734262"><ele>1452.0</ele><time>2026-04-04T13:59:03Z</time></trkpt><trkpt lat="45.922688256442854" lon="10.182594413413387"><ele>1450.5</ele><time>2026-04-04T13:59:04Z</time></trkpt><trkpt lat="45.922643769559045" lon="10.182421483726836"><ele>1449.0</ele><time>2026-04-04T13:59:05Z</time></trkpt><trkpt lat="45.92259985159032" lon="10.18224653610266"><ele>1458.6</ele><time>2026-04-04T13:59:06Z</time></trkpt><trkpt lat="45.92253735443876" lon="10.182088348167005"><ele>1468.2</ele><time>2026-04-04T13:59:07Z</time></trkpt><trkpt lat="45.92248535707869" lon="10.181968614845529"><ele>1477.8</ele><time>2026-04-04T13:59:08Z</time></trkpt><trkpt lat="45.92244906729173" lon="10.181854389952932"><ele>1487.3999999999999</ele><time>2026-04-04T13:59:09Z</time></trkpt><trkpt lat="45.92241756435888" lon="10.181751754748941"><ele>1497.0</ele><time>2026-04-04T13:59:10Z</time></trkpt><trkpt lat="45.922389884555386" lon="10.181662301420916"><ele>1497.0</ele><time>2026-04-04T13:59:11Z</time></trkpt><trkpt lat="45.92235362948313" lon="10.181553308665809"><ele>1497.0</ele><time>2026-04-04T13:59:13Z</time></trkpt><trkpt lat="45.92239623168954" lon="10.18172588557282"><ele>1497.0</ele><time>2026-04-04T14:02:00.001Z</time></trkpt><trkpt lat="45.922427891777446" lon="10.181903882561068"><ele>1497.0</ele><time>2026-04-04T14:02:02.001Z</time></trkpt><trkpt lat="45.922477449755306" lon="10.182046539270697"><ele>1497.0</ele><time>2026-04-04T14:02:04.001Z</time></trkpt><trkpt lat="45.92253417004838" lon="10.182166140587839"><ele>1497.0</ele><time>2026-04-04T14:02:06.001Z</time></trkpt><trkpt lat="45.92257296988908" lon="10.182277540051308"><ele>1497.0</ele><time>2026-04-04T14:02:08.001Z</time></trkpt><trkpt lat="45.92261326427525" lon="10.182440994009905"><ele>1497.0</ele><time>2026-04-04T14:02:10.001Z</time></trkpt><trkpt lat="45.92264731714939" lon="10.18257696443448"><ele>1497.0</ele><time>2026-04-04T14:02:12.001Z</time></trkpt><trkpt lat="45.92268508135887" lon="10.182674222157315"><ele>1497.0</ele><time>2026-04-04T14:02:15.001Z</time></trkpt><trkpt lat="45.9226466216511" lon="10.182572152073393"><ele>1497.0</ele><time>2026-04-04T14:02:21.001Z</time></trkpt><trkpt lat="45.922652970243846" lon="10.182469611031648"><ele>1497.0</ele><time>2026-04-04T14:02:22.001Z</time></trkpt><trkpt lat="45.9226359798652" lon="10.182343433116117"><ele>1497.0</ele><time>2026-04-04T14:02:23.001Z</time></trkpt><trkpt lat="45.92260799172106" lon="10.182204218309254"><ele>1497.0</ele><time>2026-04-04T14:02:24.001Z</time></trkpt><trkpt lat="45.92253413391111" lon="10.18208145392582"><ele>1497.0</ele><time>2026-04-04T14:02:25.001Z</time></trkpt><trkpt lat="45.922469230292776" lon="10.18191334054643"><ele>1497.0</ele><time>2026-04-04T14:02:26.001Z</time></trkpt><trkpt lat="45.922418701261606" lon="10.18175545875336"><ele>1497.0</ele><time>2026-04-04T14:02:27.001Z</time></trkpt><trkpt lat="45.92238134389239" lon="10.181632217770703"><ele>1497.0</ele><time>2026-04-04T14:02:28.001Z</time></trkpt><trkpt lat="45.922349705882304" lon="10.18154213729987"><ele>1497.0</ele><time>2026-04-04T14:02:29.001Z</time></trkpt><trkpt lat="45.9223097447102" lon="10.181431415179174"><ele>1497.5</ele><time>2026-04-04T14:02:31.001Z</time></trkpt><trkpt lat="45.92226255965451" lon="10.181314852245514"><ele>1498.0</ele><time>2026-04-04T14:02:33.001Z</time></trkpt><trkpt lat="45.92227661896158" lon="10.181409926858542"><ele>1498.5</ele><time>2026-04-04T14:04:40.001Z</time></trkpt><trkpt lat="45.92221011994877" lon="10.181373992542737"><ele>1499.0</ele><time>2026-04-04T14:04:42.001Z</time></trkpt><trkpt lat="45.922130738199016" lon="10.181310038208162"><ele>1499.5</ele><time>2026-04-04T14:04:44.001Z</time></trkpt><trkpt lat="45.92206605676219" lon="10.181181046884255"><ele>1500.0</ele><time>2026-04-04T14:04:46.001Z</time></trkpt><trkpt lat="45.92205038817416" lon="10.181049064730374"><ele>1500.0</ele><time>2026-04-04T14:04:54.001Z</time></trkpt><trkpt lat="45.921981209808585" lon="10.18097121033818"><ele>1500.0</ele><time>2026-04-04T14:04:55.001Z</time></trkpt><trkpt lat="45.92190694800633" lon="10.180879368932844"><ele>1500.0</ele><time>2026-04-04T14:04:56.001Z</time></trkpt><trkpt lat="45.92181973481333" lon="10.180754524366547"><ele>1500.0</ele><time>2026-04-04T14:04:57.001Z</time></trkpt><trkpt lat="45.92177227465163" lon="10.180574969350122"><ele>1500.0</ele><time>2026-04-04T14:04:58.001Z</time></trkpt><trkpt lat="45.92172013975615" lon="10.180389930672412"><ele>1504.6666666666667</ele><time>2026-04-04T14:04:59.001Z</time></trkpt><trkpt lat="45.921635502076086" lon="10.18019715710979"><ele>1509.3333333333335</ele><time>2026-04-04T14:05:00.001Z</time></trkpt><trkpt lat="45.92154965248209" lon="10.179986663755868"><ele>1514.0</ele><time>2026-04-04T14:05:01.001Z</time></trkpt><trkpt lat="45.9214698716504" lon="10.179753141877889"><ele>1515.6666666666667</ele><time>2026-04-04T14:05:02.001Z</time></trkpt><trkpt lat="45.9214111782326" lon="10.179524486380684"><ele>1517.3333333333333</ele><time>2026-04-04T14:05:03.001Z</time></trkpt><trkpt lat="45.92135668766822" lon="10.179290920705604"><ele>1519.0</ele><time>2026-04-04T14:05:04.001Z</time></trkpt><trkpt lat="45.921311829464166" lon="10.179045716742532"><ele>1518.5</ele><time>2026-04-04T14:05:05.001Z</time></trkpt><trkpt lat="45.921268925573266" lon="10.178811030465665"><ele>1518.0</ele><time>2026-04-04T14:05:06.001Z</time></trkpt><trkpt lat="45.92123253013962" lon="10.178626002621732"><ele>1517.5</ele><time>2026-04-04T14:05:07.001Z</time></trkpt><trkpt lat="45.921179693551565" lon="10.178496121032829"><ele>1517.0</ele><time>2026-04-04T14:05:08.001Z</time></trkpt><trkpt lat="45.92109870795926" lon="10.17835876410998"><ele>1517.0</ele><time>2026-04-04T14:05:09.001Z</time></trkpt><trkpt lat="45.92099488783901" lon="10.178253508618438"><ele>1517.0</ele><time>2026-04-04T14:05:10.001Z</time></trkpt><trkpt lat="45.92088892458048" lon="10.178182804096013"><ele>1517.0</ele><time>2026-04-04T14:05:11.001Z</time></trkpt><trkpt lat="45.9207682107818" lon="10.178131133384156"><ele>1517.0</ele><time>2026-04-04T14:05:12.001Z</time></trkpt><trkpt lat="45.92062079155529" lon="10.178049509998036"><ele>1518.5</ele><time>2026-04-04T14:05:13.001Z</time></trkpt><trkpt lat="45.92046878195287" lon="10.17797491398845"><ele>1520.0</ele><time>2026-04-04T14:05:14.001Z</time></trkpt><trkpt lat="45.920360184798994" lon="10.177913300473865"><ele>1521.5</ele><time>2026-04-04T14:05:15.001Z</time></trkpt><trkpt lat="45.92025640285415" lon="10.17785441890789"><ele>1523.0</ele><time>2026-04-04T14:05:16.001Z</time></trkpt><trkpt lat="45.92023512812388" lon="10.177595770238252"><ele>1523.0</ele><time>2026-04-04T14:05:17.001Z</time></trkpt><trkpt lat="45.92020423449282" lon="10.17742487475626"><ele>1523.0</ele><time>2026-04-04T14:05:18.001Z</time></trkpt><trkpt lat="45.92016428696962" lon="10.177278633956858"><ele>1523.0</ele><time>2026-04-04T14:05:19.001Z</time></trkpt><trkpt lat="45.92007389472247" lon="10.177150051841505"><ele>1523.0</ele><time>2026-04-04T14:05:20.001Z</time></trkpt><trkpt lat="45.919971509941995" lon="10.177033715047543"><ele>1525.25</ele><time>2026-04-04T14:05:21.001Z</time></trkpt><trkpt lat="45.919880062507936" lon="10.17693466873031"><ele>1527.5</ele><time>2026-04-04T14:05:22.001Z</time></trkpt><trkpt lat="45.919751936094784" lon="10.17682836743355"><ele>1529.75</ele><time>2026-04-04T14:05:23.001Z</time></trkpt><trkpt lat="45.919606878247166" lon="10.17674813681191"><ele>1532.0</ele><time>2026-04-04T14:05:24.001Z</time></trkpt><trkpt lat="45.91944780520113" lon="10.176675443997475"><ele>1532.0</ele><time>2026-04-04T14:05:25.001Z</time></trkpt><trkpt lat="45.91931405952001" lon="10.176586757889117"><ele>1532.0</ele><time>2026-04-04T14:05:26.001Z</time></trkpt><trkpt lat="45.9192072033869" lon="10.176508043787717"><ele>1532.0</ele><time>2026-04-04T14:05:27.001Z</time></trkpt><trkpt lat="45.9191430519289" lon="10.176404379647037"><ele>1532.0</ele><time>2026-04-04T14:05:28.001Z</time></trkpt><trkpt lat="45.91911645853567" lon="10.176300398737176"><ele>1532.0</ele><time>2026-04-04T14:05:29.001Z</time></trkpt><trkpt lat="45.91913691244946" lon="10.176183634091268"><ele>1535.0</ele><time>2026-04-04T14:05:30.001Z</time></trkpt><trkpt lat="45.91912553315904" lon="10.1760679914236"><ele>1538.0</ele><time>2026-04-04T14:05:31.001Z</time></trkpt><trkpt lat="45.91910603915976" lon="10.175950310460225"><ele>1541.0</ele><time>2026-04-04T14:05:32.001Z</time></trkpt><trkpt lat="45.919094819399206" lon="10.175806229842038"><ele>1544.0</ele><time>2026-04-04T14:05:33.001Z</time></trkpt><trkpt lat="45.91908866401866" lon="10.175660404605736"><ele>1547.0</ele><time>2026-04-04T14:05:34.001Z</time></trkpt><trkpt lat="45.919083741685846" lon="10.175510520188581"><ele>1548.0</ele><time>2026-04-04T14:05:35.001Z</time></trkpt><trkpt lat="45.919066282082404" lon="10.17536566844251"><ele>1549.0</ele><time>2026-04-04T14:05:36.001Z</time></trkpt><trkpt lat="45.91901170910228" lon="10.17525628273547"><ele>1550.0</ele><time>2026-04-04T14:05:37.001Z</time></trkpt><trkpt lat="45.918927975617684" lon="10.1751264066625"><ele>1551.0</ele><time>2026-04-04T14:05:38.001Z</time></trkpt><trkpt lat="45.91882129291032" lon="10.17500088810158"><ele>1551.0</ele><time>2026-04-04T14:05:39.001Z</time></trkpt><trkpt lat="45.918720313002304" lon="10.174888325769802"><ele>1551.0</ele><time>2026-04-04T14:05:40.001Z</time></trkpt><trkpt lat="45.918608855690685" lon="10.174763442216102"><ele>1551.0</ele><time>2026-04-04T14:05:41.001Z</time></trkpt><trkpt lat="45.91850504997434" lon="10.174647008416748"><ele>1551.0</ele><time>2026-04-04T14:05:42.001Z</time></trkpt><trkpt lat="45.91837898561364" lon="10.17457400824743"><ele>1554.5</ele><time>2026-04-04T14:05:43.001Z</time></trkpt><trkpt lat="45.91824324904708" lon="10.174534840392825"><ele>1558.0</ele><time>2026-04-04T14:05:44.001Z</time></trkpt><trkpt lat="45.918121226100986" lon="10.17451948172362"><ele>1561.5</ele><time>2026-04-04T14:05:45.001Z</time></trkpt><trkpt lat="45.917989375975246" lon="10.174526600448763"><ele>1565.0</ele><time>2026-04-04T14:05:46.001Z</time></trkpt><trkpt lat="45.91785115792629" lon="10.174556114027963"><ele>1565.0</ele><time>2026-04-04T14:05:47.001Z</time></trkpt><trkpt lat="45.917709343058576" lon="10.17459043971872"><ele>1565.0</ele><time>2026-04-04T14:05:48.001Z</time></trkpt><trkpt lat="45.917560992648944" lon="10.174619187556482"><ele>1565.0</ele><time>2026-04-04T14:05:49.001Z</time></trkpt><trkpt lat="45.91741710860433" lon="10.174647977319232"><ele>1565.0</ele><time>2026-04-04T14:05:50.001Z</time></trkpt><trkpt lat="45.91727255973495" lon="10.174663074830484"><ele>1568.75</ele><time>2026-04-04T14:05:51.001Z</time></trkpt><trkpt lat="45.91713585471442" lon="10.174659502555723"><ele>1572.5</ele><time>2026-04-04T14:05:52.001Z</time></trkpt><trkpt lat="45.91701092894041" lon="10.17465046886815"><ele>1576.25</ele><time>2026-04-04T14:05:53.001Z</time></trkpt><trkpt lat="45.91688469546373" lon="10.174641446100853"><ele>1580.0</ele><time>2026-04-04T14:05:54.001Z</time></trkpt><trkpt lat="45.91676296415333" lon="10.174650096903187"><ele>1585.2</ele><time>2026-04-04T14:05:55.001Z</time></trkpt><trkpt lat="45.91665424186064" lon="10.174600058379845"><ele>1590.4</ele><time>2026-04-04T14:05:56.001Z</time></trkpt><trkpt lat="45.9165417270605" lon="10.17454941880051"><ele>1595.6</ele><time>2026-04-04T14:05:57.001Z</time></trkpt><trkpt lat="45.916436899311094" lon="10.174508617925458"><ele>1600.8</ele><time>2026-04-04T14:05:58.001Z</time></trkpt><trkpt lat="45.91633514381776" lon="10.174456605124453"><ele>1606.0</ele><time>2026-04-04T14:05:59.001Z</time></trkpt><trkpt lat="45.91623121971123" lon="10.17442552587131"><ele>1606.0</ele><time>2026-04-04T14:06:00.001Z</time></trkpt><trkpt lat="45.91613405873892" lon="10.174387342942643"><ele>1606.0</ele><time>2026-04-04T14:06:01.001Z</time></trkpt><trkpt lat="45.9160369262628" lon="10.174373469582024"><ele>1606.0</ele><time>2026-04-04T14:06:02.001Z</time></trkpt><trkpt lat="45.915949189937166" lon="10.174336496298922"><ele>1606.0</ele><time>2026-04-04T14:06:03.001Z</time></trkpt><trkpt lat="45.91586987909986" lon="10.174291686005574"><ele>1606.0</ele><time>2026-04-04T14:06:04.001Z</time></trkpt><trkpt lat="45.91578909868999" lon="10.17424880805962"><ele>1610.5000000000002</ele><time>2026-04-04T14:06:05.001Z</time></trkpt><trkpt lat="45.915717401991024" lon="10.174204763564562"><ele>1615.0</ele><time>2026-04-04T14:06:06.001Z</time></trkpt><trkpt lat="45.91563844300705" lon="10.174158584497023"><ele>1619.5</ele><time>2026-04-04T14:06:07.001Z</time></trkpt><trkpt lat="45.91555876456414" lon="10.174130554541962"><ele>1624.0</ele><time>2026-04-04T14:06:08.001Z</time></trkpt><trkpt lat="45.91547474442253" lon="10.174100515483284"><ele>1628.5000000000002</ele><time>2026-04-04T14:06:09.001Z</time></trkpt><trkpt lat="45.91539293304098" lon="10.174077195107957"><ele>1633.0</ele><time>2026-04-04T14:06:10.001Z</time></trkpt><trkpt lat="45.915307502635955" lon="10.174069572464784"><ele>1633.0000000000002</ele><time>2026-04-04T14:06:11.001Z</time></trkpt><trkpt lat="45.915220831459486" lon="10.174066697484896"><ele>1633.0</ele><time>2026-04-04T14:06:12.001Z</time></trkpt><trkpt lat="45.915132568039645" lon="10.174044182277834"><ele>1633.0</ele><time>2026-04-04T14:06:13.001Z</time></trkpt><trkpt lat="45.91504658307425" lon="10.17403683177456"><ele>1633.0</ele><time>2026-04-04T14:06:14.001Z</time></trkpt><trkpt lat="45.91496626358674" lon="10.174039392209503"><ele>1633.0000000000002</ele><time>2026-04-04T14:06:15.001Z</time></trkpt><trkpt lat="45.91488087494142" lon="10.174060124451527"><ele>1633.0</ele><time>2026-04-04T14:06:16.001Z</time></trkpt><trkpt lat="45.914802164239354" lon="10.17407653314559"><ele>1637.5000000000002</ele><time>2026-04-04T14:06:17.001Z</time></trkpt><trkpt lat="45.91471836421713" lon="10.174089720153095"><ele>1642.0</ele><time>2026-04-04T14:06:18.001Z</time></trkpt><trkpt lat="45.9146392881569" lon="10.174091550178284"><ele>1646.5</ele><time>2026-04-04T14:06:19.001Z</time></trkpt><trkpt lat="45.914522947462466" lon="10.174108350282241"><ele>1651.0</ele><time>2026-04-04T14:06:21.001Z</time></trkpt><trkpt lat="45.914537270169966" lon="10.174016316429087"><ele>1655.5000000000002</ele><time>2026-04-04T14:06:27.001Z</time></trkpt><trkpt lat="45.91461538874708" lon="10.174041193998553"><ele>1660.0</ele><time>2026-04-04T14:07:57.001Z</time></trkpt><trkpt lat="45.91468722277603" lon="10.174070543930542"><ele>1661.6</ele><time>2026-04-04T14:07:59.001Z</time></trkpt><trkpt lat="45.91478733220785" lon="10.174098280474217"><ele>1663.2</ele><time>2026-04-04T14:08:01.001Z</time></trkpt><trkpt lat="45.91489686542701" lon="10.174118948141615"><ele>1664.8000000000002</ele><time>2026-04-04T14:08:03.001Z</time></trkpt><trkpt lat="45.915013375994995" lon="10.174129672728098"><ele>1666.4</ele><time>2026-04-04T14:08:05.001Z</time></trkpt><trkpt lat="45.91512082873872" lon="10.174142771570201"><ele>1668.0</ele><time>2026-04-04T14:08:07.001Z</time></trkpt><trkpt lat="45.9152317682023" lon="10.174131264527523"><ele>1662.1666666666667</ele><time>2026-04-04T14:08:09.001Z</time></trkpt><trkpt lat="45.91534220997558" lon="10.17410775180917"><ele>1656.3333333333335</ele><time>2026-04-04T14:08:11.001Z</time></trkpt><trkpt lat="45.91542303227237" lon="10.174093756644064"><ele>1650.5</ele><time>2026-04-04T14:08:13.001Z</time></trkpt><trkpt lat="45.91548132277421" lon="10.174138173308068"><ele>1644.6666666666667</ele><time>2026-04-04T14:08:15.001Z</time></trkpt><trkpt lat="45.91554351193352" lon="10.17411169893555"><ele>1638.8333333333335</ele><time>2026-04-04T14:08:17.001Z</time></trkpt><trkpt lat="45.9156052937868" lon="10.174037816297579"><ele>1633.0</ele><time>2026-04-04T14:08:20.001Z</time></trkpt><trkpt lat="45.91568673860804" lon="10.174043925349316"><ele>1633.0</ele><time>2026-04-04T14:08:23.001Z</time></trkpt><trkpt lat="45.9157288755135" lon="10.174118717774915"><ele>1633.0</ele><time>2026-04-04T14:08:26.001Z</time></trkpt><trkpt lat="45.91580225395439" lon="10.174166996262313"><ele>1633.0</ele><time>2026-04-04T14:08:28.001Z</time></trkpt><trkpt lat="45.91590780432677" lon="10.174198462680636"><ele>1633.0</ele><time>2026-04-04T14:08:30.001Z</time></trkpt><trkpt lat="45.91603612674265" lon="10.174223954266473"><ele>1633.0</ele><time>2026-04-04T14:08:32.001Z</time></trkpt><trkpt lat="45.916105961676614" lon="10.174239246846417"><ele>1627.6000000000001</ele><time>2026-04-04T14:08:33.001Z</time></trkpt><trkpt lat="45.91618256338361" lon="10.174244460570762"><ele>1622.2</ele><time>2026-04-04T14:08:34.001Z</time></trkpt><trkpt lat="45.91628018099614" lon="10.174250821032897"><ele>1616.8</ele><time>2026-04-04T14:08:35.001Z</time></trkpt><trkpt lat="45.91639440864039" lon="10.174260098388885"><ele>1611.4</ele><time>2026-04-04T14:08:36.001Z</time></trkpt><trkpt lat="45.91651439621519" lon="10.174267848372127"><ele>1606.0</ele><time>2026-04-04T14:08:37.001Z</time></trkpt><trkpt lat="45.91663592415157" lon="10.174277887926618"><ele>1599.5</ele><time>2026-04-04T14:08:38.001Z</time></trkpt><trkpt lat="45.91675762433775" lon="10.174288767905356"><ele>1593.0</ele><time>2026-04-04T14:08:39.001Z</time></trkpt><trkpt lat="45.91688704422968" lon="10.174302056707297"><ele>1586.5</ele><time>2026-04-04T14:08:40.001Z</time></trkpt><trkpt lat="45.91701796753302" lon="10.174320649435167"><ele>1580.0</ele><time>2026-04-04T14:08:41.001Z</time></trkpt><trkpt lat="45.9171607741051" lon="10.17434495285603"><ele>1580.0</ele><time>2026-04-04T14:08:42.001Z</time></trkpt><trkpt lat="45.917309325626114" lon="10.174374247512977"><ele>1580.0</ele><time>2026-04-04T14:08:43.001Z</time></trkpt><trkpt lat="45.9174685710638" lon="10.174395675012196"><ele>1580.0</ele><time>2026-04-04T14:08:44.001Z</time></trkpt><trkpt lat="45.91762535655029" lon="10.174423527097213"><ele>1576.25</ele><time>2026-04-04T14:08:45.001Z</time></trkpt><trkpt lat="45.917778150536236" lon="10.17445422750854"><ele>1572.5</ele><time>2026-04-04T14:08:46Z</time></trkpt><trkpt lat="45.917921434067054" lon="10.17448507600002"><ele>1568.75</ele><time>2026-04-04T14:08:47Z</time></trkpt><trkpt lat="45.91805219996479" lon="10.174510462438173"><ele>1565.0</ele><time>2026-04-04T14:08:48Z</time></trkpt><trkpt lat="45.918170502230716" lon="10.174552101388656"><ele>1565.0</ele><time>2026-04-04T14:08:49Z</time></trkpt><trkpt lat="45.918282020182765" lon="10.174585291277413"><ele>1565.0</ele><time>2026-04-04T14:08:50Z</time></trkpt><trkpt lat="45.91838341505092" lon="10.17461063788632"><ele>1565.0</ele><time>2026-04-04T14:08:51Z</time></trkpt><trkpt lat="45.91847988166595" lon="10.174639510558723"><ele>1565.0</ele><time>2026-04-04T14:08:52Z</time></trkpt><trkpt lat="45.918582524775545" lon="10.174669919767377"><ele>1565.0</ele><time>2026-04-04T14:08:53Z</time></trkpt><trkpt lat="45.918662567791166" lon="10.174696737508944"><ele>1562.9999999999998</ele><time>2026-04-04T14:08:54Z</time></trkpt><trkpt lat="45.91873488236318" lon="10.174732813215783"><ele>1561.0</ele><time>2026-04-04T14:08:55Z</time></trkpt><trkpt lat="45.91880055992238" lon="10.174782925972984"><ele>1559.0</ele><time>2026-04-04T14:08:56Z</time></trkpt><trkpt lat="45.91887150059881" lon="10.174891727576007"><ele>1557.0</ele><time>2026-04-04T14:08:58Z</time></trkpt><trkpt lat="45.91890679299145" lon="10.175010371108296"><ele>1554.9999999999998</ele><time>2026-04-04T14:09:01Z</time></trkpt><trkpt lat="45.91887357275726" lon="10.175108447240156"><ele>1553.0</ele><time>2026-04-04T14:09:04Z</time></trkpt><trkpt lat="45.91890422991506" lon="10.175196974581045"><ele>1552.6666666666665</ele><time>2026-04-04T14:09:06Z</time></trkpt><trkpt lat="45.91894527754109" lon="10.175293503701237"><ele>1552.3333333333333</ele><time>2026-04-04T14:09:08Z</time></trkpt><trkpt lat="45.91892218206392" lon="10.175199525632534"><ele>1552.0</ele><time>2026-04-04T14:11:11Z</time></trkpt><trkpt lat="45.918877605230406" lon="10.175131707118146"><ele>1551.6666666666665</ele><time>2026-04-04T14:11:13Z</time></trkpt><trkpt lat="45.91876674534416" lon="10.17503659903636"><ele>1551.3333333333333</ele><time>2026-04-04T14:11:15Z</time></trkpt><trkpt lat="45.918697510644456" lon="10.174979466345714"><ele>1551.0</ele><time>2026-04-04T14:11:16Z</time></trkpt><trkpt lat="45.91861834907199" lon="10.17492518394521"><ele>1551.0</ele><time>2026-04-04T14:11:17Z</time></trkpt><trkpt lat="45.91854242645882" lon="10.174858067702436"><ele>1551.0</ele><time>2026-04-04T14:11:18Z</time></trkpt><trkpt lat="45.91846296223087" lon="10.174797322971829"><ele>1551.0</ele><time>2026-04-04T14:11:19Z</time></trkpt><trkpt lat="45.91838254150574" lon="10.174732189977052"><ele>1551.0</ele><time>2026-04-04T14:11:20Z</time></trkpt><trkpt lat="45.91829399695039" lon="10.17467162508057"><ele>1551.0</ele><time>2026-04-04T14:11:21Z</time></trkpt><trkpt lat="45.91821403768789" lon="10.174634929898444"><ele>1553.8</ele><time>2026-04-04T14:11:22Z</time></trkpt><trkpt lat="45.918130568054494" lon="10.174645355898832"><ele>1556.6</ele><time>2026-04-04T14:11:23Z</time></trkpt><trkpt lat="45.91806200243686" lon="10.174628569496514"><ele>1559.4</ele><time>2026-04-04T14:11:24Z</time></trkpt><trkpt lat="45.91804473686552" lon="10.174541427435988"><ele>1562.2</ele><time>2026-04-04T14:11:25Z</time></trkpt><trkpt lat="45.91796789493731" lon="10.174364740578152"><ele>1565.0</ele><time>2026-04-04T14:11:27Z</time></trkpt><trkpt lat="45.91803079593757" lon="10.174464989452895"><ele>1565.0</ele><time>2026-04-04T14:11:30Z</time></trkpt><trkpt lat="45.91815698509419" lon="10.174521468199226"><ele>1565.0</ele><time>2026-04-04T14:11:31Z</time></trkpt><trkpt lat="45.91824459155094" lon="10.174558195377351"><ele>1565.0</ele><time>2026-04-04T14:11:32Z</time></trkpt><trkpt lat="45.9183249799973" lon="10.174580551634083"><ele>1565.0</ele><time>2026-04-04T14:11:33Z</time></trkpt><trkpt lat="45.91840445722622" lon="10.174608234989988"><ele>1565.0</ele><time>2026-04-04T14:11:34Z</time></trkpt><trkpt lat="45.91846689507298" lon="10.174620454630528"><ele>1562.9999999999998</ele><time>2026-04-04T14:11:35Z</time></trkpt><trkpt lat="45.91852787946687" lon="10.174675495960031"><ele>1561.0</ele><time>2026-04-04T14:11:37Z</time></trkpt><trkpt lat="45.9184676652115" lon="10.174635006297816"><ele>1559.0</ele><time>2026-04-04T14:11:43Z</time></trkpt><trkpt lat="45.918445862811446" lon="10.174725450029735"><ele>1557.0</ele><time>2026-04-04T14:11:45Z</time></trkpt><trkpt lat="45.918510151995825" lon="10.174765312509269"><ele>1554.9999999999998</ele><time>2026-04-04T14:11:47Z</time></trkpt><trkpt lat="45.918592282051364" lon="10.174676149979081"><ele>1553.0</ele><time>2026-04-04T14:11:49Z</time></trkpt><trkpt lat="45.91870030087619" lon="10.174715754671148"><ele>1552.9999999999998</ele><time>2026-04-04T14:11:51Z</time></trkpt><trkpt lat="45.918759889692" lon="10.17475465562168"><ele>1553.0</ele><time>2026-04-04T14:11:55Z</time></trkpt><trkpt lat="45.91872376219174" lon="10.174844104690694"><ele>1553.0</ele><time>2026-04-04T14:12:18.001Z</time></trkpt><trkpt lat="45.91863831882976" lon="10.174929530857145"><ele>1553.0</ele><time>2026-04-04T14:12:21.001Z</time></trkpt><trkpt lat="45.91856204068132" lon="10.174988751237056"><ele>1552.9999999999998</ele><time>2026-04-04T14:12:23.001Z</time></trkpt><trkpt lat="45.91846896399809" lon="10.175030817513314"><ele>1553.0</ele><time>2026-04-04T14:12:25.001Z</time></trkpt><trkpt lat="45.91834680530546" lon="10.17502062697737"><ele>1554.5714285714284</ele><time>2026-04-04T14:12:27.001Z</time></trkpt><trkpt lat="45.91828309401089" lon="10.174990214700118"><ele>1556.142857142857</ele><time>2026-04-04T14:12:28.001Z</time></trkpt><trkpt lat="45.91821370010467" lon="10.174976020710691"><ele>1557.7142857142858</ele><time>2026-04-04T14:12:29.001Z</time></trkpt><trkpt lat="45.91813803300941" lon="10.17496702120536"><ele>1559.2857142857142</ele><time>2026-04-04T14:12:30.001Z</time></trkpt><trkpt lat="45.91806221601098" lon="10.174956472611726"><ele>1560.857142857143</ele><time>2026-04-04T14:12:31.001Z</time></trkpt><trkpt lat="45.91798411331489" lon="10.174939562803305"><ele>1562.4285714285713</ele><time>2026-04-04T14:12:32.001Z</time></trkpt><trkpt lat="45.91790503970396" lon="10.1749222531145"><ele>1564.0</ele><time>2026-04-04T14:12:33.001Z</time></trkpt><trkpt lat="45.917824781228596" lon="10.17492127652463"><ele>1564.0000000000002</ele><time>2026-04-04T14:12:34.001Z</time></trkpt><trkpt lat="45.91775365780842" lon="10.174968991025874"><ele>1564.0</ele><time>2026-04-04T14:12:35.001Z</time></trkpt><trkpt lat="45.91770067107431" lon="10.175069162397929"><ele>1564.0</ele><time>2026-04-04T14:12:37.001Z</time></trkpt><trkpt lat="45.91773311396565" lon="10.175152110217992"><ele>1564.0</ele><time>2026-04-04T14:12:40.001Z</time></trkpt><trkpt lat="45.91779795020513" lon="10.175171081055268"><ele>1564.0000000000002</ele><time>2026-04-04T14:12:43.001Z</time></trkpt><trkpt lat="45.917847677657164" lon="10.175062799149828"><ele>1564.0</ele><time>2026-04-04T14:12:46.001Z</time></trkpt><trkpt lat="45.91786354564434" lon="10.174959391148171"><ele>1564.1666666666667</ele><time>2026-04-04T14:12:48.001Z</time></trkpt><trkpt lat="45.9178920996163" lon="10.17484533154847"><ele>1564.3333333333335</ele><time>2026-04-04T14:12:51.001Z</time></trkpt><trkpt lat="45.91787521475734" lon="10.174724604734006"><ele>1564.5</ele><time>2026-04-04T14:12:53.001Z</time></trkpt><trkpt lat="45.91780952332251" lon="10.174755049223322"><ele>1564.6666666666665</ele><time>2026-04-04T14:12:55.001Z</time></trkpt><trkpt lat="45.91774838475462" lon="10.17471124171236"><ele>1564.8333333333333</ele><time>2026-04-04T14:12:57.001Z</time></trkpt><trkpt lat="45.91765257007344" lon="10.174685623138853"><ele>1565.0</ele><time>2026-04-04T14:12:59Z</time></trkpt><trkpt lat="45.91752985074669" lon="10.174663464588326"><ele>1564.9999999999998</ele><time>2026-04-04T14:13:01Z</time></trkpt><trkpt lat="45.917606298729616" lon="10.174644428911447"><ele>1565.0</ele><time>2026-04-04T14:13:04Z</time></trkpt><trkpt lat="45.91767215859217" lon="10.174689304122913"><ele>1565.0</ele><time>2026-04-04T14:13:05Z</time></trkpt><trkpt lat="45.91779589184017" lon="10.17464926181"><ele>1565.0</ele><time>2026-04-04T14:13:07Z</time></trkpt><trkpt lat="45.91787380190201" lon="10.174620917238256"><ele>1564.9999999999998</ele><time>2026-04-04T14:13:08Z</time></trkpt><trkpt lat="45.917949620259215" lon="10.17460336258063"><ele>1565.0</ele><time>2026-04-04T14:13:09Z</time></trkpt><trkpt lat="45.918031653368224" lon="10.174614713784251"><ele>1565.0</ele><time>2026-04-04T14:13:10Z</time></trkpt><trkpt lat="45.91812771655731" lon="10.174652121049553"><ele>1565.0</ele><time>2026-04-04T14:13:11Z</time></trkpt><trkpt lat="45.91820642993077" lon="10.174670214657395"><ele>1565.0</ele><time>2026-04-04T14:13:12Z</time></trkpt><trkpt lat="45.91828477912452" lon="10.174653697637332"><ele>1565.0</ele><time>2026-04-04T14:13:14Z</time></trkpt><trkpt lat="45.91838367199182" lon="10.174705628367779"><ele>1565.0</ele><time>2026-04-04T14:13:16Z</time></trkpt><trkpt lat="45.91845910856075" lon="10.174767261989393"><ele>1562.6</ele><time>2026-04-04T14:13:17Z</time></trkpt><trkpt lat="45.91852681166234" lon="10.174811294283558"><ele>1560.2</ele><time>2026-04-04T14:13:18Z</time></trkpt><trkpt lat="45.918636631708914" lon="10.174793039502573"><ele>1557.8000000000002</ele><time>2026-04-04T14:13:20Z</time></trkpt><trkpt lat="45.918737016624654" lon="10.174792762613524"><ele>1555.4</ele><time>2026-04-04T14:13:22Z</time></trkpt><trkpt lat="45.9187979689114" lon="10.174843724842885"><ele>1553.0</ele><time>2026-04-04T14:13:23Z</time></trkpt><trkpt lat="45.918764318380425" lon="10.175018540041187"><ele>1552.6666666666665</ele><time>2026-04-04T14:13:24Z</time></trkpt><trkpt lat="45.918835498248235" lon="10.175059815006874"><ele>1552.3333333333333</ele><time>2026-04-04T14:13:27Z</time></trkpt><trkpt lat="45.91888763108487" lon="10.17515340431977"><ele>1552.0</ele><time>2026-04-04T14:13:29Z</time></trkpt><trkpt lat="45.91890270561801" lon="10.175032118684008"><ele>1551.6666666666665</ele><time>2026-04-04T14:13:31Z</time></trkpt><trkpt lat="45.91882036573486" lon="10.175020562189436"><ele>1551.3333333333333</ele><time>2026-04-04T14:13:33Z</time></trkpt><trkpt lat="45.91884796675231" lon="10.175155522371062"><ele>1551.0</ele><time>2026-04-04T14:13:39Z</time></trkpt><trkpt lat="45.91890248418274" lon="10.175229762965058"><ele>1551.0</ele><time>2026-04-04T14:13:40Z</time></trkpt><trkpt lat="45.91900998790555" lon="10.175281263599652"><ele>1551.0</ele><time>2026-04-04T14:13:42Z</time></trkpt><trkpt lat="45.918940352830084" lon="10.17532626062073"><ele>1551.0</ele><time>2026-04-04T14:16:16Z</time></trkpt><trkpt lat="45.91891140846111" lon="10.175240919016918"><ele>1551.0</ele><time>2026-04-04T14:16:18Z</time></trkpt><trkpt lat="45.91888777429397" lon="10.17514570134395"><ele>1551.0</ele><time>2026-04-04T14:16:20Z</time></trkpt><trkpt lat="45.91880415796409" lon="10.175117306229062"><ele>1551.0</ele><time>2026-04-04T14:16:22Z</time></trkpt><trkpt lat="45.91876570544219" lon="10.175035226012014"><ele>1551.0</ele><time>2026-04-04T14:16:24Z</time></trkpt><trkpt lat="45.918849527900974" lon="10.17500437334514"><ele>1551.0</ele><time>2026-04-04T14:16:26Z</time></trkpt><trkpt lat="45.91881242406975" lon="10.175103550915198"><ele>1551.0</ele><time>2026-04-04T14:16:28Z</time></trkpt><trkpt lat="45.918857805307724" lon="10.175206187321338"><ele>1551.0</ele><time>2026-04-04T14:16:31.001Z</time></trkpt><trkpt lat="45.91891691849346" lon="10.175278426712003"><ele>1551.0</ele><time>2026-04-04T14:16:34.001Z</time></trkpt><trkpt lat="45.91897838674163" lon="10.175322397855563"><ele>1551.0</ele><time>2026-04-04T14:16:38.001Z</time></trkpt><trkpt lat="45.91890852529834" lon="10.175274414274888"><ele>1551.0</ele><time>2026-04-04T14:16:45.001Z</time></trkpt><trkpt lat="45.91893359686814" lon="10.175161828149033"><ele>1551.0</ele><time>2026-04-04T14:16:49.001Z</time></trkpt><trkpt lat="45.91889569189778" lon="10.175075388925128"><ele>1551.0</ele><time>2026-04-04T14:16:51.001Z</time></trkpt><trkpt lat="45.91882787937574" lon="10.174975749684284"><ele>1551.0</ele><time>2026-04-04T14:16:53.001Z</time></trkpt><trkpt lat="45.91876240238231" lon="10.174870590080811"><ele>1551.0</ele><time>2026-04-04T14:16:55.001Z</time></trkpt><trkpt lat="45.91865701651852" lon="10.17475474510807"><ele>1551.4</ele><time>2026-04-04T14:16:57.001Z</time></trkpt><trkpt lat="45.918579523692095" lon="10.174814423766565"><ele>1551.8</ele><time>2026-04-04T14:16:58.001Z</time></trkpt><trkpt lat="45.91841063706096" lon="10.174659841260345"><ele>1552.2</ele><time>2026-04-04T14:17:06.001Z</time></trkpt><trkpt lat="45.918346855208085" lon="10.174665042761664"><ele>1552.6000000000001</ele><time>2026-04-04T14:17:09.001Z</time></trkpt><trkpt lat="45.918265408323684" lon="10.174608166806873"><ele>1553.0</ele><time>2026-04-04T14:17:11Z</time></trkpt><trkpt lat="45.91818510970055" lon="10.174455458976581"><ele>1554.9999999999998</ele><time>2026-04-04T14:17:13Z</time></trkpt><trkpt lat="45.918121163196815" lon="10.174411507386557"><ele>1557.0</ele><time>2026-04-04T14:17:14Z</time></trkpt><trkpt lat="45.9180789148162" lon="10.174341111546232"><ele>1559.0</ele><time>2026-04-04T14:17:15Z</time></trkpt><trkpt lat="45.91806399892182" lon="10.174188236863806"><ele>1561.0</ele><time>2026-04-04T14:17:16Z</time></trkpt><trkpt lat="45.91799955275586" lon="10.174093306181254"><ele>1562.9999999999998</ele><time>2026-04-04T14:17:17Z</time></trkpt><trkpt lat="45.917941012460176" lon="10.173972175454344"><ele>1565.0</ele><time>2026-04-04T14:17:18Z</time></trkpt><trkpt lat="45.91788254305502" lon="10.173846575480052"><ele>1565.4</ele><time>2026-04-04T14:17:19Z</time></trkpt><trkpt lat="45.91783191512351" lon="10.173739840629088"><ele>1565.8</ele><time>2026-04-04T14:17:20Z</time></trkpt><trkpt lat="45.91777966374462" lon="10.173631728520384"><ele>1566.1999999999998</ele><time>2026-04-04T14:17:21Z</time></trkpt><trkpt lat="45.91772304603751" lon="10.17351944434088"><ele>1566.6</ele><time>2026-04-04T14:17:22Z</time></trkpt><trkpt lat="45.917656044005696" lon="10.17342536866033"><ele>1567.0</ele><time>2026-04-04T14:17:23Z</time></trkpt><trkpt lat="45.91760246509417" lon="10.173324270960952"><ele>1569.8333333333335</ele><time>2026-04-04T14:17:24Z</time></trkpt><trkpt lat="45.91754871688836" lon="10.173224873179839"><ele>1572.6666666666667</ele><time>2026-04-04T14:17:25Z</time></trkpt><trkpt lat="45.91749912542989" lon="10.17314495072201"><ele>1575.5</ele><time>2026-04-04T14:17:26Z</time></trkpt><trkpt lat="45.917462369544516" lon="10.17305472388152"><ele>1578.3333333333335</ele><time>2026-04-04T14:17:27Z</time></trkpt><trkpt lat="45.91742816380485" lon="10.172972279206851"><ele>1581.1666666666667</ele><time>2026-04-04T14:17:28Z</time></trkpt><trkpt lat="45.91735721853666" lon="10.17286816540126"><ele>1584.0</ele><time>2026-04-04T14:17:30Z</time></trkpt><trkpt lat="45.91741201447851" lon="10.172785223438504"><ele>1586.0</ele><time>2026-04-04T14:17:33Z</time></trkpt><trkpt lat="45.91749048055822" lon="10.172759507403432"><ele>1588.0</ele><time>2026-04-04T14:17:35Z</time></trkpt><trkpt lat="45.91755032482807" lon="10.172690628589896"><ele>1590.0</ele><time>2026-04-04T14:17:38Z</time></trkpt><trkpt lat="45.91759696810606" lon="10.172621586884077"><ele>1592.0</ele><time>2026-04-04T14:17:48Z</time></trkpt><trkpt lat="45.9176816469498" lon="10.172530473164233"><ele>1594.0</ele><time>2026-04-04T14:17:59Z</time></trkpt><trkpt lat="45.91780581672064" lon="10.172443533131704"><ele>1591.8000000000002</ele><time>2026-04-04T14:18:01Z</time></trkpt><trkpt lat="45.91789505299647" lon="10.172399031537225"><ele>1589.6000000000001</ele><time>2026-04-04T14:18:02Z</time></trkpt><trkpt lat="45.91799999478139" lon="10.172346727772878"><ele>1587.4</ele><time>2026-04-04T14:18:03Z</time></trkpt><trkpt lat="45.918101972027756" lon="10.172294858263392"><ele>1585.2</ele><time>2026-04-04T14:18:04Z</time></trkpt><trkpt lat="45.91819404403849" lon="10.172265814578472"><ele>1583.0</ele><time>2026-04-04T14:18:05Z</time></trkpt><trkpt lat="45.91827153467632" lon="10.172239756217536"><ele>1583.0</ele><time>2026-04-04T14:18:06Z</time></trkpt><trkpt lat="45.91834747077159" lon="10.172226747349477"><ele>1583.0</ele><time>2026-04-04T14:18:07Z</time></trkpt><trkpt lat="45.918459439235114" lon="10.17220375566336"><ele>1583.0</ele><time>2026-04-04T14:18:08Z</time></trkpt><trkpt lat="45.91857372918312" lon="10.172188674134096"><ele>1583.0</ele><time>2026-04-04T14:18:09Z</time></trkpt><trkpt lat="45.91867396009364" lon="10.17217431099776"><ele>1583.0</ele><time>2026-04-04T14:18:10Z</time></trkpt><trkpt lat="45.9187553515167" lon="10.17214845096099"><ele>1578.2</ele><time>2026-04-04T14:18:11Z</time></trkpt><trkpt lat="45.9188239284117" lon="10.172123276406356"><ele>1573.4</ele><time>2026-04-04T14:18:12Z</time></trkpt><trkpt lat="45.91890932607987" lon="10.172069835571351"><ele>1568.6000000000001</ele><time>2026-04-04T14:18:13Z</time></trkpt><trkpt lat="45.91900010636599" lon="10.171993973412237"><ele>1563.8000000000002</ele><time>2026-04-04T14:18:14Z</time></trkpt><trkpt lat="45.91910356932878" lon="10.171889371576116"><ele>1559.0</ele><time>2026-04-04T14:18:15Z</time></trkpt><trkpt lat="45.91921353380722" lon="10.171756757489478"><ele>1557.3333333333333</ele><time>2026-04-04T14:18:16Z</time></trkpt><trkpt lat="45.91932665676316" lon="10.17160386508502"><ele>1555.6666666666665</ele><time>2026-04-04T14:18:17Z</time></trkpt><trkpt lat="45.919443979687045" lon="10.171431550453626"><ele>1554.0</ele><time>2026-04-04T14:18:18Z</time></trkpt><trkpt lat="45.919572133341966" lon="10.17129489393042"><ele>1554.0</ele><time>2026-04-04T14:18:19Z</time></trkpt><trkpt lat="45.919683350014445" lon="10.171167215478633"><ele>1554.0</ele><time>2026-04-04T14:18:20Z</time></trkpt><trkpt lat="45.919783933648496" lon="10.171070082611093"><ele>1554.0</ele><time>2026-04-04T14:18:21Z</time></trkpt><trkpt lat="45.91987766575351" lon="10.170987010517896"><ele>1554.0</ele><time>2026-04-04T14:18:22Z</time></trkpt><trkpt lat="45.919948043496575" lon="10.170928160016976"><ele>1554.0</ele><time>2026-04-04T14:18:23Z</time></trkpt><trkpt lat="45.92000746487522" lon="10.170876421969593"><ele>1554.0</ele><time>2026-04-04T14:18:24Z</time></trkpt><trkpt lat="45.920090114603795" lon="10.170831753072543"><ele>1554.0</ele><time>2026-04-04T14:18:26Z</time></trkpt><trkpt lat="45.920107055890966" lon="10.170730565529107"><ele>1554.0</ele><time>2026-04-04T14:18:28Z</time></trkpt><trkpt lat="45.92002289628315" lon="10.17076626785983"><ele>1554.0</ele><time>2026-04-04T14:18:31Z</time></trkpt><trkpt lat="45.91996646995263" lon="10.170812272515349"><ele>1554.0</ele><time>2026-04-04T14:18:32Z</time></trkpt><trkpt lat="45.919873237818216" lon="10.170848397780492"><ele>1554.0</ele><time>2026-04-04T14:18:34Z</time></trkpt><trkpt lat="45.91984344051326" lon="10.170938270203557"><ele>1554.0</ele><time>2026-04-04T14:18:36Z</time></trkpt><trkpt lat="45.919912226002054" lon="10.170987343982583"><ele>1554.0</ele><time>2026-04-04T14:18:38Z</time></trkpt><trkpt lat="45.919942219138406" lon="10.17086073303619"><ele>1554.0</ele><time>2026-04-04T14:18:44Z</time></trkpt><trkpt lat="45.920018897365324" lon="10.170802298001412"><ele>1554.0</ele><time>2026-04-04T14:18:46Z</time></trkpt><trkpt lat="45.92008875630671" lon="10.170777742061183"><ele>1554.0</ele><time>2026-04-04T14:18:53.001Z</time></trkpt><trkpt lat="45.92015777455241" lon="10.170718699524107"><ele>1552.3333333333333</ele><time>2026-04-04T14:18:55.001Z</time></trkpt><trkpt lat="45.920190135298085" lon="10.170622969757039"><ele>1550.6666666666665</ele><time>2026-04-04T14:18:57.001Z</time></trkpt><trkpt lat="45.920270285975846" lon="10.170559862949913"><ele>1549.0</ele><time>2026-04-04T14:18:59.001Z</time></trkpt><trkpt lat="45.920329970998644" lon="10.170518661617507"><ele>1547.3333333333333</ele><time>2026-04-04T14:19:01.001Z</time></trkpt><trkpt lat="45.92040302159357" lon="10.170509996874031"><ele>1545.6666666666665</ele><time>2026-04-04T14:19:03.001Z</time></trkpt><trkpt lat="45.92046486086668" lon="10.170428052513527"><ele>1544.0</ele><time>2026-04-04T14:19:05.001Z</time></trkpt><trkpt lat="45.92048918705566" lon="10.17031330462802"><ele>1544.0</ele><time>2026-04-04T14:19:08.001Z</time></trkpt><trkpt lat="45.9205776280411" lon="10.170273693161889"><ele>1544.0</ele><time>2026-04-04T14:19:10.001Z</time></trkpt><trkpt lat="45.92068827306633" lon="10.170243392300177"><ele>1544.0</ele><time>2026-04-04T14:19:12.001Z</time></trkpt><trkpt lat="45.92080270247979" lon="10.170155227959658"><ele>1544.0</ele><time>2026-04-04T14:19:14.001Z</time></trkpt><trkpt lat="45.920874061224" lon="10.17010414740452"><ele>1544.0</ele><time>2026-04-04T14:19:15.001Z</time></trkpt><trkpt lat="45.92095149258623" lon="10.170075412486108"><ele>1538.6</ele><time>2026-04-04T14:19:16Z</time></trkpt><trkpt lat="45.921044529502296" lon="10.17006608816743"><ele>1533.2</ele><time>2026-04-04T14:19:17Z</time></trkpt><trkpt lat="45.92115438823538" lon="10.170067205478196"><ele>1527.8</ele><time>2026-04-04T14:19:18Z</time></trkpt><trkpt lat="45.921225551770874" lon="10.170079694405262"><ele>1522.3999999999999</ele><time>2026-04-04T14:19:19Z</time></trkpt><trkpt lat="45.92133658182331" lon="10.170028894607707"><ele>1517.0</ele><time>2026-04-04T14:19:21Z</time></trkpt><trkpt lat="45.921461471177395" lon="10.169981027662335"><ele>1517.0</ele><time>2026-04-04T14:19:23Z</time></trkpt><trkpt lat="45.92153516698035" lon="10.16997503161622"><ele>1517.0</ele><time>2026-04-04T14:19:24Z</time></trkpt><trkpt lat="45.921596596976514" lon="10.169955184008414"><ele>1517.0</ele><time>2026-04-04T14:19:25Z</time></trkpt><trkpt lat="45.92167524699066" lon="10.169899748333307"><ele>1517.0</ele><time>2026-04-04T14:19:26Z</time></trkpt><trkpt lat="45.92173238059785" lon="10.169839891473487"><ele>1517.0</ele><time>2026-04-04T14:19:27Z</time></trkpt><trkpt lat="45.92180972466371" lon="10.169813286483686"><ele>1517.0</ele><time>2026-04-04T14:19:28Z</time></trkpt><trkpt lat="45.92189997854147" lon="10.169794017777818"><ele>1513.6666666666667</ele><time>2026-04-04T14:19:29Z</time></trkpt><trkpt lat="45.921976233048134" lon="10.16979108772002"><ele>1510.3333333333335</ele><time>2026-04-04T14:19:30Z</time></trkpt><trkpt lat="45.92203778720845" lon="10.169742974394975"><ele>1507.0</ele><time>2026-04-04T14:19:31Z</time></trkpt><trkpt lat="45.92209574617264" lon="10.169673284027652"><ele>1503.6666666666667</ele><time>2026-04-04T14:19:32Z</time></trkpt><trkpt lat="45.922143869006725" lon="10.169572946700953"><ele>1500.3333333333333</ele><time>2026-04-04T14:19:33Z</time></trkpt><trkpt lat="45.92219307810305" lon="10.169481139883914"><ele>1497.0</ele><time>2026-04-04T14:19:34Z</time></trkpt><trkpt lat="45.92224354477752" lon="10.16941522404665"><ele>1497.0</ele><time>2026-04-04T14:19:35Z</time></trkpt><trkpt lat="45.9223015033414" lon="10.169370500531024"><ele>1497.0</ele><time>2026-04-04T14:19:36Z</time></trkpt><trkpt lat="45.922385341002375" lon="10.169321246465872"><ele>1497.0</ele><time>2026-04-04T14:19:37Z</time></trkpt><trkpt lat="45.92246291182911" lon="10.169252581282256"><ele>1497.0</ele><time>2026-04-04T14:19:38Z</time></trkpt><trkpt lat="45.9225376946833" lon="10.169169555485945"><ele>1497.0</ele><time>2026-04-04T14:19:39Z</time></trkpt><trkpt lat="45.92260709744746" lon="10.169080903094391"><ele>1497.0</ele><time>2026-04-04T14:19:40Z</time></trkpt><trkpt lat="45.922676954587814" lon="10.168993286903385"><ele>1492.0</ele><time>2026-04-04T14:19:41Z</time></trkpt><trkpt lat="45.9227436019002" lon="10.16890160523021"><ele>1487.0</ele><time>2026-04-04T14:19:42Z</time></trkpt><trkpt lat="45.9228081682328" lon="10.168808378402236"><ele>1482.0</ele><time>2026-04-04T14:19:43Z</time></trkpt><trkpt lat="45.92286672062365" lon="10.168718509299623"><ele>1477.0</ele><time>2026-04-04T14:19:44Z</time></trkpt><trkpt lat="45.92291415120075" lon="10.168615546410118"><ele>1472.0</ele><time>2026-04-04T14:19:45Z</time></trkpt><trkpt lat="45.92295636935741" lon="10.168513537830444"><ele>1467.0</ele><time>2026-04-04T14:19:46Z</time></trkpt><trkpt lat="45.922994954049315" lon="10.168414835402096"><ele>1467.0</ele><time>2026-04-04T14:19:47Z</time></trkpt><trkpt lat="45.923032376198236" lon="10.168322300044531"><ele>1467.0</ele><time>2026-04-04T14:19:48Z</time></trkpt><trkpt lat="45.92306643583669" lon="10.168223546092294"><ele>1467.0</ele><time>2026-04-04T14:19:49Z</time></trkpt><trkpt lat="45.923097028392455" lon="10.168122200684085"><ele>1467.0</ele><time>2026-04-04T14:19:50Z</time></trkpt><trkpt lat="45.92311999047442" lon="10.168009012046168"><ele>1467.0</ele><time>2026-04-04T14:19:51Z</time></trkpt><trkpt lat="45.923141261346714" lon="10.167897614332436"><ele>1467.0</ele><time>2026-04-04T14:19:52Z</time></trkpt><trkpt lat="45.923159741190105" lon="10.167788691615833"><ele>1466.0</ele><time>2026-04-04T14:19:53Z</time></trkpt><trkpt lat="45.92317380049066" lon="10.167695872539534"><ele>1465.0</ele><time>2026-04-04T14:19:54Z</time></trkpt><trkpt lat="45.92319095398933" lon="10.16755975744819"><ele>1464.0</ele><time>2026-04-04T14:19:56Z</time></trkpt><trkpt lat="45.92321414969311" lon="10.16743462219357"><ele>1463.0</ele><time>2026-04-04T14:19:58Z</time></trkpt><trkpt lat="45.92324450647614" lon="10.16731702260652"><ele>1462.0</ele><time>2026-04-04T14:20:00Z</time></trkpt><trkpt lat="45.9233043901435" lon="10.167242950215368"><ele>1461.0</ele><time>2026-04-04T14:20:04Z</time></trkpt><trkpt lat="45.92332855925293" lon="10.167143726712947"><ele>1458.6666666666667</ele><time>2026-04-04T14:20:07Z</time></trkpt><trkpt lat="45.92338606204067" lon="10.167090913809021"><ele>1456.3333333333333</ele><time>2026-04-04T14:20:10Z</time></trkpt><trkpt lat="45.923461375701514" lon="10.167052653249552"><ele>1454.0</ele><time>2026-04-04T14:20:13Z</time></trkpt><trkpt lat="45.923531353767125" lon="10.167016059286224"><ele>1451.6666666666665</ele><time>2026-04-04T14:20:27Z</time></trkpt><trkpt lat="45.92362990138495" lon="10.167022320972341"><ele>1449.3333333333333</ele><time>2026-04-04T14:20:33Z</time></trkpt><trkpt lat="45.923731736530584" lon="10.167113089996139"><ele>1447.0</ele><time>2026-04-04T14:20:35Z</time></trkpt><trkpt lat="45.92379879571421" lon="10.167190919169501"><ele>1447.0</ele><time>2026-04-04T14:20:36Z</time></trkpt><trkpt lat="45.923888164993" lon="10.167271457093051"><ele>1447.0</ele><time>2026-04-04T14:20:37Z</time></trkpt><trkpt lat="45.923980654617246" lon="10.16735053088395"><ele>1447.0</ele><time>2026-04-04T14:20:38Z</time></trkpt><trkpt lat="45.9240742244593" lon="10.167441989464072"><ele>1447.0</ele><time>2026-04-04T14:20:39Z</time></trkpt><trkpt lat="45.92416037355862" lon="10.167534791693823"><ele>1447.0</ele><time>2026-04-04T14:20:40Z</time></trkpt><trkpt lat="45.92423907102464" lon="10.167634718291959"><ele>1444.0</ele><time>2026-04-04T14:20:41Z</time></trkpt><trkpt lat="45.924296248441316" lon="10.167745039250816"><ele>1441.0</ele><time>2026-04-04T14:20:42Z</time></trkpt><trkpt lat="45.92434712896569" lon="10.167861283536421"><ele>1438.0</ele><time>2026-04-04T14:20:43Z</time></trkpt><trkpt lat="45.924393993562" lon="10.167974234754974"><ele>1435.0</ele><time>2026-04-04T14:20:44Z</time></trkpt><trkpt lat="45.924440245440124" lon="10.168077938637197"><ele>1432.0</ele><time>2026-04-04T14:20:45Z</time></trkpt><trkpt lat="45.924480562825586" lon="10.16817958205822"><ele>1430.3333333333333</ele><time>2026-04-04T14:20:46Z</time></trkpt><trkpt lat="45.92452761121288" lon="10.168280324000381"><ele>1428.6666666666665</ele><time>2026-04-04T14:20:47Z</time></trkpt><trkpt lat="45.92456543240215" lon="10.168399181252436"><ele>1427.0</ele><time>2026-04-04T14:20:48Z</time></trkpt><trkpt lat="45.92458120995631" lon="10.168522936116123"><ele>1425.3333333333333</ele><time>2026-04-04T14:20:49Z</time></trkpt><trkpt lat="45.924596702986676" lon="10.168637840943617"><ele>1423.6666666666667</ele><time>2026-04-04T14:20:50Z</time></trkpt><trkpt lat="45.92461213628069" lon="10.16874117637666"><ele>1422.0</ele><time>2026-04-04T14:20:51Z</time></trkpt><trkpt lat="45.92460266927231" lon="10.168839516580269"><ele>1422.0</ele><time>2026-04-04T14:20:52Z</time></trkpt><trkpt lat="45.92459258079487" lon="10.168992677235947"><ele>1422.0</ele><time>2026-04-04T14:20:54Z</time></trkpt><trkpt lat="45.92458692133453" lon="10.169181817455742"><ele>1422.0</ele><time>2026-04-04T14:20:56Z</time></trkpt><trkpt lat="45.92458508818688" lon="10.169272294138612"><ele>1422.0</ele><time>2026-04-04T14:20:57Z</time></trkpt><trkpt lat="45.924617693084315" lon="10.16936601496163"><ele>1422.0</ele><time>2026-04-04T14:21:01Z</time></trkpt><trkpt lat="45.92465306416268" lon="10.16924351188936"><ele>1422.0</ele><time>2026-04-04T14:21:04Z</time></trkpt><trkpt lat="45.92462911295529" lon="10.169073807664594"><ele>1422.0</ele><time>2026-04-04T14:21:06Z</time></trkpt><trkpt lat="45.924615525619046" lon="10.16895103996653"><ele>1422.0</ele><time>2026-04-04T14:21:07Z</time></trkpt><trkpt lat="45.92461046351915" lon="10.168798709902653"><ele>1422.0</ele><time>2026-04-04T14:21:08Z</time></trkpt><trkpt lat="45.92460641707412" lon="10.168619633489389"><ele>1422.0</ele><time>2026-04-04T14:21:09Z</time></trkpt><trkpt lat="45.92458407879598" lon="10.168422717992156"><ele>1422.0</ele><time>2026-04-04T14:21:10Z</time></trkpt><trkpt lat="45.92453628834191" lon="10.168232912156643"><ele>1422.0</ele><time>2026-04-04T14:21:11Z</time></trkpt><trkpt lat="45.9244663685292" lon="10.16804332679217"><ele>1422.0</ele><time>2026-04-04T14:21:12Z</time></trkpt><trkpt lat="45.92437876097392" lon="10.167864767032501"><ele>1422.0</ele><time>2026-04-04T14:21:13Z</time></trkpt><trkpt lat="45.924275097612465" lon="10.167683690827435"><ele>1427.3333333333333</ele><time>2026-04-04T14:21:14Z</time></trkpt><trkpt lat="45.92415369900587" lon="10.167504370042868"><ele>1432.6666666666665</ele><time>2026-04-04T14:21:15Z</time></trkpt><trkpt lat="45.92402087072866" lon="10.167349151411239"><ele>1438.0</ele><time>2026-04-04T14:21:16Z</time></trkpt><trkpt lat="45.92385862153204" lon="10.167247276019648"><ele>1439.5</ele><time>2026-04-04T14:21:17Z</time></trkpt><trkpt lat="45.92368106380787" lon="10.167190003891347"><ele>1441.0</ele><time>2026-04-04T14:21:18Z</time></trkpt><trkpt lat="45.92357197976032" lon="10.167199509184574"><ele>1442.5</ele><time>2026-04-04T14:21:19Z</time></trkpt><trkpt lat="45.92346031178791" lon="10.167256057282687"><ele>1444.0</ele><time>2026-04-04T14:21:20.001Z</time></trkpt><trkpt lat="45.923386491555554" lon="10.167347185356036"><ele>1446.8333333333333</ele><time>2026-04-04T14:21:21.001Z</time></trkpt><trkpt lat="45.92334094744069" lon="10.167453919460709"><ele>1449.6666666666665</ele><time>2026-04-04T14:21:22Z</time></trkpt><trkpt lat="45.92328728877558" lon="10.167536062468322"><ele>1452.5</ele><time>2026-04-04T14:21:23Z</time></trkpt><trkpt lat="45.92322444945844" lon="10.167560174099677"><ele>1455.3333333333333</ele><time>2026-04-04T14:21:24Z</time></trkpt><trkpt lat="45.92314373982252" lon="10.167574195353074"><ele>1458.1666666666667</ele><time>2026-04-04T14:21:25Z</time></trkpt><trkpt lat="45.92308128626413" lon="10.167635044905364"><ele>1461.0</ele><time>2026-04-04T14:21:26Z</time></trkpt><trkpt lat="45.923050199343756" lon="10.16778432594168"><ele>1461.0</ele><time>2026-04-04T14:21:28Z</time></trkpt><trkpt lat="45.92305667325598" lon="10.16787748766765"><ele>1461.0</ele><time>2026-04-04T14:21:29Z</time></trkpt><trkpt lat="45.92305006987812" lon="10.167999943793262"><ele>1461.0</ele><time>2026-04-04T14:21:30Z</time></trkpt><trkpt lat="45.923038149652704" lon="10.168120535221455"><ele>1461.0</ele><time>2026-04-04T14:21:31Z</time></trkpt><trkpt lat="45.92301750499053" lon="10.168257118985196"><ele>1461.0</ele><time>2026-04-04T14:21:32Z</time></trkpt><trkpt lat="45.92297549274535" lon="10.168368698723771"><ele>1461.0</ele><time>2026-04-04T14:21:33Z</time></trkpt><trkpt lat="45.92290707432962" lon="10.168415181388719"><ele>1461.0</ele><time>2026-04-04T14:21:34Z</time></trkpt><trkpt lat="45.922830646216454" lon="10.16848438947378"><ele>1461.0</ele><time>2026-04-04T14:21:36Z</time></trkpt><trkpt lat="45.92289452224016" lon="10.168451680867642"><ele>1461.0</ele><time>2026-04-04T14:21:39Z</time></trkpt><trkpt lat="45.92293603924288" lon="10.168377825385903"><ele>1461.0</ele><time>2026-04-04T14:21:41Z</time></trkpt><trkpt lat="45.92294995834278" lon="10.168260409158798"><ele>1461.0</ele><time>2026-04-04T14:21:43Z</time></trkpt><trkpt lat="45.92296460730882" lon="10.16811886334103"><ele>1461.0</ele><time>2026-04-04T14:21:45Z</time></trkpt><trkpt lat="45.923001570285074" lon="10.167965937103284"><ele>1461.0</ele><time>2026-04-04T14:21:47Z</time></trkpt><trkpt lat="45.92303539494722" lon="10.167820533907603"><ele>1461.0</ele><time>2026-04-04T14:21:49Z</time></trkpt><trkpt lat="45.92306596532148" lon="10.16769042733524"><ele>1461.0</ele><time>2026-04-04T14:21:51Z</time></trkpt><trkpt lat="45.92310743679963" lon="10.167590232725153"><ele>1461.0</ele><time>2026-04-04T14:21:54Z</time></trkpt><trkpt lat="45.92310770028042" lon="10.167495169624967"><ele>1461.0</ele><time>2026-04-04T14:21:56Z</time></trkpt><trkpt lat="45.92309043369369" lon="10.167402677458806"><ele>1461.0</ele><time>2026-04-04T14:21:58Z</time></trkpt><trkpt lat="45.92306259762274" lon="10.167312455691654"><ele>1458.6666666666667</ele><time>2026-04-04T14:22:01Z</time></trkpt><trkpt lat="45.923063837643575" lon="10.167210574107303"><ele>1456.3333333333333</ele><time>2026-04-04T14:22:04Z</time></trkpt><trkpt lat="45.92312685032916" lon="10.167105504949651"><ele>1454.0</ele><time>2026-04-04T14:22:07Z</time></trkpt><trkpt lat="45.92324053031847" lon="10.167095477074783"><ele>1451.6666666666665</ele><time>2026-04-04T14:22:10Z</time></trkpt><trkpt lat="45.92331094645211" lon="10.167104449278025"><ele>1449.3333333333333</ele><time>2026-04-04T14:22:11Z</time></trkpt><trkpt lat="45.9233927392694" lon="10.167041056130232"><ele>1447.0</ele><time>2026-04-04T14:22:13Z</time></trkpt><trkpt lat="45.9234616569407" lon="10.167013717020104"><ele>1447.0</ele><time>2026-04-04T14:22:15Z</time></trkpt><trkpt lat="45.92354096826603" lon="10.166990137139893"><ele>1447.0</ele><time>2026-04-04T14:22:19Z</time></trkpt><trkpt lat="45.92359758570619" lon="10.166949972933237"><ele>1447.0</ele><time>2026-04-04T14:23:00Z</time></trkpt><trkpt lat="45.92365480939858" lon="10.166895828930237"><ele>1447.0</ele><time>2026-04-04T14:23:03Z</time></trkpt><trkpt lat="45.92374549998075" lon="10.166791953043608"><ele>1447.0</ele><time>2026-04-04T14:23:05Z</time></trkpt><trkpt lat="45.92380274843781" lon="10.166735224733076"><ele>1447.0</ele><time>2026-04-04T14:23:06Z</time></trkpt><trkpt lat="45.92386042216044" lon="10.166681708978336"><ele>1447.0</ele><time>2026-04-04T14:23:07Z</time></trkpt><trkpt lat="45.923921490798364" lon="10.166651320526022"><ele>1447.0</ele><time>2026-04-04T14:23:08Z</time></trkpt><trkpt lat="45.92400069523394" lon="10.16662396671566"><ele>1447.0</ele><time>2026-04-04T14:23:09Z</time></trkpt><trkpt lat="45.92407519443963" lon="10.166609383984602"><ele>1447.0</ele><time>2026-04-04T14:23:10Z</time></trkpt><trkpt lat="45.92414854464458" lon="10.166564174174056"><ele>1447.0</ele><time>2026-04-04T14:23:12Z</time></trkpt><trkpt lat="45.9242176529161" lon="10.166518458378553"><ele>1447.0</ele><time>2026-04-04T14:23:13Z</time></trkpt><trkpt lat="45.92428098807455" lon="10.166472569016557"><ele>1447.0</ele><time>2026-04-04T14:23:14Z</time></trkpt><trkpt lat="45.92434051288833" lon="10.166425965344926"><ele>1447.1666666666665</ele><time>2026-04-04T14:23:15Z</time></trkpt><trkpt lat="45.92439842300563" lon="10.16637847356863"><ele>1447.3333333333333</ele><time>2026-04-04T14:23:16Z</time></trkpt><trkpt lat="45.924488043094" lon="10.166275002473094"><ele>1447.5</ele><time>2026-04-04T14:23:18Z</time></trkpt><trkpt lat="45.92454768799609" lon="10.16616131516604"><ele>1447.6666666666667</ele><time>2026-04-04T14:23:20Z</time></trkpt><trkpt lat="45.92457828903532" lon="10.166065956083616"><ele>1447.8333333333335</ele><time>2026-04-04T14:23:21Z</time></trkpt><trkpt lat="45.92459988205163" lon="10.165951979414368"><ele>1448.0</ele><time>2026-04-04T14:23:22Z</time></trkpt><trkpt lat="45.92461873118907" lon="10.165844875873969"><ele>1448.0</ele><time>2026-04-04T14:23:23Z</time></trkpt><trkpt lat="45.924640844765435" lon="10.16573985681292"><ele>1448.0</ele><time>2026-04-04T14:23:24Z</time></trkpt><trkpt lat="45.92465741498886" lon="10.165635026214638"><ele>1448.0</ele><time>2026-04-04T14:23:25Z</time></trkpt><trkpt lat="45.92467291988161" lon="10.165509693917917"><ele>1448.0</ele><time>2026-04-04T14:23:26Z</time></trkpt><trkpt lat="45.92468305814586" lon="10.165379892263584"><ele>1448.0</ele><time>2026-04-04T14:23:27Z</time></trkpt><trkpt lat="45.92468974536001" lon="10.16521377360404"><ele>1448.0</ele><time>2026-04-04T14:23:28Z</time></trkpt><trkpt lat="45.924681013049316" lon="10.165050402610847"><ele>1449.8000000000002</ele><time>2026-04-04T14:23:29Z</time></trkpt><trkpt lat="45.92469580475451" lon="10.164925065621647"><ele>1451.6</ele><time>2026-04-04T14:23:30Z</time></trkpt><trkpt lat="45.92471758523045" lon="10.164789261544216"><ele>1453.4</ele><time>2026-04-04T14:23:32Z</time></trkpt><trkpt lat="45.92474514757685" lon="10.164632516411322"><ele>1455.1999999999998</ele><time>2026-04-04T14:23:34Z</time></trkpt><trkpt lat="45.92477307921902" lon="10.164479339853479"><ele>1457.0</ele><time>2026-04-04T14:23:36Z</time></trkpt><trkpt lat="45.92478952192226" lon="10.16438916834475"><ele>1457.1666666666667</ele><time>2026-04-04T14:23:37Z</time></trkpt><trkpt lat="45.92481783021865" lon="10.16423392626475"><ele>1457.3333333333335</ele><time>2026-04-04T14:23:39Z</time></trkpt><trkpt lat="45.924833260495035" lon="10.164143756845585"><ele>1457.5</ele><time>2026-04-04T14:23:40Z</time></trkpt><trkpt lat="45.92483608229531" lon="10.164019349327646"><ele>1457.6666666666667</ele><time>2026-04-04T14:23:41Z</time></trkpt><trkpt lat="45.924830286168486" lon="10.163905044110527"><ele>1457.8333333333333</ele><time>2026-04-04T14:23:42Z</time></trkpt><trkpt lat="45.9248328732106" lon="10.163790788655028"><ele>1458.0</ele><time>2026-04-04T14:23:43Z</time></trkpt><trkpt lat="45.92483895325056" lon="10.163663295427966"><ele>1458.0</ele><time>2026-04-04T14:23:44Z</time></trkpt><trkpt lat="45.924845536879786" lon="10.163532929356128"><ele>1458.0</ele><time>2026-04-04T14:23:45Z</time></trkpt><trkpt lat="45.924849079411366" lon="10.163379211053297"><ele>1458.0</ele><time>2026-04-04T14:23:46Z</time></trkpt><trkpt lat="45.92485101216084" lon="10.163245896669919"><ele>1458.0</ele><time>2026-04-04T14:23:47Z</time></trkpt><trkpt lat="45.924844611733114" lon="10.163135466094227"><ele>1458.0</ele><time>2026-04-04T14:23:48Z</time></trkpt><trkpt lat="45.92485575667011" lon="10.163014202997678"><ele>1456.6000000000001</ele><time>2026-04-04T14:23:49Z</time></trkpt><trkpt lat="45.9248891331985" lon="10.162880328676497"><ele>1455.2</ele><time>2026-04-04T14:23:50Z</time></trkpt><trkpt lat="45.92492046737785" lon="10.162729979253038"><ele>1453.8</ele><time>2026-04-04T14:23:51Z</time></trkpt><trkpt lat="45.92493155547472" lon="10.162616318037262"><ele>1452.4</ele><time>2026-04-04T14:23:52Z</time></trkpt><trkpt lat="45.92493562701894" lon="10.162447957783405"><ele>1451.0</ele><time>2026-04-04T14:23:54Z</time></trkpt><trkpt lat="45.924935701424616" lon="10.162335987732714"><ele>1450.6666666666667</ele><time>2026-04-04T14:23:55Z</time></trkpt><trkpt lat="45.92493607453283" lon="10.162223672918932"><ele>1450.3333333333335</ele><time>2026-04-04T14:23:56Z</time></trkpt><trkpt lat="45.924970281834774" lon="10.162132206070533"><ele>1450.0</ele><time>2026-04-04T14:23:57Z</time></trkpt><trkpt lat="45.924999758929346" lon="10.162026471232293"><ele>1449.6666666666667</ele><time>2026-04-04T14:23:58Z</time></trkpt><trkpt lat="45.925022034231034" lon="10.161896709388328"><ele>1449.3333333333333</ele><time>2026-04-04T14:23:59Z</time></trkpt><trkpt lat="45.92504272024765" lon="10.161791394166919"><ele>1449.0</ele><time>2026-04-04T14:24:00Z</time></trkpt><trkpt lat="45.92506782343635" lon="10.161667064698277"><ele>1445.1666666666667</ele><time>2026-04-04T14:24:03Z</time></trkpt><trkpt lat="45.92511317143942" lon="10.161584777681115"><ele>1441.3333333333333</ele><time>2026-04-04T14:24:05Z</time></trkpt><trkpt lat="45.92515617572044" lon="10.161479630860189"><ele>1437.5</ele><time>2026-04-04T14:24:07Z</time></trkpt><trkpt lat="45.925204559671656" lon="10.16139904258395"><ele>1433.6666666666665</ele><time>2026-04-04T14:24:09Z</time></trkpt><trkpt lat="45.925248261859515" lon="10.161287894872018"><ele>1429.8333333333333</ele><time>2026-04-04T14:24:11Z</time></trkpt><trkpt lat="45.92527611019517" lon="10.161167643759008"><ele>1426.0</ele><time>2026-04-04T14:24:13Z</time></trkpt><trkpt lat="45.92532725304375" lon="10.161015209219876"><ele>1425.8</ele><time>2026-04-04T14:24:15Z</time></trkpt><trkpt lat="45.925366128678434" lon="10.160923597067917"><ele>1425.6</ele><time>2026-04-04T14:24:16Z</time></trkpt><trkpt lat="45.9253941425811" lon="10.160838632906078"><ele>1425.4</ele><time>2026-04-04T14:24:17Z</time></trkpt><trkpt lat="45.92545603753179" lon="10.160673839427893"><ele>1425.2</ele><time>2026-04-04T14:24:19Z</time></trkpt><trkpt lat="45.925477437940806" lon="10.160542635729593"><ele>1425.0</ele><time>2026-04-04T14:24:21Z</time></trkpt><trkpt lat="45.92550719320906" lon="10.160396956543646"><ele>1425.0</ele><time>2026-04-04T14:24:23Z</time></trkpt><trkpt lat="45.92553832591109" lon="10.16030149730662"><ele>1425.0</ele><time>2026-04-04T14:24:24Z</time></trkpt><trkpt lat="45.92556769521519" lon="10.16018322397959"><ele>1425.0</ele><time>2026-04-04T14:24:25Z</time></trkpt><trkpt lat="45.92560707777839" lon="10.160079417821564"><ele>1425.0</ele><time>2026-04-04T14:24:26Z</time></trkpt><trkpt lat="45.92566071032608" lon="10.160001826496023"><ele>1425.0</ele><time>2026-04-04T14:24:27Z</time></trkpt><trkpt lat="45.92574471862119" lon="10.159945100113639"><ele>1425.0</ele><time>2026-04-04T14:24:28Z</time></trkpt><trkpt lat="45.92583794635229" lon="10.159849313111934"><ele>1425.0</ele><time>2026-04-04T14:24:29Z</time></trkpt><trkpt lat="45.92591963799301" lon="10.15972431766578"><ele>1425.0</ele><time>2026-04-04T14:24:30Z</time></trkpt><trkpt lat="45.92597336408541" lon="10.159612176449683"><ele>1425.0</ele><time>2026-04-04T14:24:31Z</time></trkpt><trkpt lat="45.92602723011716" lon="10.159520187390784"><ele>1425.0</ele><time>2026-04-04T14:24:32Z</time></trkpt><trkpt lat="45.92608372747065" lon="10.159443956990053"><ele>1425.0</ele><time>2026-04-04T14:24:33Z</time></trkpt><trkpt lat="45.92614307474565" lon="10.159338729436831"><ele>1425.0</ele><time>2026-04-04T14:24:34Z</time></trkpt><trkpt lat="45.926181305222904" lon="10.159213612137139"><ele>1425.0</ele><time>2026-04-04T14:24:35Z</time></trkpt><trkpt lat="45.92623294177614" lon="10.159085540443035"><ele>1425.0</ele><time>2026-04-04T14:24:36Z</time></trkpt><trkpt lat="45.926272838797004" lon="10.158977892978665"><ele>1425.0</ele><time>2026-04-04T14:24:37Z</time></trkpt><trkpt lat="45.926300079197866" lon="10.158864421612599"><ele>1425.0</ele><time>2026-04-04T14:24:38Z</time></trkpt><trkpt lat="45.92633491717797" lon="10.158757162488905"><ele>1425.0</ele><time>2026-04-04T14:24:39Z</time></trkpt><trkpt lat="45.92638682012733" lon="10.158660344624947"><ele>1425.6</ele><time>2026-04-04T14:24:40Z</time></trkpt><trkpt lat="45.92643763850014" lon="10.15856157061878"><ele>1426.2</ele><time>2026-04-04T14:24:41Z</time></trkpt><trkpt lat="45.926494632452695" lon="10.158466017488538"><ele>1426.8000000000002</ele><time>2026-04-04T14:24:42Z</time></trkpt><trkpt lat="45.92656925088344" lon="10.15837295232038"><ele>1427.4</ele><time>2026-04-04T14:24:43Z</time></trkpt><trkpt lat="45.92663078297857" lon="10.158274171021322"><ele>1428.0</ele><time>2026-04-04T14:24:44Z</time></trkpt><trkpt lat="45.92668701152284" lon="10.158163524679907"><ele>1435.4</ele><time>2026-04-04T14:24:45Z</time></trkpt><trkpt lat="45.926742604668355" lon="10.158071095971497"><ele>1442.8000000000002</ele><time>2026-04-04T14:24:46Z</time></trkpt><trkpt lat="45.926817721377006" lon="10.157970766754651"><ele>1450.2</ele><time>2026-04-04T14:24:47Z</time></trkpt><trkpt lat="45.926892609621255" lon="10.157869953935277"><ele>1457.6</ele><time>2026-04-04T14:24:48Z</time></trkpt><trkpt lat="45.9269329504584" lon="10.157733474840851"><ele>1465.0</ele><time>2026-04-04T14:24:49Z</time></trkpt><trkpt lat="45.92694192402908" lon="10.157571479107089"><ele>1465.0</ele><time>2026-04-04T14:24:50Z</time></trkpt><trkpt lat="45.9269725065615" lon="10.15740428427255"><ele>1465.0</ele><time>2026-04-04T14:24:51Z</time></trkpt><trkpt lat="45.9270034515127" lon="10.15722721646814"><ele>1465.0</ele><time>2026-04-04T14:24:52Z</time></trkpt><trkpt lat="45.92701652865283" lon="10.157052187697369"><ele>1465.0</ele><time>2026-04-04T14:24:53Z</time></trkpt><trkpt lat="45.92703019718779" lon="10.156882772416582"><ele>1464.8</ele><time>2026-04-04T14:24:54Z</time></trkpt><trkpt lat="45.92704220884063" lon="10.156719564997108"><ele>1464.6</ele><time>2026-04-04T14:24:55Z</time></trkpt><trkpt lat="45.92703762885711" lon="10.15657329368597"><ele>1464.4</ele><time>2026-04-04T14:24:56Z</time></trkpt><trkpt lat="45.92705285061302" lon="10.156443325498607"><ele>1464.2</ele><time>2026-04-04T14:24:57Z</time></trkpt><trkpt lat="45.92705655943721" lon="10.15632275441253"><ele>1464.0</ele><time>2026-04-04T14:24:58Z</time></trkpt><trkpt lat="45.927064565290635" lon="10.156174767191029"><ele>1464.4</ele><time>2026-04-04T14:24:59Z</time></trkpt><trkpt lat="45.927078931966435" lon="10.1560052238453"><ele>1464.8000000000002</ele><time>2026-04-04T14:25:00Z</time></trkpt><trkpt lat="45.92711894328072" lon="10.155858827446801"><ele>1465.1999999999998</ele><time>2026-04-04T14:25:01Z</time></trkpt><trkpt lat="45.92714951447527" lon="10.155697512355157"><ele>1465.6</ele><time>2026-04-04T14:25:02Z</time></trkpt><trkpt lat="45.927165923180006" lon="10.155571835677376"><ele>1466.0</ele><time>2026-04-04T14:25:03Z</time></trkpt><trkpt lat="45.92720279598997" lon="10.155467899952372"><ele>1466.1666666666667</ele><time>2026-04-04T14:25:04Z</time></trkpt><trkpt lat="45.92722858918017" lon="10.155366634167882"><ele>1466.3333333333335</ele><time>2026-04-04T14:25:05Z</time></trkpt><trkpt lat="45.927280304436195" lon="10.155267764148864"><ele>1466.5</ele><time>2026-04-04T14:25:06Z</time></trkpt><trkpt lat="45.927328079975375" lon="10.155147049585464"><ele>1466.6666666666667</ele><time>2026-04-04T14:25:07Z</time></trkpt><trkpt lat="45.927368396121516" lon="10.155005925032874"><ele>1466.8333333333333</ele><time>2026-04-04T14:25:08Z</time></trkpt><trkpt lat="45.92739053542005" lon="10.154909732237417"><ele>1467.0</ele><time>2026-04-04T14:25:09Z</time></trkpt><trkpt lat="45.927414486415806" lon="10.154758933251127"><ele>1467.0</ele><time>2026-04-04T14:25:11Z</time></trkpt><trkpt lat="45.927420013935745" lon="10.154632069529354"><ele>1467.0</ele><time>2026-04-04T14:25:13Z</time></trkpt><trkpt lat="45.927418410714516" lon="10.154489145402966"><ele>1467.0</ele><time>2026-04-04T14:25:15Z</time></trkpt><trkpt lat="45.92742864531031" lon="10.154352954440062"><ele>1467.0</ele><time>2026-04-04T14:25:17Z</time></trkpt><trkpt lat="45.92748184510885" lon="10.154201634135882"><ele>1467.0</ele><time>2026-04-04T14:25:19Z</time></trkpt><trkpt lat="45.92753082504442" lon="10.154117746952691"><ele>1468.0</ele><time>2026-04-04T14:25:20Z</time></trkpt><trkpt lat="45.92757918887622" lon="10.154020552420043"><ele>1469.0</ele><time>2026-04-04T14:25:21Z</time></trkpt><trkpt lat="45.927639410375356" lon="10.153924901477566"><ele>1470.0</ele><time>2026-04-04T14:25:22Z</time></trkpt><trkpt lat="45.92768745483895" lon="10.153824589507861"><ele>1471.0</ele><time>2026-04-04T14:25:23Z</time></trkpt><trkpt lat="45.92769912817809" lon="10.153691694878743"><ele>1472.0</ele><time>2026-04-04T14:25:24Z</time></trkpt><trkpt lat="45.92769968795238" lon="10.153554589094625"><ele>1473.0</ele><time>2026-04-04T14:25:25Z</time></trkpt><trkpt lat="45.92771809378485" lon="10.153409020870876"><ele>1473.0</ele><time>2026-04-04T14:25:26Z</time></trkpt><trkpt lat="45.927750721641885" lon="10.153272971798426"><ele>1473.0</ele><time>2026-04-04T14:25:27Z</time></trkpt><trkpt lat="45.927799900151214" lon="10.153124885184365"><ele>1473.0</ele><time>2026-04-04T14:25:28Z</time></trkpt><trkpt lat="45.92784937800959" lon="10.15298511366052"><ele>1473.0</ele><time>2026-04-04T14:25:29Z</time></trkpt><trkpt lat="45.92788914177588" lon="10.152842080005042"><ele>1473.0</ele><time>2026-04-04T14:25:30Z</time></trkpt><trkpt lat="45.92792135575105" lon="10.152714643786236"><ele>1472.6000000000001</ele><time>2026-04-04T14:25:31Z</time></trkpt><trkpt lat="45.927949139310684" lon="10.15260559369935"><ele>1472.2</ele><time>2026-04-04T14:25:32Z</time></trkpt><trkpt lat="45.927968895899106" lon="10.152496736132422"><ele>1471.8</ele><time>2026-04-04T14:25:33Z</time></trkpt><trkpt lat="45.92801065456772" lon="10.152377122015999"><ele>1471.4</ele><time>2026-04-04T14:25:34Z</time></trkpt><trkpt lat="45.9280857573679" lon="10.152284897412045"><ele>1471.0</ele><time>2026-04-04T14:25:35Z</time></trkpt><trkpt lat="45.92816427570292" lon="10.152194150966295"><ele>1472.0</ele><time>2026-04-04T14:25:36Z</time></trkpt><trkpt lat="45.92824416991404" lon="10.152112595221261"><ele>1473.0</ele><time>2026-04-04T14:25:37Z</time></trkpt><trkpt lat="45.92833585846123" lon="10.152026554898516"><ele>1474.0</ele><time>2026-04-04T14:25:38Z</time></trkpt><trkpt lat="45.92840891953948" lon="10.151933343074099"><ele>1475.0</ele><time>2026-04-04T14:25:39Z</time></trkpt><trkpt lat="45.928472713988796" lon="10.15182046344608"><ele>1476.0</ele><time>2026-04-04T14:25:40Z</time></trkpt><trkpt lat="45.92854598673943" lon="10.151706267447215"><ele>1478.25</ele><time>2026-04-04T14:25:41Z</time></trkpt><trkpt lat="45.92862445150264" lon="10.151588910805147"><ele>1480.5</ele><time>2026-04-04T14:25:42Z</time></trkpt><trkpt lat="45.92871492928963" lon="10.151457585180772"><ele>1482.75</ele><time>2026-04-04T14:25:43Z</time></trkpt><trkpt lat="45.92880875755119" lon="10.15130320008674"><ele>1485.0</ele><time>2026-04-04T14:25:44Z</time></trkpt><trkpt lat="45.92892282574551" lon="10.151126416115783"><ele>1486.6666666666667</ele><time>2026-04-04T14:25:45Z</time></trkpt><trkpt lat="45.9290497038113" lon="10.150962258501327"><ele>1488.3333333333335</ele><time>2026-04-04T14:25:46Z</time></trkpt><trkpt lat="45.92914698051764" lon="10.150781234142572"><ele>1490.0</ele><time>2026-04-04T14:25:47Z</time></trkpt><trkpt lat="45.92922353969037" lon="10.150632854612885"><ele>1490.5</ele><time>2026-04-04T14:25:48Z</time></trkpt><trkpt lat="45.929256395741774" lon="10.15050745120639"><ele>1491.0</ele><time>2026-04-04T14:25:49Z</time></trkpt><trkpt lat="45.9292835922113" lon="10.150381636903433"><ele>1491.5</ele><time>2026-04-04T14:25:50Z</time></trkpt><trkpt lat="45.929301749311634" lon="10.150276557742002"><ele>1492.0</ele><time>2026-04-04T14:25:51Z</time></trkpt><trkpt lat="45.929347640708805" lon="10.150127708878875"><ele>1492.5</ele><time>2026-04-04T14:25:53Z</time></trkpt><trkpt lat="45.92938318920878" lon="10.150043372629815"><ele>1493.0</ele><time>2026-04-04T14:25:54Z</time></trkpt><trkpt lat="45.92943531852257" lon="10.149968461413717"><ele>1489.8000000000002</ele><time>2026-04-04T14:25:55Z</time></trkpt><trkpt lat="45.92948836733556" lon="10.149866301071173"><ele>1486.6</ele><time>2026-04-04T14:25:56Z</time></trkpt><trkpt lat="45.92952933530055" lon="10.149752493022437"><ele>1483.4</ele><time>2026-04-04T14:25:57Z</time></trkpt><trkpt lat="45.9295531704428" lon="10.149661366061094"><ele>1480.1999999999998</ele><time>2026-04-04T14:25:58Z</time></trkpt><trkpt lat="45.92962312190872" lon="10.149554214631543"><ele>1477.0</ele><time>2026-04-04T14:26:00Z</time></trkpt><trkpt lat="45.929704355574884" lon="10.149463646312665"><ele>1477.0</ele><time>2026-04-04T14:26:02Z</time></trkpt><trkpt lat="45.92975193698549" lon="10.149396514056319"><ele>1477.0</ele><time>2026-04-04T14:26:03Z</time></trkpt><trkpt lat="45.92978748143348" lon="10.149305333296539"><ele>1477.0</ele><time>2026-04-04T14:26:04Z</time></trkpt><trkpt lat="45.92987141097899" lon="10.149215046271298"><ele>1477.0</ele><time>2026-04-04T14:26:06Z</time></trkpt><trkpt lat="45.9299626565241" lon="10.149113367372975"><ele>1477.0</ele><time>2026-04-04T14:26:08Z</time></trkpt><trkpt lat="45.93002076074868" lon="10.149068999432533"><ele>1477.0</ele><time>2026-04-04T14:26:09Z</time></trkpt><trkpt lat="45.93012668328444" lon="10.148979027606265"><ele>1476.8333333333333</ele><time>2026-04-04T14:26:11Z</time></trkpt><trkpt lat="45.930195933599954" lon="10.148965762074553"><ele>1476.6666666666665</ele><time>2026-04-04T14:26:12Z</time></trkpt><trkpt lat="45.930268412538176" lon="10.14896725437848"><ele>1476.5</ele><time>2026-04-04T14:26:13Z</time></trkpt><trkpt lat="45.93034334691579" lon="10.148964163531211"><ele>1476.3333333333333</ele><time>2026-04-04T14:26:14Z</time></trkpt><trkpt lat="45.930418717219744" lon="10.148951637922282"><ele>1476.1666666666667</ele><time>2026-04-04T14:26:15Z</time></trkpt><trkpt lat="45.93048845977088" lon="10.148930379173814"><ele>1476.0</ele><time>2026-04-04T14:26:16Z</time></trkpt><trkpt lat="45.930595089403134" lon="10.148936799837807"><ele>1476.0</ele><time>2026-04-04T14:26:18Z</time></trkpt><trkpt lat="45.93069137400438" lon="10.148919759927809"><ele>1476.0</ele><time>2026-04-04T14:26:20Z</time></trkpt><trkpt lat="45.93082952890428" lon="10.148933264255973"><ele>1476.0</ele><time>2026-04-04T14:26:22Z</time></trkpt><trkpt lat="45.930937575072456" lon="10.148946464283402"><ele>1476.0</ele><time>2026-04-04T14:26:23Z</time></trkpt><trkpt lat="45.93102154523073" lon="10.148959689726212"><ele>1476.0</ele><time>2026-04-04T14:26:24Z</time></trkpt><trkpt lat="45.93108481290954" lon="10.14895744053609"><ele>1475.1999999999998</ele><time>2026-04-04T14:26:25Z</time></trkpt><trkpt lat="45.93115265195047" lon="10.148966553876932"><ele>1474.3999999999999</ele><time>2026-04-04T14:26:26Z</time></trkpt><trkpt lat="45.93125145876074" lon="10.149003945715187"><ele>1473.6</ele><time>2026-04-04T14:26:28Z</time></trkpt><trkpt lat="45.93136494928168" lon="10.149018766134466"><ele>1472.8</ele><time>2026-04-04T14:26:30Z</time></trkpt><trkpt lat="45.93146676765152" lon="10.14903483750201"><ele>1472.0</ele><time>2026-04-04T14:26:32Z</time></trkpt><trkpt lat="45.93156176725318" lon="10.14908489589225"><ele>1472.0</ele><time>2026-04-04T14:26:34Z</time></trkpt><trkpt lat="45.93164436974642" lon="10.14911382684471"><ele>1472.0</ele><time>2026-04-04T14:26:36Z</time></trkpt><trkpt lat="45.93172262087663" lon="10.149167165627654"><ele>1472.0</ele><time>2026-04-04T14:26:38Z</time></trkpt><trkpt lat="45.93181122157546" lon="10.149232278522561"><ele>1472.0</ele><time>2026-04-04T14:26:41Z</time></trkpt><trkpt lat="45.93191634066109" lon="10.149284716024816"><ele>1472.0</ele><time>2026-04-04T14:26:43Z</time></trkpt><trkpt lat="45.932028637385734" lon="10.149303540473483"><ele>1472.6</ele><time>2026-04-04T14:26:45Z</time></trkpt><trkpt lat="45.93214122848667" lon="10.149345519354046"><ele>1473.1999999999998</ele><time>2026-04-04T14:26:47Z</time></trkpt><trkpt lat="45.932240493022896" lon="10.149359411680845"><ele>1473.8</ele><time>2026-04-04T14:26:49Z</time></trkpt><trkpt lat="45.932376301548324" lon="10.149329244527566"><ele>1474.4</ele><time>2026-04-04T14:26:51Z</time></trkpt><trkpt lat="45.93245590515669" lon="10.149344764788456"><ele>1475.0</ele><time>2026-04-04T14:26:52Z</time></trkpt><trkpt lat="45.932530246721434" lon="10.149329646801663"><ele>1475.4</ele><time>2026-04-04T14:26:53Z</time></trkpt><trkpt lat="45.93262800034935" lon="10.149276233655302"><ele>1475.8</ele><time>2026-04-04T14:26:55Z</time></trkpt><trkpt lat="45.932705343304555" lon="10.149194749400696"><ele>1476.1999999999998</ele><time>2026-04-04T14:26:57Z</time></trkpt><trkpt lat="45.932789812694025" lon="10.149158621746624"><ele>1476.6</ele><time>2026-04-04T14:26:59Z</time></trkpt><trkpt lat="45.93287697838921" lon="10.14911935555458"><ele>1477.0</ele><time>2026-04-04T14:27:01Z</time></trkpt><trkpt lat="45.932970355782665" lon="10.149135020930531"><ele>1477.0</ele><time>2026-04-04T14:27:03Z</time></trkpt><trkpt lat="45.93303505254793" lon="10.1491174282967"><ele>1477.0</ele><time>2026-04-04T14:27:07Z</time></trkpt><trkpt lat="45.93311777736532" lon="10.149095263304597"><ele>1477.0</ele><time>2026-04-04T14:27:11Z</time></trkpt><trkpt lat="45.933199776897" lon="10.149064865787475"><ele>1477.0</ele><time>2026-04-04T14:27:15Z</time></trkpt><trkpt lat="45.93327293616338" lon="10.149109053835959"><ele>1477.0</ele><time>2026-04-04T14:27:19Z</time></trkpt><trkpt lat="45.933360462559655" lon="10.149185099837426"><ele>1477.0</ele><time>2026-04-04T14:27:23Z</time></trkpt><trkpt lat="45.933440386741545" lon="10.149243800583312"><ele>1470.8</ele><time>2026-04-04T14:27:25Z</time></trkpt><trkpt lat="45.93354674374814" lon="10.14926922024988"><ele>1464.6</ele><time>2026-04-04T14:27:26Z</time></trkpt><trkpt lat="45.93362827951179" lon="10.14932786980701"><ele>1458.3999999999999</ele><time>2026-04-04T14:27:28Z</time></trkpt><trkpt lat="45.93369504303508" lon="10.149377911596206"><ele>1452.1999999999998</ele><time>2026-04-04T14:27:30Z</time></trkpt><trkpt lat="45.933793122277116" lon="10.149421723827338"><ele>1446.0</ele><time>2026-04-04T14:27:32Z</time></trkpt><trkpt lat="45.93391197482759" lon="10.149465789427243"><ele>1446.0</ele><time>2026-04-04T14:27:34Z</time></trkpt><trkpt lat="45.934017496213364" lon="10.14950786853007"><ele>1446.0</ele><time>2026-04-04T14:27:36Z</time></trkpt><trkpt lat="45.934080202695576" lon="10.149553870725713"><ele>1446.0</ele><time>2026-04-04T14:27:38Z</time></trkpt><trkpt lat="45.93414003585546" lon="10.149619629677"><ele>1446.0</ele><time>2026-04-04T14:27:41Z</time></trkpt><trkpt lat="45.93420898367818" lon="10.149711256562657"><ele>1446.0</ele><time>2026-04-04T14:27:43Z</time></trkpt><trkpt lat="45.934260767825506" lon="10.149767766425636"><ele>1446.0</ele><time>2026-04-04T14:27:45Z</time></trkpt><trkpt lat="45.934378798282" lon="10.149789422711573"><ele>1444.1666666666667</ele><time>2026-04-04T14:27:47Z</time></trkpt><trkpt lat="45.93445137153709" lon="10.149745275342973"><ele>1442.3333333333333</ele><time>2026-04-04T14:27:49Z</time></trkpt><trkpt lat="45.93454168082155" lon="10.149812820344764"><ele>1440.5</ele><time>2026-04-04T14:27:51Z</time></trkpt><trkpt lat="45.934630001281015" lon="10.149883606900605"><ele>1438.6666666666665</ele><time>2026-04-04T14:27:53Z</time></trkpt><trkpt lat="45.934712097547795" lon="10.149917327126916"><ele>1436.8333333333333</ele><time>2026-04-04T14:27:56Z</time></trkpt><trkpt lat="45.934766660898205" lon="10.149964307441003"><ele>1435.0</ele><time>2026-04-04T14:27:58Z</time></trkpt><trkpt lat="45.934841647198496" lon="10.150070628431289"><ele>1435.0</ele><time>2026-04-04T14:28:00Z</time></trkpt><trkpt lat="45.934892677873115" lon="10.15016218824119"><ele>1435.0</ele><time>2026-04-04T14:28:02Z</time></trkpt><trkpt lat="45.934953271252404" lon="10.150242710518528"><ele>1435.0</ele><time>2026-04-04T14:28:04Z</time></trkpt><trkpt lat="45.9350095678677" lon="10.150287092541381"><ele>1435.0</ele><time>2026-04-04T14:28:05Z</time></trkpt><trkpt lat="45.93508217923894" lon="10.150385664896483"><ele>1435.0</ele><time>2026-04-04T14:28:07Z</time></trkpt><trkpt lat="45.935097492228984" lon="10.150478316661609"><ele>1435.0</ele><time>2026-04-04T14:28:08Z</time></trkpt><trkpt lat="45.935093985214046" lon="10.15057488491568"><ele>1429.6666666666665</ele><time>2026-04-04T14:28:09Z</time></trkpt><trkpt lat="45.935167831994164" lon="10.150650384817267"><ele>1424.3333333333333</ele><time>2026-04-04T14:28:11Z</time></trkpt><trkpt lat="45.93521579569085" lon="10.150721877980638"><ele>1419.0</ele><time>2026-04-04T14:28:13Z</time></trkpt><trkpt lat="45.93527898348843" lon="10.150786839711632"><ele>1413.6666666666667</ele><time>2026-04-04T14:28:15Z</time></trkpt><trkpt lat="45.93529858685087" lon="10.150875496154512"><ele>1408.3333333333335</ele><time>2026-04-04T14:28:17Z</time></trkpt><trkpt lat="45.93538118131909" lon="10.150939802509173"><ele>1403.0</ele><time>2026-04-04T14:28:19Z</time></trkpt><trkpt lat="45.93543394365601" lon="10.151034051908237"><ele>1403.0</ele><time>2026-04-04T14:28:21Z</time></trkpt><trkpt lat="45.93546562656978" lon="10.151142531826137"><ele>1403.0</ele><time>2026-04-04T14:28:23Z</time></trkpt><trkpt lat="45.93550783221786" lon="10.151241942710056"><ele>1403.0</ele><time>2026-04-04T14:28:25Z</time></trkpt><trkpt lat="45.93554786460156" lon="10.15139066667775"><ele>1403.0</ele><time>2026-04-04T14:28:27Z</time></trkpt><trkpt lat="45.93558884695286" lon="10.15154667922116"><ele>1403.0</ele><time>2026-04-04T14:28:29Z</time></trkpt><trkpt lat="45.93561393230707" lon="10.151761670240678"><ele>1404.8333333333335</ele><time>2026-04-04T14:28:31Z</time></trkpt><trkpt lat="45.93562171061753" lon="10.151858732974482"><ele>1406.6666666666667</ele><time>2026-04-04T14:28:32Z</time></trkpt><trkpt lat="45.93563808165928" lon="10.151974722391193"><ele>1408.5</ele><time>2026-04-04T14:28:35Z</time></trkpt><trkpt lat="45.935677273936484" lon="10.152097432874777"><ele>1410.3333333333333</ele><time>2026-04-04T14:28:37Z</time></trkpt><trkpt lat="45.93570377975327" lon="10.152220577711232"><ele>1412.1666666666665</ele><time>2026-04-04T14:28:40Z</time></trkpt><trkpt lat="45.93571895058908" lon="10.15237475201924"><ele>1414.0</ele><time>2026-04-04T14:28:44Z</time></trkpt><trkpt lat="45.935741096039145" lon="10.152464663690019"><ele>1414.142857142857</ele><time>2026-04-04T14:28:46Z</time></trkpt><trkpt lat="45.935750116688375" lon="10.152576088222341"><ele>1414.2857142857142</ele><time>2026-04-04T14:28:49Z</time></trkpt><trkpt lat="45.935755563003966" lon="10.152677056340407"><ele>1414.4285714285716</ele><time>2026-04-04T14:28:52Z</time></trkpt><trkpt lat="45.93574863368178" lon="10.152769523267779"><ele>1414.5714285714284</ele><time>2026-04-04T14:28:55Z</time></trkpt><trkpt lat="45.93575515494367" lon="10.15288197650375"><ele>1414.7142857142858</ele><time>2026-04-04T14:28:59Z</time></trkpt><trkpt lat="45.935764703220705" lon="10.152978061285756"><ele>1414.857142857143</ele><time>2026-04-04T14:29:01Z</time></trkpt><trkpt lat="45.935738758859834" lon="10.153093898853916"><ele>1415.0</ele><time>2026-04-04T14:29:03Z</time></trkpt><trkpt lat="45.93573381097553" lon="10.153210904143434"><ele>1415.0</ele><time>2026-04-04T14:29:06Z</time></trkpt><trkpt lat="45.93574980559156" lon="10.153316368582342"><ele>1415.0</ele><time>2026-04-04T14:29:09Z</time></trkpt><trkpt lat="45.93580281855817" lon="10.153408906605762"><ele>1415.0</ele><time>2026-04-04T14:29:11Z</time></trkpt><trkpt lat="45.93584728128001" lon="10.153504459870701"><ele>1415.0</ele><time>2026-04-04T14:29:13Z</time></trkpt><trkpt lat="45.93588261730235" lon="10.153599988579613"><ele>1415.0</ele><time>2026-04-04T14:29:16Z</time></trkpt><trkpt lat="45.93590603091378" lon="10.15370029003796"><ele>1415.0</ele><time>2026-04-04T14:29:19Z</time></trkpt><trkpt lat="45.935977101059784" lon="10.153835045611636"><ele>1410.5</ele><time>2026-04-04T14:29:21Z</time></trkpt><trkpt lat="45.93603493490333" lon="10.153928360239897"><ele>1406.0</ele><time>2026-04-04T14:29:22Z</time></trkpt><trkpt lat="45.93610405340819" lon="10.154079881880342"><ele>1401.5</ele><time>2026-04-04T14:29:24Z</time></trkpt><trkpt lat="45.93614360915971" lon="10.15416193215479"><ele>1397.0</ele><time>2026-04-04T14:29:25Z</time></trkpt><trkpt lat="45.93617914607394" lon="10.15424115842859"><ele>1392.5</ele><time>2026-04-04T14:29:26Z</time></trkpt><trkpt lat="45.93620475142678" lon="10.154324420389896"><ele>1388.0</ele><time>2026-04-04T14:29:27Z</time></trkpt><trkpt lat="45.93622249861762" lon="10.154412192931506"><ele>1388.0</ele><time>2026-04-04T14:29:28Z</time></trkpt><trkpt lat="45.93624118333433" lon="10.154499780687097"><ele>1388.0</ele><time>2026-04-04T14:29:29Z</time></trkpt><trkpt lat="45.93626897640648" lon="10.154604486267324"><ele>1388.0</ele><time>2026-04-04T14:29:31Z</time></trkpt><trkpt lat="45.93627779323656" lon="10.15470085609174"><ele>1388.0</ele><time>2026-04-04T14:29:36Z</time></trkpt><trkpt lat="45.936334744535934" lon="10.154752794648084"><ele>1388.0</ele><time>2026-04-04T14:29:40Z</time></trkpt><trkpt lat="45.93640041477884" lon="10.154834797034033"><ele>1388.0</ele><time>2026-04-04T14:29:42Z</time></trkpt><trkpt lat="45.936459928126034" lon="10.154888748847727"><ele>1388.0</ele><time>2026-04-04T14:29:44Z</time></trkpt><trkpt lat="45.93653475726029" lon="10.154917240329178"><ele>1388.3333333333335</ele><time>2026-04-04T14:29:46Z</time></trkpt><trkpt lat="45.93660495978807" lon="10.154937493226054"><ele>1388.6666666666667</ele><time>2026-04-04T14:29:48Z</time></trkpt><trkpt lat="45.93669029915711" lon="10.154932073996672"><ele>1389.0</ele><time>2026-04-04T14:29:50Z</time></trkpt><trkpt lat="45.936772735221005" lon="10.15491666819063"><ele>1389.3333333333333</ele><time>2026-04-04T14:29:52Z</time></trkpt><trkpt lat="45.936851890867075" lon="10.154892919290164"><ele>1389.6666666666665</ele><time>2026-04-04T14:31:01Z</time></trkpt><trkpt lat="45.936901292154616" lon="10.15483153046515"><ele>1390.0</ele><time>2026-04-04T14:31:04Z</time></trkpt><trkpt lat="45.93684720530061" lon="10.15477253147132"><ele>1390.0</ele><time>2026-04-04T14:31:06Z</time></trkpt><trkpt lat="45.93676420241555" lon="10.154791219539277"><ele>1390.0</ele><time>2026-04-04T14:31:09Z</time></trkpt><trkpt lat="45.93669355058616" lon="10.154741878535482"><ele>1390.0</ele><time>2026-04-04T14:31:11Z</time></trkpt><trkpt lat="45.93660979755777" lon="10.154632402313775"><ele>1390.0</ele><time>2026-04-04T14:31:13Z</time></trkpt><trkpt lat="45.93657060574658" lon="10.154552840762598"><ele>1390.0</ele><time>2026-04-04T14:31:14Z</time></trkpt><trkpt lat="45.936551184559086" lon="10.154436716735221"><ele>1390.0</ele><time>2026-04-04T14:31:16Z</time></trkpt><trkpt lat="45.936570950162874" lon="10.154332737082056"><ele>1389.6</ele><time>2026-04-04T14:31:18Z</time></trkpt><trkpt lat="45.93657756826109" lon="10.154187250877813"><ele>1389.2</ele><time>2026-04-04T14:31:20Z</time></trkpt><trkpt lat="45.936578041754" lon="10.154052071867314"><ele>1388.8000000000002</ele><time>2026-04-04T14:31:22Z</time></trkpt><trkpt lat="45.936581585689794" lon="10.153953903712686"><ele>1388.4</ele><time>2026-04-04T14:31:23Z</time></trkpt><trkpt lat="45.936590418804684" lon="10.153818881168771"><ele>1388.0</ele><time>2026-04-04T14:31:25Z</time></trkpt><trkpt lat="45.93658538005507" lon="10.15366497943905"><ele>1387.6000000000001</ele><time>2026-04-04T14:31:27Z</time></trkpt><trkpt lat="45.93656969808485" lon="10.153542281027216"><ele>1387.2</ele><time>2026-04-04T14:31:29Z</time></trkpt><trkpt lat="45.93658238560426" lon="10.153388487346568"><ele>1386.8</ele><time>2026-04-04T14:31:31Z</time></trkpt><trkpt lat="45.936573799932845" lon="10.153288564828904"><ele>1386.4</ele><time>2026-04-04T14:31:33Z</time></trkpt><trkpt lat="45.93658593660885" lon="10.1531401995817"><ele>1386.0</ele><time>2026-04-04T14:31:35Z</time></trkpt><trkpt lat="45.936606679110405" lon="10.153004676020172"><ele>1384.8333333333333</ele><time>2026-04-04T14:31:37Z</time></trkpt><trkpt lat="45.936618638850476" lon="10.152884222101488"><ele>1383.6666666666667</ele><time>2026-04-04T14:31:40Z</time></trkpt><trkpt lat="45.93663335566184" lon="10.152753501932441"><ele>1382.5</ele><time>2026-04-04T14:31:43Z</time></trkpt><trkpt lat="45.93662280095164" lon="10.152653465566024"><ele>1381.3333333333335</ele><time>2026-04-04T14:31:45Z</time></trkpt><trkpt lat="45.936611359516824" lon="10.15254103166149"><ele>1380.1666666666667</ele><time>2026-04-04T14:31:48Z</time></trkpt><trkpt lat="45.93662301011414" lon="10.152441271736187"><ele>1379.0</ele><time>2026-04-04T14:31:51Z</time></trkpt><trkpt lat="45.93664559056638" lon="10.152338796959908"><ele>1378.2857142857142</ele><time>2026-04-04T14:31:54Z</time></trkpt><trkpt lat="45.93669544492709" lon="10.15224899824847"><ele>1377.5714285714284</ele><time>2026-04-04T14:31:57Z</time></trkpt><trkpt lat="45.936738129668804" lon="10.1521323691442"><ele>1376.857142857143</ele><time>2026-04-04T14:32:01Z</time></trkpt><trkpt lat="45.93678232648034" lon="10.152066103555114"><ele>1376.142857142857</ele><time>2026-04-04T14:32:05Z</time></trkpt><trkpt lat="45.936806647895594" lon="10.151954722241834"><ele>1375.4285714285713</ele><time>2026-04-04T14:32:28Z</time></trkpt><trkpt lat="45.936799661852184" lon="10.15186314831432"><ele>1374.7142857142858</ele><time>2026-04-04T14:32:31Z</time></trkpt><trkpt lat="45.93681394230913" lon="10.151774426983172"><ele>1374.0</ele><time>2026-04-04T14:32:33Z</time></trkpt><trkpt lat="45.93684072066624" lon="10.151673410637587"><ele>1374.0</ele><time>2026-04-04T14:32:35Z</time></trkpt><trkpt lat="45.9368800648914" lon="10.15158151592789"><ele>1374.0</ele><time>2026-04-04T14:32:37Z</time></trkpt><trkpt lat="45.93693227083069" lon="10.15150782372254"><ele>1374.0</ele><time>2026-04-04T14:32:39Z</time></trkpt><trkpt lat="45.936974551232865" lon="10.151356568958533"><ele>1374.0</ele><time>2026-04-04T14:32:41Z</time></trkpt><trkpt lat="45.93699494621572" lon="10.151262474654056"><ele>1374.0</ele><time>2026-04-04T14:32:43Z</time></trkpt><trkpt lat="45.936999509509434" lon="10.15116109675358"><ele>1374.0</ele><time>2026-04-04T14:32:45Z</time></trkpt><trkpt lat="45.93701413329764" lon="10.151040104807631"><ele>1372.6</ele><time>2026-04-04T14:32:47Z</time></trkpt><trkpt lat="45.93699646326428" lon="10.150904982406006"><ele>1371.2</ele><time>2026-04-04T14:32:49Z</time></trkpt><trkpt lat="45.93697676354147" lon="10.15076929676129"><ele>1369.8</ele><time>2026-04-04T14:32:51Z</time></trkpt><trkpt lat="45.93695957727107" lon="10.150641522883756"><ele>1368.3999999999999</ele><time>2026-04-04T14:32:53Z</time></trkpt><trkpt lat="45.93696406141579" lon="10.150513864789957"><ele>1367.0</ele><time>2026-04-04T14:32:55Z</time></trkpt><trkpt lat="45.936954490591994" lon="10.150388468938258"><ele>1365.6666666666667</ele><time>2026-04-04T14:32:57Z</time></trkpt><trkpt lat="45.93693929835041" lon="10.1502846203837"><ele>1364.3333333333335</ele><time>2026-04-04T14:32:59Z</time></trkpt><trkpt lat="45.9369004455896" lon="10.15016639248175"><ele>1363.0</ele><time>2026-04-04T14:33:01Z</time></trkpt><trkpt lat="45.93686544538029" lon="10.15006975483042"><ele>1361.6666666666667</ele><time>2026-04-04T14:33:03Z</time></trkpt><trkpt lat="45.936821344441505" lon="10.149959599270058"><ele>1360.3333333333333</ele><time>2026-04-04T14:33:05Z</time></trkpt><trkpt lat="45.936802034090874" lon="10.149828099916705"><ele>1359.0</ele><time>2026-04-04T14:33:07Z</time></trkpt><trkpt lat="45.936787988007154" lon="10.149700521699069"><ele>1358.4</ele><time>2026-04-04T14:33:09Z</time></trkpt><trkpt lat="45.9368073570751" lon="10.149536144082417"><ele>1357.8000000000002</ele><time>2026-04-04T14:33:11Z</time></trkpt><trkpt lat="45.93680821139521" lon="10.149349090753105"><ele>1357.1999999999998</ele><time>2026-04-04T14:33:13Z</time></trkpt><trkpt lat="45.93679574644179" lon="10.149249405669844"><ele>1356.6</ele><time>2026-04-04T14:33:14Z</time></trkpt><trkpt lat="45.936776310972284" lon="10.149161141577244"><ele>1356.0</ele><time>2026-04-04T14:33:15Z</time></trkpt><trkpt lat="45.93679373206765" lon="10.149001889781193"><ele>1356.0</ele><time>2026-04-04T14:33:17Z</time></trkpt><trkpt lat="45.93679806675853" lon="10.1488711997134"><ele>1356.0</ele><time>2026-04-04T14:33:19Z</time></trkpt><trkpt lat="45.93679255035127" lon="10.14874935259046"><ele>1356.0</ele><time>2026-04-04T14:33:21Z</time></trkpt><trkpt lat="45.93674945602236" lon="10.148625512959537"><ele>1356.0</ele><time>2026-04-04T14:33:23Z</time></trkpt><trkpt lat="45.93671715862907" lon="10.148467808094935"><ele>1356.0</ele><time>2026-04-04T14:33:25Z</time></trkpt><trkpt lat="45.936675343805824" lon="10.148321455211056"><ele>1352.1999999999998</ele><time>2026-04-04T14:33:27Z</time></trkpt><trkpt lat="45.936644670260215" lon="10.148171110025237"><ele>1348.3999999999999</ele><time>2026-04-04T14:33:29Z</time></trkpt><trkpt lat="45.93664403558733" lon="10.148047243881475"><ele>1344.6</ele><time>2026-04-04T14:33:31Z</time></trkpt><trkpt lat="45.93657450722916" lon="10.147944183688534"><ele>1340.8</ele><time>2026-04-04T14:33:33Z</time></trkpt><trkpt lat="45.936554083128996" lon="10.147851006416843"><ele>1337.0</ele><time>2026-04-04T14:33:35.001Z</time></trkpt><trkpt lat="45.93654281284459" lon="10.147721829073046"><ele>1337.0</ele><time>2026-04-04T14:33:38.001Z</time></trkpt><trkpt lat="45.93650243392417" lon="10.147622574496982"><ele>1337.0</ele><time>2026-04-04T14:33:40.001Z</time></trkpt><trkpt lat="45.936473588363825" lon="10.147541860635124"><ele>1337.0</ele><time>2026-04-04T14:33:42.001Z</time></trkpt><trkpt lat="45.93642956472192" lon="10.147437903217192"><ele>1337.0</ele><time>2026-04-04T14:33:45.001Z</time></trkpt><trkpt lat="45.936410299233934" lon="10.147323324298558"><ele>1337.0</ele><time>2026-04-04T14:33:48.001Z</time></trkpt><trkpt lat="45.93640565311572" lon="10.14720352130558"><ele>1337.0</ele><time>2026-04-04T14:33:51.001Z</time></trkpt><trkpt lat="45.936426138481835" lon="10.147113039691543"><ele>1337.2857142857142</ele><time>2026-04-04T14:33:56.001Z</time></trkpt><trkpt lat="45.93639745042349" lon="10.147006009963787"><ele>1337.5714285714284</ele><time>2026-04-04T14:34:06.001Z</time></trkpt><trkpt lat="45.936345530572304" lon="10.146950867007801"><ele>1337.857142857143</ele><time>2026-04-04T14:34:08.001Z</time></trkpt><trkpt lat="45.936327068787314" lon="10.146833779646764"><ele>1338.142857142857</ele><time>2026-04-04T14:34:12.001Z</time></trkpt><trkpt lat="45.93632633158705" lon="10.14672744517647"><ele>1338.4285714285713</ele><time>2026-04-04T14:34:16.001Z</time></trkpt><trkpt lat="45.93629916505468" lon="10.146622417307414"><ele>1338.7142857142858</ele><time>2026-04-04T14:34:19.001Z</time></trkpt><trkpt lat="45.93628716841524" lon="10.14652757059238"><ele>1339.0</ele><time>2026-04-04T14:34:21.001Z</time></trkpt><trkpt lat="45.93626997970807" lon="10.146431785033698"><ele>1340.1666666666665</ele><time>2026-04-04T14:34:25.001Z</time></trkpt><trkpt lat="45.9362521147226" lon="10.146338292895715"><ele>1341.3333333333333</ele><time>2026-04-04T14:34:28.001Z</time></trkpt><trkpt lat="45.93621908887955" lon="10.146224059337557"><ele>1342.5</ele><time>2026-04-04T14:34:31.001Z</time></trkpt><trkpt lat="45.93617606752445" lon="10.146129918499497"><ele>1343.6666666666667</ele><time>2026-04-04T14:34:34.001Z</time></trkpt><trkpt lat="45.936132120572694" lon="10.146038144904498"><ele>1344.8333333333335</ele><time>2026-04-04T14:34:38.001Z</time></trkpt><trkpt lat="45.93608624120136" lon="10.145968990508429"><ele>1346.0</ele><time>2026-04-04T14:34:40.001Z</time></trkpt><trkpt lat="45.936051162971374" lon="10.145870210210964"><ele>1346.0</ele><time>2026-04-04T14:34:43.001Z</time></trkpt><trkpt lat="45.936000745703716" lon="10.145784111331986"><ele>1346.0</ele><time>2026-04-04T14:34:46.001Z</time></trkpt><trkpt lat="45.93596488994949" lon="10.14565870359831"><ele>1346.0</ele><time>2026-04-04T14:34:49.001Z</time></trkpt><trkpt lat="45.93589754477596" lon="10.14554160798257"><ele>1346.0</ele><time>2026-04-04T14:34:52.001Z</time></trkpt><trkpt lat="45.93589691925984" lon="10.145435627335395"><ele>1346.0</ele><time>2026-04-04T14:34:55.001Z</time></trkpt><trkpt lat="45.93586561195808" lon="10.145297508763141"><ele>1341.3333333333335</ele><time>2026-04-04T14:34:57.001Z</time></trkpt><trkpt lat="45.93583856464818" lon="10.145204518695744"><ele>1336.6666666666667</ele><time>2026-04-04T14:34:59.001Z</time></trkpt><trkpt lat="45.9358039733811" lon="10.145090352668522"><ele>1332.0</ele><time>2026-04-04T14:35:02.001Z</time></trkpt><trkpt lat="45.93579527014031" lon="10.144990119773938"><ele>1327.3333333333333</ele><time>2026-04-04T14:35:06.001Z</time></trkpt><trkpt lat="45.935765591009954" lon="10.144904840429191"><ele>1322.6666666666665</ele><time>2026-04-04T14:35:13.001Z</time></trkpt><trkpt lat="45.935738144607996" lon="10.144775190282386"><ele>1318.0</ele><time>2026-04-04T14:35:57.001Z</time></trkpt><trkpt lat="45.93566373183352" lon="10.144702048917319"><ele>1318.0</ele><time>2026-04-04T14:36:32Z</time></trkpt><trkpt lat="45.93562508872402" lon="10.144615996136828"><ele>1318.0</ele><time>2026-04-04T14:36:34Z</time></trkpt><trkpt lat="45.935564992225515" lon="10.144517336897765"><ele>1318.0</ele><time>2026-04-04T14:36:38Z</time></trkpt><trkpt lat="45.935505911979504" lon="10.144449048136048"><ele>1318.0</ele><time>2026-04-04T14:36:40Z</time></trkpt><trkpt lat="45.93546796901074" lon="10.144361692342606"><ele>1318.0</ele><time>2026-04-04T14:36:42Z</time></trkpt><trkpt lat="45.93541855016288" lon="10.144247463103548"><ele>1318.0</ele><time>2026-04-04T14:36:44Z</time></trkpt><trkpt lat="45.935389317454806" lon="10.144127750521132"><ele>1317.0</ele><time>2026-04-04T14:36:47Z</time></trkpt><trkpt lat="45.93534418997395" lon="10.144035675184636"><ele>1316.0</ele><time>2026-04-04T14:36:49Z</time></trkpt><trkpt lat="45.935269003105745" lon="10.143917864825099"><ele>1315.0</ele><time>2026-04-04T14:36:52Z</time></trkpt><trkpt lat="45.93521053579634" lon="10.14379659083947"><ele>1314.0</ele><time>2026-04-04T14:36:54Z</time></trkpt><trkpt lat="45.93516391225366" lon="10.143682464257676"><ele>1313.0</ele><time>2026-04-04T14:36:56Z</time></trkpt><trkpt lat="45.935112241641086" lon="10.1435646152994"><ele>1313.0</ele><time>2026-04-04T14:36:58Z</time></trkpt><trkpt lat="45.935097250916115" lon="10.14339629773585"><ele>1313.0</ele><time>2026-04-04T14:37:00Z</time></trkpt><trkpt lat="45.935056668043515" lon="10.14329555787652"><ele>1313.0</ele><time>2026-04-04T14:37:02.001Z</time></trkpt><trkpt lat="45.93504278732837" lon="10.143199905061458"><ele>1313.0</ele><time>2026-04-04T14:37:04.001Z</time></trkpt><trkpt lat="45.93503311345347" lon="10.143107535205573"><ele>1313.0</ele><time>2026-04-04T14:37:07.001Z</time></trkpt><trkpt lat="45.934989856278015" lon="10.142978126253078"><ele>1313.0</ele><time>2026-04-04T14:37:09.001Z</time></trkpt><trkpt lat="45.934919642697736" lon="10.142903756510249"><ele>1308.3333333333335</ele><time>2026-04-04T14:37:11.001Z</time></trkpt><trkpt lat="45.9348742217161" lon="10.142775906380127"><ele>1303.6666666666667</ele><time>2026-04-04T14:37:13.001Z</time></trkpt><trkpt lat="45.934852870975035" lon="10.142685413057725"><ele>1299.0</ele><time>2026-04-04T14:37:14.001Z</time></trkpt><trkpt lat="45.93483559175608" lon="10.142575055046823"><ele>1294.3333333333333</ele><time>2026-04-04T14:37:16.001Z</time></trkpt><trkpt lat="45.93489908301791" lon="10.142464682875799"><ele>1289.6666666666665</ele><time>2026-04-04T14:37:19.001Z</time></trkpt><trkpt lat="45.934939745274185" lon="10.142375533621275"><ele>1285.0</ele><time>2026-04-04T14:37:24.001Z</time></trkpt><trkpt lat="45.93497897822122" lon="10.142279675661992"><ele>1285.0</ele><time>2026-04-04T14:37:28.001Z</time></trkpt><trkpt lat="45.934999917333876" lon="10.142180877723767"><ele>1285.0</ele><time>2026-04-04T14:37:33.001Z</time></trkpt><trkpt lat="45.93504835802007" lon="10.142084453468453"><ele>1285.0</ele><time>2026-04-04T14:37:55.001Z</time></trkpt><trkpt lat="45.93508413649861" lon="10.14200848080462"><ele>1285.0</ele><time>2026-04-04T14:38:01.001Z</time></trkpt><trkpt lat="45.93509046537983" lon="10.14189321282362"><ele>1285.0</ele><time>2026-04-04T14:38:04.001Z</time></trkpt><trkpt lat="45.935109636368665" lon="10.141769269295072"><ele>1285.0</ele><time>2026-04-04T14:38:07.001Z</time></trkpt><trkpt lat="45.935142856792666" lon="10.141644830228008"><ele>1285.0</ele><time>2026-04-04T14:38:11Z</time></trkpt><trkpt lat="45.93520982664845" lon="10.141591722032302"><ele>1285.0</ele><time>2026-04-04T14:38:12Z</time></trkpt><trkpt lat="45.935280600946946" lon="10.14152021971889"><ele>1285.0</ele><time>2026-04-04T14:38:13Z</time></trkpt><trkpt lat="45.93535895154757" lon="10.141443546358582"><ele>1285.0</ele><time>2026-04-04T14:38:14Z</time></trkpt><trkpt lat="45.9354232062863" lon="10.141385092724198"><ele>1285.0</ele><time>2026-04-04T14:38:15Z</time></trkpt><trkpt lat="45.9355343286655" lon="10.14128373421704"><ele>1282.5</ele><time>2026-04-04T14:38:17Z</time></trkpt><trkpt lat="45.93555186805043" lon="10.141191960919254"><ele>1280.0</ele><time>2026-04-04T14:38:18Z</time></trkpt><trkpt lat="45.93559000542091" lon="10.141084475323796"><ele>1277.5</ele><time>2026-04-04T14:38:20Z</time></trkpt><trkpt lat="45.93552975084729" lon="10.141027333014076"><ele>1275.0</ele><time>2026-04-04T14:38:38Z</time></trkpt><trkpt lat="45.93558265156245" lon="10.140911894848454"><ele>1272.5</ele><time>2026-04-04T14:38:42Z</time></trkpt><trkpt lat="45.93563402023517" lon="10.140849438242327"><ele>1270.0</ele><time>2026-04-04T14:38:44Z</time></trkpt><trkpt lat="45.935615555604436" lon="10.14070360885485"><ele>1268.6666666666665</ele><time>2026-04-04T14:38:46Z</time></trkpt><trkpt lat="45.935572655668835" lon="10.140560321716443"><ele>1267.3333333333333</ele><time>2026-04-04T14:38:49Z</time></trkpt><trkpt lat="45.93556799312433" lon="10.140464385709238"><ele>1266.0</ele><time>2026-04-04T14:38:51Z</time></trkpt><trkpt lat="45.93559094609953" lon="10.140341844156875"><ele>1264.6666666666667</ele><time>2026-04-04T14:38:54Z</time></trkpt><trkpt lat="45.93562196719143" lon="10.140219326503285"><ele>1263.3333333333335</ele><time>2026-04-04T14:38:55Z</time></trkpt><trkpt lat="45.935617870623744" lon="10.140087802599604"><ele>1262.0</ele><time>2026-04-04T14:38:56Z</time></trkpt><trkpt lat="45.935580610047886" lon="10.139978017808508"><ele>1260.2</ele><time>2026-04-04T14:38:57Z</time></trkpt><trkpt lat="45.93554107313028" lon="10.139821050800718"><ele>1258.4</ele><time>2026-04-04T14:38:59Z</time></trkpt><trkpt lat="45.935458571196094" lon="10.139732632152452"><ele>1256.6</ele><time>2026-04-04T14:39:03Z</time></trkpt><trkpt lat="45.93536359740178" lon="10.13961086858378"><ele>1254.8</ele><time>2026-04-04T14:39:06Z</time></trkpt><trkpt lat="45.93532570121726" lon="10.139490126816133"><ele>1253.0</ele><time>2026-04-04T14:39:07Z</time></trkpt><trkpt lat="45.93529999028997" lon="10.139399600135299"><ele>1253.0</ele><time>2026-04-04T14:39:08Z</time></trkpt><trkpt lat="45.93527366046834" lon="10.13929517665018"><ele>1253.0</ele><time>2026-04-04T14:39:09Z</time></trkpt><trkpt lat="45.93522791060583" lon="10.13917997388327"><ele>1253.0</ele><time>2026-04-04T14:39:10Z</time></trkpt><trkpt lat="45.93520650534953" lon="10.139081990391787"><ele>1253.0</ele><time>2026-04-04T14:39:11Z</time></trkpt><trkpt lat="45.93517324450566" lon="10.138955564333264"><ele>1253.0</ele><time>2026-04-04T14:39:12Z</time></trkpt><trkpt lat="45.93512838963186" lon="10.1388584684142"><ele>1253.0</ele><time>2026-04-04T14:39:13Z</time></trkpt><trkpt lat="45.93514286481183" lon="10.138753084192333"><ele>1250.8</ele><time>2026-04-04T14:39:14Z</time></trkpt><trkpt lat="45.93517640684455" lon="10.138673326239635"><ele>1248.6</ele><time>2026-04-04T14:39:15Z</time></trkpt><trkpt lat="45.93520668951054" lon="10.138517172170252"><ele>1246.4</ele><time>2026-04-04T14:39:17Z</time></trkpt><trkpt lat="45.93519059677203" lon="10.138379535700057"><ele>1244.2</ele><time>2026-04-04T14:39:19Z</time></trkpt><trkpt lat="45.93518177776625" lon="10.138219826560281"><ele>1242.0</ele><time>2026-04-04T14:39:21Z</time></trkpt><trkpt lat="45.935152421013164" lon="10.138123419627044"><ele>1240.2</ele><time>2026-04-04T14:39:22Z</time></trkpt><trkpt lat="45.93512805196841" lon="10.138022786735407"><ele>1238.4</ele><time>2026-04-04T14:39:24Z</time></trkpt><trkpt lat="45.935089855770926" lon="10.137880656096996"><ele>1236.6</ele><time>2026-04-04T14:39:26Z</time></trkpt><trkpt lat="45.935054972926444" lon="10.137799767442512"><ele>1234.8</ele><time>2026-04-04T14:39:27Z</time></trkpt><trkpt lat="45.93502419805077" lon="10.137648460423867"><ele>1233.0</ele><time>2026-04-04T14:39:28Z</time></trkpt><trkpt lat="45.93496399550364" lon="10.137462178450459"><ele>1230.25</ele><time>2026-04-04T14:39:29Z</time></trkpt><trkpt lat="45.93493380062701" lon="10.1372925096387"><ele>1227.5</ele><time>2026-04-04T14:39:30Z</time></trkpt><trkpt lat="45.93491258050261" lon="10.137117855906979"><ele>1224.75</ele><time>2026-04-04T14:39:31Z</time></trkpt><trkpt lat="45.93496100912161" lon="10.136931409566156"><ele>1222.0</ele><time>2026-04-04T14:39:32Z</time></trkpt><trkpt lat="45.934986844580195" lon="10.136784516166994"><ele>1222.0</ele><time>2026-04-04T14:39:33Z</time></trkpt><trkpt lat="45.934993221226456" lon="10.136661089764642"><ele>1222.0</ele><time>2026-04-04T14:39:34Z</time></trkpt><trkpt lat="45.935012137758996" lon="10.136560007039426"><ele>1222.0</ele><time>2026-04-04T14:39:35Z</time></trkpt><trkpt lat="45.935021820014335" lon="10.136412089085084"><ele>1222.0</ele><time>2026-04-04T14:39:36Z</time></trkpt><trkpt lat="45.93500239416887" lon="10.136278028910192"><ele>1222.0</ele><time>2026-04-04T14:39:37Z</time></trkpt><trkpt lat="45.93497659129018" lon="10.13619021738141"><ele>1222.0</ele><time>2026-04-04T14:39:38Z</time></trkpt><trkpt lat="45.93497354733259" lon="10.136098692462244"><ele>1221.0</ele><time>2026-04-04T14:39:42Z</time></trkpt><trkpt lat="45.93494102440061" lon="10.136000300469066"><ele>1220.0</ele><time>2026-04-04T14:39:45.001Z</time></trkpt><trkpt lat="45.93487628747702" lon="10.135924017344568"><ele>1219.0</ele><time>2026-04-04T14:39:47.001Z</time></trkpt><trkpt lat="45.934852885461574" lon="10.135812100248755"><ele>1218.0</ele><time>2026-04-04T14:39:50.001Z</time></trkpt><trkpt lat="45.93486801550551" lon="10.135721957011114"><ele>1217.0</ele><time>2026-04-04T14:39:52.001Z</time></trkpt><trkpt lat="45.93485583930345" lon="10.13561512968572"><ele>1216.0</ele><time>2026-04-04T14:39:54.001Z</time></trkpt><trkpt lat="45.93484404017356" lon="10.135458755362752"><ele>1214.3333333333333</ele><time>2026-04-04T14:39:56.001Z</time></trkpt><trkpt lat="45.93483505341304" lon="10.135291584706044"><ele>1212.6666666666665</ele><time>2026-04-04T14:39:58.001Z</time></trkpt><trkpt lat="45.934849604558586" lon="10.135197339809743"><ele>1211.0</ele><time>2026-04-04T14:39:59.001Z</time></trkpt><trkpt lat="45.93479179636165" lon="10.135092784233452"><ele>1209.3333333333333</ele><time>2026-04-04T14:40:00.001Z</time></trkpt><trkpt lat="45.93475955782814" lon="10.134993504344758"><ele>1207.6666666666667</ele><time>2026-04-04T14:40:01.001Z</time></trkpt><trkpt lat="45.934745904927716" lon="10.134892716782188"><ele>1206.0</ele><time>2026-04-04T14:40:02.001Z</time></trkpt><trkpt lat="45.93469063034352" lon="10.13480200111355"><ele>1204.3333333333333</ele><time>2026-04-04T14:40:03.001Z</time></trkpt><trkpt lat="45.93466356459469" lon="10.134710959676951"><ele>1202.6666666666667</ele><time>2026-04-04T14:40:04.001Z</time></trkpt><trkpt lat="45.934665232314735" lon="10.134606884978654"><ele>1201.0</ele><time>2026-04-04T14:40:05.001Z</time></trkpt><trkpt lat="45.93466272743838" lon="10.13450662061421"><ele>1199.3333333333335</ele><time>2026-04-04T14:40:06.001Z</time></trkpt><trkpt lat="45.93467201417514" lon="10.134372317147532"><ele>1197.6666666666667</ele><time>2026-04-04T14:40:07.001Z</time></trkpt><trkpt lat="45.93466687962175" lon="10.134238464040862"><ele>1196.0</ele><time>2026-04-04T14:40:08.001Z</time></trkpt><trkpt lat="45.93470930361541" lon="10.13413137709076"><ele>1194.8333333333335</ele><time>2026-04-04T14:40:09.001Z</time></trkpt><trkpt lat="45.93471110397256" lon="10.134002396083398"><ele>1193.6666666666667</ele><time>2026-04-04T14:40:11.001Z</time></trkpt><trkpt lat="45.93466213004606" lon="10.133927893874352"><ele>1192.5</ele><time>2026-04-04T14:40:19Z</time></trkpt><trkpt lat="45.93465126796559" lon="10.133818207467394"><ele>1191.3333333333333</ele><time>2026-04-04T14:41:29Z</time></trkpt><trkpt lat="45.93464958555158" lon="10.133661309150728"><ele>1190.1666666666665</ele><time>2026-04-04T14:41:31Z</time></trkpt><trkpt lat="45.934643884632976" lon="10.133569565483388"><ele>1189.0</ele><time>2026-04-04T14:41:32Z</time></trkpt><trkpt lat="45.93461656577432" lon="10.133472973971855"><ele>1189.0</ele><time>2026-04-04T14:41:33Z</time></trkpt><trkpt lat="45.9346026596725" lon="10.133375488302239"><ele>1189.0</ele><time>2026-04-04T14:41:34Z</time></trkpt><trkpt lat="45.934575749213046" lon="10.133223447546275"><ele>1189.0</ele><time>2026-04-04T14:41:35Z</time></trkpt><trkpt lat="45.93457110403882" lon="10.133076127470364"><ele>1189.0</ele><time>2026-04-04T14:41:36Z</time></trkpt><trkpt lat="45.93456262972535" lon="10.132955260022408"><ele>1189.0</ele><time>2026-04-04T14:41:37Z</time></trkpt><trkpt lat="45.93455378456243" lon="10.132822951178596"><ele>1186.2</ele><time>2026-04-04T14:41:38Z</time></trkpt><trkpt lat="45.9345424225447" lon="10.132665769756226"><ele>1183.4</ele><time>2026-04-04T14:41:39Z</time></trkpt><trkpt lat="45.934552998624255" lon="10.132504813589632"><ele>1180.6</ele><time>2026-04-04T14:41:40Z</time></trkpt><trkpt lat="45.93457078669839" lon="10.132367444341806"><ele>1177.8</ele><time>2026-04-04T14:41:41Z</time></trkpt><trkpt lat="45.934582136155626" lon="10.13222074266992"><ele>1175.0</ele><time>2026-04-04T14:41:42Z</time></trkpt><trkpt lat="45.93461363415821" lon="10.13208108194472"><ele>1172.8</ele><time>2026-04-04T14:41:43Z</time></trkpt><trkpt lat="45.934635111002635" lon="10.131946011853996"><ele>1170.6</ele><time>2026-04-04T14:41:44Z</time></trkpt><trkpt lat="45.93466792773603" lon="10.131780451200894"><ele>1168.4</ele><time>2026-04-04T14:41:45Z</time></trkpt><trkpt lat="45.93469809883346" lon="10.131625399242274"><ele>1166.2</ele><time>2026-04-04T14:41:46Z</time></trkpt><trkpt lat="45.93473961773225" lon="10.131498363223868"><ele>1164.0</ele><time>2026-04-04T14:41:47Z</time></trkpt><trkpt lat="45.93476687513171" lon="10.131376255100047"><ele>1162.8</ele><time>2026-04-04T14:41:48Z</time></trkpt><trkpt lat="45.93479209528746" lon="10.131263761771063"><ele>1161.6000000000001</ele><time>2026-04-04T14:41:49Z</time></trkpt><trkpt lat="45.93482547332415" lon="10.131148755635396"><ele>1160.4</ele><time>2026-04-04T14:41:50Z</time></trkpt><trkpt lat="45.934940695248365" lon="10.131084191486302"><ele>1159.2</ele><time>2026-04-04T14:41:51Z</time></trkpt><trkpt lat="45.93496047962503" lon="10.130942667157441"><ele>1158.0</ele><time>2026-04-04T14:41:53Z</time></trkpt><trkpt lat="45.934979820903706" lon="10.130790438721363"><ele>1156.1666666666667</ele><time>2026-04-04T14:41:55Z</time></trkpt><trkpt lat="45.93497427187124" lon="10.130694274753557"><ele>1154.3333333333333</ele><time>2026-04-04T14:41:57Z</time></trkpt><trkpt lat="45.9349268772156" lon="10.130516060582133"><ele>1152.5</ele><time>2026-04-04T14:41:58Z</time></trkpt><trkpt lat="45.93491420648316" lon="10.13039238111272"><ele>1150.6666666666665</ele><time>2026-04-04T14:42:00Z</time></trkpt><trkpt lat="45.9348617535933" lon="10.1303396547686"><ele>1148.8333333333333</ele><time>2026-04-04T14:42:05Z</time></trkpt><trkpt lat="45.93482442017362" lon="10.130252832435204"><ele>1147.0</ele><time>2026-04-04T14:42:09Z</time></trkpt><trkpt lat="45.93477040805051" lon="10.130167504155814"><ele>1147.0</ele><time>2026-04-04T14:42:11Z</time></trkpt><trkpt lat="45.93471305870589" lon="10.130082648853854"><ele>1147.0</ele><time>2026-04-04T14:42:13Z</time></trkpt><trkpt lat="45.93466707073119" lon="10.129974522630201"><ele>1147.0</ele><time>2026-04-04T14:42:16Z</time></trkpt><trkpt lat="45.934596044078646" lon="10.129886603615757"><ele>1147.0</ele><time>2026-04-04T14:42:22Z</time></trkpt><trkpt lat="45.93461400727205" lon="10.129987416046902"><ele>1147.0</ele><time>2026-04-04T14:42:24Z</time></trkpt><trkpt lat="45.93468188200956" lon="10.130063753239462"><ele>1147.0</ele><time>2026-04-04T14:42:26Z</time></trkpt><trkpt lat="45.93472424881102" lon="10.130138645832112"><ele>1147.0</ele><time>2026-04-04T14:42:28Z</time></trkpt><trkpt lat="45.9347628040438" lon="10.130214661195955"><ele>1147.0</ele><time>2026-04-04T14:42:30Z</time></trkpt><trkpt lat="45.934823077204086" lon="10.130263521226235"><ele>1147.0</ele><time>2026-04-04T14:42:47Z</time></trkpt><trkpt lat="45.9348767931406" lon="10.130320045943451"><ele>1147.0</ele><time>2026-04-04T14:43:13Z</time></trkpt><trkpt lat="45.934823818798506" lon="10.130260831330833"><ele>1147.0</ele><time>2026-04-04T14:46:41Z</time></trkpt><trkpt lat="45.93487731323544" lon="10.130336675027497"><ele>1147.0</ele><time>2026-04-04T14:51:47Z</time></trkpt><trkpt lat="45.93493395885976" lon="10.130430108141605"><ele>1147.0</ele><time>2026-04-04T14:51:50Z</time></trkpt><trkpt lat="45.9348873793738" lon="10.130337989574238"><ele>1147.0</ele><time>2026-04-04T14:51:56Z</time></trkpt><trkpt lat="45.93484289079803" lon="10.130269266473713"><ele>1147.0</ele><time>2026-04-04T14:52:00Z</time></trkpt><trkpt lat="45.934783628737335" lon="10.130188233690584"><ele>1147.0</ele><time>2026-04-04T14:52:05Z</time></trkpt><trkpt lat="45.93473764555966" lon="10.13011915902196"><ele>1147.0</ele><time>2026-04-04T14:52:07Z</time></trkpt><trkpt lat="45.93467750286697" lon="10.130006022508907"><ele>1147.0</ele><time>2026-04-04T14:52:09Z</time></trkpt><trkpt lat="45.934635897536296" lon="10.129927930161195"><ele>1147.0</ele><time>2026-04-04T14:52:10Z</time></trkpt><trkpt lat="45.93458835394066" lon="10.129839734439958"><ele>1145.0</ele><time>2026-04-04T14:52:11Z</time></trkpt><trkpt lat="45.934529876877455" lon="10.129763542227872"><ele>1143.0</ele><time>2026-04-04T14:52:12Z</time></trkpt><trkpt lat="45.93448026197456" lon="10.12966528922514"><ele>1141.0</ele><time>2026-04-04T14:52:13Z</time></trkpt><trkpt lat="45.934426933120626" lon="10.129584919630766"><ele>1139.0</ele><time>2026-04-04T14:52:14Z</time></trkpt><trkpt lat="45.93430955068766" lon="10.129483201624446"><ele>1137.0</ele><time>2026-04-04T14:52:16Z</time></trkpt><trkpt lat="45.93422178771389" lon="10.129391056499172"><ele>1137.6</ele><time>2026-04-04T14:52:18Z</time></trkpt><trkpt lat="45.93416730821707" lon="10.129219358304946"><ele>1138.2</ele><time>2026-04-04T14:52:20Z</time></trkpt><trkpt lat="45.93411615385841" lon="10.129062233331789"><ele>1138.8</ele><time>2026-04-04T14:52:22Z</time></trkpt><trkpt lat="45.934085549002646" lon="10.128966832716763"><ele>1139.4</ele><time>2026-04-04T14:52:24Z</time></trkpt><trkpt lat="45.93399688570766" lon="10.128856369952157"><ele>1140.0</ele><time>2026-04-04T14:52:26Z</time></trkpt><trkpt lat="45.934272977923314" lon="10.12871390809026"><ele>1137.8</ele><time>2026-04-04T14:52:28Z</time></trkpt><trkpt lat="45.934313444695526" lon="10.128575072990945"><ele>1135.6</ele><time>2026-04-04T14:52:30Z</time></trkpt><trkpt lat="45.93439338572036" lon="10.12852667311817"><ele>1133.4</ele><time>2026-04-04T14:52:32Z</time></trkpt><trkpt lat="45.93445750586102" lon="10.128533624359676"><ele>1131.2</ele><time>2026-04-04T14:52:33Z</time></trkpt><trkpt lat="45.93455425270315" lon="10.128554866838314"><ele>1129.0</ele><time>2026-04-04T14:52:34Z</time></trkpt><trkpt lat="45.93464937965765" lon="10.128599049776856"><ele>1129.0</ele><time>2026-04-04T14:52:35Z</time></trkpt><trkpt lat="45.93473307251305" lon="10.12865648725509"><ele>1129.0</ele><time>2026-04-04T14:52:36Z</time></trkpt><trkpt lat="45.93480848667958" lon="10.128706395719552"><ele>1129.0</ele><time>2026-04-04T14:52:37Z</time></trkpt><trkpt lat="45.934891125721805" lon="10.128756830775895"><ele>1129.0</ele><time>2026-04-04T14:52:38Z</time></trkpt><trkpt lat="45.93497759398221" lon="10.128793367064068"><ele>1129.0</ele><time>2026-04-04T14:52:39Z</time></trkpt><trkpt lat="45.93506289985425" lon="10.12880835074659"><ele>1129.0</ele><time>2026-04-04T14:52:40Z</time></trkpt><trkpt lat="45.935136865641326" lon="10.128808150070297"><ele>1127.8</ele><time>2026-04-04T14:52:41Z</time></trkpt><trkpt lat="45.935257474803954" lon="10.128773729393698"><ele>1126.6000000000001</ele><time>2026-04-04T14:52:43Z</time></trkpt><trkpt lat="45.935330168137206" lon="10.128739505770412"><ele>1125.4</ele><time>2026-04-04T14:52:44Z</time></trkpt><trkpt lat="45.93540169413062" lon="10.128690282448142"><ele>1124.2</ele><time>2026-04-04T14:52:45Z</time></trkpt><trkpt lat="45.935475504978136" lon="10.128581533695547"><ele>1123.0</ele><time>2026-04-04T14:52:46Z</time></trkpt><trkpt lat="45.93552977610123" lon="10.128502747111606"><ele>1123.0</ele><time>2026-04-04T14:52:47Z</time></trkpt><trkpt lat="45.93558977720832" lon="10.128437981048409"><ele>1123.0</ele><time>2026-04-04T14:52:48Z</time></trkpt><trkpt lat="45.935658555161034" lon="10.128373168674898"><ele>1123.0</ele><time>2026-04-04T14:52:49Z</time></trkpt><trkpt lat="45.935785642244596" lon="10.128281194784723"><ele>1123.0</ele><time>2026-04-04T14:52:51Z</time></trkpt><trkpt lat="45.93586599226703" lon="10.128284637473312"><ele>1123.0</ele><time>2026-04-04T14:52:52Z</time></trkpt><trkpt lat="45.93593305579368" lon="10.128333056871265"><ele>1120.5</ele><time>2026-04-04T14:52:53Z</time></trkpt><trkpt lat="45.93599892770156" lon="10.12837814613085"><ele>1118.0</ele><time>2026-04-04T14:52:54Z</time></trkpt><trkpt lat="45.93606296114355" lon="10.128427141224183"><ele>1115.5</ele><time>2026-04-04T14:52:55Z</time></trkpt><trkpt lat="45.93613095773333" lon="10.128477206634708"><ele>1113.0</ele><time>2026-04-04T14:52:56Z</time></trkpt><trkpt lat="45.93618668800359" lon="10.128549408215255"><ele>1110.5</ele><time>2026-04-04T14:52:57Z</time></trkpt><trkpt lat="45.93624344713938" lon="10.128634530353148"><ele>1108.0</ele><time>2026-04-04T14:52:58Z</time></trkpt><trkpt lat="45.93628830563879" lon="10.128738138328492"><ele>1108.0</ele><time>2026-04-04T14:52:59Z</time></trkpt><trkpt lat="45.936302917424634" lon="10.128836064866272"><ele>1108.0</ele><time>2026-04-04T14:53:00Z</time></trkpt><trkpt lat="45.936317766411214" lon="10.128925356551859"><ele>1108.0</ele><time>2026-04-04T14:53:01Z</time></trkpt><trkpt lat="45.9363342279123" lon="10.12901901688508"><ele>1108.0</ele><time>2026-04-04T14:53:02Z</time></trkpt><trkpt lat="45.936353159351114" lon="10.129126730319234"><ele>1108.0</ele><time>2026-04-04T14:53:03Z</time></trkpt><trkpt lat="45.93635506714756" lon="10.129365151895891"><ele>1108.0</ele><time>2026-04-04T14:53:05Z</time></trkpt><trkpt lat="45.936367424422535" lon="10.129554118460037"><ele>1109.5</ele><time>2026-04-04T14:53:06Z</time></trkpt><trkpt lat="45.93637787898691" lon="10.12973281393008"><ele>1111.0</ele><time>2026-04-04T14:53:07Z</time></trkpt><trkpt lat="45.936406128018376" lon="10.129913646370461"><ele>1112.5</ele><time>2026-04-04T14:53:08Z</time></trkpt><trkpt lat="45.93649420697774" lon="10.130034064300835"><ele>1114.0</ele><time>2026-04-04T14:53:09Z</time></trkpt><trkpt lat="45.936579953646415" lon="10.130100180727933"><ele>1115.6666666666665</ele><time>2026-04-04T14:53:11Z</time></trkpt><trkpt lat="45.93664992832455" lon="10.129961529120175"><ele>1117.3333333333333</ele><time>2026-04-04T14:53:13Z</time></trkpt><trkpt lat="45.936815764720876" lon="10.129564297127587"><ele>1119.0</ele><time>2026-04-04T14:53:15Z</time></trkpt><trkpt lat="45.93689701107925" lon="10.129403905524363"><ele>1119.0</ele><time>2026-04-04T14:53:16Z</time></trkpt><trkpt lat="45.93697134074144" lon="10.129262287269595"><ele>1119.0</ele><time>2026-04-04T14:53:17Z</time></trkpt><trkpt lat="45.937041963331595" lon="10.129132237077936"><ele>1119.0</ele><time>2026-04-04T14:53:18Z</time></trkpt><trkpt lat="45.93709476135597" lon="10.129024618887481"><ele>1119.0</ele><time>2026-04-04T14:53:19Z</time></trkpt><trkpt lat="45.9371512164776" lon="10.128909834055003"><ele>1119.0</ele><time>2026-04-04T14:53:20Z</time></trkpt><trkpt lat="45.93722883083001" lon="10.128800783327028"><ele>1119.0</ele><time>2026-04-04T14:53:21Z</time></trkpt><trkpt lat="45.93730539351462" lon="10.128726241614714"><ele>1119.0</ele><time>2026-04-04T14:53:22Z</time></trkpt><trkpt lat="45.93737209468544" lon="10.12869419981766"><ele>1119.0</ele><time>2026-04-04T14:53:23Z</time></trkpt><trkpt lat="45.937441246837196" lon="10.128694836554631"><ele>1119.0</ele><time>2026-04-04T14:53:24Z</time></trkpt><trkpt lat="45.937550956633714" lon="10.128645440139797"><ele>1119.0</ele><time>2026-04-04T14:53:25Z</time></trkpt><trkpt lat="45.93765224891231" lon="10.128567594657053"><ele>1119.0</ele><time>2026-04-04T14:53:26Z</time></trkpt><trkpt lat="45.93772674572063" lon="10.128485395945154"><ele>1119.0</ele><time>2026-04-04T14:53:27Z</time></trkpt><trkpt lat="45.937784577614075" lon="10.128419927294852"><ele>1119.0</ele><time>2026-04-04T14:53:28Z</time></trkpt><trkpt lat="45.93784272003346" lon="10.128355525596557"><ele>1119.0</ele><time>2026-04-04T14:53:29Z</time></trkpt><trkpt lat="45.93789633113105" lon="10.128301333401518"><ele>1119.0</ele><time>2026-04-04T14:53:30Z</time></trkpt><trkpt lat="45.93796271151975" lon="10.128245213764043"><ele>1119.0</ele><time>2026-04-04T14:53:31Z</time></trkpt><trkpt lat="45.938030209746174" lon="10.12819881515835"><ele>1116.5</ele><time>2026-04-04T14:53:32Z</time></trkpt><trkpt lat="45.938101771864574" lon="10.128153596026209"><ele>1114.0</ele><time>2026-04-04T14:53:33Z</time></trkpt><trkpt lat="45.938168791352126" lon="10.128115057699967"><ele>1111.5</ele><time>2026-04-04T14:53:34Z</time></trkpt><trkpt lat="45.938272284011525" lon="10.128069231216367"><ele>1109.0</ele><time>2026-04-04T14:53:36Z</time></trkpt><trkpt lat="45.938340961830846" lon="10.128040070399916"><ele>1106.5</ele><time>2026-04-04T14:53:37Z</time></trkpt><trkpt lat="45.93845499886402" lon="10.128073550455994"><ele>1104.0</ele><time>2026-04-04T14:53:39Z</time></trkpt><trkpt lat="45.938518338104075" lon="10.128119716543322"><ele>1101.0</ele><time>2026-04-04T14:53:42Z</time></trkpt><trkpt lat="45.9384295045185" lon="10.128130835536915"><ele>1098.0</ele><time>2026-04-04T14:53:57Z</time></trkpt><trkpt lat="45.938379776869056" lon="10.128231158427193"><ele>1095.0</ele><time>2026-04-04T14:53:58Z</time></trkpt><trkpt lat="45.93833239903081" lon="10.12836123062917"><ele>1092.0</ele><time>2026-04-04T14:53:59Z</time></trkpt><trkpt lat="45.93826563799091" lon="10.128507424199913"><ele>1089.0</ele><time>2026-04-04T14:54:00Z</time></trkpt><trkpt lat="45.93818781353562" lon="10.128660817546846"><ele>1093.2857142857144</ele><time>2026-04-04T14:54:01Z</time></trkpt><trkpt lat="45.93812702871149" lon="10.128776516045596"><ele>1097.5714285714287</ele><time>2026-04-04T14:54:02Z</time></trkpt><trkpt lat="45.938091084472575" lon="10.128867513177205"><ele>1101.857142857143</ele><time>2026-04-04T14:54:03Z</time></trkpt><trkpt lat="45.93806139425924" lon="10.128959274943298"><ele>1106.1428571428573</ele><time>2026-04-04T14:54:04Z</time></trkpt><trkpt lat="45.9380428136012" lon="10.129047343557975"><ele>1110.4285714285716</ele><time>2026-04-04T14:54:05Z</time></trkpt><trkpt lat="45.93802316912052" lon="10.129136563636274"><ele>1114.7142857142858</ele><time>2026-04-04T14:54:06Z</time></trkpt><trkpt lat="45.937984613513926" lon="10.129225998202944"><ele>1119.0</ele><time>2026-04-04T14:54:07Z</time></trkpt><trkpt lat="45.93792160658066" lon="10.12926167725369"><ele>1119.0</ele><time>2026-04-04T14:54:08Z</time></trkpt><trkpt lat="45.937823745661916" lon="10.129337780028193"><ele>1119.0</ele><time>2026-04-04T14:54:10Z</time></trkpt><trkpt lat="45.93776037735741" lon="10.129298371480782"><ele>1119.0</ele><time>2026-04-04T14:54:12Z</time></trkpt><trkpt lat="45.93765281482847" lon="10.129352240233569"><ele>1119.0</ele><time>2026-04-04T14:54:14Z</time></trkpt><trkpt lat="45.93758763538875" lon="10.12938488298019"><ele>1119.0</ele><time>2026-04-04T14:54:15Z</time></trkpt><trkpt lat="45.937517945415" lon="10.129419784659433"><ele>1119.0</ele><time>2026-04-04T14:54:16Z</time></trkpt><trkpt lat="45.93751706323149" lon="10.129753619776903"><ele>1119.0</ele><time>2026-04-04T14:54:17Z</time></trkpt><trkpt lat="45.937468808852756" lon="10.129845713748637"><ele>1119.0</ele><time>2026-04-04T14:54:18Z</time></trkpt><trkpt lat="45.93741419477166" lon="10.129925706932722"><ele>1119.0</ele><time>2026-04-04T14:54:20Z</time></trkpt><trkpt lat="45.93739729241812" lon="10.130029439658648"><ele>1119.0</ele><time>2026-04-04T14:54:23Z</time></trkpt><trkpt lat="45.9374051962494" lon="10.130130940866204"><ele>1119.0</ele><time>2026-04-04T14:54:25Z</time></trkpt><trkpt lat="45.937359507049045" lon="10.130198797996211"><ele>1119.0</ele><time>2026-04-04T14:54:34Z</time></trkpt><trkpt lat="45.93733810527853" lon="10.13033103375296"><ele>1122.3333333333333</ele><time>2026-04-04T14:54:37Z</time></trkpt><trkpt lat="45.93734220229316" lon="10.130431730336701"><ele>1125.6666666666667</ele><time>2026-04-04T14:54:39Z</time></trkpt><trkpt lat="45.937319829031516" lon="10.130552275552485"><ele>1129.0</ele><time>2026-04-04T14:54:41Z</time></trkpt><trkpt lat="45.93731916485455" lon="10.130676386034764"><ele>1132.3333333333335</ele><time>2026-04-04T14:54:43Z</time></trkpt><trkpt lat="45.93730562307658" lon="10.130792008130383"><ele>1135.6666666666667</ele><time>2026-04-04T14:54:45Z</time></trkpt><trkpt lat="45.93731153626546" lon="10.130889215295946"><ele>1139.0</ele><time>2026-04-04T14:54:48Z</time></trkpt><trkpt lat="45.93731098767816" lon="10.130996783696544"><ele>1141.6666666666667</ele><time>2026-04-04T14:54:50Z</time></trkpt><trkpt lat="45.937309399006864" lon="10.131114047036393"><ele>1144.3333333333335</ele><time>2026-04-04T14:54:52Z</time></trkpt><trkpt lat="45.93727820385776" lon="10.131226886584237"><ele>1147.0</ele><time>2026-04-04T14:54:55Z</time></trkpt><trkpt lat="45.937216246787834" lon="10.131267709465638"><ele>1149.6666666666667</ele><time>2026-04-04T14:54:57Z</time></trkpt><trkpt lat="45.93714778315537" lon="10.131305908698598"><ele>1152.3333333333333</ele><time>2026-04-04T14:54:59Z</time></trkpt><trkpt lat="45.93708360920876" lon="10.131383407812228"><ele>1155.0</ele><time>2026-04-04T14:55:07Z</time></trkpt><trkpt lat="45.93701326023301" lon="10.131506108706468"><ele>1158.0</ele><time>2026-04-04T14:55:09Z</time></trkpt><trkpt lat="45.936945486476006" lon="10.131588469216366"><ele>1161.0</ele><time>2026-04-04T14:55:10Z</time></trkpt><trkpt lat="45.93688151809452" lon="10.131681472236341"><ele>1164.0</ele><time>2026-04-04T14:55:11Z</time></trkpt><trkpt lat="45.93684521529733" lon="10.13179692539127"><ele>1167.0</ele><time>2026-04-04T14:55:13Z</time></trkpt><trkpt lat="45.936812722327964" lon="10.131893303037272"><ele>1170.0</ele><time>2026-04-04T14:55:14Z</time></trkpt><trkpt lat="45.936808262785604" lon="10.132002491820526"><ele>1173.0</ele><time>2026-04-04T14:55:15Z</time></trkpt><trkpt lat="45.93681053946974" lon="10.132138763510694"><ele>1173.0</ele><time>2026-04-04T14:55:16Z</time></trkpt><trkpt lat="45.93679674366177" lon="10.132291853195238"><ele>1173.0</ele><time>2026-04-04T14:55:17Z</time></trkpt><trkpt lat="45.93678079981616" lon="10.132480724999294"><ele>1173.0</ele><time>2026-04-04T14:55:18Z</time></trkpt><trkpt lat="45.936727814434235" lon="10.13259916051956"><ele>1173.0</ele><time>2026-04-04T14:55:19Z</time></trkpt><trkpt lat="45.93671339971748" lon="10.132722319947712"><ele>1173.0</ele><time>2026-04-04T14:55:20Z</time></trkpt><trkpt lat="45.93671037354523" lon="10.132877155770208"><ele>1173.5</ele><time>2026-04-04T14:55:21Z</time></trkpt><trkpt lat="45.93671475058468" lon="10.132979941234531"><ele>1174.0</ele><time>2026-04-04T14:55:22Z</time></trkpt><trkpt lat="45.93673184386787" lon="10.133080290290644"><ele>1174.5</ele><time>2026-04-04T14:55:23Z</time></trkpt><trkpt lat="45.936707953137415" lon="10.13326218807211"><ele>1175.0</ele><time>2026-04-04T14:55:25Z</time></trkpt><trkpt lat="45.93666099257461" lon="10.133371182083954"><ele>1175.5</ele><time>2026-04-04T14:55:27Z</time></trkpt><trkpt lat="45.93664699318743" lon="10.133474774646288"><ele>1176.0</ele><time>2026-04-04T14:55:28Z</time></trkpt><trkpt lat="45.936635060681766" lon="10.133633748412953"><ele>1178.1666666666667</ele><time>2026-04-04T14:55:30Z</time></trkpt><trkpt lat="45.93662588778343" lon="10.133784993773153"><ele>1180.3333333333333</ele><time>2026-04-04T14:55:32Z</time></trkpt><trkpt lat="45.936651510296635" lon="10.133900901538157"><ele>1182.5</ele><time>2026-04-04T14:55:34Z</time></trkpt><trkpt lat="45.93662369396987" lon="10.133998716657901"><ele>1184.6666666666665</ele><time>2026-04-04T14:55:36Z</time></trkpt><trkpt lat="45.93657464728553" lon="10.13406613580701"><ele>1186.8333333333333</ele><time>2026-04-04T14:55:38Z</time></trkpt><trkpt lat="45.93653233205118" lon="10.134167111999476"><ele>1189.0</ele><time>2026-04-04T14:55:41Z</time></trkpt><trkpt lat="45.936503909854515" lon="10.134293943268423"><ele>1191.3333333333333</ele><time>2026-04-04T14:55:44Z</time></trkpt><trkpt lat="45.93647860566361" lon="10.134411481570158"><ele>1193.6666666666665</ele><time>2026-04-04T14:55:46Z</time></trkpt><trkpt lat="45.93646782668631" lon="10.13455024860369"><ele>1196.0</ele><time>2026-04-04T14:55:48Z</time></trkpt><trkpt lat="45.936496302534614" lon="10.134680761066491"><ele>1198.3333333333333</ele><time>2026-04-04T14:55:50Z</time></trkpt><trkpt lat="45.9365479385469" lon="10.134742345277145"><ele>1200.6666666666667</ele><time>2026-04-04T14:55:52Z</time></trkpt><trkpt lat="45.936573115449434" lon="10.134869724914997"><ele>1203.0</ele><time>2026-04-04T14:55:55Z</time></trkpt><trkpt lat="45.93656760265788" lon="10.134991357314522"><ele>1205.5714285714284</ele><time>2026-04-04T14:55:58Z</time></trkpt><trkpt lat="45.93655639135692" lon="10.135103995645107"><ele>1208.142857142857</ele><time>2026-04-04T14:56:00Z</time></trkpt><trkpt lat="45.93654227990167" lon="10.135194829430096"><ele>1210.7142857142858</ele><time>2026-04-04T14:56:02Z</time></trkpt><trkpt lat="45.936566971673216" lon="10.135294022757877"><ele>1213.2857142857142</ele><time>2026-04-04T14:56:05Z</time></trkpt><trkpt lat="45.936556487870014" lon="10.135383519778161"><ele>1215.857142857143</ele><time>2026-04-04T14:56:07Z</time></trkpt><trkpt lat="45.93653303870896" lon="10.135478994840115"><ele>1218.4285714285713</ele><time>2026-04-04T14:56:10Z</time></trkpt><trkpt lat="45.93653544235944" lon="10.1355880450778"><ele>1221.0</ele><time>2026-04-04T14:56:13Z</time></trkpt><trkpt lat="45.93652964797226" lon="10.13568166131926"><ele>1223.5</ele><time>2026-04-04T14:56:15Z</time></trkpt><trkpt lat="45.93655640146678" lon="10.13580662805969"><ele>1226.0</ele><time>2026-04-04T14:56:17Z</time></trkpt><trkpt lat="45.93658214409039" lon="10.135904763623957"><ele>1228.5</ele><time>2026-04-04T14:56:19Z</time></trkpt><trkpt lat="45.93662613331083" lon="10.135994917247023"><ele>1231.0</ele><time>2026-04-04T14:56:21Z</time></trkpt><trkpt lat="45.93664412103745" lon="10.13611779646856"><ele>1233.5</ele><time>2026-04-04T14:56:23Z</time></trkpt><trkpt lat="45.93668082094378" lon="10.136203419938402"><ele>1236.0</ele><time>2026-04-04T14:56:25Z</time></trkpt><trkpt lat="45.93669162047557" lon="10.136316911812228"><ele>1240.2857142857144</ele><time>2026-04-04T14:56:30Z</time></trkpt><trkpt lat="45.93672056422201" lon="10.136403781069475"><ele>1244.5714285714287</ele><time>2026-04-04T14:56:32Z</time></trkpt><trkpt lat="45.93678527849254" lon="10.136472517532063"><ele>1248.857142857143</ele><time>2026-04-04T14:56:35Z</time></trkpt><trkpt lat="45.936862262199135" lon="10.136479687304238"><ele>1253.1428571428573</ele><time>2026-04-04T14:56:43Z</time></trkpt><trkpt lat="45.93692578378254" lon="10.136429609806477"><ele>1257.4285714285716</ele><time>2026-04-04T14:56:46Z</time></trkpt><trkpt lat="45.93696239412597" lon="10.136350167018852"><ele>1261.7142857142858</ele><time>2026-04-04T14:56:49Z</time></trkpt><trkpt lat="45.93701337299229" lon="10.136296880204076"><ele>1266.0</ele><time>2026-04-04T14:56:54Z</time></trkpt><trkpt lat="45.93707908325268" lon="10.136208612502033"><ele>1266.0</ele><time>2026-04-04T15:03:01Z</time></trkpt><trkpt lat="45.93716959419704" lon="10.136191547147655"><ele>1266.0</ele><time>2026-04-04T15:08:52.001Z</time></trkpt><trkpt lat="45.93722587264723" lon="10.136240203748278"><ele>1266.0</ele><time>2026-04-04T15:08:55.001Z</time></trkpt><trkpt lat="45.937197574806675" lon="10.136344649969914"><ele>1266.0</ele><time>2026-04-04T15:08:58.001Z</time></trkpt><trkpt lat="45.937121780012184" lon="10.136340237679914"><ele>1266.0</ele><time>2026-04-04T15:09:01.001Z</time></trkpt><trkpt lat="45.93711813539625" lon="10.13624762856077"><ele>1266.0</ele><time>2026-04-04T15:09:05.001Z</time></trkpt><trkpt lat="45.93709105520846" lon="10.136156389114767"><ele>1266.0</ele><time>2026-04-04T15:10:58.001Z</time></trkpt><trkpt lat="45.93703440803864" lon="10.136198238024832"><ele>1266.0</ele><time>2026-04-04T15:12:49Z</time></trkpt><trkpt lat="45.937088166147234" lon="10.136255379164965"><ele>1266.0</ele><time>2026-04-04T15:12:55Z</time></trkpt><trkpt lat="45.93714405835553" lon="10.136211302242579"><ele>1266.0</ele><time>2026-04-04T15:12:57Z</time></trkpt><trkpt lat="45.93717403264103" lon="10.136073186333387"><ele>1266.0</ele><time>2026-04-04T15:12:59Z</time></trkpt><trkpt lat="45.93713423457828" lon="10.135998629059907"><ele>1266.0</ele><time>2026-04-04T15:13:06Z</time></trkpt><trkpt lat="45.93709735814361" lon="10.136097784972403"><ele>1266.0</ele><time>2026-04-04T15:13:15Z</time></trkpt><trkpt lat="45.937063765749414" lon="10.136195844079513"><ele>1266.0</ele><time>2026-04-04T15:13:18.001Z</time></trkpt><trkpt lat="45.937074474994134" lon="10.136298997473034"><ele>1266.0</ele><time>2026-04-04T15:13:41.001Z</time></trkpt><trkpt lat="45.93710919392384" lon="10.136378010664016"><ele>1266.0</ele><time>2026-04-04T15:13:43.001Z</time></trkpt><trkpt lat="45.9371546358658" lon="10.136503851868264"><ele>1266.0</ele><time>2026-04-04T15:13:46.001Z</time></trkpt><trkpt lat="45.93718637155884" lon="10.136664049169813"><ele>1266.0</ele><time>2026-04-04T15:13:48.001Z</time></trkpt><trkpt lat="45.937194999493535" lon="10.136803966761144"><ele>1268.3999999999999</ele><time>2026-04-04T15:13:50.001Z</time></trkpt><trkpt lat="45.937205984758315" lon="10.136963912119219"><ele>1270.8</ele><time>2026-04-04T15:13:52Z</time></trkpt><trkpt lat="45.937214115204" lon="10.137077703036395"><ele>1273.1999999999998</ele><time>2026-04-04T15:13:53Z</time></trkpt><trkpt lat="45.93722260264168" lon="10.137251092048933"><ele>1275.6</ele><time>2026-04-04T15:13:55Z</time></trkpt><trkpt lat="45.93724441987058" lon="10.137404420488437"><ele>1278.0</ele><time>2026-04-04T15:13:57Z</time></trkpt><trkpt lat="45.93725885700084" lon="10.137550749362422"><ele>1279.6666666666667</ele><time>2026-04-04T15:13:59Z</time></trkpt><trkpt lat="45.937273257898056" lon="10.137650808935978"><ele>1281.3333333333333</ele><time>2026-04-04T15:14:13Z</time></trkpt><trkpt lat="45.93733032218125" lon="10.137731079489058"><ele>1283.0</ele><time>2026-04-04T15:14:17Z</time></trkpt><trkpt lat="45.937350528735465" lon="10.137825535779902"><ele>1284.6666666666665</ele><time>2026-04-04T15:14:19Z</time></trkpt><trkpt lat="45.93738990085263" lon="10.137916790678721"><ele>1286.3333333333333</ele><time>2026-04-04T15:14:21Z</time></trkpt><trkpt lat="45.937403225046786" lon="10.138063653190281"><ele>1288.0</ele><time>2026-04-04T15:14:23Z</time></trkpt><trkpt lat="45.937404859830735" lon="10.138160543386737"><ele>1290.4</ele><time>2026-04-04T15:14:24Z</time></trkpt><trkpt lat="45.937438033337706" lon="10.13833259168093"><ele>1292.8000000000002</ele><time>2026-04-04T15:14:26Z</time></trkpt><trkpt lat="45.93743753468694" lon="10.13850105028536"><ele>1295.2</ele><time>2026-04-04T15:14:28Z</time></trkpt><trkpt lat="45.93746330956509" lon="10.138647754637255"><ele>1297.6</ele><time>2026-04-04T15:14:30Z</time></trkpt><trkpt lat="45.93749597369452" lon="10.138758583528368"><ele>1300.0</ele><time>2026-04-04T15:14:32Z</time></trkpt><trkpt lat="45.93749325560668" lon="10.13887505896043"><ele>1300.0</ele><time>2026-04-04T15:14:38Z</time></trkpt><trkpt lat="45.937512344559615" lon="10.138961673735091"><ele>1300.0</ele><time>2026-04-04T15:14:41Z</time></trkpt><trkpt lat="45.93754351018233" lon="10.139072736150066"><ele>1300.0</ele><time>2026-04-04T15:14:43Z</time></trkpt><trkpt lat="45.937595823968394" lon="10.13914792176755"><ele>1300.0</ele><time>2026-04-04T15:14:45Z</time></trkpt><trkpt lat="45.937684695052106" lon="10.13925415680892"><ele>1300.0</ele><time>2026-04-04T15:14:47Z</time></trkpt><trkpt lat="45.93771239259392" lon="10.139380896283408"><ele>1300.0</ele><time>2026-04-04T15:14:51Z</time></trkpt><trkpt lat="45.93780810689561" lon="10.139467969957964"><ele>1306.6666666666665</ele><time>2026-04-04T15:14:54Z</time></trkpt><trkpt lat="45.93786027798224" lon="10.139550669975593"><ele>1313.3333333333333</ele><time>2026-04-04T15:14:56Z</time></trkpt><trkpt lat="45.937881486360276" lon="10.139668710976132"><ele>1320.0</ele><time>2026-04-04T15:14:57Z</time></trkpt><trkpt lat="45.93794613027573" lon="10.139771637700923"><ele>1326.6666666666667</ele><time>2026-04-04T15:14:58Z</time></trkpt><trkpt lat="45.9379608937581" lon="10.139863470688496"><ele>1333.3333333333335</ele><time>2026-04-04T15:14:59Z</time></trkpt><trkpt lat="45.938037185566614" lon="10.139918956271964"><ele>1340.0</ele><time>2026-04-04T15:15:01Z</time></trkpt><trkpt lat="45.93808829966929" lon="10.139983983266845"><ele>1341.5</ele><time>2026-04-04T15:15:03Z</time></trkpt><trkpt lat="45.938176047602184" lon="10.13994978685147"><ele>1343.0</ele><time>2026-04-04T15:15:09Z</time></trkpt><trkpt lat="45.938224207945055" lon="10.139889277041478"><ele>1344.5</ele><time>2026-04-04T15:15:13Z</time></trkpt><trkpt lat="45.9382789161057" lon="10.139959862173615"><ele>1346.0</ele><time>2026-04-04T15:15:17Z</time></trkpt><trkpt lat="45.93837927240957" lon="10.139969261479543"><ele>1347.5</ele><time>2026-04-04T15:15:20Z</time></trkpt><trkpt lat="45.93846495894801" lon="10.139961997996927"><ele>1349.0</ele><time>2026-04-04T15:15:21Z</time></trkpt><trkpt lat="45.938545496728516" lon="10.139887178170978"><ele>1352.142857142857</ele><time>2026-04-04T15:15:23Z</time></trkpt><trkpt lat="45.93861777952982" lon="10.139902243638703"><ele>1355.2857142857144</ele><time>2026-04-04T15:15:24Z</time></trkpt><trkpt lat="45.938697946543456" lon="10.139889042662817"><ele>1358.4285714285716</ele><time>2026-04-04T15:15:26Z</time></trkpt><trkpt lat="45.93875972782156" lon="10.139867970783236"><ele>1361.5714285714284</ele><time>2026-04-04T15:15:29Z</time></trkpt><trkpt lat="45.93885215217601" lon="10.139867446385296"><ele>1364.7142857142858</ele><time>2026-04-04T15:15:33Z</time></trkpt><trkpt lat="45.93878500925994" lon="10.139883579216871"><ele>1367.857142857143</ele><time>2026-04-04T15:15:37Z</time></trkpt><trkpt lat="45.93885374016422" lon="10.139910623521619"><ele>1371.0</ele><time>2026-04-04T15:15:44Z</time></trkpt><trkpt lat="45.938846222942736" lon="10.140003566666191"><ele>1371.0</ele><time>2026-04-04T15:15:54Z</time></trkpt><trkpt lat="45.93887675259216" lon="10.140137714123187"><ele>1371.0</ele><time>2026-04-04T15:15:58Z</time></trkpt><trkpt lat="45.93892528711773" lon="10.140205824716288"><ele>1371.0</ele><time>2026-04-04T15:16:01Z</time></trkpt><trkpt lat="45.93899252156293" lon="10.140202127659387"><ele>1371.0</ele><time>2026-04-04T15:16:04Z</time></trkpt><trkpt lat="45.939044877506596" lon="10.140150410989701"><ele>1371.0</ele><time>2026-04-04T15:16:09Z</time></trkpt><trkpt lat="45.93907969721348" lon="10.140053461700397"><ele>1371.0</ele><time>2026-04-04T15:16:13Z</time></trkpt><trkpt lat="45.939104957368706" lon="10.139960355410098"><ele>1371.0</ele><time>2026-04-04T15:16:15Z</time></trkpt><trkpt lat="45.93914190888902" lon="10.139845647342893"><ele>1371.0</ele><time>2026-04-04T15:16:18Z</time></trkpt><trkpt lat="45.93916543406344" lon="10.139755884527753"><ele>1371.0</ele><time>2026-04-04T15:16:20Z</time></trkpt><trkpt lat="45.93922235102991" lon="10.1396636836868"><ele>1371.0</ele><time>2026-04-04T15:16:23Z</time></trkpt><trkpt lat="45.93926412606103" lon="10.139573687654932"><ele>1371.0</ele><time>2026-04-04T15:16:27Z</time></trkpt><trkpt lat="45.93932476020088" lon="10.139548716775618"><ele>1371.0</ele><time>2026-04-04T15:16:30Z</time></trkpt><trkpt lat="45.939393279130236" lon="10.139571164081131"><ele>1371.0</ele><time>2026-04-04T15:16:32Z</time></trkpt><trkpt lat="45.939459017530865" lon="10.139632800397655"><ele>1371.0</ele><time>2026-04-04T15:16:34Z</time></trkpt><trkpt lat="45.93956171885191" lon="10.139691346903023"><ele>1376.6666666666667</ele><time>2026-04-04T15:16:36Z</time></trkpt><trkpt lat="45.93962290568892" lon="10.139750961797732"><ele>1382.3333333333333</ele><time>2026-04-04T15:16:38Z</time></trkpt><trkpt lat="45.939689012460676" lon="10.139741263045215"><ele>1388.0</ele><time>2026-04-04T15:16:43Z</time></trkpt><trkpt lat="45.93963401973066" lon="10.139639290734834"><ele>1393.6666666666665</ele><time>2026-04-04T15:16:51Z</time></trkpt><trkpt lat="45.939551226836585" lon="10.139567545682254"><ele>1399.3333333333333</ele><time>2026-04-04T15:16:54Z</time></trkpt><trkpt lat="45.93948952881906" lon="10.139527114283498"><ele>1405.0</ele><time>2026-04-04T15:16:57Z</time></trkpt><trkpt lat="45.93942687075782" lon="10.139514648088168"><ele>1405.0</ele><time>2026-04-04T15:16:59Z</time></trkpt><trkpt lat="45.93937466234155" lon="10.13946103335074"><ele>1405.0</ele><time>2026-04-04T15:17:01Z</time></trkpt><trkpt lat="45.93931790531316" lon="10.139418903230705"><ele>1405.0</ele><time>2026-04-04T15:17:05Z</time></trkpt><trkpt lat="45.93931794804117" lon="10.139305478554915"><ele>1405.0</ele><time>2026-04-04T15:17:07Z</time></trkpt><trkpt lat="45.939319060520916" lon="10.139156883440744"><ele>1405.0</ele><time>2026-04-04T15:17:10Z</time></trkpt><trkpt lat="45.93941008193467" lon="10.138510857021496"><ele>1404.0</ele><time>2026-04-04T15:17:13Z</time></trkpt><trkpt lat="45.939422244252725" lon="10.138409324081364"><ele>1403.0</ele><time>2026-04-04T15:17:14Z</time></trkpt><trkpt lat="45.93943493876276" lon="10.138292929521032"><ele>1402.0</ele><time>2026-04-04T15:17:15Z</time></trkpt><trkpt lat="45.93945033722345" lon="10.138179969774848"><ele>1401.0</ele><time>2026-04-04T15:17:16Z</time></trkpt><trkpt lat="45.93947096054629" lon="10.138070386906788"><ele>1400.0</ele><time>2026-04-04T15:17:17Z</time></trkpt><trkpt lat="45.93948994224034" lon="10.137957283864338"><ele>1399.0</ele><time>2026-04-04T15:17:18Z</time></trkpt><trkpt lat="45.939512654057495" lon="10.137842141060197"><ele>1396.3333333333333</ele><time>2026-04-04T15:17:19Z</time></trkpt><trkpt lat="45.93953720131359" lon="10.13771905114137"><ele>1393.6666666666665</ele><time>2026-04-04T15:17:20Z</time></trkpt><trkpt lat="45.93958291645366" lon="10.137597059451384"><ele>1391.0</ele><time>2026-04-04T15:17:21Z</time></trkpt><trkpt lat="45.93963011037222" lon="10.137491412609132"><ele>1388.3333333333333</ele><time>2026-04-04T15:17:22Z</time></trkpt><trkpt lat="45.93967733693826" lon="10.137385275214736"><ele>1385.6666666666667</ele><time>2026-04-04T15:17:23Z</time></trkpt><trkpt lat="45.939729410214724" lon="10.13728503722065"><ele>1383.0</ele><time>2026-04-04T15:17:24Z</time></trkpt><trkpt lat="45.93977734967586" lon="10.137199928940626"><ele>1379.0000000000002</ele><time>2026-04-04T15:17:25Z</time></trkpt><trkpt lat="45.93982844571079" lon="10.137142508738382"><ele>1375.0</ele><time>2026-04-04T15:17:26Z</time></trkpt><trkpt lat="45.93988726326798" lon="10.137086217725486"><ele>1371.0</ele><time>2026-04-04T15:17:27Z</time></trkpt><trkpt lat="45.93994826004312" lon="10.13704825284449"><ele>1367.0</ele><time>2026-04-04T15:17:28Z</time></trkpt><trkpt lat="45.94001280913431" lon="10.137005532007208"><ele>1363.0</ele><time>2026-04-04T15:17:29Z</time></trkpt><trkpt lat="45.940077490609234" lon="10.136988950806172"><ele>1359.0000000000002</ele><time>2026-04-04T15:17:30Z</time></trkpt><trkpt lat="45.940151741601966" lon="10.136969530703892"><ele>1355.0</ele><time>2026-04-04T15:17:31Z</time></trkpt><trkpt lat="45.9402252859261" lon="10.137134919080841"><ele>1353.6</ele><time>2026-04-04T15:17:32Z</time></trkpt><trkpt lat="45.940322347850476" lon="10.13715231103741"><ele>1352.2</ele><time>2026-04-04T15:17:34Z</time></trkpt><trkpt lat="45.940393394891984" lon="10.13714926736492"><ele>1350.8000000000002</ele><time>2026-04-04T15:17:35Z</time></trkpt><trkpt lat="45.94049916247184" lon="10.137107790899185"><ele>1349.4</ele><time>2026-04-04T15:17:36Z</time></trkpt><trkpt lat="45.94057658951758" lon="10.137092621779622"><ele>1348.0</ele><time>2026-04-04T15:17:37Z</time></trkpt><trkpt lat="45.940699866685335" lon="10.1370682410587"><ele>1348.0</ele><time>2026-04-04T15:17:39Z</time></trkpt><trkpt lat="45.940786710073475" lon="10.137105939082435"><ele>1348.0</ele><time>2026-04-04T15:17:40Z</time></trkpt><trkpt lat="45.940865077149326" lon="10.137141176200581"><ele>1348.0</ele><time>2026-04-04T15:17:41Z</time></trkpt><trkpt lat="45.940962214335904" lon="10.137159231123963"><ele>1348.0</ele><time>2026-04-04T15:17:42Z</time></trkpt><trkpt lat="45.94104545593951" lon="10.13719426304304"><ele>1348.0</ele><time>2026-04-04T15:17:43Z</time></trkpt><trkpt lat="45.9411382851396" lon="10.137193979875947"><ele>1349.3333333333333</ele><time>2026-04-04T15:17:44Z</time></trkpt><trkpt lat="45.941210257304476" lon="10.137219811274962"><ele>1350.6666666666665</ele><time>2026-04-04T15:17:46Z</time></trkpt><trkpt lat="45.941302606086474" lon="10.137144054963068"><ele>1352.0</ele><time>2026-04-04T15:17:48Z</time></trkpt><trkpt lat="45.941355835308265" lon="10.137062630286335"><ele>1353.3333333333333</ele><time>2026-04-04T15:17:49Z</time></trkpt><trkpt lat="45.94141272923495" lon="10.137012880594078"><ele>1354.6666666666667</ele><time>2026-04-04T15:17:50Z</time></trkpt><trkpt lat="45.941466395659155" lon="10.136955299179665"><ele>1356.0</ele><time>2026-04-04T15:17:51Z</time></trkpt><trkpt lat="45.941541595358544" lon="10.136886207006494"><ele>1356.0</ele><time>2026-04-04T15:17:52Z</time></trkpt><trkpt lat="45.94161733952848" lon="10.13685033143306"><ele>1356.0</ele><time>2026-04-04T15:17:53Z</time></trkpt><trkpt lat="45.94168261456135" lon="10.136815779129986"><ele>1356.0</ele><time>2026-04-04T15:17:54Z</time></trkpt><trkpt lat="45.9417531112285" lon="10.136789935077651"><ele>1356.0</ele><time>2026-04-04T15:17:55Z</time></trkpt><trkpt lat="45.94182276112897" lon="10.13675701194809"><ele>1356.0</ele><time>2026-04-04T15:17:56Z</time></trkpt><trkpt lat="45.94190171822149" lon="10.136734629524199"><ele>1356.0</ele><time>2026-04-04T15:17:57Z</time></trkpt><trkpt lat="45.9419765703574" lon="10.136709202373869"><ele>1353.3333333333333</ele><time>2026-04-04T15:17:58Z</time></trkpt><trkpt lat="45.94204175228027" lon="10.136673708104029"><ele>1350.6666666666667</ele><time>2026-04-04T15:17:59Z</time></trkpt><trkpt lat="45.94214026354009" lon="10.136618601607239"><ele>1348.0</ele><time>2026-04-04T15:18:01Z</time></trkpt><trkpt lat="45.94225487501417" lon="10.136655116364333"><ele>1345.3333333333335</ele><time>2026-04-04T15:18:03Z</time></trkpt><trkpt lat="45.94231466258425" lon="10.136724381746644"><ele>1342.6666666666667</ele><time>2026-04-04T15:18:04Z</time></trkpt><trkpt lat="45.9423672394851" lon="10.13678583783447"><ele>1340.0</ele><time>2026-04-04T15:18:05Z</time></trkpt><trkpt lat="45.942408143572834" lon="10.136902972455392"><ele>1340.0</ele><time>2026-04-04T15:18:08Z</time></trkpt><trkpt lat="45.942418947182986" lon="10.136999261356465"><ele>1340.0</ele><time>2026-04-04T15:18:10Z</time></trkpt><trkpt lat="45.94241186615749" lon="10.137156306050475"><ele>1340.0</ele><time>2026-04-04T15:18:12Z</time></trkpt><trkpt lat="45.942457683886936" lon="10.137296315082923"><ele>1340.0</ele><time>2026-04-04T15:18:14Z</time></trkpt><trkpt lat="45.94248814626878" lon="10.137397886371748"><ele>1340.0</ele><time>2026-04-04T15:18:15Z</time></trkpt><trkpt lat="45.94252529874736" lon="10.137496401841275"><ele>1340.0</ele><time>2026-04-04T15:18:16Z</time></trkpt><trkpt lat="45.9425505489441" lon="10.137604695003526"><ele>1332.3333333333335</ele><time>2026-04-04T15:18:17Z</time></trkpt><trkpt lat="45.9425791470867" lon="10.137701431694744"><ele>1324.6666666666667</ele><time>2026-04-04T15:18:18Z</time></trkpt><trkpt lat="45.94258683310496" lon="10.137799351614671"><ele>1317.0</ele><time>2026-04-04T15:18:19Z</time></trkpt><trkpt lat="45.94263667971803" lon="10.137860353741075"><ele>1309.3333333333333</ele><time>2026-04-04T15:18:20Z</time></trkpt><trkpt lat="45.94269609012393" lon="10.1380071633098"><ele>1301.6666666666665</ele><time>2026-04-04T15:18:22Z</time></trkpt><trkpt lat="45.94273467105365" lon="10.13811299300138"><ele>1294.0</ele><time>2026-04-04T15:18:23Z</time></trkpt><trkpt lat="45.94278281178004" lon="10.138201512260457"><ele>1297.0</ele><time>2026-04-04T15:18:24Z</time></trkpt><trkpt lat="45.94281989230712" lon="10.138290704862783"><ele>1300.0</ele><time>2026-04-04T15:18:25Z</time></trkpt><trkpt lat="45.94290644329402" lon="10.13837586007582"><ele>1303.0</ele><time>2026-04-04T15:18:27Z</time></trkpt><trkpt lat="45.94296792487761" lon="10.13843216295693"><ele>1306.0</ele><time>2026-04-04T15:18:28Z</time></trkpt><trkpt lat="45.94304133802707" lon="10.138488907716926"><ele>1309.0</ele><time>2026-04-04T15:18:29Z</time></trkpt><trkpt lat="45.943117670389526" lon="10.138557371136379"><ele>1312.0</ele><time>2026-04-04T15:18:30Z</time></trkpt><trkpt lat="45.94318337710153" lon="10.138621925660631"><ele>1312.0</ele><time>2026-04-04T15:18:31Z</time></trkpt><trkpt lat="45.94325211401958" lon="10.138699278989128"><ele>1312.0</ele><time>2026-04-04T15:18:32Z</time></trkpt><trkpt lat="45.94330394413433" lon="10.138787976990146"><ele>1312.0</ele><time>2026-04-04T15:18:33Z</time></trkpt><trkpt lat="45.943364117142316" lon="10.138913699930391"><ele>1312.0</ele><time>2026-04-04T15:18:35Z</time></trkpt><trkpt lat="45.943447254345955" lon="10.139065976487302"><ele>1312.0</ele><time>2026-04-04T15:18:37Z</time></trkpt><trkpt lat="45.943477242416016" lon="10.139163947476556"><ele>1302.8333333333333</ele><time>2026-04-04T15:18:38Z</time></trkpt><trkpt lat="45.94348283185306" lon="10.139278170515677"><ele>1293.6666666666665</ele><time>2026-04-04T15:18:39Z</time></trkpt><trkpt lat="45.943477359009904" lon="10.139393530380882"><ele>1284.5</ele><time>2026-04-04T15:18:40Z</time></trkpt><trkpt lat="45.943476587050384" lon="10.139509105043206"><ele>1275.3333333333333</ele><time>2026-04-04T15:18:41Z</time></trkpt><trkpt lat="45.943482135339146" lon="10.13960591972387"><ele>1266.1666666666667</ele><time>2026-04-04T15:18:42Z</time></trkpt><trkpt lat="45.943493242669724" lon="10.139701216514437"><ele>1257.0</ele><time>2026-04-04T15:18:43Z</time></trkpt><trkpt lat="45.943493961018646" lon="10.139809797282977"><ele>1257.0</ele><time>2026-04-04T15:18:44Z</time></trkpt><trkpt lat="45.943485793760374" lon="10.139946210437278"><ele>1257.0</ele><time>2026-04-04T15:18:46Z</time></trkpt><trkpt lat="45.94353811844434" lon="10.140023812797713"><ele>1257.0</ele><time>2026-04-04T15:18:49Z</time></trkpt><trkpt lat="45.943590841334554" lon="10.139958563170865"><ele>1257.0</ele><time>2026-04-04T15:18:51Z</time></trkpt><trkpt lat="45.943642564510704" lon="10.13988365148349"><ele>1257.0</ele><time>2026-04-04T15:18:53Z</time></trkpt><trkpt lat="45.943725989074466" lon="10.139787096236217"><ele>1257.0</ele><time>2026-04-04T15:18:55Z</time></trkpt><trkpt lat="45.94377712181716" lon="10.139644882740242"><ele>1257.0</ele><time>2026-04-04T15:18:57Z</time></trkpt><trkpt lat="45.943808904336386" lon="10.139509846917187"><ele>1257.0</ele><time>2026-04-04T15:18:59Z</time></trkpt><trkpt lat="45.943877035059835" lon="10.139478468135668"><ele>1257.0</ele><time>2026-04-04T15:19:01Z</time></trkpt><trkpt lat="45.94390920508253" lon="10.139570696459337"><ele>1257.0</ele><time>2026-04-04T15:19:05Z</time></trkpt><trkpt lat="45.943963466991526" lon="10.139683254123375"><ele>1257.0</ele><time>2026-04-04T15:19:07Z</time></trkpt><trkpt lat="45.94400604602204" lon="10.139853138239733"><ele>1258.8</ele><time>2026-04-04T15:19:09Z</time></trkpt><trkpt lat="45.94406689296799" lon="10.139995423785821"><ele>1260.6</ele><time>2026-04-04T15:19:11Z</time></trkpt><trkpt lat="45.944124436700896" lon="10.140069180730976"><ele>1262.3999999999999</ele><time>2026-04-04T15:19:12Z</time></trkpt><trkpt lat="45.94420017002289" lon="10.140132036545333"><ele>1264.2</ele><time>2026-04-04T15:19:13Z</time></trkpt><trkpt lat="45.94425184427542" lon="10.140184990196587"><ele>1266.0</ele><time>2026-04-04T15:19:14Z</time></trkpt><trkpt lat="45.94435612109606" lon="10.140286447337658"><ele>1253.0</ele><time>2026-04-04T15:19:16Z</time></trkpt><trkpt lat="45.94440208511707" lon="10.140363603962216"><ele>1240.0</ele><time>2026-04-04T15:19:17Z</time></trkpt><trkpt lat="45.94444390533311" lon="10.140509210809078"><ele>1227.0</ele><time>2026-04-04T15:19:19Z</time></trkpt><trkpt lat="45.94444208624443" lon="10.140644617250269"><ele>1214.0</ele><time>2026-04-04T15:19:21Z</time></trkpt><trkpt lat="45.94443092257829" lon="10.14073406031089"><ele>1201.0</ele><time>2026-04-04T15:19:22Z</time></trkpt><trkpt lat="45.94440710045531" lon="10.14092732809556"><ele>1201.0</ele><time>2026-04-04T15:19:24Z</time></trkpt><trkpt lat="45.944438175221705" lon="10.141025453050087"><ele>1201.0</ele><time>2026-04-04T15:19:26Z</time></trkpt><trkpt lat="45.94440171360618" lon="10.14113193114033"><ele>1201.0</ele><time>2026-04-04T15:19:28Z</time></trkpt><trkpt lat="45.94444639492509" lon="10.141216545894464"><ele>1201.0</ele><time>2026-04-04T15:19:33Z</time></trkpt><trkpt lat="45.94448079161184" lon="10.141305009614156"><ele>1201.0</ele><time>2026-04-04T15:19:35Z</time></trkpt><trkpt lat="45.94452075715481" lon="10.1413902020123"><ele>1201.0</ele><time>2026-04-04T15:19:37Z</time></trkpt><trkpt lat="45.94458460817929" lon="10.141475347474367"><ele>1201.0</ele><time>2026-04-04T15:19:39Z</time></trkpt><trkpt lat="45.9446587171262" lon="10.141525209354537"><ele>1201.0</ele><time>2026-04-04T15:19:41Z</time></trkpt><trkpt lat="45.94469001876937" lon="10.141711851987246"><ele>1201.0</ele><time>2026-04-04T15:19:43Z</time></trkpt><trkpt lat="45.9447208870853" lon="10.141880926551448"><ele>1201.0</ele><time>2026-04-04T15:19:45Z</time></trkpt><trkpt lat="45.94477513384099" lon="10.142045287836293"><ele>1201.0</ele><time>2026-04-04T15:19:47Z</time></trkpt><trkpt lat="45.94481472751183" lon="10.142172203347348"><ele>1201.0</ele><time>2026-04-04T15:19:49Z</time></trkpt><trkpt lat="45.94475232810059" lon="10.142132074898335"><ele>1201.0</ele><time>2026-04-04T15:19:53Z</time></trkpt><trkpt lat="45.94480006083755" lon="10.142210246501929"><ele>1201.0</ele><time>2026-04-04T15:20:31Z</time></trkpt><trkpt lat="45.94488175315933" lon="10.142334070572486"><ele>1201.0</ele><time>2026-04-04T15:20:34Z</time></trkpt><trkpt lat="45.94492501156355" lon="10.14240052724231"><ele>1201.0</ele><time>2026-04-04T15:20:35Z</time></trkpt><trkpt lat="45.94497578223155" lon="10.142462484483147"><ele>1190.0</ele><time>2026-04-04T15:20:36Z</time></trkpt><trkpt lat="45.94505932137639" lon="10.142580915986297"><ele>1179.0</ele><time>2026-04-04T15:20:38Z</time></trkpt><trkpt lat="45.94509050804048" lon="10.142729299266172"><ele>1168.0</ele><time>2026-04-04T15:20:40Z</time></trkpt><trkpt lat="45.94511502185577" lon="10.142914186450765"><ele>1157.0</ele><time>2026-04-04T15:20:42Z</time></trkpt><trkpt lat="45.945132444541755" lon="10.14302559532214"><ele>1146.0</ele><time>2026-04-04T15:20:43Z</time></trkpt><trkpt lat="45.945148461816366" lon="10.143135184035131"><ele>1147.2</ele><time>2026-04-04T15:20:44Z</time></trkpt><trkpt lat="45.94521073249951" lon="10.143302684893934"><ele>1148.3999999999999</ele><time>2026-04-04T15:20:46Z</time></trkpt><trkpt lat="45.9452604340092" lon="10.143381858188215"><ele>1149.6</ele><time>2026-04-04T15:20:47Z</time></trkpt><trkpt lat="45.94533918442935" lon="10.143479188351721"><ele>1150.8</ele><time>2026-04-04T15:20:49Z</time></trkpt><trkpt lat="45.94537859526906" lon="10.143593641368486"><ele>1152.0</ele><time>2026-04-04T15:20:51Z</time></trkpt><trkpt lat="45.94538898411057" lon="10.143697321941083"><ele>1152.0</ele><time>2026-04-04T15:20:52Z</time></trkpt><trkpt lat="45.945413626581406" lon="10.143789205711236"><ele>1152.0</ele><time>2026-04-04T15:20:53Z</time></trkpt><trkpt lat="45.94543403488566" lon="10.143941609601477"><ele>1152.0</ele><time>2026-04-04T15:20:55Z</time></trkpt><trkpt lat="45.94542612570899" lon="10.144033431733167"><ele>1152.0</ele><time>2026-04-04T15:20:56Z</time></trkpt><trkpt lat="45.945401248973084" lon="10.144136261052058"><ele>1152.0</ele><time>2026-04-04T15:20:57Z</time></trkpt><trkpt lat="45.94537059147378" lon="10.144235439041038"><ele>1152.0</ele><time>2026-04-04T15:20:58Z</time></trkpt><trkpt lat="45.94534972370722" lon="10.144357171304131"><ele>1151.6</ele><time>2026-04-04T15:20:59Z</time></trkpt><trkpt lat="45.945370581024406" lon="10.144464150255619"><ele>1151.2</ele><time>2026-04-04T15:21:01Z</time></trkpt><trkpt lat="45.94537225436344" lon="10.144609521351978"><ele>1150.8</ele><time>2026-04-04T15:21:03Z</time></trkpt><trkpt lat="45.94540314222832" lon="10.144745499362354"><ele>1150.4</ele><time>2026-04-04T15:21:05Z</time></trkpt><trkpt lat="45.94546893388782" lon="10.144872326703146"><ele>1150.0</ele><time>2026-04-04T15:21:07Z</time></trkpt><trkpt lat="45.94553284583202" lon="10.144997909954206"><ele>1150.0</ele><time>2026-04-04T15:21:09Z</time></trkpt><trkpt lat="45.94559887932392" lon="10.145049263504392"><ele>1150.0</ele><time>2026-04-04T15:21:10Z</time></trkpt><trkpt lat="45.945712257364974" lon="10.145129827744388"><ele>1150.0</ele><time>2026-04-04T15:21:12Z</time></trkpt><trkpt lat="45.94576141696253" lon="10.145195006222902"><ele>1150.0</ele><time>2026-04-04T15:21:13Z</time></trkpt><trkpt lat="45.94577910390158" lon="10.145314692030444"><ele>1150.0</ele><time>2026-04-04T15:21:14Z</time></trkpt><trkpt lat="45.94580199734841" lon="10.14544466124981"><ele>1150.0</ele><time>2026-04-04T15:21:15Z</time></trkpt><trkpt lat="45.94579057565043" lon="10.145552390885571"><ele>1150.0</ele><time>2026-04-04T15:21:16Z</time></trkpt><trkpt lat="45.945769910104296" lon="10.145660870999459"><ele>1150.0</ele><time>2026-04-04T15:21:17Z</time></trkpt><trkpt lat="45.94574093393671" lon="10.145750545861537"><ele>1150.0</ele><time>2026-04-04T15:21:18Z</time></trkpt><trkpt lat="45.94572401637743" lon="10.145932571657868"><ele>1150.0</ele><time>2026-04-04T15:21:20Z</time></trkpt><trkpt lat="45.94572812182512" lon="10.146031501907883"><ele>1150.0</ele><time>2026-04-04T15:21:21Z</time></trkpt><trkpt lat="45.94575416153713" lon="10.146130805434789"><ele>1150.0</ele><time>2026-04-04T15:21:22Z</time></trkpt><trkpt lat="45.945748981695964" lon="10.146299153514525"><ele>1149.8</ele><time>2026-04-04T15:21:24Z</time></trkpt><trkpt lat="45.94575618882043" lon="10.146508503424707"><ele>1149.6</ele><time>2026-04-04T15:21:26Z</time></trkpt><trkpt lat="45.94578282809999" lon="10.146618890117498"><ele>1149.4</ele><time>2026-04-04T15:21:27Z</time></trkpt><trkpt lat="45.945797426112726" lon="10.146738826871923"><ele>1149.2</ele><time>2026-04-04T15:21:28Z</time></trkpt><trkpt lat="45.945810860393365" lon="10.146853271027105"><ele>1149.0</ele><time>2026-04-04T15:21:29Z</time></trkpt><trkpt lat="45.945855540708784" lon="10.146963906623714"><ele>1143.8333333333333</ele><time>2026-04-04T15:21:30Z</time></trkpt><trkpt lat="45.945883294766425" lon="10.147063808711685"><ele>1138.6666666666667</ele><time>2026-04-04T15:21:31Z</time></trkpt><trkpt lat="45.94591316173536" lon="10.147157039806265"><ele>1133.5</ele><time>2026-04-04T15:21:32Z</time></trkpt><trkpt lat="45.945933235406905" lon="10.147253056508665"><ele>1128.3333333333335</ele><time>2026-04-04T15:21:33Z</time></trkpt><trkpt lat="45.9459639166848" lon="10.147342237704677"><ele>1123.1666666666667</ele><time>2026-04-04T15:21:34Z</time></trkpt><trkpt lat="45.94599791219915" lon="10.147516660410998"><ele>1118.0</ele><time>2026-04-04T15:21:36Z</time></trkpt><trkpt lat="45.946001446249525" lon="10.147624781548064"><ele>1118.0</ele><time>2026-04-04T15:21:38Z</time></trkpt><trkpt lat="45.94600477587383" lon="10.147715492517172"><ele>1118.0</ele><time>2026-04-04T15:22:43Z</time></trkpt><trkpt lat="45.94603983665145" lon="10.14780438619658"><ele>1118.0</ele><time>2026-04-04T15:23:50Z</time></trkpt><trkpt lat="45.94608263488489" lon="10.147890670258889"><ele>1118.0</ele><time>2026-04-04T15:23:52Z</time></trkpt><trkpt lat="45.946124296773874" lon="10.147968618151447"><ele>1118.0</ele><time>2026-04-04T15:23:54Z</time></trkpt><trkpt lat="45.94615056822825" lon="10.14805590962504"><ele>1118.0</ele><time>2026-04-04T15:23:56Z</time></trkpt><trkpt lat="45.946191359414826" lon="10.148155796260065"><ele>1118.0</ele><time>2026-04-04T15:23:58Z</time></trkpt><trkpt lat="45.94621182162865" lon="10.148281984353277"><ele>1118.3333333333335</ele><time>2026-04-04T15:24:00Z</time></trkpt><trkpt lat="45.94623149144744" lon="10.148429807599443"><ele>1118.6666666666667</ele><time>2026-04-04T15:24:02Z</time></trkpt><trkpt lat="45.94625061199456" lon="10.148565245983155"><ele>1119.0</ele><time>2026-04-04T15:24:04Z</time></trkpt><trkpt lat="45.94627038027538" lon="10.148726973830298"><ele>1119.3333333333333</ele><time>2026-04-04T15:24:06Z</time></trkpt><trkpt lat="45.94625757654376" lon="10.14882064249104"><ele>1119.6666666666665</ele><time>2026-04-04T15:24:07Z</time></trkpt><trkpt lat="45.946263429086734" lon="10.148912939533615"><ele>1120.0</ele><time>2026-04-04T15:24:08Z</time></trkpt><trkpt lat="45.94625512171636" lon="10.14904495210658"><ele>1120.1666666666665</ele><time>2026-04-04T15:24:09Z</time></trkpt><trkpt lat="45.94625621632418" lon="10.149168852638516"><ele>1120.3333333333333</ele><time>2026-04-04T15:24:10Z</time></trkpt><trkpt lat="45.94627780093857" lon="10.149274896287334"><ele>1120.5</ele><time>2026-04-04T15:24:11Z</time></trkpt><trkpt lat="45.94628367115292" lon="10.149398990015838"><ele>1120.6666666666667</ele><time>2026-04-04T15:24:12Z</time></trkpt><trkpt lat="45.94632111930915" lon="10.149513475234453"><ele>1120.8333333333335</ele><time>2026-04-04T15:24:13Z</time></trkpt><trkpt lat="45.94636947974623" lon="10.149617970699007"><ele>1121.0</ele><time>2026-04-04T15:24:14Z</time></trkpt><trkpt lat="45.946415432541826" lon="10.14970752567648"><ele>1121.0</ele><time>2026-04-04T15:24:15Z</time></trkpt><trkpt lat="45.94647961122839" lon="10.1497490824057"><ele>1121.0</ele><time>2026-04-04T15:24:16Z</time></trkpt><trkpt lat="45.946569973151085" lon="10.1497397611689"><ele>1121.0</ele><time>2026-04-04T15:24:17Z</time></trkpt><trkpt lat="45.946639520419694" lon="10.14976787500269"><ele>1121.0</ele><time>2026-04-04T15:24:18Z</time></trkpt><trkpt lat="45.94670180473789" lon="10.149827378852065"><ele>1121.0</ele><time>2026-04-04T15:24:19Z</time></trkpt><trkpt lat="45.94676518281088" lon="10.149896537266107"><ele>1121.0</ele><time>2026-04-04T15:24:20Z</time></trkpt><trkpt lat="45.946837812408724" lon="10.149948369291995"><ele>1119.0</ele><time>2026-04-04T15:24:21Z</time></trkpt><trkpt lat="45.94691300837428" lon="10.149995157704156"><ele>1117.0</ele><time>2026-04-04T15:24:22Z</time></trkpt><trkpt lat="45.94698610448382" lon="10.150033539438889"><ele>1115.0</ele><time>2026-04-04T15:24:23Z</time></trkpt><trkpt lat="45.94705760651657" lon="10.150064099376449"><ele>1113.0</ele><time>2026-04-04T15:24:24Z</time></trkpt><trkpt lat="45.94712727798003" lon="10.15010403743962"><ele>1111.0</ele><time>2026-04-04T15:24:25Z</time></trkpt><trkpt lat="45.94719176200605" lon="10.150151901547341"><ele>1109.0</ele><time>2026-04-04T15:24:26Z</time></trkpt><trkpt lat="45.94723947318553" lon="10.15021658089482"><ele>1107.0</ele><time>2026-04-04T15:24:27Z</time></trkpt><trkpt lat="45.94728266226768" lon="10.150299066498324"><ele>1107.0</ele><time>2026-04-04T15:24:28Z</time></trkpt><trkpt lat="45.9473170015397" lon="10.150380203391956"><ele>1107.0</ele><time>2026-04-04T15:24:29Z</time></trkpt><trkpt lat="45.947336678127535" lon="10.150474754860063"><ele>1107.0</ele><time>2026-04-04T15:24:30Z</time></trkpt><trkpt lat="45.94737845297504" lon="10.150587529221673"><ele>1107.0</ele><time>2026-04-04T15:24:31Z</time></trkpt><trkpt lat="45.947404542474196" lon="10.150691270487817"><ele>1107.0</ele><time>2026-04-04T15:24:32Z</time></trkpt><trkpt lat="45.94743534357144" lon="10.150783318386528"><ele>1107.0</ele><time>2026-04-04T15:24:33Z</time></trkpt><trkpt lat="45.947478435596345" lon="10.150949463126778"><ele>1107.2</ele><time>2026-04-04T15:24:35Z</time></trkpt><trkpt lat="45.94744115540916" lon="10.151114448183923"><ele>1107.4</ele><time>2026-04-04T15:24:37Z</time></trkpt><trkpt lat="45.9474058390483" lon="10.15120942337368"><ele>1107.6</ele><time>2026-04-04T15:24:38Z</time></trkpt><trkpt lat="45.94737300141057" lon="10.151315073520967"><ele>1107.8</ele><time>2026-04-04T15:24:39Z</time></trkpt><trkpt lat="45.9473345488061" lon="10.15143828136472"><ele>1108.0</ele><time>2026-04-04T15:24:40Z</time></trkpt><trkpt lat="45.94729403922634" lon="10.151575729114672"><ele>1108.8</ele><time>2026-04-04T15:24:41Z</time></trkpt><trkpt lat="45.94725050851118" lon="10.151715420102867"><ele>1109.6</ele><time>2026-04-04T15:24:42Z</time></trkpt><trkpt lat="45.947206769892766" lon="10.151849224815054"><ele>1110.4</ele><time>2026-04-04T15:24:43Z</time></trkpt><trkpt lat="45.94716116764328" lon="10.15197999985809"><ele>1111.2</ele><time>2026-04-04T15:24:44Z</time></trkpt><trkpt lat="45.947116051318844" lon="10.152108423943117"><ele>1112.0</ele><time>2026-04-04T15:24:45Z</time></trkpt><trkpt lat="45.94707557295622" lon="10.152238927328941"><ele>1112.0</ele><time>2026-04-04T15:24:46Z</time></trkpt><trkpt lat="45.947034228505096" lon="10.152366741231065"><ele>1112.0</ele><time>2026-04-04T15:24:47Z</time></trkpt><trkpt lat="45.9469897153694" lon="10.152504352954994"><ele>1112.0</ele><time>2026-04-04T15:24:48Z</time></trkpt><trkpt lat="45.94694007766956" lon="10.152644847302474"><ele>1112.0</ele><time>2026-04-04T15:24:49Z</time></trkpt><trkpt lat="45.94688580585466" lon="10.152784600235977"><ele>1112.0</ele><time>2026-04-04T15:24:50Z</time></trkpt><trkpt lat="45.946833940336425" lon="10.152918012268797"><ele>1112.4</ele><time>2026-04-04T15:24:51Z</time></trkpt><trkpt lat="45.94678203808968" lon="10.153054672580618"><ele>1112.8000000000002</ele><time>2026-04-04T15:24:52Z</time></trkpt><trkpt lat="45.94672923455452" lon="10.153188213619142"><ele>1113.2</ele><time>2026-04-04T15:24:53Z</time></trkpt><trkpt lat="45.94667740128797" lon="10.153320616465352"><ele>1113.6000000000001</ele><time>2026-04-04T15:24:54Z</time></trkpt><trkpt lat="45.94662850806981" lon="10.153445921769967"><ele>1114.0</ele><time>2026-04-04T15:24:55Z</time></trkpt><trkpt lat="45.94657863914644" lon="10.153559317629165"><ele>1113.3333333333333</ele><time>2026-04-04T15:24:56Z</time></trkpt><trkpt lat="45.9465292117652" lon="10.15367343701359"><ele>1112.6666666666665</ele><time>2026-04-04T15:24:57Z</time></trkpt><trkpt lat="45.94648257446258" lon="10.15379439218147"><ele>1112.0</ele><time>2026-04-04T15:24:58Z</time></trkpt><trkpt lat="45.94643912987449" lon="10.153900114832322"><ele>1111.3333333333333</ele><time>2026-04-04T15:24:59Z</time></trkpt><trkpt lat="45.94639998579007" lon="10.153997121853836"><ele>1110.6666666666667</ele><time>2026-04-04T15:25:00Z</time></trkpt><trkpt lat="45.946364494588295" lon="10.154082559984133"><ele>1110.0</ele><time>2026-04-04T15:25:01Z</time></trkpt><trkpt lat="45.94631466130748" lon="10.154213671295322"><ele>1110.0</ele><time>2026-04-04T15:25:03Z</time></trkpt><trkpt lat="45.94640002037046" lon="10.15436341278759"><ele>1110.0</ele><time>2026-04-04T15:25:06Z</time></trkpt><trkpt lat="45.94647467817028" lon="10.154406907338076"><ele>1110.0</ele><time>2026-04-04T15:25:07Z</time></trkpt><trkpt lat="45.94655179084342" lon="10.15445568694423"><ele>1110.0</ele><time>2026-04-04T15:25:08Z</time></trkpt><trkpt lat="45.94663200041255" lon="10.15452801452112"><ele>1110.0</ele><time>2026-04-04T15:25:09Z</time></trkpt><trkpt lat="45.946732991235386" lon="10.154594966563861"><ele>1111.5</ele><time>2026-04-04T15:25:10Z</time></trkpt><trkpt lat="45.94684171255846" lon="10.154668232516029"><ele>1113.0</ele><time>2026-04-04T15:25:11Z</time></trkpt><trkpt lat="45.94696286119599" lon="10.154759874418547"><ele>1114.5</ele><time>2026-04-04T15:25:12Z</time></trkpt><trkpt lat="45.947101393861175" lon="10.154859748260918"><ele>1116.0</ele><time>2026-04-04T15:25:13Z</time></trkpt><trkpt lat="45.94724647077977" lon="10.154963687079594"><ele>1121.0</ele><time>2026-04-04T15:25:14Z</time></trkpt><trkpt lat="45.94742113519676" lon="10.155073786595127"><ele>1126.0</ele><time>2026-04-04T15:25:15Z</time></trkpt><trkpt lat="45.94759633174903" lon="10.155189472011656"><ele>1131.0</ele><time>2026-04-04T15:25:16Z</time></trkpt><trkpt lat="45.94776650140219" lon="10.155304168578118"><ele>1132.75</ele><time>2026-04-04T15:25:17Z</time></trkpt><trkpt lat="45.94792603739145" lon="10.155405589749316"><ele>1134.5</ele><time>2026-04-04T15:25:18Z</time></trkpt><trkpt lat="45.94805352457404" lon="10.155492774425245"><ele>1136.25</ele><time>2026-04-04T15:25:19Z</time></trkpt><trkpt lat="45.948137080276396" lon="10.155544376108965"><ele>1138.0</ele><time>2026-04-04T15:25:20Z</time></trkpt><trkpt lat="45.9482382154621" lon="10.155736355646315"><ele>1140.2</ele><time>2026-04-04T15:25:24Z</time></trkpt><trkpt lat="45.94827665650196" lon="10.155848292076081"><ele>1142.4</ele><time>2026-04-04T15:25:25Z</time></trkpt><trkpt lat="45.948323540703896" lon="10.155978669247157"><ele>1144.6000000000001</ele><time>2026-04-04T15:25:26Z</time></trkpt><trkpt lat="45.948371927984965" lon="10.15610746726859"><ele>1146.8</ele><time>2026-04-04T15:25:27Z</time></trkpt><trkpt lat="45.94840923453744" lon="10.156200167919758"><ele>1149.0</ele><time>2026-04-04T15:25:28Z</time></trkpt><trkpt lat="45.94846499540567" lon="10.156323775863818"><ele>1151.75</ele><time>2026-04-04T15:25:30Z</time></trkpt><trkpt lat="45.948617704474316" lon="10.15624234893555"><ele>1154.5</ele><time>2026-04-04T15:25:31Z</time></trkpt><trkpt lat="45.948719155767726" lon="10.156192589516934"><ele>1157.25</ele><time>2026-04-04T15:25:32Z</time></trkpt><trkpt lat="45.94881181413416" lon="10.156170301989654"><ele>1160.0</ele><time>2026-04-04T15:25:33Z</time></trkpt><trkpt lat="45.94890322022604" lon="10.156208633535794"><ele>1160.0</ele><time>2026-04-04T15:25:34Z</time></trkpt><trkpt lat="45.94900155444124" lon="10.156228247331311"><ele>1160.0</ele><time>2026-04-04T15:25:35Z</time></trkpt><trkpt lat="45.94917930766272" lon="10.15628269808101"><ele>1160.0</ele><time>2026-04-04T15:25:36Z</time></trkpt><trkpt lat="45.949332156532826" lon="10.156309736404229"><ele>1160.0</ele><time>2026-04-04T15:25:37Z</time></trkpt><trkpt lat="45.94951271413989" lon="10.156248978207875"><ele>1163.75</ele><time>2026-04-04T15:25:38Z</time></trkpt><trkpt lat="45.949687576059134" lon="10.15622574373978"><ele>1167.5</ele><time>2026-04-04T15:25:39Z</time></trkpt><trkpt lat="45.949823324341914" lon="10.156129056040713"><ele>1171.25</ele><time>2026-04-04T15:25:40Z</time></trkpt><trkpt lat="45.949911313016145" lon="10.156074817218158"><ele>1175.0</ele><time>2026-04-04T15:25:41Z</time></trkpt><trkpt lat="45.94997138749767" lon="10.156139169746083"><ele>1179.0</ele><time>2026-04-04T15:25:42Z</time></trkpt><trkpt lat="45.94953056508368" lon="10.156745079515535"><ele>1179.0</ele><time>2026-04-04T15:25:43Z</time></trkpt><trkpt lat="45.94961532268147" lon="10.156760216595062"><ele>1179.0</ele><time>2026-04-04T15:25:44Z</time></trkpt><trkpt lat="45.94981149811009" lon="10.1568314053359"><ele>1179.0</ele><time>2026-04-04T15:25:45Z</time></trkpt><trkpt lat="45.94990155001016" lon="10.1568453011247"><ele>1179.0</ele><time>2026-04-04T15:25:46Z</time></trkpt><trkpt lat="45.950000621822085" lon="10.156850025689867"><ele>1181.5</ele><time>2026-04-04T15:25:47Z</time></trkpt><trkpt lat="45.95004579532822" lon="10.156758446131516"><ele>1184.0</ele><time>2026-04-04T15:25:48Z</time></trkpt><trkpt lat="45.950090992248825" lon="10.15669314824898"><ele>1186.5</ele><time>2026-04-04T15:25:50Z</time></trkpt><trkpt lat="45.95015258520952" lon="10.156715782455596"><ele>1189.0</ele><time>2026-04-04T15:25:52Z</time></trkpt><trkpt lat="45.95021683859386" lon="10.156779584409302"><ele>1191.5</ele><time>2026-04-04T15:25:53Z</time></trkpt><trkpt lat="45.95030267126406" lon="10.156814619534357"><ele>1194.0</ele><time>2026-04-04T15:25:54Z</time></trkpt><trkpt lat="45.950387673785876" lon="10.156903068069184"><ele>1194.0</ele><time>2026-04-04T15:25:56Z</time></trkpt><trkpt lat="45.950458923787004" lon="10.156977017666845"><ele>1194.0</ele><time>2026-04-04T15:25:57Z</time></trkpt><trkpt lat="45.950564507037726" lon="10.157059690006562"><ele>1194.0</ele><time>2026-04-04T15:25:58Z</time></trkpt><trkpt lat="45.95072226149344" lon="10.15714649389273"><ele>1194.0</ele><time>2026-04-04T15:25:59Z</time></trkpt><trkpt lat="45.950888490236125" lon="10.15721033291049"><ele>1201.3333333333333</ele><time>2026-04-04T15:26:00Z</time></trkpt><trkpt lat="45.951039582088946" lon="10.157310232190804"><ele>1208.6666666666665</ele><time>2026-04-04T15:26:01Z</time></trkpt><trkpt lat="45.95116956439562" lon="10.157439823903601"><ele>1216.0</ele><time>2026-04-04T15:26:02Z</time></trkpt><trkpt lat="45.95134336357471" lon="10.157554353573971"><ele>1216.0</ele><time>2026-04-04T15:26:03Z</time></trkpt><trkpt lat="45.95149983262478" lon="10.157636545255947"><ele>1216.0</ele><time>2026-04-04T15:26:04Z</time></trkpt><trkpt lat="45.951630477282364" lon="10.157661209067687"><ele>1216.0</ele><time>2026-04-04T15:26:05Z</time></trkpt><trkpt lat="45.95175471853289" lon="10.157680223901341"><ele>1216.0</ele><time>2026-04-04T15:26:06Z</time></trkpt><trkpt lat="45.95188772626051" lon="10.15768923720039"><ele>1241.0</ele><time>2026-04-04T15:26:07Z</time></trkpt><trkpt lat="45.9525119075994" lon="10.157617189910626"><ele>1249.75</ele><time>2026-04-04T15:26:08Z</time></trkpt><trkpt lat="45.952739392742544" lon="10.157653761393332"><ele>1258.5</ele><time>2026-04-04T15:26:10Z</time></trkpt><trkpt lat="45.95284995488298" lon="10.157750006545818"><ele>1267.25</ele><time>2026-04-04T15:26:12Z</time></trkpt><trkpt lat="45.95285068960836" lon="10.157868680367228"><ele>1276.0</ele><time>2026-04-04T15:26:13Z</time></trkpt><trkpt lat="45.95284838175279" lon="10.158042686927809"><ele>1273.5</ele><time>2026-04-04T15:26:14Z</time></trkpt><trkpt lat="45.952854563034656" lon="10.158219916751861"><ele>1271.0</ele><time>2026-04-04T15:26:15Z</time></trkpt><trkpt lat="45.952851254225784" lon="10.158351963666115"><ele>1268.5</ele><time>2026-04-04T15:26:16Z</time></trkpt><trkpt lat="45.952866133478956" lon="10.158501080247284"><ele>1266.0</ele><time>2026-04-04T15:26:17Z</time></trkpt><trkpt lat="45.95291365805581" lon="10.15867712638481"><ele>1266.0</ele><time>2026-04-04T15:26:18Z</time></trkpt><trkpt lat="45.95305201659757" lon="10.158830674223301"><ele>1266.0</ele><time>2026-04-04T15:26:22Z</time></trkpt><trkpt lat="45.95314088598652" lon="10.15893321734038"><ele>1266.0</ele><time>2026-04-04T15:26:24Z</time></trkpt><trkpt lat="45.95322610875609" lon="10.158980690729834"><ele>1266.0</ele><time>2026-04-04T15:26:26Z</time></trkpt><trkpt lat="45.95328320540252" lon="10.159026075805743"><ele>1266.0</ele><time>2026-04-04T15:26:28Z</time></trkpt><trkpt lat="45.95323544252109" lon="10.159116601528797"><ele>1278.0</ele><time>2026-04-04T15:26:31Z</time></trkpt><trkpt lat="45.953331684876424" lon="10.159124597138115"><ele>1290.0</ele><time>2026-04-04T15:26:32Z</time></trkpt><trkpt lat="45.953953085847125" lon="10.158969613965944"><ele>1290.0</ele><time>2026-04-04T15:26:49Z</time></trkpt><trkpt lat="45.954109114990494" lon="10.158866337170078"><ele>1290.0</ele><time>2026-04-04T15:26:50Z</time></trkpt><trkpt lat="45.95424807558308" lon="10.15881901669516"><ele>1290.0</ele><time>2026-04-04T15:26:51Z</time></trkpt><trkpt lat="45.95436123365173" lon="10.158752202395364"><ele>1290.0</ele><time>2026-04-04T15:26:52Z</time></trkpt><trkpt lat="45.95456253367809" lon="10.158699455119505"><ele>1299.6666666666667</ele><time>2026-04-04T15:26:53Z</time></trkpt><trkpt lat="45.95473467811085" lon="10.158661957942494"><ele>1309.3333333333335</ele><time>2026-04-04T15:26:54Z</time></trkpt><trkpt lat="45.95487923680585" lon="10.158657762381525"><ele>1319.0</ele><time>2026-04-04T15:26:55Z</time></trkpt><trkpt lat="45.95503067689572" lon="10.158688462488836"><ele>1327.5</ele><time>2026-04-04T15:26:56Z</time></trkpt><trkpt lat="45.95516075472382" lon="10.158742801748462"><ele>1336.0</ele><time>2026-04-04T15:26:57Z</time></trkpt><trkpt lat="45.955305980348534" lon="10.158769475080552"><ele>1344.5</ele><time>2026-04-04T15:26:58Z</time></trkpt><trkpt lat="45.95543221241804" lon="10.158787830266732"><ele>1353.0</ele><time>2026-04-04T15:26:59Z</time></trkpt><trkpt lat="45.955562311147254" lon="10.15881076446759"><ele>1353.0</ele><time>2026-04-04T15:27:00Z</time></trkpt><trkpt lat="45.955722654081754" lon="10.158829431410675"><ele>1353.0</ele><time>2026-04-04T15:27:01Z</time></trkpt><trkpt lat="45.95585517473886" lon="10.158872580404301"><ele>1353.0</ele><time>2026-04-04T15:27:02Z</time></trkpt><trkpt lat="45.955980747891694" lon="10.158918906376563"><ele>1353.0</ele><time>2026-04-04T15:27:03Z</time></trkpt><trkpt lat="45.956105599637816" lon="10.158957055506495"><ele>1356.6000000000001</ele><time>2026-04-04T15:27:04Z</time></trkpt><trkpt lat="45.956209497526174" lon="10.159002511791691"><ele>1360.2</ele><time>2026-04-04T15:27:05Z</time></trkpt><trkpt lat="45.9562953445826" lon="10.159084018751027"><ele>1363.8</ele><time>2026-04-04T15:27:06Z</time></trkpt><trkpt lat="45.95638608808116" lon="10.159148313810508"><ele>1367.4</ele><time>2026-04-04T15:27:07Z</time></trkpt><trkpt lat="45.95650552083514" lon="10.159186798963514"><ele>1371.0</ele><time>2026-04-04T15:27:08Z</time></trkpt><trkpt lat="45.95657626957536" lon="10.15922353101947"><ele>1371.0</ele><time>2026-04-04T15:27:09Z</time></trkpt><trkpt lat="45.95669137000997" lon="10.159280612543283"><ele>1371.0</ele><time>2026-04-04T15:27:10Z</time></trkpt><trkpt lat="45.95676699472047" lon="10.15932468123347"><ele>1371.0</ele><time>2026-04-04T15:27:11Z</time></trkpt><trkpt lat="45.95682997033664" lon="10.159333513236707"><ele>1371.0</ele><time>2026-04-04T15:27:12Z</time></trkpt><trkpt lat="45.95688308438727" lon="10.159386046364123"><ele>1371.0</ele><time>2026-04-04T15:27:13Z</time></trkpt><trkpt lat="45.95694948497285" lon="10.159468921081817"><ele>1371.0</ele><time>2026-04-04T15:27:15Z</time></trkpt><trkpt lat="45.95712955604513" lon="10.159517268265496"><ele>1391.5</ele><time>2026-04-04T15:27:29Z</time></trkpt><trkpt lat="45.957180395524595" lon="10.159603957253735"><ele>1412.0</ele><time>2026-04-04T15:27:39Z</time></trkpt><trkpt lat="45.947206769892766" lon="10.151849224815054"><ele>1352.3999999999999</ele><time>2026-04-04T15:24:43Z</time></trkpt><trkpt lat="45.94716116764328" lon="10.15197999985809"><ele>1292.8</ele><time>2026-04-04T15:24:44Z</time></trkpt><trkpt lat="45.947116051318844" lon="10.152108423943117"><ele>1233.2</ele><time>2026-04-04T15:24:45Z</time></trkpt><trkpt lat="45.94707557295622" lon="10.152238927328941"><ele>1173.6</ele><time>2026-04-04T15:24:46Z</time></trkpt><trkpt lat="45.947034228505096" lon="10.152366741231065"><ele>1114.0</ele><time>2026-04-04T15:24:47Z</time></trkpt><trkpt lat="45.9469897153694" lon="10.152504352954994"><ele>1114.0</ele><time>2026-04-04T15:24:48Z</time></trkpt><trkpt lat="45.94694007766956" lon="10.152644847302474"><ele>1114.0</ele><time>2026-04-04T15:24:49Z</time></trkpt><trkpt lat="45.94688580585466" lon="10.152784600235977"><ele>1114.0</ele><time>2026-04-04T15:24:50Z</time></trkpt><trkpt lat="45.946833940336425" lon="10.152918012268797"><ele>1114.0</ele><time>2026-04-04T15:24:51Z</time></trkpt><trkpt lat="45.94678203808968" lon="10.153054672580618"><ele>1114.0</ele><time>2026-04-04T15:24:52Z</time></trkpt><trkpt lat="45.94672923455452" lon="10.153188213619142"><ele>1112.0</ele><time>2026-04-04T15:24:53Z</time></trkpt><trkpt lat="45.94667740128797" lon="10.153320616465352"><ele>1110.0</ele><time>2026-04-04T15:24:54Z</time></trkpt><trkpt lat="45.94662850806981" lon="10.153445921769967"><ele>1108.0</ele><time>2026-04-04T15:24:55Z</time></trkpt><trkpt lat="45.94657863914644" lon="10.153559317629165"><ele>1106.0</ele><time>2026-04-04T15:24:56Z</time></trkpt><trkpt lat="45.9465292117652" lon="10.15367343701359"><ele>1104.0</ele><time>2026-04-04T15:24:57Z</time></trkpt><trkpt lat="45.94648257446258" lon="10.15379439218147"><ele>1104.0</ele><time>2026-04-04T15:24:58Z</time></trkpt><trkpt lat="45.94643912987449" lon="10.153900114832322"><ele>1104.0</ele><time>2026-04-04T15:24:59Z</time></trkpt><trkpt lat="45.94639998579007" lon="10.153997121853836"><ele>1104.0</ele><time>2026-04-04T15:25:00Z</time></trkpt><trkpt lat="45.946364494588295" lon="10.154082559984133"><ele>1104.0</ele><time>2026-04-04T15:25:01Z</time></trkpt><trkpt lat="45.94631466130748" lon="10.154213671295322"><ele>1104.0</ele><time>2026-04-04T15:25:03Z</time></trkpt><trkpt lat="45.94640002037046" lon="10.15436341278759"><ele>1105.2</ele><time>2026-04-04T15:25:06Z</time></trkpt><trkpt lat="45.94647467817028" lon="10.154406907338076"><ele>1106.4</ele><time>2026-04-04T15:25:07Z</time></trkpt><trkpt lat="45.94655179084342" lon="10.15445568694423"><ele>1107.6</ele><time>2026-04-04T15:25:08Z</time></trkpt><trkpt lat="45.94663200041255" lon="10.15452801452112"><ele>1108.8</ele><time>2026-04-04T15:25:09Z</time></trkpt><trkpt lat="45.946732991235386" lon="10.154594966563861"><ele>1110.0</ele><time>2026-04-04T15:25:10Z</time></trkpt><trkpt lat="45.94684171255846" lon="10.154668232516029"><ele>1112.0</ele><time>2026-04-04T15:25:11Z</time></trkpt><trkpt lat="45.94696286119599" lon="10.154759874418547"><ele>1114.0</ele><time>2026-04-04T15:25:12Z</time></trkpt><trkpt lat="45.947101393861175" lon="10.154859748260918"><ele>1116.0</ele><time>2026-04-04T15:25:13Z</time></trkpt><trkpt lat="45.94724647077977" lon="10.154963687079594"><ele>1121.0</ele><time>2026-04-04T15:25:14Z</time></trkpt><trkpt lat="45.94742113519676" lon="10.155073786595127"><ele>1126.0</ele><time>2026-04-04T15:25:15Z</time></trkpt><trkpt lat="45.94759633174903" lon="10.155189472011656"><ele>1131.0</ele><time>2026-04-04T15:25:16Z</time></trkpt><trkpt lat="45.94776650140219" lon="10.155304168578118"><ele>1132.75</ele><time>2026-04-04T15:25:17Z</time></trkpt><trkpt lat="45.94792603739145" lon="10.155405589749316"><ele>1134.5</ele><time>2026-04-04T15:25:18Z</time></trkpt><trkpt lat="45.94805352457404" lon="10.155492774425245"><ele>1136.25</ele><time>2026-04-04T15:25:19Z</time></trkpt><trkpt lat="45.948137080276396" lon="10.155544376108965"><ele>1138.0</ele><time>2026-04-04T15:25:20Z</time></trkpt><trkpt lat="45.9482382154621" lon="10.155736355646315"><ele>1140.2</ele><time>2026-04-04T15:25:24Z</time></trkpt><trkpt lat="45.94827665650196" lon="10.155848292076081"><ele>1142.4</ele><time>2026-04-04T15:25:25Z</time></trkpt><trkpt lat="45.948323540703896" lon="10.155978669247157"><ele>1144.6000000000001</ele><time>2026-04-04T15:25:26Z</time></trkpt><trkpt lat="45.948371927984965" lon="10.15610746726859"><ele>1146.8</ele><time>2026-04-04T15:25:27Z</time></trkpt><trkpt lat="45.94840923453744" lon="10.156200167919758"><ele>1149.0</ele><time>2026-04-04T15:25:28Z</time></trkpt><trkpt lat="45.94846499540567" lon="10.156323775863818"><ele>1151.75</ele><time>2026-04-04T15:25:30Z</time></trkpt><trkpt lat="45.948617704474316" lon="10.15624234893555"><ele>1154.5</ele><time>2026-04-04T15:25:31Z</time></trkpt><trkpt lat="45.948719155767726" lon="10.156192589516934"><ele>1157.25</ele><time>2026-04-04T15:25:32Z</time></trkpt><trkpt lat="45.94881181413416" lon="10.156170301989654"><ele>1160.0</ele><time>2026-04-04T15:25:33Z</time></trkpt><trkpt lat="45.94890322022604" lon="10.156208633535794"><ele>1160.0</ele><time>2026-04-04T15:25:34Z</time></trkpt><trkpt lat="45.94900155444124" lon="10.156228247331311"><ele>1160.0</ele><time>2026-04-04T15:25:35Z</time></trkpt><trkpt lat="45.94917930766272" lon="10.15628269808101"><ele>1160.0</ele><time>2026-04-04T15:25:36Z</time></trkpt><trkpt lat="45.949332156532826" lon="10.156309736404229"><ele>1160.0</ele><time>2026-04-04T15:25:37Z</time></trkpt><trkpt lat="45.94951271413989" lon="10.156248978207875"><ele>1163.75</ele><time>2026-04-04T15:25:38Z</time></trkpt><trkpt lat="45.949687576059134" lon="10.15622574373978"><ele>1167.5</ele><time>2026-04-04T15:25:39Z</time></trkpt><trkpt lat="45.949823324341914" lon="10.156129056040713"><ele>1171.25</ele><time>2026-04-04T15:25:40Z</time></trkpt><trkpt lat="45.949911313016145" lon="10.156074817218158"><ele>1175.0</ele><time>2026-04-04T15:25:41Z</time></trkpt><trkpt lat="45.94997138749767" lon="10.156139169746083"><ele>1179.0</ele><time>2026-04-04T15:25:42Z</time></trkpt><trkpt lat="45.94953056508368" lon="10.156745079515535"><ele>1179.0</ele><time>2026-04-04T15:25:43Z</time></trkpt><trkpt lat="45.94961532268147" lon="10.156760216595062"><ele>1179.0</ele><time>2026-04-04T15:25:44Z</time></trkpt><trkpt lat="45.94981149811009" lon="10.1568314053359"><ele>1179.0</ele><time>2026-04-04T15:25:45Z</time></trkpt><trkpt lat="45.94990155001016" lon="10.1568453011247"><ele>1179.0</ele><time>2026-04-04T15:25:46Z</time></trkpt><trkpt lat="45.950000621822085" lon="10.156850025689867"><ele>1181.5</ele><time>2026-04-04T15:25:47Z</time></trkpt><trkpt lat="45.95004579532822" lon="10.156758446131516"><ele>1184.0</ele><time>2026-04-04T15:25:48Z</time></trkpt><trkpt lat="45.950090992248825" lon="10.15669314824898"><ele>1186.5</ele><time>2026-04-04T15:25:50Z</time></trkpt><trkpt lat="45.95015258520952" lon="10.156715782455596"><ele>1189.0</ele><time>2026-04-04T15:25:52Z</time></trkpt><trkpt lat="45.95021683859386" lon="10.156779584409302"><ele>1191.5</ele><time>2026-04-04T15:25:53Z</time></trkpt><trkpt lat="45.95030267126406" lon="10.156814619534357"><ele>1194.0</ele><time>2026-04-04T15:25:54Z</time></trkpt><trkpt lat="45.950387673785876" lon="10.156903068069184"><ele>1194.0</ele><time>2026-04-04T15:25:56Z</time></trkpt><trkpt lat="45.950458923787004" lon="10.156977017666845"><ele>1194.0</ele><time>2026-04-04T15:25:57Z</time></trkpt><trkpt lat="45.950564507037726" lon="10.157059690006562"><ele>1194.0</ele><time>2026-04-04T15:25:58Z</time></trkpt><trkpt lat="45.95072226149344" lon="10.15714649389273"><ele>1194.0</ele><time>2026-04-04T15:25:59Z</time></trkpt><trkpt lat="45.950888490236125" lon="10.15721033291049"><ele>1201.3333333333333</ele><time>2026-04-04T15:26:00Z</time></trkpt><trkpt lat="45.951039582088946" lon="10.157310232190804"><ele>1208.6666666666665</ele><time>2026-04-04T15:26:01Z</time></trkpt><trkpt lat="45.95116956439562" lon="10.157439823903601"><ele>1216.0</ele><time>2026-04-04T15:26:02Z</time></trkpt><trkpt lat="45.95134336357471" lon="10.157554353573971"><ele>1216.0</ele><time>2026-04-04T15:26:03Z</time></trkpt><trkpt lat="45.95149983262478" lon="10.157636545255947"><ele>1216.0</ele><time>2026-04-04T15:26:04Z</time></trkpt><trkpt lat="45.951630477282364" lon="10.157661209067687"><ele>1216.0</ele><time>2026-04-04T15:26:05Z</time></trkpt><trkpt lat="45.95175471853289" lon="10.157680223901341"><ele>1216.0</ele><time>2026-04-04T15:26:06Z</time></trkpt><trkpt lat="45.95188772626051" lon="10.15768923720039"><ele>1241.0</ele><time>2026-04-04T15:26:07Z</time></trkpt><trkpt lat="45.9525119075994" lon="10.157617189910626"><ele>1249.75</ele><time>2026-04-04T15:26:08Z</time></trkpt><trkpt lat="45.952739392742544" lon="10.157653761393332"><ele>1258.5</ele><time>2026-04-04T15:26:10Z</time></trkpt><trkpt lat="45.95284995488298" lon="10.157750006545818"><ele>1267.25</ele><time>2026-04-04T15:26:12Z</time></trkpt><trkpt lat="45.95285068960836" lon="10.157868680367228"><ele>1276.0</ele><time>2026-04-04T15:26:13Z</time></trkpt><trkpt lat="45.95284838175279" lon="10.158042686927809"><ele>1273.5</ele><time>2026-04-04T15:26:14Z</time></trkpt><trkpt lat="45.952854563034656" lon="10.158219916751861"><ele>1271.0</ele><time>2026-04-04T15:26:15Z</time></trkpt><trkpt lat="45.952851254225784" lon="10.158351963666115"><ele>1268.5</ele><time>2026-04-04T15:26:16Z</time></trkpt><trkpt lat="45.952866133478956" lon="10.158501080247284"><ele>1266.0</ele><time>2026-04-04T15:26:17Z</time></trkpt><trkpt lat="45.95291365805581" lon="10.15867712638481"><ele>1266.0</ele><time>2026-04-04T15:26:18Z</time></trkpt><trkpt lat="45.95305201659757" lon="10.158830674223301"><ele>1266.0</ele><time>2026-04-04T15:26:22Z</time></trkpt><trkpt lat="45.95314088598652" lon="10.15893321734038"><ele>1266.0</ele><time>2026-04-04T15:26:24Z</time></trkpt><trkpt lat="45.95322610875609" lon="10.158980690729834"><ele>1266.0</ele><time>2026-04-04T15:26:26Z</time></trkpt><trkpt lat="45.95328320540252" lon="10.159026075805743"><ele>1266.0</ele><time>2026-04-04T15:26:28Z</time></trkpt><trkpt lat="45.95323544252109" lon="10.159116601528797"><ele>1278.0</ele><time>2026-04-04T15:26:31Z</time></trkpt><trkpt lat="45.953331684876424" lon="10.159124597138115"><ele>1290.0</ele><time>2026-04-04T15:26:32Z</time></trkpt><trkpt lat="45.953953085847125" lon="10.158969613965944"><ele>1290.0</ele><time>2026-04-04T15:26:49Z</time></trkpt><trkpt lat="45.954109114990494" lon="10.158866337170078"><ele>1290.0</ele><time>2026-04-04T15:26:50Z</time></trkpt><trkpt lat="45.95424807558308" lon="10.15881901669516"><ele>1290.0</ele><time>2026-04-04T15:26:51Z</time></trkpt><trkpt lat="45.95436123365173" lon="10.158752202395364"><ele>1290.0</ele><time>2026-04-04T15:26:52Z</time></trkpt><trkpt lat="45.95456253367809" lon="10.158699455119505"><ele>1299.6666666666667</ele><time>2026-04-04T15:26:53Z</time></trkpt><trkpt lat="45.95473467811085" lon="10.158661957942494"><ele>1309.3333333333335</ele><time>2026-04-04T15:26:54Z</time></trkpt><trkpt lat="45.95487923680585" lon="10.158657762381525"><ele>1319.0</ele><time>2026-04-04T15:26:55Z</time></trkpt><trkpt lat="45.95503067689572" lon="10.158688462488836"><ele>1327.5</ele><time>2026-04-04T15:26:56Z</time></trkpt><trkpt lat="45.95516075472382" lon="10.158742801748462"><ele>1336.0</ele><time>2026-04-04T15:26:57Z</time></trkpt><trkpt lat="45.955305980348534" lon="10.158769475080552"><ele>1344.5</ele><time>2026-04-04T15:26:58Z</time></trkpt><trkpt lat="45.95543221241804" lon="10.158787830266732"><ele>1353.0</ele><time>2026-04-04T15:26:59Z</time></trkpt><trkpt lat="45.955562311147254" lon="10.15881076446759"><ele>1353.0</ele><time>2026-04-04T15:27:00Z</time></trkpt><trkpt lat="45.955722654081754" lon="10.158829431410675"><ele>1353.0</ele><time>2026-04-04T15:27:01Z</time></trkpt><trkpt lat="45.95585517473886" lon="10.158872580404301"><ele>1353.0</ele><time>2026-04-04T15:27:02Z</time></trkpt><trkpt lat="45.955980747891694" lon="10.158918906376563"><ele>1353.0</ele><time>2026-04-04T15:27:03Z</time></trkpt><trkpt lat="45.956105599637816" lon="10.158957055506495"><ele>1356.6000000000001</ele><time>2026-04-04T15:27:04Z</time></trkpt><trkpt lat="45.956209497526174" lon="10.159002511791691"><ele>1360.2</ele><time>2026-04-04T15:27:05Z</time></trkpt><trkpt lat="45.9562953445826" lon="10.159084018751027"><ele>1363.8</ele><time>2026-04-04T15:27:06Z</time></trkpt><trkpt lat="45.95638608808116" lon="10.159148313810508"><ele>1367.4</ele><time>2026-04-04T15:27:07Z</time></trkpt><trkpt lat="45.95650552083514" lon="10.159186798963514"><ele>1371.0</ele><time>2026-04-04T15:27:08Z</time></trkpt><trkpt lat="45.95657626957536" lon="10.15922353101947"><ele>1371.0</ele><time>2026-04-04T15:27:09Z</time></trkpt><trkpt lat="45.95669137000997" lon="10.159280612543283"><ele>1371.0</ele><time>2026-04-04T15:27:10Z</time></trkpt><trkpt lat="45.95676699472047" lon="10.15932468123347"><ele>1371.0</ele><time>2026-04-04T15:27:11Z</time></trkpt><trkpt lat="45.95682997033664" lon="10.159333513236707"><ele>1371.0</ele><time>2026-04-04T15:27:12Z</time></trkpt><trkpt lat="45.95688308438727" lon="10.159386046364123"><ele>1371.0</ele><time>2026-04-04T15:27:13Z</time></trkpt><trkpt lat="45.95694948497285" lon="10.159468921081817"><ele>1371.0</ele><time>2026-04-04T15:27:15Z</time></trkpt><trkpt lat="45.95712955604513" lon="10.159517268265496"><ele>1377.8333333333333</ele><time>2026-04-04T15:27:29Z</time></trkpt><trkpt lat="45.957180395524595" lon="10.159603957253735"><ele>1384.6666666666667</ele><time>2026-04-04T15:27:39Z</time></trkpt><trkpt lat="45.957164166398094" lon="10.159513923687033"><ele>1391.5</ele><time>2026-04-04T15:31:10Z</time></trkpt><trkpt lat="45.95710287930838" lon="10.159457064970013"><ele>1398.3333333333335</ele><time>2026-04-04T15:31:15Z</time></trkpt><trkpt lat="45.957048229663016" lon="10.159380849274152"><ele>1405.1666666666667</ele><time>2026-04-04T15:31:45Z</time></trkpt><trkpt lat="45.95698590298925" lon="10.15933463627417"><ele>1412.0</ele><time>2026-04-04T15:31:48Z</time></trkpt><trkpt lat="45.9568863764693" lon="10.15927863289758"><ele>1412.0</ele><time>2026-04-04T15:31:51Z</time></trkpt><trkpt lat="45.956788956455334" lon="10.159212973074728"><ele>1412.0</ele><time>2026-04-04T15:31:53Z</time></trkpt><trkpt lat="45.956697193855675" lon="10.159146808249119"><ele>1412.0</ele><time>2026-04-04T15:31:55Z</time></trkpt><trkpt lat="45.95663274515674" lon="10.15908336310837"><ele>1412.0</ele><time>2026-04-04T15:31:57Z</time></trkpt><trkpt lat="45.956556244064515" lon="10.159014558258225"><ele>1412.0</ele><time>2026-04-04T15:31:59Z</time></trkpt><trkpt lat="45.95647534656484" lon="10.158969275536027"><ele>1409.0</ele><time>2026-04-04T15:32:01Z</time></trkpt><trkpt lat="45.95640325454219" lon="10.15891887683829"><ele>1406.0</ele><time>2026-04-04T15:32:03Z</time></trkpt><trkpt lat="45.956321751074654" lon="10.158870611077672"><ele>1403.0</ele><time>2026-04-04T15:32:07Z</time></trkpt><trkpt lat="45.95624260662219" lon="10.158849098293436"><ele>1400.0</ele><time>2026-04-04T15:32:10Z</time></trkpt><trkpt lat="45.95617099937844" lon="10.158829694414433"><ele>1397.0</ele><time>2026-04-04T15:32:13Z</time></trkpt><trkpt lat="45.956109128501616" lon="10.158766943654639"><ele>1394.0</ele><time>2026-04-04T15:32:37Z</time></trkpt><trkpt lat="45.95604416871967" lon="10.158714733301503"><ele>1394.0</ele><time>2026-04-04T15:32:41Z</time></trkpt><trkpt lat="45.955976728950375" lon="10.15873396519783"><ele>1394.0</ele><time>2026-04-04T15:32:43Z</time></trkpt><trkpt lat="45.95591310680784" lon="10.158729297756384"><ele>1394.0</ele><time>2026-04-04T15:32:45Z</time></trkpt><trkpt lat="45.955828336541856" lon="10.158718598994518"><ele>1394.0</ele><time>2026-04-04T15:32:47Z</time></trkpt><trkpt lat="45.955756796872315" lon="10.158704633104309"><ele>1394.0</ele><time>2026-04-04T15:32:49Z</time></trkpt><trkpt lat="45.95567733110872" lon="10.158655492153366"><ele>1394.0</ele><time>2026-04-04T15:32:51Z</time></trkpt><trkpt lat="45.95559102715754" lon="10.158633917965421"><ele>1385.8000000000002</ele><time>2026-04-04T15:32:53Z</time></trkpt><trkpt lat="45.95548978114953" lon="10.15860412524548"><ele>1377.6000000000001</ele><time>2026-04-04T15:32:55Z</time></trkpt><trkpt lat="45.95539163573344" lon="10.158607526856564"><ele>1369.4</ele><time>2026-04-04T15:32:58Z</time></trkpt><trkpt lat="45.95529472155025" lon="10.15863533606916"><ele>1361.2</ele><time>2026-04-04T15:33:00Z</time></trkpt><trkpt lat="45.95519503384113" lon="10.158665996561746"><ele>1353.0</ele><time>2026-04-04T15:33:02Z</time></trkpt><trkpt lat="45.955093783987245" lon="10.158713876349594"><ele>1353.0</ele><time>2026-04-04T15:33:04Z</time></trkpt><trkpt lat="45.955037983552145" lon="10.158758843203032"><ele>1353.0</ele><time>2026-04-04T15:33:05Z</time></trkpt><trkpt lat="45.95496840388413" lon="10.158796275567056"><ele>1353.0</ele><time>2026-04-04T15:33:06Z</time></trkpt><trkpt lat="45.95491529841957" lon="10.158846746605002"><ele>1353.0</ele><time>2026-04-04T15:33:07Z</time></trkpt><trkpt lat="45.95483620880478" lon="10.158927432722002"><ele>1353.0</ele><time>2026-04-04T15:33:09Z</time></trkpt><trkpt lat="45.95479228384903" lon="10.15902712793895"><ele>1353.0</ele><time>2026-04-04T15:33:12Z</time></trkpt><trkpt lat="45.954751143295475" lon="10.15912222047317"><ele>1353.0</ele><time>2026-04-04T15:33:14Z</time></trkpt><trkpt lat="45.95478315108731" lon="10.159016591644262"><ele>1353.0</ele><time>2026-04-04T15:34:32Z</time></trkpt><trkpt lat="45.95487508729476" lon="10.158911568298311"><ele>1353.0</ele><time>2026-04-04T15:34:34Z</time></trkpt><trkpt lat="45.95493426566021" lon="10.158853504065696"><ele>1353.0</ele><time>2026-04-04T15:34:35Z</time></trkpt><trkpt lat="45.95500856910983" lon="10.158800407540326"><ele>1353.0</ele><time>2026-04-04T15:34:36Z</time></trkpt><trkpt lat="45.95508519391408" lon="10.158737697856049"><ele>1353.0</ele><time>2026-04-04T15:34:37Z</time></trkpt><trkpt lat="45.95515571402348" lon="10.158701728923257"><ele>1353.0</ele><time>2026-04-04T15:34:38Z</time></trkpt><trkpt lat="45.955249381150864" lon="10.158660613051236"><ele>1353.0</ele><time>2026-04-04T15:34:39Z</time></trkpt><trkpt lat="45.95532338106251" lon="10.158652058937243"><ele>1353.0</ele><time>2026-04-04T15:34:40Z</time></trkpt><trkpt lat="45.955417375558696" lon="10.158619218407486"><ele>1353.0</ele><time>2026-04-04T15:34:41Z</time></trkpt><trkpt lat="45.955487675146294" lon="10.158610670690814"><ele>1353.0</ele><time>2026-04-04T15:34:42Z</time></trkpt><trkpt lat="45.95555538663596" lon="10.158621134560937"><ele>1353.0</ele><time>2026-04-04T15:34:43Z</time></trkpt><trkpt lat="45.955620623954495" lon="10.158646745301153"><ele>1353.0</ele><time>2026-04-04T15:34:44Z</time></trkpt><trkpt lat="45.95572001420517" lon="10.158683667738313"><ele>1353.0</ele><time>2026-04-04T15:34:45Z</time></trkpt><trkpt lat="45.95583258793826" lon="10.15871122141627"><ele>1353.0</ele><time>2026-04-04T15:34:46Z</time></trkpt><trkpt lat="45.95592214995309" lon="10.15874595432374"><ele>1353.0</ele><time>2026-04-04T15:34:47Z</time></trkpt><trkpt lat="45.95601560380816" lon="10.158767145051193"><ele>1353.0</ele><time>2026-04-04T15:34:48Z</time></trkpt><trkpt lat="45.95611261927715" lon="10.158793365918708"><ele>1356.0</ele><time>2026-04-04T15:34:49Z</time></trkpt><trkpt lat="45.95618572120839" lon="10.158850233892109"><ele>1359.0</ele><time>2026-04-04T15:34:50Z</time></trkpt><trkpt lat="45.956286969279404" lon="10.158911110251518"><ele>1362.0</ele><time>2026-04-04T15:34:51Z</time></trkpt><trkpt lat="45.956368961886696" lon="10.1589634283963"><ele>1365.0</ele><time>2026-04-04T15:34:52Z</time></trkpt><trkpt lat="45.956450172122736" lon="10.1590098679752"><ele>1368.0</ele><time>2026-04-04T15:34:53Z</time></trkpt><trkpt lat="45.95651684218085" lon="10.159060281283196"><ele>1371.0</ele><time>2026-04-04T15:34:54Z</time></trkpt><trkpt lat="45.95659525591597" lon="10.159117866397299"><ele>1371.0</ele><time>2026-04-04T15:34:55Z</time></trkpt><trkpt lat="45.95667479892738" lon="10.15919316155485"><ele>1371.0</ele><time>2026-04-04T15:34:56Z</time></trkpt><trkpt lat="45.956763577589875" lon="10.159239602992528"><ele>1371.0</ele><time>2026-04-04T15:34:57Z</time></trkpt><trkpt lat="45.956861776881944" lon="10.159280798595846"><ele>1371.0</ele><time>2026-04-04T15:34:58Z</time></trkpt><trkpt lat="45.956944275680684" lon="10.159320183699775"><ele>1371.0</ele><time>2026-04-04T15:34:59Z</time></trkpt><trkpt lat="45.95701761645009" lon="10.159371340795662"><ele>1375.6666666666667</ele><time>2026-04-04T15:35:00Z</time></trkpt><trkpt lat="45.957084463096656" lon="10.159418094023193"><ele>1380.3333333333333</ele><time>2026-04-04T15:35:01Z</time></trkpt><trkpt lat="45.9571378686279" lon="10.159503714204435"><ele>1385.0</ele><time>2026-04-04T15:35:02Z</time></trkpt><trkpt lat="45.95717523054869" lon="10.159603550393939"><ele>1389.6666666666665</ele><time>2026-04-04T15:35:03Z</time></trkpt><trkpt lat="45.95722988653714" lon="10.159694982736218"><ele>1394.3333333333333</ele><time>2026-04-04T15:35:04Z</time></trkpt><trkpt lat="45.95726981099127" lon="10.159772247579474"><ele>1399.0</ele><time>2026-04-04T15:35:05Z</time></trkpt><trkpt lat="45.95733731517002" lon="10.159912028603518"><ele>1399.0</ele><time>2026-04-04T15:35:07Z</time></trkpt><trkpt lat="45.957404801194016" lon="10.160002966415826"><ele>1399.0</ele><time>2026-04-04T15:35:08Z</time></trkpt><trkpt lat="45.95745337132377" lon="10.16008899359202"><ele>1399.0</ele><time>2026-04-04T15:35:09Z</time></trkpt><trkpt lat="45.95751855664635" lon="10.160020877369098"><ele>1399.0</ele><time>2026-04-04T15:35:13Z</time></trkpt><trkpt lat="45.95752608852406" lon="10.159918118887548"><ele>1399.0</ele><time>2026-04-04T15:35:17Z</time></trkpt><trkpt lat="45.957465516893116" lon="10.15988207631538"><ele>1399.0</ele><time>2026-04-04T15:46:38Z</time></trkpt><trkpt lat="45.957472712407885" lon="10.159978775318418"><ele>1399.0</ele><time>2026-04-04T15:47:33Z</time></trkpt><trkpt lat="45.95746812594238" lon="10.160074765601943"><ele>1399.0</ele><time>2026-04-04T15:48:34Z</time></trkpt><trkpt lat="45.95745616765219" lon="10.160209154093273"><ele>1399.0</ele><time>2026-04-04T15:48:46Z</time></trkpt><trkpt lat="45.95743432903821" lon="10.16032398516077"><ele>1399.0</ele><time>2026-04-04T15:48:48Z</time></trkpt><trkpt lat="45.95739997816491" lon="10.160456818966798"><ele>1399.0</ele><time>2026-04-04T15:48:50Z</time></trkpt><trkpt lat="45.957383897383245" lon="10.160555048756649"><ele>1399.0</ele><time>2026-04-04T15:48:51Z</time></trkpt><trkpt lat="45.9573619596589" lon="10.160668815422556"><ele>1400.4</ele><time>2026-04-04T15:48:52Z</time></trkpt><trkpt lat="45.957337419626555" lon="10.160791849148236"><ele>1401.8000000000002</ele><time>2026-04-04T15:48:53Z</time></trkpt><trkpt lat="45.95731874349751" lon="10.160924514679035"><ele>1403.1999999999998</ele><time>2026-04-04T15:48:54Z</time></trkpt><trkpt lat="45.95728736018434" lon="10.161059191517012"><ele>1404.6</ele><time>2026-04-04T15:48:55Z</time></trkpt><trkpt lat="45.95724586481075" lon="10.161196227283641"><ele>1406.0</ele><time>2026-04-04T15:48:56Z</time></trkpt><trkpt lat="45.9571937439896" lon="10.161317358043691"><ele>1406.0</ele><time>2026-04-04T15:48:57Z</time></trkpt><trkpt lat="45.957157816403225" lon="10.161412345261121"><ele>1406.0</ele><time>2026-04-04T15:48:58Z</time></trkpt><trkpt lat="45.95711116935678" lon="10.161478682098169"><ele>1406.0</ele><time>2026-04-04T15:48:59Z</time></trkpt><trkpt lat="45.95700741773546" lon="10.161448172299806"><ele>1406.0</ele><time>2026-04-04T15:49:01Z</time></trkpt><trkpt lat="45.95691998134169" lon="10.161418242972179"><ele>1406.0</ele><time>2026-04-04T15:49:02Z</time></trkpt><trkpt lat="45.95682840174045" lon="10.161403313498278"><ele>1406.0</ele><time>2026-04-04T15:49:03Z</time></trkpt><trkpt lat="45.95673062025283" lon="10.161419894865933"><ele>1408.8</ele><time>2026-04-04T15:49:04Z</time></trkpt><trkpt lat="45.95663772092072" lon="10.161449424110431"><ele>1411.6</ele><time>2026-04-04T15:49:05Z</time></trkpt><trkpt lat="45.9565458412542" lon="10.161504289157087"><ele>1414.4</ele><time>2026-04-04T15:49:06Z</time></trkpt><trkpt lat="45.95645193608583" lon="10.161572470719062"><ele>1417.2</ele><time>2026-04-04T15:49:07Z</time></trkpt><trkpt lat="45.95636114689411" lon="10.16165126239719"><ele>1420.0</ele><time>2026-04-04T15:49:08Z</time></trkpt><trkpt lat="45.95626931872067" lon="10.161714694477645"><ele>1420.0</ele><time>2026-04-04T15:49:09Z</time></trkpt><trkpt lat="45.95617852281793" lon="10.161747639180737"><ele>1420.0</ele><time>2026-04-04T15:49:10Z</time></trkpt><trkpt lat="45.95608835025135" lon="10.161780384538652"><ele>1420.0</ele><time>2026-04-04T15:49:11Z</time></trkpt><trkpt lat="45.95600487392521" lon="10.161802377879559"><ele>1420.0</ele><time>2026-04-04T15:49:12Z</time></trkpt><trkpt lat="45.95591740604753" lon="10.161831988079275"><ele>1420.0</ele><time>2026-04-04T15:49:13Z</time></trkpt><trkpt lat="45.955836338178564" lon="10.161872947031299"><ele>1420.0</ele><time>2026-04-04T15:49:14Z</time></trkpt><trkpt lat="45.95575512514528" lon="10.16192677739342"><ele>1420.2</ele><time>2026-04-04T15:49:15Z</time></trkpt><trkpt lat="45.95569787194389" lon="10.162015221774276"><ele>1420.4</ele><time>2026-04-04T15:49:16Z</time></trkpt><trkpt lat="45.95563531647629" lon="10.162102568839977"><ele>1420.6</ele><time>2026-04-04T15:49:17Z</time></trkpt><trkpt lat="45.95557794319322" lon="10.162196781636919"><ele>1420.8</ele><time>2026-04-04T15:49:18Z</time></trkpt><trkpt lat="45.955484483402614" lon="10.162280255578402"><ele>1421.0</ele><time>2026-04-04T15:49:19Z</time></trkpt><trkpt lat="45.955384157364726" lon="10.162335770182844"><ele>1420.25</ele><time>2026-04-04T15:49:20Z</time></trkpt><trkpt lat="45.9552889880666" lon="10.162389557329487"><ele>1419.5</ele><time>2026-04-04T15:49:21Z</time></trkpt><trkpt lat="45.95517130628526" lon="10.162383700500314"><ele>1418.75</ele><time>2026-04-04T15:49:22Z</time></trkpt><trkpt lat="45.955048995269806" lon="10.162367763359324"><ele>1418.0</ele><time>2026-04-04T15:49:23Z</time></trkpt><trkpt lat="45.95492418879799" lon="10.162346845553069"><ele>1418.0</ele><time>2026-04-04T15:49:24Z</time></trkpt><trkpt lat="45.95480545768063" lon="10.162319237550037"><ele>1418.0</ele><time>2026-04-04T15:49:25Z</time></trkpt><trkpt lat="45.95470139048127" lon="10.162256879343655"><ele>1418.0</ele><time>2026-04-04T15:49:26Z</time></trkpt><trkpt lat="45.954617224313964" lon="10.162227354415737"><ele>1418.0</ele><time>2026-04-04T15:49:27Z</time></trkpt><trkpt lat="45.954551805633734" lon="10.162290390624118"><ele>1418.0</ele><time>2026-04-04T15:49:28Z</time></trkpt><trkpt lat="45.95447675019303" lon="10.162357985471353"><ele>1427.0</ele><time>2026-04-04T15:49:29Z</time></trkpt><trkpt lat="45.95440682640473" lon="10.162455155152088"><ele>1436.0</ele><time>2026-04-04T15:49:30Z</time></trkpt><trkpt lat="45.95432492535111" lon="10.162549804110682"><ele>1445.0</ele><time>2026-04-04T15:49:31Z</time></trkpt><trkpt lat="45.954242062274" lon="10.162626663978543"><ele>1454.0</ele><time>2026-04-04T15:49:32Z</time></trkpt><trkpt lat="45.95413660019257" lon="10.162674938002342"><ele>1463.0</ele><time>2026-04-04T15:49:33Z</time></trkpt><trkpt lat="45.954027042170175" lon="10.162713323040554"><ele>1463.0</ele><time>2026-04-04T15:49:34Z</time></trkpt><trkpt lat="45.9539102512114" lon="10.162741674644074"><ele>1463.0</ele><time>2026-04-04T15:49:35Z</time></trkpt><trkpt lat="45.95383303477223" lon="10.162809609049907"><ele>1463.0</ele><time>2026-04-04T15:49:36Z</time></trkpt><trkpt lat="45.95375952825281" lon="10.162896220414318"><ele>1463.0</ele><time>2026-04-04T15:49:37Z</time></trkpt><trkpt lat="45.95369843504053" lon="10.162998226700967"><ele>1463.0</ele><time>2026-04-04T15:49:38Z</time></trkpt><trkpt lat="45.953614820753664" lon="10.16310306392734"><ele>1463.0</ele><time>2026-04-04T15:49:39Z</time></trkpt><trkpt lat="45.95350358627343" lon="10.163188311743289"><ele>1463.0</ele><time>2026-04-04T15:49:40Z</time></trkpt><trkpt lat="45.95342218928577" lon="10.163284046124629"><ele>1463.0</ele><time>2026-04-04T15:49:41Z</time></trkpt><trkpt lat="45.953344135281014" lon="10.163410202953864"><ele>1463.0</ele><time>2026-04-04T15:49:42Z</time></trkpt><trkpt lat="45.953218932669216" lon="10.16346552617289"><ele>1466.4</ele><time>2026-04-04T15:49:43Z</time></trkpt><trkpt lat="45.953093248288326" lon="10.163509166949101"><ele>1469.8000000000002</ele><time>2026-04-04T15:49:44Z</time></trkpt><trkpt lat="45.952986173699585" lon="10.163583600731778"><ele>1473.2</ele><time>2026-04-04T15:49:45Z</time></trkpt><trkpt lat="45.9528993111716" lon="10.163627306619722"><ele>1476.6</ele><time>2026-04-04T15:49:46Z</time></trkpt><trkpt lat="45.95284827312764" lon="10.163690457499209"><ele>1480.0</ele><time>2026-04-04T15:49:47Z</time></trkpt><trkpt lat="45.95279297660724" lon="10.163784706925217"><ele>1480.0</ele><time>2026-04-04T15:49:48Z</time></trkpt><trkpt lat="45.952734159460796" lon="10.163902136107046"><ele>1480.0</ele><time>2026-04-04T15:49:49Z</time></trkpt><trkpt lat="45.95270095055497" lon="10.164035916025327"><ele>1480.0</ele><time>2026-04-04T15:49:50Z</time></trkpt><trkpt lat="45.95268092438386" lon="10.164180085059163"><ele>1480.0</ele><time>2026-04-04T15:49:51Z</time></trkpt><trkpt lat="45.95265412259553" lon="10.164334563735673"><ele>1480.0</ele><time>2026-04-04T15:49:52Z</time></trkpt><trkpt lat="45.95259858894965" lon="10.164480257990638"><ele>1479.2</ele><time>2026-04-04T15:49:53Z</time></trkpt><trkpt lat="45.95253223312769" lon="10.164627283186869"><ele>1478.4</ele><time>2026-04-04T15:49:54Z</time></trkpt><trkpt lat="45.95247203662624" lon="10.164752597297047"><ele>1477.6</ele><time>2026-04-04T15:49:55Z</time></trkpt><trkpt lat="45.952436805722975" lon="10.164891098666827"><ele>1476.8</ele><time>2026-04-04T15:49:56Z</time></trkpt><trkpt lat="45.95241678036643" lon="10.165044417944817"><ele>1476.0</ele><time>2026-04-04T15:49:57Z</time></trkpt><trkpt lat="45.95239587570974" lon="10.165217992062118"><ele>1480.6</ele><time>2026-04-04T15:49:58Z</time></trkpt><trkpt lat="45.95235366834042" lon="10.165377615364566"><ele>1485.1999999999998</ele><time>2026-04-04T15:49:59Z</time></trkpt><trkpt lat="45.95230985991912" lon="10.16553330126093"><ele>1489.8000000000002</ele><time>2026-04-04T15:50:00Z</time></trkpt><trkpt lat="45.9522633115161" lon="10.16565982092051"><ele>1494.4</ele><time>2026-04-04T15:50:01Z</time></trkpt><trkpt lat="45.952230884958325" lon="10.1657443209492"><ele>1499.0</ele><time>2026-04-04T15:50:02Z</time></trkpt><trkpt lat="45.95224897230279" lon="10.165920536461488"><ele>1502.2</ele><time>2026-04-04T15:50:04Z</time></trkpt><trkpt lat="45.95227439222417" lon="10.166051705874251"><ele>1505.4</ele><time>2026-04-04T15:50:05Z</time></trkpt><trkpt lat="45.952305005957975" lon="10.166206815840996"><ele>1508.6</ele><time>2026-04-04T15:50:06Z</time></trkpt><trkpt lat="45.9523370105945" lon="10.16636638544962"><ele>1511.8</ele><time>2026-04-04T15:50:07Z</time></trkpt><trkpt lat="45.952366033179274" lon="10.166537764774125"><ele>1515.0</ele><time>2026-04-04T15:50:08Z</time></trkpt><trkpt lat="45.95239498327413" lon="10.166713331946204"><ele>1516.75</ele><time>2026-04-04T15:50:09Z</time></trkpt><trkpt lat="45.95240417204126" lon="10.16689831282546"><ele>1518.5</ele><time>2026-04-04T15:50:10Z</time></trkpt><trkpt lat="45.95239146139356" lon="10.167109464192963"><ele>1520.25</ele><time>2026-04-04T15:50:11Z</time></trkpt><trkpt lat="45.95239225908423" lon="10.167305014869076"><ele>1522.0</ele><time>2026-04-04T15:50:12Z</time></trkpt><trkpt lat="45.9523922464158" lon="10.167481668454116"><ele>1523.25</ele><time>2026-04-04T15:50:13Z</time></trkpt><trkpt lat="45.952371191868785" lon="10.16765367701159"><ele>1524.5</ele><time>2026-04-04T15:50:14Z</time></trkpt><trkpt lat="45.952331689065346" lon="10.167833164087273"><ele>1525.75</ele><time>2026-04-04T15:50:15Z</time></trkpt><trkpt lat="45.952280971164534" lon="10.168014082216073"><ele>1527.0</ele><time>2026-04-04T15:50:16Z</time></trkpt><trkpt lat="45.95223700389056" lon="10.168212891416536"><ele>1529.25</ele><time>2026-04-04T15:50:17Z</time></trkpt><trkpt lat="45.95220381699368" lon="10.1684048786174"><ele>1531.5</ele><time>2026-04-04T15:50:18Z</time></trkpt><trkpt lat="45.9521543199363" lon="10.168567367889485"><ele>1533.75</ele><time>2026-04-04T15:50:19Z</time></trkpt><trkpt lat="45.95207864117685" lon="10.168701591802119"><ele>1536.0</ele><time>2026-04-04T15:50:20Z</time></trkpt><trkpt lat="45.95200754602109" lon="10.168825534643435"><ele>1536.0</ele><time>2026-04-04T15:50:21Z</time></trkpt><trkpt lat="45.95195722571424" lon="10.168935139506557"><ele>1536.0</ele><time>2026-04-04T15:50:22Z</time></trkpt><trkpt lat="45.95194716442566" lon="10.169064088317292"><ele>1536.0</ele><time>2026-04-04T15:50:23Z</time></trkpt><trkpt lat="45.95197444322601" lon="10.169231758510621"><ele>1536.0</ele><time>2026-04-04T15:50:24Z</time></trkpt><trkpt lat="45.952017721165745" lon="10.16941428543383"><ele>1536.0</ele><time>2026-04-04T15:50:25Z</time></trkpt><trkpt lat="45.95205037035103" lon="10.1695518080937"><ele>1536.0</ele><time>2026-04-04T15:50:26Z</time></trkpt><trkpt lat="45.95207981222467" lon="10.169681296496401"><ele>1536.0</ele><time>2026-04-04T15:50:27Z</time></trkpt><trkpt lat="45.95212984597595" lon="10.16984002902009"><ele>1536.0</ele><time>2026-04-04T15:50:28Z</time></trkpt><trkpt lat="45.952184285372844" lon="10.169983100524917"><ele>1536.0</ele><time>2026-04-04T15:50:29Z</time></trkpt><trkpt lat="45.95225446183294" lon="10.170104175260418"><ele>1536.0</ele><time>2026-04-04T15:50:30Z</time></trkpt><trkpt lat="45.952334527630924" lon="10.170204255391942"><ele>1533.4</ele><time>2026-04-04T15:50:31Z</time></trkpt><trkpt lat="45.95242823255273" lon="10.170303774328225"><ele>1530.8</ele><time>2026-04-04T15:50:32Z</time></trkpt><trkpt lat="45.95251894495254" lon="10.17039473413545"><ele>1528.2</ele><time>2026-04-04T15:50:33Z</time></trkpt><trkpt lat="45.95258815654978" lon="10.170484578940782"><ele>1525.6000000000001</ele><time>2026-04-04T15:50:34Z</time></trkpt><trkpt lat="45.95264139011435" lon="10.170588499785714"><ele>1523.0</ele><time>2026-04-04T15:50:36Z</time></trkpt><trkpt lat="45.952579656087785" lon="10.170670317383726"><ele>1526.6666666666667</ele><time>2026-04-04T15:50:53Z</time></trkpt><trkpt lat="45.952599504238705" lon="10.170757853344586"><ele>1530.3333333333335</ele><time>2026-04-04T15:50:54Z</time></trkpt><trkpt lat="45.95264029905982" lon="10.17089790107511"><ele>1534.0</ele><time>2026-04-04T15:50:56Z</time></trkpt><trkpt lat="45.95266818506328" lon="10.17100671130598"><ele>1537.6666666666667</ele><time>2026-04-04T15:50:57Z</time></trkpt><trkpt lat="45.95271884847547" lon="10.171120479259788"><ele>1541.3333333333333</ele><time>2026-04-04T15:50:58Z</time></trkpt><trkpt lat="45.952766055082066" lon="10.171246460330009"><ele>1545.0</ele><time>2026-04-04T15:50:59Z</time></trkpt><trkpt lat="45.95281680405495" lon="10.171383646946135"><ele>1542.5</ele><time>2026-04-04T15:51:00Z</time></trkpt><trkpt lat="45.952875101463455" lon="10.171534363109696"><ele>1540.0</ele><time>2026-04-04T15:51:01Z</time></trkpt><trkpt lat="45.95293493661556" lon="10.171689557718992"><ele>1537.5</ele><time>2026-04-04T15:51:02Z</time></trkpt><trkpt lat="45.95301197857991" lon="10.171864293156899"><ele>1535.0</ele><time>2026-04-04T15:51:03Z</time></trkpt><trkpt lat="45.953077625676784" lon="10.172054769114165"><ele>1535.0</ele><time>2026-04-04T15:51:04Z</time></trkpt><trkpt lat="45.95314851320091" lon="10.172259121714475"><ele>1535.0</ele><time>2026-04-04T15:51:05Z</time></trkpt><trkpt lat="45.95322478289969" lon="10.172456376503728"><ele>1535.0</ele><time>2026-04-04T15:51:06Z</time></trkpt><trkpt lat="45.95330392538327" lon="10.172640517968228"><ele>1545.75</ele><time>2026-04-04T15:51:07Z</time></trkpt><trkpt lat="45.95338049793299" lon="10.172806794050679"><ele>1556.5</ele><time>2026-04-04T15:51:08Z</time></trkpt><trkpt lat="45.95346310301581" lon="10.172941523791899"><ele>1567.25</ele><time>2026-04-04T15:51:09Z</time></trkpt><trkpt lat="45.95354831489528" lon="10.173079917461406"><ele>1578.0</ele><time>2026-04-04T15:51:10Z</time></trkpt><trkpt lat="45.95363892732125" lon="10.173216369520588"><ele>1578.5</ele><time>2026-04-04T15:51:11Z</time></trkpt><trkpt lat="45.95368857352289" lon="10.173366357586197"><ele>1579.0</ele><time>2026-04-04T15:51:12Z</time></trkpt><trkpt lat="45.95371248143638" lon="10.173531981527923"><ele>1579.5</ele><time>2026-04-04T15:51:13Z</time></trkpt><trkpt lat="45.953746040371314" lon="10.173701942432347"><ele>1580.0</ele><time>2026-04-04T15:51:14Z</time></trkpt><trkpt lat="45.95379119926317" lon="10.173875687310504"><ele>1577.0</ele><time>2026-04-04T15:51:15Z</time></trkpt><trkpt lat="45.95386785791369" lon="10.174022808288315"><ele>1574.0</ele><time>2026-04-04T15:51:16Z</time></trkpt><trkpt lat="45.95391807037592" lon="10.174176034620977"><ele>1571.0</ele><time>2026-04-04T15:51:17Z</time></trkpt><trkpt lat="45.95393275857903" lon="10.174357714096471"><ele>1568.0</ele><time>2026-04-04T15:51:18Z</time></trkpt><trkpt lat="45.95394717530914" lon="10.174553159062082"><ele>1568.0</ele><time>2026-04-04T15:51:19Z</time></trkpt><trkpt lat="45.9539825283538" lon="10.17472109704284"><ele>1568.0</ele><time>2026-04-04T15:51:20Z</time></trkpt><trkpt lat="45.954003491815214" lon="10.17490616808086"><ele>1568.0</ele><time>2026-04-04T15:51:21Z</time></trkpt><trkpt lat="45.95402021664519" lon="10.175052117050527"><ele>1568.0</ele><time>2026-04-04T15:51:22Z</time></trkpt><trkpt lat="45.954045478020866" lon="10.175148831455198"><ele>1568.0</ele><time>2026-04-04T15:51:23Z</time></trkpt><trkpt lat="45.95410567467016" lon="10.175199499491614"><ele>1564.25</ele><time>2026-04-04T15:51:24Z</time></trkpt><trkpt lat="45.95420259910377" lon="10.175222844860901"><ele>1560.5</ele><time>2026-04-04T15:51:25Z</time></trkpt><trkpt lat="45.954316794687564" lon="10.175245361439016"><ele>1556.75</ele><time>2026-04-04T15:51:26Z</time></trkpt><trkpt lat="45.9544218944532" lon="10.175307044865523"><ele>1553.0</ele><time>2026-04-04T15:51:27Z</time></trkpt><trkpt lat="45.954545502109774" lon="10.175348935164088"><ele>1562.4</ele><time>2026-04-04T15:51:28Z</time></trkpt><trkpt lat="45.95466860995278" lon="10.175365390226117"><ele>1571.8000000000002</ele><time>2026-04-04T15:51:29Z</time></trkpt><trkpt lat="45.954764257279884" lon="10.17538519283386"><ele>1581.2</ele><time>2026-04-04T15:51:30Z</time></trkpt><trkpt lat="45.954817980113646" lon="10.17545870643513"><ele>1590.6</ele><time>2026-04-04T15:51:31Z</time></trkpt><trkpt lat="45.95485109332656" lon="10.175563610964488"><ele>1600.0</ele><time>2026-04-04T15:51:32Z</time></trkpt><trkpt lat="45.95489681446132" lon="10.175674808154247"><ele>1603.8</ele><time>2026-04-04T15:51:33Z</time></trkpt><trkpt lat="45.95492356250212" lon="10.175766763472298"><ele>1607.6</ele><time>2026-04-04T15:51:34Z</time></trkpt><trkpt lat="45.95504970090151" lon="10.17588976437736"><ele>1611.4</ele><time>2026-04-04T15:51:36Z</time></trkpt><trkpt lat="45.95513903645154" lon="10.175982599136315"><ele>1615.2</ele><time>2026-04-04T15:51:37Z</time></trkpt><trkpt lat="45.955222223389484" lon="10.176072051547965"><ele>1619.0</ele><time>2026-04-04T15:51:38Z</time></trkpt><trkpt lat="45.95529781494334" lon="10.17618402006821"><ele>1619.0</ele><time>2026-04-04T15:51:39Z</time></trkpt><trkpt lat="45.955364276448464" lon="10.176324288632893"><ele>1619.0</ele><time>2026-04-04T15:51:40Z</time></trkpt><trkpt lat="45.95542687362297" lon="10.176461587686568"><ele>1619.0</ele><time>2026-04-04T15:51:41Z</time></trkpt><trkpt lat="45.955457604498896" lon="10.176619530030832"><ele>1619.0</ele><time>2026-04-04T15:51:42Z</time></trkpt><trkpt lat="45.955499905795655" lon="10.176734691833074"><ele>1619.0</ele><time>2026-04-04T15:51:43Z</time></trkpt><trkpt lat="45.95558578008959" lon="10.176793711878881"><ele>1613.0</ele><time>2026-04-04T15:51:44Z</time></trkpt><trkpt lat="45.955663476102174" lon="10.17689294634088"><ele>1607.0</ele><time>2026-04-04T15:51:45Z</time></trkpt><trkpt lat="45.955717732392614" lon="10.177054142071027"><ele>1601.0</ele><time>2026-04-04T15:51:46Z</time></trkpt><trkpt lat="45.95574484231004" lon="10.177218776545887"><ele>1595.0</ele><time>2026-04-04T15:51:47Z</time></trkpt><trkpt lat="45.955778397514834" lon="10.17732791325278"><ele>1589.0</ele><time>2026-04-04T15:51:48Z</time></trkpt><trkpt lat="45.955838240179574" lon="10.177404522474882"><ele>1591.0</ele><time>2026-04-04T15:51:49Z</time></trkpt><trkpt lat="45.95594015973625" lon="10.177474728653902"><ele>1593.0</ele><time>2026-04-04T15:51:50Z</time></trkpt><trkpt lat="45.956028623465414" lon="10.177557913389192"><ele>1595.0</ele><time>2026-04-04T15:51:51Z</time></trkpt><trkpt lat="45.95608569532313" lon="10.177648584135605"><ele>1597.0</ele><time>2026-04-04T15:51:52Z</time></trkpt><trkpt lat="45.95612760023855" lon="10.177849704596586"><ele>1597.0000000000002</ele><time>2026-04-04T15:51:54Z</time></trkpt><trkpt lat="45.95614858191832" lon="10.177995700812469"><ele>1597.0</ele><time>2026-04-04T15:51:55Z</time></trkpt><trkpt lat="45.956201843755856" lon="10.178116571649097"><ele>1597.0</ele><time>2026-04-04T15:51:56Z</time></trkpt><trkpt lat="45.95620835762739" lon="10.178229663675907"><ele>1597.0</ele><time>2026-04-04T15:51:57Z</time></trkpt><trkpt lat="45.95621657756599" lon="10.178347130067362"><ele>1597.0000000000002</ele><time>2026-04-04T15:51:58Z</time></trkpt><trkpt lat="45.956258476465706" lon="10.178448040179708"><ele>1597.0</ele><time>2026-04-04T15:51:59Z</time></trkpt><trkpt lat="45.95631738139411" lon="10.178574156787256"><ele>1591.6</ele><time>2026-04-04T15:52:00Z</time></trkpt><trkpt lat="45.95639052935214" lon="10.178682563503665"><ele>1586.1999999999998</ele><time>2026-04-04T15:52:02Z</time></trkpt><trkpt lat="45.95649684879883" lon="10.178785526113355"><ele>1580.8</ele><time>2026-04-04T15:52:04Z</time></trkpt><trkpt lat="45.956558942121134" lon="10.178802522029619"><ele>1575.4</ele><time>2026-04-04T15:52:05Z</time></trkpt><trkpt lat="45.95668553825652" lon="10.178844511771084"><ele>1570.0</ele><time>2026-04-04T15:52:07Z</time></trkpt><trkpt lat="45.95676176843893" lon="10.17885768091292"><ele>1570.0000000000002</ele><time>2026-04-04T15:52:08Z</time></trkpt><trkpt lat="45.9568379012187" lon="10.178880450756928"><ele>1570.0</ele><time>2026-04-04T15:52:09Z</time></trkpt><trkpt lat="45.95690416366121" lon="10.178899228429678"><ele>1570.0</ele><time>2026-04-04T15:52:10Z</time></trkpt><trkpt lat="45.95696736712562" lon="10.178917423890455"><ele>1570.0</ele><time>2026-04-04T15:52:11Z</time></trkpt><trkpt lat="45.95706093482766" lon="10.178996311254794"><ele>1570.0000000000002</ele><time>2026-04-04T15:52:13Z</time></trkpt><trkpt lat="45.95712984447647" lon="10.178987086631361"><ele>1570.0</ele><time>2026-04-04T15:52:18Z</time></trkpt><trkpt lat="45.95711262830755" lon="10.178834415278082"><ele>1570.0</ele><time>2026-04-04T15:52:19Z</time></trkpt><trkpt lat="45.957138645325195" lon="10.17871630171353"><ele>1570.0</ele><time>2026-04-04T15:52:21Z</time></trkpt><trkpt lat="45.95723007460331" lon="10.178678503041931"><ele>1570.0</ele><time>2026-04-04T15:52:37Z</time></trkpt><trkpt lat="45.95733212921751" lon="10.178629174477749"><ele>1570.0</ele><time>2026-04-04T15:52:39Z</time></trkpt><trkpt lat="45.95742247177843" lon="10.17855025652624"><ele>1570.0</ele><time>2026-04-04T15:52:41Z</time></trkpt><trkpt lat="45.95749964717934" lon="10.178473280548921"><ele>1569.6666666666667</ele><time>2026-04-04T15:52:43Z</time></trkpt><trkpt lat="45.95754943774619" lon="10.178407348671824"><ele>1569.3333333333335</ele><time>2026-04-04T15:52:45Z</time></trkpt><trkpt lat="45.957619086406226" lon="10.17833429130732"><ele>1569.0</ele><time>2026-04-04T15:52:48Z</time></trkpt><trkpt lat="45.957679497175135" lon="10.1782590651935"><ele>1568.6666666666665</ele><time>2026-04-04T15:52:52Z</time></trkpt><trkpt lat="45.957753117465096" lon="10.178226410460947"><ele>1568.3333333333333</ele><time>2026-04-04T15:52:54Z</time></trkpt><trkpt lat="45.95781095918453" lon="10.178182673132689"><ele>1568.0</ele><time>2026-04-04T15:52:56Z</time></trkpt><trkpt lat="45.957879055526654" lon="10.178131903415354"><ele>1567.9999999999998</ele><time>2026-04-04T15:52:59Z</time></trkpt><trkpt lat="45.95794396667519" lon="10.178087661607654"><ele>1568.0</ele><time>2026-04-04T15:53:03Z</time></trkpt><trkpt lat="45.95800795457709" lon="10.178035933929195"><ele>1568.0</ele><time>2026-04-04T15:53:06Z</time></trkpt><trkpt lat="45.95808205978481" lon="10.17795612905838"><ele>1568.0</ele><time>2026-04-04T15:53:09Z</time></trkpt><trkpt lat="45.95814644236059" lon="10.177915479827435"><ele>1567.9999999999998</ele><time>2026-04-04T15:53:10Z</time></trkpt><trkpt lat="45.958259049997444" lon="10.17780963876475"><ele>1568.0</ele><time>2026-04-04T15:53:12Z</time></trkpt><trkpt lat="45.9583314328656" lon="10.17775029011004"><ele>1566.8333333333333</ele><time>2026-04-04T15:53:13Z</time></trkpt><trkpt lat="45.95839331757627" lon="10.177684541706288"><ele>1565.6666666666665</ele><time>2026-04-04T15:53:15Z</time></trkpt><trkpt lat="45.95847074397794" lon="10.177541821855153"><ele>1564.5</ele><time>2026-04-04T15:53:21Z</time></trkpt><trkpt lat="45.95853757044215" lon="10.177526360007171"><ele>1563.3333333333335</ele><time>2026-04-04T15:53:23Z</time></trkpt><trkpt lat="45.95861957959201" lon="10.177549529922635"><ele>1562.1666666666667</ele><time>2026-04-04T15:53:25Z</time></trkpt><trkpt lat="45.958676035474575" lon="10.177604643637743"><ele>1561.0</ele><time>2026-04-04T15:53:27Z</time></trkpt><trkpt lat="45.95875651382909" lon="10.177634837989826"><ele>1561.0</ele><time>2026-04-04T15:53:31Z</time></trkpt><trkpt lat="45.95883137041168" lon="10.177670409659969"><ele>1561.0</ele><time>2026-04-04T15:53:34Z</time></trkpt><trkpt lat="45.95890160780733" lon="10.177656329471931"><ele>1561.0</ele><time>2026-04-04T15:53:37Z</time></trkpt><trkpt lat="45.95896509460112" lon="10.17762216711733"><ele>1561.0</ele><time>2026-04-04T15:53:40Z</time></trkpt><trkpt lat="45.95902533289698" lon="10.177578747897785"><ele>1561.0</ele><time>2026-04-04T15:53:44Z</time></trkpt><trkpt lat="45.959093047862154" lon="10.177561833963983"><ele>1561.0</ele><time>2026-04-04T15:53:48Z</time></trkpt><trkpt lat="45.95913474814161" lon="10.177633831001428"><ele>1561.0</ele><time>2026-04-04T15:53:54Z</time></trkpt><trkpt lat="45.959157523907855" lon="10.177745823732229"><ele>1561.0000000000002</ele><time>2026-04-04T15:53:59Z</time></trkpt><trkpt lat="45.959178578483595" lon="10.177833051026782"><ele>1561.0</ele><time>2026-04-04T15:54:06Z</time></trkpt><trkpt lat="45.95914838058116" lon="10.177960016363564"><ele>1561.0</ele><time>2026-04-04T15:54:10Z</time></trkpt><trkpt lat="45.95911623196854" lon="10.178050864951116"><ele>1561.0</ele><time>2026-04-04T15:54:12Z</time></trkpt><trkpt lat="45.959093275837276" lon="10.178166947061746"><ele>1561.0000000000002</ele><time>2026-04-04T15:54:14Z</time></trkpt><trkpt lat="45.95908450094284" lon="10.178267188448393"><ele>1561.0</ele><time>2026-04-04T15:54:16Z</time></trkpt><trkpt lat="45.95908319660357" lon="10.178380954883599"><ele>1556.5000000000002</ele><time>2026-04-04T15:54:18Z</time></trkpt><trkpt lat="45.95907364954295" lon="10.178474936832794"><ele>1552.0</ele><time>2026-04-04T15:54:20Z</time></trkpt><trkpt lat="45.95902059144982" lon="10.17858200205142"><ele>1547.5</ele><time>2026-04-04T15:54:23Z</time></trkpt><trkpt lat="45.95899935308508" lon="10.178698040637503"><ele>1543.0</ele><time>2026-04-04T15:54:27Z</time></trkpt><trkpt lat="45.95896979141518" lon="10.178781000531586"><ele>1538.5</ele><time>2026-04-04T15:54:31Z</time></trkpt><trkpt lat="45.95891158746282" lon="10.178873654331893"><ele>1534.0</ele><time>2026-04-04T15:54:36Z</time></trkpt><trkpt lat="45.95890388485538" lon="10.178980967859063"><ele>1529.6</ele><time>2026-04-04T15:54:39Z</time></trkpt><trkpt lat="45.95885509594681" lon="10.179105775559325"><ele>1525.2</ele><time>2026-04-04T15:54:44Z</time></trkpt><trkpt lat="45.9588285561819" lon="10.179199872116843"><ele>1520.8</ele><time>2026-04-04T15:54:47Z</time></trkpt><trkpt lat="45.95878843258193" lon="10.179347866938437"><ele>1516.3999999999999</ele><time>2026-04-04T15:54:49Z</time></trkpt><trkpt lat="45.958786562195996" lon="10.179464304692841"><ele>1512.0</ele><time>2026-04-04T15:54:51Z</time></trkpt><trkpt lat="45.95879676313286" lon="10.179599306740299"><ele>1512.0</ele><time>2026-04-04T15:54:54Z</time></trkpt><trkpt lat="45.958799654840554" lon="10.179717059064215"><ele>1512.0</ele><time>2026-04-04T15:54:58Z</time></trkpt><trkpt lat="45.95880257651414" lon="10.179857851830727"><ele>1512.0</ele><time>2026-04-04T15:55:01Z</time></trkpt><trkpt lat="45.95882600980436" lon="10.18001198535479"><ele>1512.0</ele><time>2026-04-04T15:55:03Z</time></trkpt><trkpt lat="45.958863599608634" lon="10.180141951885203"><ele>1512.0</ele><time>2026-04-04T15:55:05Z</time></trkpt><trkpt lat="45.958873838420914" lon="10.18027945896224"><ele>1508.6666666666667</ele><time>2026-04-04T15:55:07Z</time></trkpt><trkpt lat="45.95890333147266" lon="10.180405189156685"><ele>1505.3333333333333</ele><time>2026-04-04T15:55:09Z</time></trkpt><trkpt lat="45.958937805861765" lon="10.180517195531333"><ele>1502.0</ele><time>2026-04-04T15:55:11Z</time></trkpt><trkpt lat="45.95895845644356" lon="10.180608067569045"><ele>1498.6666666666665</ele><time>2026-04-04T15:55:13Z</time></trkpt><trkpt lat="45.95888270676218" lon="10.180719877197722"><ele>1495.3333333333333</ele><time>2026-04-04T15:55:49.001Z</time></trkpt><trkpt lat="45.958818014009054" lon="10.180719875433374"><ele>1492.0</ele><time>2026-04-04T15:55:53Z</time></trkpt><trkpt lat="45.958730895405296" lon="10.180717977830263"><ele>1492.0</ele><time>2026-04-04T15:55:56Z</time></trkpt><trkpt lat="45.95864195040269" lon="10.180725866848114"><ele>1492.0</ele><time>2026-04-04T15:55:58Z</time></trkpt><trkpt lat="45.95853963315894" lon="10.180678323457892"><ele>1492.0</ele><time>2026-04-04T15:56:00Z</time></trkpt><trkpt lat="45.95844773216055" lon="10.180636835794193"><ele>1492.0</ele><time>2026-04-04T15:56:02Z</time></trkpt><trkpt lat="45.95838025668894" lon="10.18069323052466"><ele>1492.0</ele><time>2026-04-04T15:56:09Z</time></trkpt><trkpt lat="45.958346722711404" lon="10.180799951912862"><ele>1483.25</ele><time>2026-04-04T15:56:11Z</time></trkpt><trkpt lat="45.95824479337624" lon="10.180987535755099"><ele>1474.5</ele><time>2026-04-04T15:56:12Z</time></trkpt><trkpt lat="45.95815571859496" lon="10.18108470911038"><ele>1465.75</ele><time>2026-04-04T15:56:13Z</time></trkpt><trkpt lat="45.958057185875525" lon="10.181238579106823"><ele>1457.0</ele><time>2026-04-04T15:56:14Z</time></trkpt><trkpt lat="45.95796502360123" lon="10.181388734189994"><ele>1450.5</ele><time>2026-04-04T15:56:15Z</time></trkpt><trkpt lat="45.95788814215652" lon="10.181534784741293"><ele>1444.0</ele><time>2026-04-04T15:56:16Z</time></trkpt><trkpt lat="45.9578251365142" lon="10.18168226944942"><ele>1437.5</ele><time>2026-04-04T15:56:17Z</time></trkpt><trkpt lat="45.957784127730044" lon="10.181836417418937"><ele>1431.0</ele><time>2026-04-04T15:56:18Z</time></trkpt><trkpt lat="45.957732372358954" lon="10.181990792038349"><ele>1431.0</ele><time>2026-04-04T15:56:19Z</time></trkpt><trkpt lat="45.95768602555728" lon="10.182139990710157"><ele>1431.0</ele><time>2026-04-04T15:56:20Z</time></trkpt><trkpt lat="45.95765541576856" lon="10.182282496306074"><ele>1431.0</ele><time>2026-04-04T15:56:21Z</time></trkpt><trkpt lat="45.9576253216705" lon="10.182397128436103"><ele>1431.0</ele><time>2026-04-04T15:56:22Z</time></trkpt><trkpt lat="45.95757324307648" lon="10.18251424827827"><ele>1431.0</ele><time>2026-04-04T15:56:23Z</time></trkpt><trkpt lat="45.95752697973039" lon="10.182642700909932"><ele>1432.5</ele><time>2026-04-04T15:56:24Z</time></trkpt><trkpt lat="45.957472032331644" lon="10.182773104090446"><ele>1434.0</ele><time>2026-04-04T15:56:25Z</time></trkpt><trkpt lat="45.95738587152351" lon="10.182873783541272"><ele>1435.5</ele><time>2026-04-04T15:56:26Z</time></trkpt><trkpt lat="45.957206427607616" lon="10.182859242501923"><ele>1437.0</ele><time>2026-04-04T15:56:27Z</time></trkpt><trkpt lat="45.95710003734595" lon="10.182906560781705"><ele>1437.0</ele><time>2026-04-04T15:56:28Z</time></trkpt><trkpt lat="45.957009909046086" lon="10.182955493036264"><ele>1437.0</ele><time>2026-04-04T15:56:29Z</time></trkpt><trkpt lat="45.95687701377499" lon="10.182993987874793"><ele>1437.0</ele><time>2026-04-04T15:56:30Z</time></trkpt><trkpt lat="45.95677176770463" lon="10.183049830656298"><ele>1437.0</ele><time>2026-04-04T15:56:31Z</time></trkpt><trkpt lat="45.956670432124916" lon="10.183124453883684"><ele>1433.3999999999999</ele><time>2026-04-04T15:56:32Z</time></trkpt><trkpt lat="45.956569749106286" lon="10.183190217381158"><ele>1429.8</ele><time>2026-04-04T15:56:33Z</time></trkpt><trkpt lat="45.956480482766516" lon="10.183257526067987"><ele>1426.2</ele><time>2026-04-04T15:56:34Z</time></trkpt><trkpt lat="45.95641290932768" lon="10.18332549128816"><ele>1422.6</ele><time>2026-04-04T15:56:35Z</time></trkpt><trkpt lat="45.956300028152526" lon="10.183279532590868"><ele>1419.0</ele><time>2026-04-04T15:56:37Z</time></trkpt><trkpt lat="45.956231083586495" lon="10.183215961323826"><ele>1423.0</ele><time>2026-04-04T15:56:38Z</time></trkpt><trkpt lat="45.95615814636786" lon="10.18312854884306"><ele>1427.0</ele><time>2026-04-04T15:56:40Z</time></trkpt><trkpt lat="45.9560441742079" lon="10.183046866235115"><ele>1431.0</ele><time>2026-04-04T15:56:42Z</time></trkpt><trkpt lat="45.95594903471986" lon="10.182999538747103"><ele>1435.0</ele><time>2026-04-04T15:56:44Z</time></trkpt><trkpt lat="45.95585262208934" lon="10.182938852630016"><ele>1439.0</ele><time>2026-04-04T15:56:46Z</time></trkpt><trkpt lat="45.95579330427634" lon="10.18288229396235"><ele>1439.0</ele><time>2026-04-04T15:56:47Z</time></trkpt><trkpt lat="45.95572614696277" lon="10.182799204480329"><ele>1439.0</ele><time>2026-04-04T15:56:48Z</time></trkpt><trkpt lat="45.955662542133666" lon="10.18275832488594"><ele>1439.0</ele><time>2026-04-04T15:56:49Z</time></trkpt><trkpt lat="45.955599169584566" lon="10.182772883603628"><ele>1439.0</ele><time>2026-04-04T15:56:50Z</time></trkpt><trkpt lat="45.95554936707188" lon="10.182832398068431"><ele>1439.0</ele><time>2026-04-04T15:56:51Z</time></trkpt><trkpt lat="45.955493936128285" lon="10.1829046321564"><ele>1439.0</ele><time>2026-04-04T15:56:52Z</time></trkpt><trkpt lat="45.95546209971199" lon="10.183040410836742"><ele>1439.0</ele><time>2026-04-04T15:56:53Z</time></trkpt><trkpt lat="45.95539407542966" lon="10.183125563042882"><ele>1439.0</ele><time>2026-04-04T15:56:54Z</time></trkpt><trkpt lat="45.95532377570589" lon="10.183182620010266"><ele>1439.0</ele><time>2026-04-04T15:56:55Z</time></trkpt><trkpt lat="45.95526250542977" lon="10.183291950598798"><ele>1439.0</ele><time>2026-04-04T15:56:56Z</time></trkpt><trkpt lat="45.95517305813512" lon="10.18341126276289"><ele>1439.0</ele><time>2026-04-04T15:56:57Z</time></trkpt><trkpt lat="45.955068493334615" lon="10.183506636094794"><ele>1433.0</ele><time>2026-04-04T15:56:58Z</time></trkpt><trkpt lat="45.95494994554428" lon="10.183605498872705"><ele>1427.0</ele><time>2026-04-04T15:56:59Z</time></trkpt><trkpt lat="45.954842153084186" lon="10.1837026723996"><ele>1421.0</ele><time>2026-04-04T15:57:00Z</time></trkpt><trkpt lat="45.95475021665911" lon="10.183790551105972"><ele>1415.0</ele><time>2026-04-04T15:57:01Z</time></trkpt><trkpt lat="45.95465417332189" lon="10.183870948527886"><ele>1415.0</ele><time>2026-04-04T15:57:02Z</time></trkpt><trkpt lat="45.95458356231867" lon="10.183971341905776"><ele>1415.0</ele><time>2026-04-04T15:57:03Z</time></trkpt><trkpt lat="45.95449929923011" lon="10.184035744703738"><ele>1415.0</ele><time>2026-04-04T15:57:04Z</time></trkpt><trkpt lat="45.95441245387534" lon="10.184054536871571"><ele>1415.0</ele><time>2026-04-04T15:57:05Z</time></trkpt><trkpt lat="45.954336528992805" lon="10.183976172990238"><ele>1415.0</ele><time>2026-04-04T15:57:07Z</time></trkpt><trkpt lat="45.95426219007753" lon="10.184061933515784"><ele>1411.4</ele><time>2026-04-04T15:57:17Z</time></trkpt><trkpt lat="45.95421635992279" lon="10.1842193391792"><ele>1407.8</ele><time>2026-04-04T15:57:20Z</time></trkpt><trkpt lat="45.954143016130416" lon="10.18427766319512"><ele>1404.1999999999998</ele><time>2026-04-04T15:57:23Z</time></trkpt><trkpt lat="45.954092670277525" lon="10.184349367916589"><ele>1400.6</ele><time>2026-04-04T15:57:25Z</time></trkpt><trkpt lat="45.95406844148524" lon="10.18420234676286"><ele>1397.0</ele><time>2026-04-04T15:57:27Z</time></trkpt><trkpt lat="45.954011638072814" lon="10.18426708942562"><ele>1397.0</ele><time>2026-04-04T15:57:28Z</time></trkpt><trkpt lat="45.954030829578215" lon="10.184393674011114"><ele>1397.0</ele><time>2026-04-04T15:57:30Z</time></trkpt><trkpt lat="45.95414870738573" lon="10.184817593808772"><ele>1397.0</ele><time>2026-04-04T15:57:33Z</time></trkpt><trkpt lat="45.954098711253856" lon="10.184873996078538"><ele>1392.6666666666667</ele><time>2026-04-04T15:57:35Z</time></trkpt><trkpt lat="45.954068065277866" lon="10.184955362443002"><ele>1388.3333333333335</ele><time>2026-04-04T15:57:37Z</time></trkpt><trkpt lat="45.95401252566091" lon="10.185056844822087"><ele>1384.0</ele><time>2026-04-04T15:57:39Z</time></trkpt><trkpt lat="45.9539795613803" lon="10.18521866095532"><ele>1379.6666666666667</ele><time>2026-04-04T15:57:41Z</time></trkpt><trkpt lat="45.95396669727734" lon="10.185347453764486"><ele>1375.3333333333333</ele><time>2026-04-04T15:57:42Z</time></trkpt><trkpt lat="45.953938291521744" lon="10.185450658485394"><ele>1371.0</ele><time>2026-04-04T15:57:43Z</time></trkpt><trkpt lat="45.95388508964723" lon="10.185631784552443"><ele>1367.1666666666667</ele><time>2026-04-04T15:57:45Z</time></trkpt><trkpt lat="45.95386242855336" lon="10.18574220410116"><ele>1363.3333333333333</ele><time>2026-04-04T15:57:46Z</time></trkpt><trkpt lat="45.953849804264046" lon="10.185860683640943"><ele>1359.5</ele><time>2026-04-04T15:57:47Z</time></trkpt><trkpt lat="45.9538446631767" lon="10.185963579892261"><ele>1355.6666666666665</ele><time>2026-04-04T15:57:48Z</time></trkpt><trkpt lat="45.95382199395856" lon="10.186087202195424"><ele>1351.8333333333333</ele><time>2026-04-04T15:57:49Z</time></trkpt><trkpt lat="45.953779586415315" lon="10.186192370420102"><ele>1348.0</ele><time>2026-04-04T15:57:50Z</time></trkpt><trkpt lat="45.95372700229489" lon="10.186337705503174"><ele>1348.0</ele><time>2026-04-04T15:57:51Z</time></trkpt><trkpt lat="45.953693540992134" lon="10.186462829596238"><ele>1348.0</ele><time>2026-04-04T15:57:52Z</time></trkpt><trkpt lat="45.953672106397335" lon="10.186622767477285"><ele>1348.0</ele><time>2026-04-04T15:57:53Z</time></trkpt><trkpt lat="45.95365657686565" lon="10.186781379359294"><ele>1348.0</ele><time>2026-04-04T15:57:54Z</time></trkpt><trkpt lat="45.95362647521205" lon="10.186885135919985"><ele>1348.0</ele><time>2026-04-04T15:57:55Z</time></trkpt><trkpt lat="45.953576098168895" lon="10.1869849879188"><ele>1347.3333333333333</ele><time>2026-04-04T15:57:56Z</time></trkpt><trkpt lat="45.953553315754604" lon="10.187086625774878"><ele>1346.6666666666665</ele><time>2026-04-04T15:57:57Z</time></trkpt><trkpt lat="45.95349811839122" lon="10.187185769638884"><ele>1346.0</ele><time>2026-04-04T15:57:58Z</time></trkpt><trkpt lat="45.953422160159164" lon="10.187220014493926"><ele>1345.3333333333333</ele><time>2026-04-04T15:57:59Z</time></trkpt><trkpt lat="45.953356264321016" lon="10.187311905706425"><ele>1344.6666666666667</ele><time>2026-04-04T15:58:00Z</time></trkpt><trkpt lat="45.95331064394186" lon="10.187381235329532"><ele>1344.0</ele><time>2026-04-04T15:58:01Z</time></trkpt><trkpt lat="45.95325612844792" lon="10.187512656697137"><ele>1340.5</ele><time>2026-04-04T15:58:02Z</time></trkpt><trkpt lat="45.95321095928545" lon="10.187617726258368"><ele>1337.0</ele><time>2026-04-04T15:58:04Z</time></trkpt><trkpt lat="45.95315342776839" lon="10.187565612010797"><ele>1333.5</ele><time>2026-04-04T15:58:06Z</time></trkpt><trkpt lat="45.95308175853209" lon="10.187503364012024"><ele>1330.0</ele><time>2026-04-04T15:58:09Z</time></trkpt><trkpt lat="45.95302162930449" lon="10.187464258813478"><ele>1326.5</ele><time>2026-04-04T15:58:13Z</time></trkpt><trkpt lat="45.95291101342342" lon="10.187487470463227"><ele>1323.0</ele><time>2026-04-04T15:58:15Z</time></trkpt><trkpt lat="45.95295263490192" lon="10.187632950913255"><ele>1323.0</ele><time>2026-04-04T15:58:18Z</time></trkpt><trkpt lat="45.95301590078166" lon="10.187727452163704"><ele>1323.0</ele><time>2026-04-04T15:58:20Z</time></trkpt><trkpt lat="45.95305918199102" lon="10.187817566206615"><ele>1323.0</ele><time>2026-04-04T15:58:22Z</time></trkpt><trkpt lat="45.95307984377968" lon="10.187933615836139"><ele>1323.0</ele><time>2026-04-04T15:58:24Z</time></trkpt><trkpt lat="45.95312069496282" lon="10.188027227520797"><ele>1323.0</ele><time>2026-04-04T15:58:26Z</time></trkpt><trkpt lat="45.95317456182844" lon="10.188117233208454"><ele>1323.0</ele><time>2026-04-04T15:58:29Z</time></trkpt><trkpt lat="45.95322763956876" lon="10.18818000968915"><ele>1319.1666666666667</ele><time>2026-04-04T15:58:30Z</time></trkpt><trkpt lat="45.953291572100476" lon="10.188213950087235"><ele>1315.3333333333333</ele><time>2026-04-04T15:58:31Z</time></trkpt><trkpt lat="45.95336033126769" lon="10.188229898582744"><ele>1311.5</ele><time>2026-04-04T15:58:32Z</time></trkpt><trkpt lat="45.95343702253171" lon="10.188215371339517"><ele>1307.6666666666665</ele><time>2026-04-04T15:58:33Z</time></trkpt><trkpt lat="45.95347983098859" lon="10.187996373253474"><ele>1303.8333333333333</ele><time>2026-04-04T15:58:34Z</time></trkpt><trkpt lat="45.95353989199304" lon="10.187965918095584"><ele>1300.0</ele><time>2026-04-04T15:58:35Z</time></trkpt><trkpt lat="45.95365872231936" lon="10.187889648939116"><ele>1299.6</ele><time>2026-04-04T15:58:37Z</time></trkpt><trkpt lat="45.953741692095235" lon="10.187829522507263"><ele>1299.2</ele><time>2026-04-04T15:58:38Z</time></trkpt><trkpt lat="45.953834495762685" lon="10.187757666295798"><ele>1298.8000000000002</ele><time>2026-04-04T15:58:39Z</time></trkpt><trkpt lat="45.95392935434877" lon="10.18768167126785"><ele>1298.4</ele><time>2026-04-04T15:58:40Z</time></trkpt><trkpt lat="45.95401883853847" lon="10.187604902290147"><ele>1298.0</ele><time>2026-04-04T15:58:41Z</time></trkpt><trkpt lat="45.95411850039214" lon="10.187507379107217"><ele>1293.5</ele><time>2026-04-04T15:58:42Z</time></trkpt><trkpt lat="45.95422182370866" lon="10.187404314434612"><ele>1289.0</ele><time>2026-04-04T15:58:43Z</time></trkpt><trkpt lat="45.95432183507544" lon="10.187304731576724"><ele>1284.5</ele><time>2026-04-04T15:58:44Z</time></trkpt><trkpt lat="45.95442612273428" lon="10.187209965740312"><ele>1280.0</ele><time>2026-04-04T15:58:45Z</time></trkpt><trkpt lat="45.95454714658054" lon="10.187110903644818"><ele>1280.0</ele><time>2026-04-04T15:58:46Z</time></trkpt><trkpt lat="45.95467162598365" lon="10.187011011961728"><ele>1280.0</ele><time>2026-04-04T15:58:47Z</time></trkpt><trkpt lat="45.95480592032325" lon="10.18691653792449"><ele>1280.0</ele><time>2026-04-04T15:58:48Z</time></trkpt><trkpt lat="45.95491140694192" lon="10.18686211807732"><ele>1280.0</ele><time>2026-04-04T15:58:49Z</time></trkpt><trkpt lat="45.95501299093499" lon="10.18681263962699"><ele>1276.0</ele><time>2026-04-04T15:58:50Z</time></trkpt><trkpt lat="45.95510486466375" lon="10.186816556013158"><ele>1272.0</ele><time>2026-04-04T15:58:51Z</time></trkpt><trkpt lat="45.95519665027487" lon="10.186849969696528"><ele>1268.0</ele><time>2026-04-04T15:58:52Z</time></trkpt><trkpt lat="45.95526936673826" lon="10.186933451327365"><ele>1264.0</ele><time>2026-04-04T15:58:54Z</time></trkpt><trkpt lat="45.95534251252352" lon="10.186991868230203"><ele>1260.0</ele><time>2026-04-04T15:58:55Z</time></trkpt><trkpt lat="45.955412553023045" lon="10.187069952432577"><ele>1260.0</ele><time>2026-04-04T15:58:56Z</time></trkpt><trkpt lat="45.95546927049227" lon="10.18719261520382"><ele>1260.0</ele><time>2026-04-04T15:58:57Z</time></trkpt><trkpt lat="45.95553545559273" lon="10.187268356476297"><ele>1260.0</ele><time>2026-04-04T15:58:58Z</time></trkpt><trkpt lat="45.955610404308835" lon="10.187325200685338"><ele>1260.0</ele><time>2026-04-04T15:59:00Z</time></trkpt><trkpt lat="45.95566228554579" lon="10.18725993707581"><ele>1260.0</ele><time>2026-04-04T15:59:01Z</time></trkpt><trkpt lat="45.955757289213345" lon="10.187204853538026"><ele>1260.0</ele><time>2026-04-04T15:59:03Z</time></trkpt><trkpt lat="45.955849926071345" lon="10.187166043788192"><ele>1260.0</ele><time>2026-04-04T15:59:05Z</time></trkpt><trkpt lat="45.95598060204774" lon="10.18713809431557"><ele>1260.0</ele><time>2026-04-04T15:59:07Z</time></trkpt><trkpt lat="45.95603312135435" lon="10.187193103709735"><ele>1260.0</ele><time>2026-04-04T15:59:08Z</time></trkpt><trkpt lat="45.95611791425289" lon="10.187316012938114"><ele>1260.0</ele><time>2026-04-04T15:59:10Z</time></trkpt><trkpt lat="45.95611252980811" lon="10.187410772046878"><ele>1260.0</ele><time>2026-04-04T15:59:11Z</time></trkpt><trkpt lat="45.95608320963212" lon="10.18759669190011"><ele>1256.5</ele><time>2026-04-04T15:59:12Z</time></trkpt><trkpt lat="45.956043716593136" lon="10.18781553858556"><ele>1253.0</ele><time>2026-04-04T15:59:13Z</time></trkpt><trkpt lat="45.95599135718481" lon="10.187974814161915"><ele>1249.5</ele><time>2026-04-04T15:59:15Z</time></trkpt><trkpt lat="45.95594296797526" lon="10.188140292172562"><ele>1246.0</ele><time>2026-04-04T15:59:17Z</time></trkpt><trkpt lat="45.955901939944525" lon="10.188278960547432"><ele>1240.0</ele><time>2026-04-04T15:59:18Z</time></trkpt><trkpt lat="45.95586601536199" lon="10.188383683569024"><ele>1234.0</ele><time>2026-04-04T15:59:19Z</time></trkpt><trkpt lat="45.95581242466379" lon="10.188519429926117"><ele>1228.0</ele><time>2026-04-04T15:59:20Z</time></trkpt><trkpt lat="45.9557471687852" lon="10.18863912439432"><ele>1222.0</ele><time>2026-04-04T15:59:21Z</time></trkpt><trkpt lat="45.95568328512088" lon="10.188754709292803"><ele>1216.0</ele><time>2026-04-04T15:59:22Z</time></trkpt><trkpt lat="45.95561364034053" lon="10.188785264995477"><ele>1216.0</ele><time>2026-04-04T15:59:23Z</time></trkpt><trkpt lat="45.95550164140008" lon="10.18887532551411"><ele>1216.0</ele><time>2026-04-04T15:59:25Z</time></trkpt><trkpt lat="45.95531304877138" lon="10.189072662404929"><ele>1216.0</ele><time>2026-04-04T15:59:27Z</time></trkpt><trkpt lat="45.95522916084386" lon="10.189273375544207"><ele>1213.25</ele><time>2026-04-04T15:59:28Z</time></trkpt><trkpt lat="45.95519419522724" lon="10.18940349106598"><ele>1210.5</ele><time>2026-04-04T15:59:29Z</time></trkpt><trkpt lat="45.95517023637807" lon="10.189548563462962"><ele>1207.75</ele><time>2026-04-04T15:59:31Z</time></trkpt><trkpt lat="45.95517379306743" lon="10.189659789767575"><ele>1205.0</ele><time>2026-04-04T15:59:33Z</time></trkpt><trkpt lat="45.955109253324636" lon="10.190041609001579"><ele>1204.3333333333335</ele><time>2026-04-04T15:59:36Z</time></trkpt><trkpt lat="45.9551292292553" lon="10.190159765802608"><ele>1203.6666666666667</ele><time>2026-04-04T15:59:37Z</time></trkpt><trkpt lat="45.95514949495045" lon="10.1902561482613"><ele>1203.0</ele><time>2026-04-04T15:59:38Z</time></trkpt><trkpt lat="45.9551659229826" lon="10.190368575990803"><ele>1202.3333333333333</ele><time>2026-04-04T15:59:39Z</time></trkpt><trkpt lat="45.95517497357476" lon="10.190461203718005"><ele>1201.6666666666665</ele><time>2026-04-04T15:59:40Z</time></trkpt><trkpt lat="45.95514161828386" lon="10.19056394750705"><ele>1201.0</ele><time>2026-04-04T15:59:41Z</time></trkpt><trkpt lat="45.955171267031844" lon="10.190724257200424"><ele>1199.0</ele><time>2026-04-04T15:59:42Z</time></trkpt><trkpt lat="45.9551900032459" lon="10.190837296927674"><ele>1197.0</ele><time>2026-04-04T15:59:43Z</time></trkpt><trkpt lat="45.955178657927306" lon="10.19098792382426"><ele>1195.0</ele><time>2026-04-04T15:59:45Z</time></trkpt><trkpt lat="45.955122889792456" lon="10.191131458270224"><ele>1193.0</ele><time>2026-04-04T15:59:47Z</time></trkpt><trkpt lat="45.95527781716549" lon="10.191291145387522"><ele>1193.0</ele><time>2026-04-04T15:59:49Z</time></trkpt><trkpt lat="45.9552824073967" lon="10.191431217423375"><ele>1193.0</ele><time>2026-04-04T15:59:50Z</time></trkpt><trkpt lat="45.95535030351456" lon="10.19151013531119"><ele>1193.0</ele><time>2026-04-04T15:59:51Z</time></trkpt><trkpt lat="45.95532518383124" lon="10.191608283686687"><ele>1193.0</ele><time>2026-04-04T15:59:53Z</time></trkpt><trkpt lat="45.955235697254544" lon="10.191711950114733"><ele>1193.0</ele><time>2026-04-04T15:59:55Z</time></trkpt><trkpt lat="45.95518265986368" lon="10.1917633251808"><ele>1193.0</ele><time>2026-04-04T15:59:56Z</time></trkpt><trkpt lat="45.95510898035963" lon="10.191757530546134"><ele>1186.7142857142856</ele><time>2026-04-04T15:59:57Z</time></trkpt><trkpt lat="45.955033944165905" lon="10.191751911486561"><ele>1180.4285714285713</ele><time>2026-04-04T15:59:58Z</time></trkpt><trkpt lat="45.95496056951625" lon="10.191769760681115"><ele>1174.142857142857</ele><time>2026-04-04T15:59:59Z</time></trkpt><trkpt lat="45.9548902406778" lon="10.191791764836811"><ele>1167.8571428571427</ele><time>2026-04-04T16:00:00Z</time></trkpt><trkpt lat="45.95482862272164" lon="10.191814723350562"><ele>1161.5714285714284</ele><time>2026-04-04T16:00:01Z</time></trkpt><trkpt lat="45.954770887792215" lon="10.19191142267511"><ele>1155.2857142857142</ele><time>2026-04-04T16:00:03Z</time></trkpt><trkpt lat="45.954737214335516" lon="10.192000364753051"><ele>1149.0</ele><time>2026-04-04T16:01:17Z</time></trkpt><trkpt lat="45.95471888637038" lon="10.1921352186935"><ele>1149.0</ele><time>2026-04-04T16:01:20Z</time></trkpt><trkpt lat="45.95471782573496" lon="10.192228668299057"><ele>1149.0</ele><time>2026-04-04T16:01:22Z</time></trkpt><trkpt lat="45.954736186417605" lon="10.19234559273853"><ele>1149.0</ele><time>2026-04-04T16:01:24Z</time></trkpt><trkpt lat="45.95474630755028" lon="10.192492224861482"><ele>1149.0</ele><time>2026-04-04T16:01:26Z</time></trkpt><trkpt lat="45.954743197486565" lon="10.192643445354555"><ele>1149.0</ele><time>2026-04-04T16:01:28Z</time></trkpt><trkpt lat="45.954686318708724" lon="10.192807447454168"><ele>1149.1666666666667</ele><time>2026-04-04T16:01:30Z</time></trkpt><trkpt lat="45.95466020251731" lon="10.1929128174352"><ele>1149.3333333333333</ele><time>2026-04-04T16:01:31Z</time></trkpt><trkpt lat="45.95464550007611" lon="10.19302238087647"><ele>1149.5</ele><time>2026-04-04T16:01:32Z</time></trkpt><trkpt lat="45.95461567138317" lon="10.193107631376717"><ele>1149.6666666666665</ele><time>2026-04-04T16:01:33Z</time></trkpt><trkpt lat="45.95456746702583" lon="10.19322408363569"><ele>1149.8333333333333</ele><time>2026-04-04T16:01:34Z</time></trkpt><trkpt lat="45.954513249289604" lon="10.193359047427828"><ele>1150.0</ele><time>2026-04-04T16:01:35Z</time></trkpt><trkpt lat="45.95445501153289" lon="10.193478798301156"><ele>1150.0</ele><time>2026-04-04T16:01:36Z</time></trkpt><trkpt lat="45.95439625920762" lon="10.193591282617234"><ele>1150.0</ele><time>2026-04-04T16:01:37Z</time></trkpt><trkpt lat="45.95433597375887" lon="10.193702116080658"><ele>1150.0</ele><time>2026-04-04T16:01:38Z</time></trkpt><trkpt lat="45.95427763093008" lon="10.193805801549088"><ele>1150.0</ele><time>2026-04-04T16:01:39Z</time></trkpt><trkpt lat="45.95421178019346" lon="10.193916413537206"><ele>1150.0</ele><time>2026-04-04T16:01:40Z</time></trkpt><trkpt lat="45.95414445273816" lon="10.194020543198562"><ele>1141.8</ele><time>2026-04-04T16:01:41Z</time></trkpt><trkpt lat="45.954077495310365" lon="10.194115796317947"><ele>1133.6</ele><time>2026-04-04T16:01:42Z</time></trkpt><trkpt lat="45.95400859869856" lon="10.194205206840055"><ele>1125.4</ele><time>2026-04-04T16:01:43Z</time></trkpt><trkpt lat="45.95393411757114" lon="10.194289828245163"><ele>1117.2</ele><time>2026-04-04T16:01:44Z</time></trkpt><trkpt lat="45.95385166931124" lon="10.194382100762022"><ele>1109.0</ele><time>2026-04-04T16:01:45Z</time></trkpt><trkpt lat="45.95377654177521" lon="10.194460678666971"><ele>1109.0</ele><time>2026-04-04T16:01:46Z</time></trkpt><trkpt lat="45.95369792150514" lon="10.194540029275501"><ele>1109.0</ele><time>2026-04-04T16:01:47Z</time></trkpt><trkpt lat="45.953637557878686" lon="10.194594992345529"><ele>1109.0</ele><time>2026-04-04T16:01:48Z</time></trkpt><trkpt lat="45.95354919158636" lon="10.194669508565616"><ele>1109.0</ele><time>2026-04-04T16:01:49Z</time></trkpt><trkpt lat="45.95343975997462" lon="10.19474637831975"><ele>1109.0</ele><time>2026-04-04T16:01:50Z</time></trkpt><trkpt lat="45.95335127487646" lon="10.194811421373652"><ele>1101.8</ele><time>2026-04-04T16:01:51Z</time></trkpt><trkpt lat="45.95327104753541" lon="10.194877311074963"><ele>1094.6000000000001</ele><time>2026-04-04T16:01:52Z</time></trkpt><trkpt lat="45.95318629841935" lon="10.194949645924588"><ele>1087.4</ele><time>2026-04-04T16:01:53Z</time></trkpt><trkpt lat="45.95310642707401" lon="10.195021172800283"><ele>1080.2</ele><time>2026-04-04T16:01:54Z</time></trkpt><trkpt lat="45.953025854515154" lon="10.195099419274221"><ele>1073.0</ele><time>2026-04-04T16:01:55Z</time></trkpt><trkpt lat="45.95295451544488" lon="10.19518271414927"><ele>1073.0</ele><time>2026-04-04T16:01:56Z</time></trkpt><trkpt lat="45.95290637778758" lon="10.195247651546719"><ele>1073.0</ele><time>2026-04-04T16:01:57Z</time></trkpt><trkpt lat="45.95291140594969" lon="10.195392995332462"><ele>1073.0</ele><time>2026-04-04T16:01:58Z</time></trkpt><trkpt lat="45.95291759466276" lon="10.195502455445272"><ele>1073.0</ele><time>2026-04-04T16:01:59Z</time></trkpt><trkpt lat="45.952900143166154" lon="10.19564351109725"><ele>1073.0</ele><time>2026-04-04T16:02:00Z</time></trkpt><trkpt lat="45.95289227500828" lon="10.195755294962455"><ele>1073.0</ele><time>2026-04-04T16:02:01Z</time></trkpt><trkpt lat="45.952883322722805" lon="10.195894055427527"><ele>1073.0</ele><time>2026-04-04T16:02:02Z</time></trkpt><trkpt lat="45.95289316428941" lon="10.196043201184384"><ele>1073.0</ele><time>2026-04-04T16:02:03Z</time></trkpt><trkpt lat="45.95289258663309" lon="10.196211398095992"><ele>1073.0</ele><time>2026-04-04T16:02:04Z</time></trkpt><trkpt lat="45.95289743424081" lon="10.196370563767838"><ele>1073.0</ele><time>2026-04-04T16:02:05Z</time></trkpt><trkpt lat="45.9528621165008" lon="10.196514665253972"><ele>1073.0</ele><time>2026-04-04T16:02:06Z</time></trkpt><trkpt lat="45.952828261872135" lon="10.196630833583294"><ele>1073.4</ele><time>2026-04-04T16:02:07Z</time></trkpt><trkpt lat="45.95277268053674" lon="10.19672332243621"><ele>1073.8</ele><time>2026-04-04T16:02:08Z</time></trkpt><trkpt lat="45.952702381830356" lon="10.196808917198902"><ele>1074.2</ele><time>2026-04-04T16:02:09Z</time></trkpt><trkpt lat="45.95264881676884" lon="10.196917964102118"><ele>1074.6</ele><time>2026-04-04T16:02:10Z</time></trkpt><trkpt lat="45.952607817827136" lon="10.197040855140784"><ele>1075.0</ele><time>2026-04-04T16:02:11Z</time></trkpt><trkpt lat="45.952566126204374" lon="10.197175533003517"><ele>1068.6</ele><time>2026-04-04T16:02:12Z</time></trkpt><trkpt lat="45.95252586723662" lon="10.197310061728043"><ele>1062.2</ele><time>2026-04-04T16:02:13Z</time></trkpt><trkpt lat="45.95247746188319" lon="10.197424000639352"><ele>1055.8</ele><time>2026-04-04T16:02:14Z</time></trkpt><trkpt lat="45.952457398137035" lon="10.197561606050229"><ele>1049.4</ele><time>2026-04-04T16:02:15Z</time></trkpt><trkpt lat="45.95240808406413" lon="10.19766610295952"><ele>1043.0</ele><time>2026-04-04T16:02:16Z</time></trkpt><trkpt lat="45.95236119046227" lon="10.197772761140735"><ele>1043.0</ele><time>2026-04-04T16:02:17Z</time></trkpt><trkpt lat="45.9522061911213" lon="10.197650114148624"><ele>1043.0</ele><time>2026-04-04T16:02:18Z</time></trkpt><trkpt lat="45.95211137621606" lon="10.197672294235788"><ele>1043.0</ele><time>2026-04-04T16:02:19Z</time></trkpt><trkpt lat="45.95201150841645" lon="10.19769823553116"><ele>1043.0</ele><time>2026-04-04T16:02:20Z</time></trkpt><trkpt lat="45.951905652736336" lon="10.197776877231256"><ele>1043.0</ele><time>2026-04-04T16:02:21Z</time></trkpt><trkpt lat="45.951815631696014" lon="10.197911229743278"><ele>1043.0</ele><time>2026-04-04T16:02:22Z</time></trkpt><trkpt lat="45.95173782465285" lon="10.198062845617084"><ele>1043.0</ele><time>2026-04-04T16:02:23Z</time></trkpt><trkpt lat="45.95166073384513" lon="10.198209106986035"><ele>1043.0</ele><time>2026-04-04T16:02:24Z</time></trkpt><trkpt lat="45.95157543245159" lon="10.198347032651334"><ele>1036.75</ele><time>2026-04-04T16:02:25Z</time></trkpt><trkpt lat="45.95147554318578" lon="10.198477731436473"><ele>1030.5</ele><time>2026-04-04T16:02:26Z</time></trkpt><trkpt lat="45.951362889522684" lon="10.198612123947754"><ele>1024.25</ele><time>2026-04-04T16:02:27Z</time></trkpt><trkpt lat="45.95124397699039" lon="10.19874161485521"><ele>1018.0</ele><time>2026-04-04T16:02:28Z</time></trkpt><trkpt lat="45.95111835759396" lon="10.198874913646067"><ele>1014.0</ele><time>2026-04-04T16:02:29Z</time></trkpt><trkpt lat="45.95098073433015" lon="10.199023764937822"><ele>1010.0</ele><time>2026-04-04T16:02:30Z</time></trkpt><trkpt lat="45.95086173997557" lon="10.199150138536432"><ele>1006.0</ele><time>2026-04-04T16:02:31Z</time></trkpt><trkpt lat="45.95074137921039" lon="10.199274863384902"><ele>1001.75</ele><time>2026-04-04T16:02:32Z</time></trkpt><trkpt lat="45.95062355668548" lon="10.19939086924864"><ele>997.5</ele><time>2026-04-04T16:02:33Z</time></trkpt><trkpt lat="45.95051702165917" lon="10.1994813069683"><ele>993.25</ele><time>2026-04-04T16:02:34Z</time></trkpt><trkpt lat="45.95042287172509" lon="10.19954168151272"><ele>989.0</ele><time>2026-04-04T16:02:35Z</time></trkpt><trkpt lat="45.95033798673571" lon="10.199566122387273"><ele>989.0</ele><time>2026-04-04T16:02:36Z</time></trkpt><trkpt lat="45.95026550980937" lon="10.199560306707323"><ele>989.0000000000001</ele><time>2026-04-04T16:02:37Z</time></trkpt><trkpt lat="45.95014168665882" lon="10.199432307434737"><ele>989.0000000000001</ele><time>2026-04-04T16:02:39Z</time></trkpt><trkpt lat="45.950038814369364" lon="10.19934563578223"><ele>989.0</ele><time>2026-04-04T16:02:40Z</time></trkpt><trkpt lat="45.94994955961297" lon="10.199290527309675"><ele>989.0</ele><time>2026-04-04T16:02:41Z</time></trkpt><trkpt lat="45.94984367455672" lon="10.199256637039534"><ele>985.8000000000001</ele><time>2026-04-04T16:02:42Z</time></trkpt><trkpt lat="45.949738631279814" lon="10.199245327096419"><ele>982.6000000000001</ele><time>2026-04-04T16:02:43Z</time></trkpt><trkpt lat="45.949646732137985" lon="10.19925790143551"><ele>979.4</ele><time>2026-04-04T16:02:44Z</time></trkpt><trkpt lat="45.949541565185136" lon="10.199354154749015"><ele>976.2</ele><time>2026-04-04T16:02:45Z</time></trkpt><trkpt lat="45.94946953198555" lon="10.199495104574849"><ele>973.0</ele><time>2026-04-04T16:02:46Z</time></trkpt><trkpt lat="45.94938805629574" lon="10.199622893045161"><ele>973.0</ele><time>2026-04-04T16:02:47Z</time></trkpt><trkpt lat="45.949316573479535" lon="10.199755660417319"><ele>973.0</ele><time>2026-04-04T16:02:48Z</time></trkpt><trkpt lat="45.94923293088698" lon="10.199841731264815"><ele>973.0</ele><time>2026-04-04T16:02:49Z</time></trkpt><trkpt lat="45.94913588605982" lon="10.199913998697351"><ele>973.0</ele><time>2026-04-04T16:02:50Z</time></trkpt><trkpt lat="45.949034027785835" lon="10.199981499378271"><ele>973.0</ele><time>2026-04-04T16:02:51Z</time></trkpt><trkpt lat="45.94892722248171" lon="10.200048669721651"><ele>967.5</ele><time>2026-04-04T16:02:52Z</time></trkpt><trkpt lat="45.94881164622244" lon="10.200119175827687"><ele>962.0</ele><time>2026-04-04T16:02:53Z</time></trkpt><trkpt lat="45.94869802374532" lon="10.200192910061453"><ele>956.5</ele><time>2026-04-04T16:02:54Z</time></trkpt><trkpt lat="45.948586665543075" lon="10.200292639730451"><ele>951.0</ele><time>2026-04-04T16:02:55Z</time></trkpt><trkpt lat="45.94849685956515" lon="10.200449001864483"><ele>951.0</ele><time>2026-04-04T16:02:56Z</time></trkpt><trkpt lat="45.94843631250091" lon="10.200624544733165"><ele>951.0</ele><time>2026-04-04T16:02:57Z</time></trkpt><trkpt lat="45.94836139782098" lon="10.200782262257208"><ele>951.0</ele><time>2026-04-04T16:02:58Z</time></trkpt><trkpt lat="45.9482792680409" lon="10.200931832394016"><ele>951.0</ele><time>2026-04-04T16:02:59Z</time></trkpt><trkpt lat="45.94821458831072" lon="10.201088459855157"><ele>947.1999999999999</ele><time>2026-04-04T16:03:00Z</time></trkpt><trkpt lat="45.94816224573573" lon="10.201227839384405"><ele>943.3999999999999</ele><time>2026-04-04T16:03:01Z</time></trkpt><trkpt lat="45.94813449730898" lon="10.2013680202058"><ele>939.6</ele><time>2026-04-04T16:03:02Z</time></trkpt><trkpt lat="45.94809023769334" lon="10.201492152116517"><ele>935.8</ele><time>2026-04-04T16:03:03Z</time></trkpt><trkpt lat="45.94807462116452" lon="10.201623357308954"><ele>932.0</ele><time>2026-04-04T16:03:04Z</time></trkpt><trkpt lat="45.94810477421223" lon="10.201766117015937"><ele>930.8</ele><time>2026-04-04T16:03:05Z</time></trkpt><trkpt lat="45.948140696566455" lon="10.201900753591566"><ele>929.6</ele><time>2026-04-04T16:03:06Z</time></trkpt><trkpt lat="45.94816340633298" lon="10.202014065884034"><ele>928.3999999999999</ele><time>2026-04-04T16:03:07Z</time></trkpt><trkpt lat="45.948182552561015" lon="10.202109597605725"><ele>927.1999999999999</ele><time>2026-04-04T16:03:08Z</time></trkpt><trkpt lat="45.948188019211024" lon="10.202223269354425"><ele>926.0</ele><time>2026-04-04T16:03:10Z</time></trkpt><trkpt lat="45.948063776294795" lon="10.202257970505203"><ele>924.1999999999999</ele><time>2026-04-04T16:03:11Z</time></trkpt><trkpt lat="45.94799189658856" lon="10.20235436510769"><ele>922.3999999999999</ele><time>2026-04-04T16:03:12Z</time></trkpt><trkpt lat="45.94792476506113" lon="10.202447509358151"><ele>920.6</ele><time>2026-04-04T16:03:13Z</time></trkpt><trkpt lat="45.94785963669483" lon="10.202538173025339"><ele>918.8</ele><time>2026-04-04T16:03:14Z</time></trkpt><trkpt lat="45.94779746640763" lon="10.202622355525985"><ele>917.0</ele><time>2026-04-04T16:03:15Z</time></trkpt><trkpt lat="45.94773067228105" lon="10.20269791520653"><ele>917.0000000000001</ele><time>2026-04-04T16:03:16Z</time></trkpt><trkpt lat="45.947674562848924" lon="10.202746190931562"><ele>917.0</ele><time>2026-04-04T16:03:17Z</time></trkpt><trkpt lat="45.94755798215615" lon="10.202797054752741"><ele>917.0</ele><time>2026-04-04T16:03:19Z</time></trkpt><trkpt lat="45.94752014118201" lon="10.202695381665807"><ele>917.0</ele><time>2026-04-04T16:03:20Z</time></trkpt><trkpt lat="45.9474697054708" lon="10.20263832782161"><ele>917.0000000000001</ele><time>2026-04-04T16:03:21Z</time></trkpt><trkpt lat="45.947425906325904" lon="10.202568311588369"><ele>917.0</ele><time>2026-04-04T16:03:22Z</time></trkpt><trkpt lat="45.947336802146914" lon="10.20244042513332"><ele>916.8571428571429</ele><time>2026-04-04T16:03:24Z</time></trkpt><trkpt lat="45.94729905006906" lon="10.202357497174456"><ele>916.7142857142858</ele><time>2026-04-04T16:03:25Z</time></trkpt><trkpt lat="45.94725427498175" lon="10.20228054883608"><ele>916.5714285714286</ele><time>2026-04-04T16:03:26Z</time></trkpt><trkpt lat="45.947202617934046" lon="10.202199166413845"><ele>916.4285714285714</ele><time>2026-04-04T16:03:27Z</time></trkpt><trkpt lat="45.94715305292103" lon="10.202134678238508"><ele>916.2857142857143</ele><time>2026-04-04T16:03:28Z</time></trkpt><trkpt lat="45.94710690637401" lon="10.202061124005782"><ele>916.1428571428571</ele><time>2026-04-04T16:03:29Z</time></trkpt><trkpt lat="45.94703585697104" lon="10.2020117166931"><ele>916.0</ele><time>2026-04-04T16:03:30Z</time></trkpt><trkpt lat="45.94698744407004" lon="10.201932709770462"><ele>915.9999999999999</ele><time>2026-04-04T16:03:31Z</time></trkpt><trkpt lat="45.94693324378242" lon="10.201862084442558"><ele>916.0</ele><time>2026-04-04T16:03:32Z</time></trkpt><trkpt lat="45.94686726988718" lon="10.20179811446562"><ele>916.0</ele><time>2026-04-04T16:03:33Z</time></trkpt><trkpt lat="45.94679566231356" lon="10.201753190958934"><ele>916.0</ele><time>2026-04-04T16:03:34Z</time></trkpt><trkpt lat="45.94672723148239" lon="10.201680866290513"><ele>915.9999999999999</ele><time>2026-04-04T16:03:35Z</time></trkpt><trkpt lat="45.94667872851682" lon="10.201574850394806"><ele>916.0</ele><time>2026-04-04T16:03:36Z</time></trkpt><trkpt lat="45.94662819119887" lon="10.201479486377332"><ele>913.5999999999999</ele><time>2026-04-04T16:03:37Z</time></trkpt><trkpt lat="45.946575770610806" lon="10.20137821787584"><ele>911.1999999999999</ele><time>2026-04-04T16:03:38Z</time></trkpt><trkpt lat="45.946525675475094" lon="10.201265998436693"><ele>908.8000000000001</ele><time>2026-04-04T16:03:39Z</time></trkpt><trkpt lat="45.94643765107483" lon="10.201172980566112"><ele>906.4000000000001</ele><time>2026-04-04T16:03:40Z</time></trkpt><trkpt lat="45.94637506112041" lon="10.201062659904162"><ele>904.0</ele><time>2026-04-04T16:03:41Z</time></trkpt><trkpt lat="45.94632308032079" lon="10.20095192983605"><ele>903.9999999999999</ele><time>2026-04-04T16:03:42Z</time></trkpt><trkpt lat="45.946280411747466" lon="10.20083198232139"><ele>904.0</ele><time>2026-04-04T16:03:43Z</time></trkpt><trkpt lat="45.94624912712728" lon="10.200714432419602"><ele>904.0</ele><time>2026-04-04T16:03:44Z</time></trkpt><trkpt lat="45.946244540156414" lon="10.20059167462068"><ele>904.0</ele><time>2026-04-04T16:03:45Z</time></trkpt><trkpt lat="45.94625911728775" lon="10.20047378137106"><ele>903.9999999999999</ele><time>2026-04-04T16:03:46Z</time></trkpt><trkpt lat="45.94627898387615" lon="10.20035577259068"><ele>904.0</ele><time>2026-04-04T16:03:47Z</time></trkpt><trkpt lat="45.94628538192605" lon="10.20026439607421"><ele>904.0</ele><time>2026-04-04T16:03:48Z</time></trkpt><trkpt lat="45.946335365753484" lon="10.200187390956835"><ele>904.0000000000001</ele><time>2026-04-04T16:03:50Z</time></trkpt><trkpt lat="45.94634989639017" lon="10.199907971143057"><ele>904.0000000000001</ele><time>2026-04-04T16:04:01Z</time></trkpt><trkpt lat="45.946403483063555" lon="10.199799243623653"><ele>904.0</ele><time>2026-04-04T16:04:02Z</time></trkpt><trkpt lat="45.94643615798493" lon="10.199721826679765"><ele>904.0</ele><time>2026-04-04T16:04:03Z</time></trkpt><trkpt lat="45.94647723229459" lon="10.19959726183121"><ele>903.9999999999999</ele><time>2026-04-04T16:04:05Z</time></trkpt><trkpt lat="45.94654253921721" lon="10.199580622754224"><ele>904.0</ele><time>2026-04-04T16:04:06Z</time></trkpt><trkpt lat="45.94652660009797" lon="10.199423928223473"><ele>904.0</ele><time>2026-04-04T16:04:10Z</time></trkpt><trkpt lat="45.9465269510604" lon="10.19931779627076"><ele>904.0</ele><time>2026-04-04T16:04:11Z</time></trkpt><trkpt lat="45.94648600242125" lon="10.199243745963878"><ele>903.9999999999999</ele><time>2026-04-04T16:04:12Z</time></trkpt><trkpt lat="45.946419922697885" lon="10.199236478210466"><ele>904.0</ele><time>2026-04-04T16:04:13Z</time></trkpt><trkpt lat="45.94633969589771" lon="10.199232934023348"><ele>904.0</ele><time>2026-04-04T16:04:14Z</time></trkpt><trkpt lat="45.94625956279428" lon="10.199352928278957"><ele>904.0000000000001</ele><time>2026-04-04T16:04:15Z</time></trkpt><trkpt lat="45.94627127201098" lon="10.199535246034388"><ele>904.0000000000001</ele><time>2026-04-04T16:04:16Z</time></trkpt><trkpt lat="45.94622072653287" lon="10.199638910966197"><ele>904.0</ele><time>2026-04-04T16:04:17Z</time></trkpt><trkpt lat="45.94615810843098" lon="10.1997344686122"><ele>904.0</ele><time>2026-04-04T16:04:18Z</time></trkpt><trkpt lat="45.94609373665796" lon="10.199831041658644"><ele>903.4000000000001</ele><time>2026-04-04T16:04:19Z</time></trkpt><trkpt lat="45.94599714361605" lon="10.199857243866314"><ele>902.8000000000001</ele><time>2026-04-04T16:04:20Z</time></trkpt><trkpt lat="45.94594072007825" lon="10.199932355444036"><ele>902.1999999999999</ele><time>2026-04-04T16:04:21Z</time></trkpt><trkpt lat="45.94587867697035" lon="10.200014948594431"><ele>901.5999999999999</ele><time>2026-04-04T16:04:22Z</time></trkpt><trkpt lat="45.94580788612533" lon="10.200111325823034"><ele>901.0</ele><time>2026-04-04T16:04:23Z</time></trkpt><trkpt lat="45.945730462611" lon="10.200212590716934"><ele>899.1999999999999</ele><time>2026-04-04T16:04:24Z</time></trkpt><trkpt lat="45.94564977458186" lon="10.200319025058704"><ele>897.3999999999999</ele><time>2026-04-04T16:04:25Z</time></trkpt><trkpt lat="45.94557033140599" lon="10.200423817266284"><ele>895.6</ele><time>2026-04-04T16:04:26Z</time></trkpt><trkpt lat="45.94548748828448" lon="10.200533094319956"><ele>893.8</ele><time>2026-04-04T16:04:27Z</time></trkpt><trkpt lat="45.945410465318645" lon="10.20063469411134"><ele>892.0</ele><time>2026-04-04T16:04:28Z</time></trkpt><trkpt lat="45.94533203207817" lon="10.200738505999862"><ele>892.0</ele><time>2026-04-04T16:04:29Z</time></trkpt><trkpt lat="45.945252113212845" lon="10.20084429339435"><ele>892.0</ele><time>2026-04-04T16:04:30Z</time></trkpt><trkpt lat="45.945180993708725" lon="10.200988592769797"><ele>892.0</ele><time>2026-04-04T16:04:31Z</time></trkpt><trkpt lat="45.94513045396144" lon="10.201118831281049"><ele>892.0</ele><time>2026-04-04T16:04:32Z</time></trkpt><trkpt lat="45.94516668330432" lon="10.201316609684373"><ele>892.0</ele><time>2026-04-04T16:04:33Z</time></trkpt><trkpt lat="45.94517452108884" lon="10.201451628011888"><ele>892.0</ele><time>2026-04-04T16:04:34Z</time></trkpt><trkpt lat="45.9451714501981" lon="10.201577737696335"><ele>892.0</ele><time>2026-04-04T16:04:35Z</time></trkpt><trkpt lat="45.94515036445599" lon="10.201698282943605"><ele>892.0</ele><time>2026-04-04T16:04:36Z</time></trkpt><trkpt lat="45.94510189195453" lon="10.201804531180521"><ele>892.0</ele><time>2026-04-04T16:04:37Z</time></trkpt><trkpt lat="45.94502530060632" lon="10.201906836175517"><ele>887.75</ele><time>2026-04-04T16:04:38Z</time></trkpt><trkpt lat="45.94494138124385" lon="10.202021615435513"><ele>883.5</ele><time>2026-04-04T16:04:39Z</time></trkpt><trkpt lat="45.94486548011048" lon="10.202150068481078"><ele>879.25</ele><time>2026-04-04T16:04:40Z</time></trkpt><trkpt lat="45.94481464000634" lon="10.202317365401388"><ele>875.0</ele><time>2026-04-04T16:04:41Z</time></trkpt><trkpt lat="45.944829639421386" lon="10.20250881729918"><ele>874.5</ele><time>2026-04-04T16:04:42Z</time></trkpt><trkpt lat="45.94483576022677" lon="10.20268598311338"><ele>874.0</ele><time>2026-04-04T16:04:43Z</time></trkpt><trkpt lat="45.944839099348656" lon="10.202861336080279"><ele>873.5</ele><time>2026-04-04T16:04:44Z</time></trkpt><trkpt lat="45.94488944089389" lon="10.203015985689044"><ele>873.0</ele><time>2026-04-04T16:04:45Z</time></trkpt><trkpt lat="45.944942102107575" lon="10.203173597307902"><ele>872.4</ele><time>2026-04-04T16:04:46Z</time></trkpt><trkpt lat="45.94501079547349" lon="10.203308788874835"><ele>871.8</ele><time>2026-04-04T16:04:47Z</time></trkpt><trkpt lat="45.94508625517469" lon="10.2034160245548"><ele>871.2</ele><time>2026-04-04T16:04:48Z</time></trkpt><trkpt lat="45.94515823468628" lon="10.203508323976221"><ele>870.6</ele><time>2026-04-04T16:04:49Z</time></trkpt><trkpt lat="45.945225146018174" lon="10.203599729447763"><ele>870.0</ele><time>2026-04-04T16:04:50Z</time></trkpt><trkpt lat="45.9452875040437" lon="10.203692174196098"><ele>870.8333333333334</ele><time>2026-04-04T16:04:51Z</time></trkpt><trkpt lat="45.945347296389656" lon="10.203780663053537"><ele>871.6666666666667</ele><time>2026-04-04T16:04:52Z</time></trkpt><trkpt lat="45.94540370965189" lon="10.203862433247714"><ele>872.5</ele><time>2026-04-04T16:04:53Z</time></trkpt><trkpt lat="45.94544933611016" lon="10.203931505167642"><ele>873.3333333333334</ele><time>2026-04-04T16:04:54Z</time></trkpt><trkpt lat="45.94551597731938" lon="10.204027274934777"><ele>874.1666666666667</ele><time>2026-04-04T16:04:56Z</time></trkpt><trkpt lat="45.945600548270285" lon="10.204146585974772"><ele>875.0</ele><time>2026-04-04T16:04:58Z</time></trkpt><trkpt lat="45.94564623619091" lon="10.204230566649596"><ele>875.0</ele><time>2026-04-04T16:04:59Z</time></trkpt><trkpt lat="45.94571048387883" lon="10.20432218586267"><ele>875.0</ele><time>2026-04-04T16:05:00Z</time></trkpt><trkpt lat="45.945785955518495" lon="10.204418561557722"><ele>875.0</ele><time>2026-04-04T16:05:01Z</time></trkpt><trkpt lat="45.945863608071015" lon="10.204533436131968"><ele>875.0</ele><time>2026-04-04T16:05:02Z</time></trkpt><trkpt lat="45.94595683653996" lon="10.204651483287114"><ele>875.0</ele><time>2026-04-04T16:05:03Z</time></trkpt><trkpt lat="45.9460593691472" lon="10.204767030560712"><ele>876.25</ele><time>2026-04-04T16:05:04Z</time></trkpt><trkpt lat="45.946156929807024" lon="10.204888146334264"><ele>877.5</ele><time>2026-04-04T16:05:05Z</time></trkpt><trkpt lat="45.94626548244154" lon="10.205001560654246"><ele>878.75</ele><time>2026-04-04T16:05:06Z</time></trkpt><trkpt lat="45.946368701282985" lon="10.20509523824396"><ele>880.0</ele><time>2026-04-04T16:05:07Z</time></trkpt><trkpt lat="45.94645878121353" lon="10.205171180239095"><ele>880.0</ele><time>2026-04-04T16:05:08Z</time></trkpt><trkpt lat="45.94653659713106" lon="10.205245404405561"><ele>880.0</ele><time>2026-04-04T16:05:09Z</time></trkpt><trkpt lat="45.946598305087115" lon="10.205327770707571"><ele>880.0</ele><time>2026-04-04T16:05:10Z</time></trkpt><trkpt lat="45.946639975835076" lon="10.205410719232896"><ele>880.0</ele><time>2026-04-04T16:05:11Z</time></trkpt><trkpt lat="45.946690995313965" lon="10.205546694791774"><ele>880.0</ele><time>2026-04-04T16:05:13Z</time></trkpt><trkpt lat="45.94655683729916" lon="10.205775317008277"><ele>879.5</ele><time>2026-04-04T16:05:15Z</time></trkpt><trkpt lat="45.94653678218729" lon="10.205982869059776"><ele>879.0</ele><time>2026-04-04T16:05:16Z</time></trkpt><trkpt lat="45.946522076794885" lon="10.206123518174573"><ele>878.5</ele><time>2026-04-04T16:05:17Z</time></trkpt><trkpt lat="45.946445251669154" lon="10.206206998317196"><ele>878.0</ele><time>2026-04-04T16:05:18Z</time></trkpt><trkpt lat="45.94637054389604" lon="10.20634588453723"><ele>879.0</ele><time>2026-04-04T16:05:19Z</time></trkpt><trkpt lat="45.94632396122866" lon="10.206499792286492"><ele>880.0</ele><time>2026-04-04T16:05:20Z</time></trkpt><trkpt lat="45.9463260323248" lon="10.20669765714052"><ele>881.0</ele><time>2026-04-04T16:05:21Z</time></trkpt><trkpt lat="45.94631299927242" lon="10.20687435465222"><ele>882.0</ele><time>2026-04-04T16:05:22Z</time></trkpt><trkpt lat="45.94629847141629" lon="10.207071318165513"><ele>882.0</ele><time>2026-04-04T16:05:23Z</time></trkpt><trkpt lat="45.94629644637956" lon="10.20726896517841"><ele>882.0</ele><time>2026-04-04T16:05:24Z</time></trkpt><trkpt lat="45.94634468648151" lon="10.207469863460913"><ele>882.0</ele><time>2026-04-04T16:05:25Z</time></trkpt><trkpt lat="45.946378103617825" lon="10.207659646417454"><ele>882.0</ele><time>2026-04-04T16:05:26Z</time></trkpt><trkpt lat="45.94642576991119" lon="10.207857916125532"><ele>882.0</ele><time>2026-04-04T16:05:27Z</time></trkpt><trkpt lat="45.946485270547505" lon="10.208061733276473"><ele>882.0</ele><time>2026-04-04T16:05:28Z</time></trkpt><trkpt lat="45.94653804676961" lon="10.208248750118061"><ele>882.0</ele><time>2026-04-04T16:05:29Z</time></trkpt><trkpt lat="45.946596288141556" lon="10.208403385983203"><ele>882.0</ele><time>2026-04-04T16:05:30Z</time></trkpt><trkpt lat="45.94667685970285" lon="10.208526150566911"><ele>879.0</ele><time>2026-04-04T16:05:31Z</time></trkpt><trkpt lat="45.94678092073791" lon="10.208592588769793"><ele>876.0</ele><time>2026-04-04T16:05:32Z</time></trkpt><trkpt lat="45.9468915568423" lon="10.208604900655207"><ele>873.0</ele><time>2026-04-04T16:05:33Z</time></trkpt><trkpt lat="45.947000063659104" lon="10.208551154553412"><ele>870.0</ele><time>2026-04-04T16:05:34Z</time></trkpt><trkpt lat="45.947104887475746" lon="10.208459381763097"><ele>870.0</ele><time>2026-04-04T16:05:35Z</time></trkpt><trkpt lat="45.94721301256123" lon="10.208340627478078"><ele>870.0</ele><time>2026-04-04T16:05:36Z</time></trkpt><trkpt lat="45.94733626489934" lon="10.208236011917698"><ele>870.0</ele><time>2026-04-04T16:05:37Z</time></trkpt><trkpt lat="45.94745899447117" lon="10.208116980969667"><ele>870.0</ele><time>2026-04-04T16:05:38Z</time></trkpt><trkpt lat="45.94757164618057" lon="10.207990731541164"><ele>869.3333333333333</ele><time>2026-04-04T16:05:39Z</time></trkpt><trkpt lat="45.94768408068398" lon="10.207813428981167"><ele>868.6666666666666</ele><time>2026-04-04T16:05:40Z</time></trkpt><trkpt lat="45.94777902578879" lon="10.207633197339613"><ele>868.0</ele><time>2026-04-04T16:05:41Z</time></trkpt><trkpt lat="45.94786598432159" lon="10.207455433346741"><ele>869.5</ele><time>2026-04-04T16:05:42Z</time></trkpt><trkpt lat="45.94795609619206" lon="10.207294525686963"><ele>871.0</ele><time>2026-04-04T16:05:43Z</time></trkpt><trkpt lat="45.94805215484876" lon="10.207154964176196"><ele>872.5</ele><time>2026-04-04T16:05:44Z</time></trkpt><trkpt lat="45.9481562987968" lon="10.207028400745784"><ele>874.0</ele><time>2026-04-04T16:05:45Z</time></trkpt><trkpt lat="45.948268984239164" lon="10.206929634861865"><ele>874.6</ele><time>2026-04-04T16:05:46Z</time></trkpt><trkpt lat="45.948382918399545" lon="10.206868095098855"><ele>875.2</ele><time>2026-04-04T16:05:47Z</time></trkpt><trkpt lat="45.948485226079605" lon="10.206842832628379"><ele>875.8000000000001</ele><time>2026-04-04T16:05:48Z</time></trkpt><trkpt lat="45.94858181871762" lon="10.20685225800529"><ele>876.4000000000001</ele><time>2026-04-04T16:05:49Z</time></trkpt><trkpt lat="45.94868151486617" lon="10.206924674354811"><ele>877.0</ele><time>2026-04-04T16:05:50Z</time></trkpt><trkpt lat="45.94874753814697" lon="10.207076530493037"><ele>877.0</ele><time>2026-04-04T16:05:51Z</time></trkpt><trkpt lat="45.94884249289232" lon="10.207213372278964"><ele>877.0</ele><time>2026-04-04T16:05:52Z</time></trkpt><trkpt lat="45.94893620117813" lon="10.207378609015803"><ele>877.0</ele><time>2026-04-04T16:05:53Z</time></trkpt><trkpt lat="45.94902547933915" lon="10.20754954513569"><ele>877.0</ele><time>2026-04-04T16:05:54Z</time></trkpt><trkpt lat="45.949098088024016" lon="10.207724304410805"><ele>876.5</ele><time>2026-04-04T16:05:55Z</time></trkpt><trkpt lat="45.94913108670442" lon="10.207915055218438"><ele>876.0</ele><time>2026-04-04T16:05:56Z</time></trkpt><trkpt lat="45.94916624908573" lon="10.208108107551787"><ele>875.5</ele><time>2026-04-04T16:05:57Z</time></trkpt><trkpt lat="45.949215696797964" lon="10.208320697931207"><ele>875.0</ele><time>2026-04-04T16:05:58Z</time></trkpt><trkpt lat="45.949258846073654" lon="10.20852766434937"><ele>875.0</ele><time>2026-04-04T16:05:59Z</time></trkpt><trkpt lat="45.949265820234956" lon="10.208729209797658"><ele>875.0</ele><time>2026-04-04T16:06:00Z</time></trkpt><trkpt lat="45.949250307845425" lon="10.208911162558934"><ele>875.0</ele><time>2026-04-04T16:06:01Z</time></trkpt><trkpt lat="45.949208542206286" lon="10.20909947801635"><ele>875.0</ele><time>2026-04-04T16:06:02Z</time></trkpt><trkpt lat="45.949160797567004" lon="10.20930043137721"><ele>873.0</ele><time>2026-04-04T16:06:03Z</time></trkpt><trkpt lat="45.949118285088076" lon="10.209479363001206"><ele>871.0</ele><time>2026-04-04T16:06:04Z</time></trkpt><trkpt lat="45.94908475990227" lon="10.209620525744482"><ele>869.0</ele><time>2026-04-04T16:06:05Z</time></trkpt><trkpt lat="45.94905624903979" lon="10.209740681638118"><ele>867.0</ele><time>2026-04-04T16:06:06Z</time></trkpt><trkpt lat="45.9490321341561" lon="10.209842311138912"><ele>865.0</ele><time>2026-04-04T16:06:07Z</time></trkpt><trkpt lat="45.94901079397732" lon="10.209932247785728"><ele>864.9999999999999</ele><time>2026-04-04T16:06:08Z</time></trkpt><trkpt lat="45.948989676540656" lon="10.210021245930179"><ele>865.0</ele><time>2026-04-04T16:06:09Z</time></trkpt><trkpt lat="45.94896814229884" lon="10.21011140914344"><ele>865.0</ele><time>2026-04-04T16:06:10Z</time></trkpt><trkpt lat="45.94901615808624" lon="10.210263308216541"><ele>865.0</ele><time>2026-04-04T16:06:11Z</time></trkpt><trkpt lat="45.94899771898237" lon="10.21039535041101"><ele>864.9999999999999</ele><time>2026-04-04T16:06:12Z</time></trkpt><trkpt lat="45.9489990007724" lon="10.210513726461077"><ele>865.0</ele><time>2026-04-04T16:06:13Z</time></trkpt><trkpt lat="45.94900252268254" lon="10.21061440742289"><ele>865.4</ele><time>2026-04-04T16:06:14Z</time></trkpt><trkpt lat="45.94901678820956" lon="10.21076552248009"><ele>865.8</ele><time>2026-04-04T16:06:16Z</time></trkpt><trkpt lat="45.94901781188624" lon="10.21102068774854"><ele>866.2</ele><time>2026-04-04T16:06:29Z</time></trkpt><trkpt lat="45.94899914152627" lon="10.211117486379893"><ele>866.6</ele><time>2026-04-04T16:06:30Z</time></trkpt><trkpt lat="45.9489721892576" lon="10.21124291930688"><ele>867.0</ele><time>2026-04-04T16:06:31Z</time></trkpt><trkpt lat="45.948937775927206" lon="10.211367104438636"><ele>867.2</ele><time>2026-04-04T16:06:32Z</time></trkpt><trkpt lat="45.94888783428668" lon="10.211501083658042"><ele>867.4000000000001</ele><time>2026-04-04T16:06:33Z</time></trkpt><trkpt lat="45.94886027164561" lon="10.211638671360182"><ele>867.5999999999999</ele><time>2026-04-04T16:06:34Z</time></trkpt><trkpt lat="45.94880764186095" lon="10.211758412967031"><ele>867.8</ele><time>2026-04-04T16:06:35Z</time></trkpt><trkpt lat="45.94876470094474" lon="10.211881175823486"><ele>868.0</ele><time>2026-04-04T16:06:36Z</time></trkpt><trkpt lat="45.94868120805044" lon="10.21196771740743"><ele>868.0</ele><time>2026-04-04T16:06:37Z</time></trkpt><trkpt lat="45.94863663955583" lon="10.21209367303896"><ele>868.0</ele><time>2026-04-04T16:06:38Z</time></trkpt><trkpt lat="45.94859259618653" lon="10.212224759069835"><ele>868.0</ele><time>2026-04-04T16:06:39Z</time></trkpt><trkpt lat="45.948550058180764" lon="10.212356664571768"><ele>868.0</ele><time>2026-04-04T16:06:40Z</time></trkpt><trkpt lat="45.94850700275571" lon="10.21248530786698"><ele>868.0</ele><time>2026-04-04T16:06:41Z</time></trkpt><trkpt lat="45.94846344613525" lon="10.212605755498052"><ele>868.4</ele><time>2026-04-04T16:06:42Z</time></trkpt><trkpt lat="45.94841641672899" lon="10.212720172692505"><ele>868.8</ele><time>2026-04-04T16:06:43Z</time></trkpt><trkpt lat="45.948368630044754" lon="10.21283482086915"><ele>869.2</ele><time>2026-04-04T16:06:44Z</time></trkpt><trkpt lat="45.948330179786" lon="10.212951434197356"><ele>869.6</ele><time>2026-04-04T16:06:45Z</time></trkpt><trkpt lat="45.948298445753466" lon="10.213076964339894"><ele>870.0</ele><time>2026-04-04T16:06:46Z</time></trkpt><trkpt lat="45.94827913836746" lon="10.213211947383352"><ele>867.2</ele><time>2026-04-04T16:06:47Z</time></trkpt><trkpt lat="45.948270839824296" lon="10.213348688029118"><ele>864.4</ele><time>2026-04-04T16:06:48Z</time></trkpt><trkpt lat="45.948261002419855" lon="10.213475884808176"><ele>861.5999999999999</ele><time>2026-04-04T16:06:49Z</time></trkpt><trkpt lat="45.94824414969483" lon="10.213602719357315"><ele>858.8</ele><time>2026-04-04T16:06:50Z</time></trkpt><trkpt lat="45.94822639113058" lon="10.213732878787429"><ele>856.0</ele><time>2026-04-04T16:06:51Z</time></trkpt><trkpt lat="45.94824099962536" lon="10.213872246629986"><ele>856.4999999999999</ele><time>2026-04-04T16:06:52Z</time></trkpt><trkpt lat="45.948244498155965" lon="10.21400359912755"><ele>857.0</ele><time>2026-04-04T16:06:53Z</time></trkpt><trkpt lat="45.94826136428843" lon="10.214113432648228"><ele>857.5</ele><time>2026-04-04T16:06:54Z</time></trkpt><trkpt lat="45.94825840536545" lon="10.21421586272091"><ele>858.0</ele><time>2026-04-04T16:06:55Z</time></trkpt><trkpt lat="45.94826643342008" lon="10.214307565988303"><ele>858.4999999999999</ele><time>2026-04-04T16:06:56Z</time></trkpt><trkpt lat="45.94829749357988" lon="10.214459905221593"><ele>859.0</ele><time>2026-04-04T16:06:58Z</time></trkpt><trkpt lat="45.94833502887798" lon="10.214577572265814"><ele>861.9999999999999</ele><time>2026-04-04T16:07:00Z</time></trkpt><trkpt lat="45.9483783080285" lon="10.214699533532837"><ele>865.0</ele><time>2026-04-04T16:07:02Z</time></trkpt><trkpt lat="45.948448384901596" lon="10.21481881966002"><ele>868.0</ele><time>2026-04-04T16:07:04Z</time></trkpt><trkpt lat="45.94849347322547" lon="10.214886218386901"><ele>871.0</ele><time>2026-04-04T16:07:05Z</time></trkpt><trkpt lat="45.94854667938806" lon="10.214957738160965"><ele>873.9999999999999</ele><time>2026-04-04T16:07:06Z</time></trkpt><trkpt lat="45.948606768868764" lon="10.215033427583071"><ele>877.0</ele><time>2026-04-04T16:07:07Z</time></trkpt><trkpt lat="45.94864236619813" lon="10.215147048964575"><ele>876.9999999999999</ele><time>2026-04-04T16:07:08Z</time></trkpt><trkpt lat="45.94868870775952" lon="10.215253697279035"><ele>877.0</ele><time>2026-04-04T16:07:09Z</time></trkpt><trkpt lat="45.948741819961256" lon="10.215371189474753"><ele>877.0</ele><time>2026-04-04T16:07:10Z</time></trkpt><trkpt lat="45.94880377189566" lon="10.21546124121952"><ele>877.0</ele><time>2026-04-04T16:07:11Z</time></trkpt><trkpt lat="45.94884514032625" lon="10.215550646174167"><ele>876.9999999999999</ele><time>2026-04-04T16:07:12Z</time></trkpt><trkpt lat="45.94888801427272" lon="10.215631649568696"><ele>877.0</ele><time>2026-04-04T16:07:13Z</time></trkpt><trkpt lat="45.94893377370651" lon="10.215709138769675"><ele>878.0</ele><time>2026-04-04T16:07:14Z</time></trkpt><trkpt lat="45.9490013983629" lon="10.21576970298395"><ele>879.0</ele><time>2026-04-04T16:07:15Z</time></trkpt><trkpt lat="45.94907303849255" lon="10.215824781955385"><ele>880.0</ele><time>2026-04-04T16:07:16Z</time></trkpt><trkpt lat="45.94915115176794" lon="10.21591590142345"><ele>881.0</ele><time>2026-04-04T16:07:17Z</time></trkpt><trkpt lat="45.94925620748363" lon="10.216008541024033"><ele>882.0</ele><time>2026-04-04T16:07:18Z</time></trkpt><trkpt lat="45.94935843274765" lon="10.216090003973674"><ele>882.0</ele><time>2026-04-04T16:07:19Z</time></trkpt><trkpt lat="45.94943260260619" lon="10.216156520248024"><ele>882.0</ele><time>2026-04-04T16:07:20Z</time></trkpt><trkpt lat="45.949536334178156" lon="10.21627470075041"><ele>882.0</ele><time>2026-04-04T16:07:22Z</time></trkpt><trkpt lat="45.949618346034164" lon="10.216374632095102"><ele>882.0</ele><time>2026-04-04T16:07:23Z</time></trkpt><trkpt lat="45.94968763884225" lon="10.216433123852324"><ele>882.0</ele><time>2026-04-04T16:07:24Z</time></trkpt><trkpt lat="45.94981611201006" lon="10.216471989840663"><ele>881.2</ele><time>2026-04-04T16:07:26Z</time></trkpt><trkpt lat="45.94990461720076" lon="10.216504224140223"><ele>880.4000000000001</ele><time>2026-04-04T16:07:27Z</time></trkpt><trkpt lat="45.94998717158878" lon="10.216528455570735"><ele>879.5999999999999</ele><time>2026-04-04T16:07:28Z</time></trkpt><trkpt lat="45.95005646050714" lon="10.216575128202768"><ele>878.8</ele><time>2026-04-04T16:07:29Z</time></trkpt><trkpt lat="45.95014389591039" lon="10.216606825797378"><ele>878.0</ele><time>2026-04-04T16:07:30Z</time></trkpt><trkpt lat="45.95027534352938" lon="10.216597340091331"><ele>878.0000000000001</ele><time>2026-04-04T16:07:32Z</time></trkpt><trkpt lat="45.95035605767782" lon="10.216599444887983"><ele>878.0</ele><time>2026-04-04T16:07:33Z</time></trkpt><trkpt lat="45.9504364582858" lon="10.21662514749009"><ele>878.0</ele><time>2026-04-04T16:07:34Z</time></trkpt><trkpt lat="45.950512155414636" lon="10.216621428130496"><ele>878.0</ele><time>2026-04-04T16:07:35Z</time></trkpt><trkpt lat="45.95058922569884" lon="10.216642013062378"><ele>878.0000000000001</ele><time>2026-04-04T16:07:36Z</time></trkpt><trkpt lat="45.95066326391367" lon="10.216706857311944"><ele>878.0</ele><time>2026-04-04T16:07:38Z</time></trkpt><trkpt lat="45.950685963097115" lon="10.216794782439955"><ele>878.0</ele><time>2026-04-04T16:07:40Z</time></trkpt><trkpt lat="45.95061196480689" lon="10.216858898526583"><ele>878.0</ele><time>2026-04-04T16:07:42Z</time></trkpt><trkpt lat="45.95053504188775" lon="10.216909312081416"><ele>878.0</ele><time>2026-04-04T16:07:43Z</time></trkpt><trkpt lat="45.950385502706446" lon="10.216827802497267"><ele>878.0</ele><time>2026-04-04T16:07:45Z</time></trkpt><trkpt lat="45.950320600440186" lon="10.216865612172903"><ele>878.0</ele><time>2026-04-04T16:07:46Z</time></trkpt><trkpt lat="45.9502043467099" lon="10.216933380473662"><ele>878.0000000000001</ele><time>2026-04-04T16:07:48Z</time></trkpt><trkpt lat="45.9501431707956" lon="10.216982403218482"><ele>878.0</ele><time>2026-04-04T16:07:49Z</time></trkpt><trkpt lat="45.95007857051168" lon="10.21701744934092"><ele>878.0</ele><time>2026-04-04T16:07:50Z</time></trkpt><trkpt lat="45.95000919747533" lon="10.217059992325872"><ele>878.0</ele><time>2026-04-04T16:07:51Z</time></trkpt><trkpt lat="45.949936638802534" lon="10.217094973041608"><ele>878.0000000000001</ele><time>2026-04-04T16:07:52Z</time></trkpt><trkpt lat="45.94986842500298" lon="10.217117624436428"><ele>878.0</ele><time>2026-04-04T16:07:53Z</time></trkpt><trkpt lat="45.949757646846514" lon="10.217174478796856"><ele>877.5000000000001</ele><time>2026-04-04T16:07:55Z</time></trkpt><trkpt lat="45.94968365846059" lon="10.217222270024783"><ele>877.0</ele><time>2026-04-04T16:07:56Z</time></trkpt><trkpt lat="45.94960713539031" lon="10.217264616795568"><ele>876.5</ele><time>2026-04-04T16:07:57Z</time></trkpt><trkpt lat="45.94952850083396" lon="10.217312510169286"><ele>876.0</ele><time>2026-04-04T16:07:58Z</time></trkpt><trkpt lat="45.94944681104616" lon="10.217338187265986"><ele>875.5000000000001</ele><time>2026-04-04T16:07:59Z</time></trkpt><trkpt lat="45.94936091253366" lon="10.217382394938747"><ele>875.0</ele><time>2026-04-04T16:08:00Z</time></trkpt><trkpt lat="45.949268546191504" lon="10.217424099137055"><ele>874.0</ele><time>2026-04-04T16:08:01Z</time></trkpt><trkpt lat="45.94917452163131" lon="10.217466968620723"><ele>873.0</ele><time>2026-04-04T16:08:02Z</time></trkpt><trkpt lat="45.94909117959299" lon="10.217506907125426"><ele>872.0</ele><time>2026-04-04T16:08:03Z</time></trkpt><trkpt lat="45.9489835519125" lon="10.217552215953546"><ele>871.0</ele><time>2026-04-04T16:08:04Z</time></trkpt><trkpt lat="45.948858766797336" lon="10.217571973152658"><ele>870.0</ele><time>2026-04-04T16:08:05Z</time></trkpt><trkpt lat="45.94874575156418" lon="10.217606187139012"><ele>870.0</ele><time>2026-04-04T16:08:06Z</time></trkpt><trkpt lat="45.948667270723654" lon="10.217642354496824"><ele>870.0</ele><time>2026-04-04T16:08:07Z</time></trkpt><trkpt lat="45.94860543607645" lon="10.21770430704374"><ele>870.0</ele><time>2026-04-04T16:08:08Z</time></trkpt><trkpt lat="45.9485362841674" lon="10.217758774677213"><ele>870.0</ele><time>2026-04-04T16:08:09Z</time></trkpt><trkpt lat="45.94848128506639" lon="10.217866898043797"><ele>870.0</ele><time>2026-04-04T16:08:10Z</time></trkpt><trkpt lat="45.94840980523407" lon="10.218001254510213"><ele>870.0</ele><time>2026-04-04T16:08:11Z</time></trkpt><trkpt lat="45.94835704153767" lon="10.21814560942005"><ele>873.0</ele><time>2026-04-04T16:08:12Z</time></trkpt><trkpt lat="45.948319324647635" lon="10.218228587292563"><ele>876.0</ele><time>2026-04-04T16:08:13Z</time></trkpt><trkpt lat="45.948200860914206" lon="10.218353884298136"><ele>879.0</ele><time>2026-04-04T16:08:15Z</time></trkpt><trkpt lat="45.94812440170671" lon="10.218387844256586"><ele>882.0</ele><time>2026-04-04T16:08:16Z</time></trkpt><trkpt lat="45.94806367496716" lon="10.218173617068931"><ele>882.0</ele><time>2026-04-04T16:08:21Z</time></trkpt><trkpt lat="45.94802124084779" lon="10.218101482068638"><ele>882.0</ele><time>2026-04-04T16:08:22Z</time></trkpt><trkpt lat="45.9479050953809" lon="10.218063068813269"><ele>882.0</ele><time>2026-04-04T16:08:24Z</time></trkpt><trkpt lat="45.94784823456398" lon="10.218278006068136"><ele>882.0</ele><time>2026-04-04T16:08:25Z</time></trkpt><trkpt lat="45.9478320547505" lon="10.218412728901512"><ele>882.0</ele><time>2026-04-04T16:08:27Z</time></trkpt><trkpt lat="45.94782810499493" lon="10.218577602670033"><ele>882.0</ele><time>2026-04-04T16:08:29Z</time></trkpt><trkpt lat="45.947767823108066" lon="10.218718670905615"><ele>882.0</ele><time>2026-04-04T16:08:31Z</time></trkpt><trkpt lat="45.947744282627866" lon="10.21882920733767"><ele>882.0</ele><time>2026-04-04T16:08:32Z</time></trkpt><trkpt lat="45.94773011811211" lon="10.218922523549455"><ele>882.0</ele><time>2026-04-04T16:08:33Z</time></trkpt><trkpt lat="45.94771758357397" lon="10.219020636483485"><ele>882.0</ele><time>2026-04-04T16:08:34Z</time></trkpt><trkpt lat="45.94770080464053" lon="10.219160495301082"><ele>882.0</ele><time>2026-04-04T16:08:35Z</time></trkpt><trkpt lat="45.947687803649146" lon="10.219316627640191"><ele>885.25</ele><time>2026-04-04T16:08:36Z</time></trkpt><trkpt lat="45.947675477631435" lon="10.219490033641026"><ele>888.5</ele><time>2026-04-04T16:08:37Z</time></trkpt><trkpt lat="45.94766184629465" lon="10.219665174062492"><ele>891.75</ele><time>2026-04-04T16:08:38Z</time></trkpt><trkpt lat="45.947646931627375" lon="10.21984918806134"><ele>895.0</ele><time>2026-04-04T16:08:39Z</time></trkpt><trkpt lat="45.94763167099243" lon="10.220025962211501"><ele>896.4</ele><time>2026-04-04T16:08:40Z</time></trkpt><trkpt lat="45.94761360929911" lon="10.220196864310413"><ele>897.8</ele><time>2026-04-04T16:08:41Z</time></trkpt><trkpt lat="45.947600665300065" lon="10.22034329282649"><ele>899.2</ele><time>2026-04-04T16:08:42Z</time></trkpt><trkpt lat="45.94759180487345" lon="10.22050053802609"><ele>900.6</ele><time>2026-04-04T16:08:43Z</time></trkpt><trkpt lat="45.94758369915259" lon="10.220666126335306"><ele>902.0</ele><time>2026-04-04T16:08:44Z</time></trkpt><trkpt lat="45.94759237570312" lon="10.22083328606868"><ele>902.1666666666667</ele><time>2026-04-04T16:08:45Z</time></trkpt><trkpt lat="45.94758752721256" lon="10.220974522945367"><ele>902.3333333333334</ele><time>2026-04-04T16:08:46Z</time></trkpt><trkpt lat="45.94756586552288" lon="10.22109090231875"><ele>902.5</ele><time>2026-04-04T16:08:47Z</time></trkpt><trkpt lat="45.94754733100614" lon="10.221192250257426"><ele>902.6666666666667</ele><time>2026-04-04T16:08:48Z</time></trkpt><trkpt lat="45.94752252629806" lon="10.221307812922257"><ele>902.8333333333334</ele><time>2026-04-04T16:08:49Z</time></trkpt><trkpt lat="45.94749369857918" lon="10.22140476238667"><ele>903.0</ele><time>2026-04-04T16:08:50Z</time></trkpt><trkpt lat="45.9474525661317" lon="10.221513335036285"><ele>898.4</ele><time>2026-04-04T16:08:51Z</time></trkpt><trkpt lat="45.947415074307834" lon="10.221645161607944"><ele>893.8</ele><time>2026-04-04T16:08:52Z</time></trkpt><trkpt lat="45.94737222011284" lon="10.221777401447566"><ele>889.2</ele><time>2026-04-04T16:08:53Z</time></trkpt><trkpt lat="45.94732014424256" lon="10.221892635223918"><ele>884.6</ele><time>2026-04-04T16:08:54Z</time></trkpt><trkpt lat="45.94726531058513" lon="10.221976518814488"><ele>880.0</ele><time>2026-04-04T16:08:55Z</time></trkpt><trkpt lat="45.94721275235395" lon="10.222062576947378"><ele>879.9999999999999</ele><time>2026-04-04T16:08:56Z</time></trkpt><trkpt lat="45.94717156359478" lon="10.222136146499123"><ele>880.0</ele><time>2026-04-04T16:08:57Z</time></trkpt><trkpt lat="45.947144799602846" lon="10.222237345243272"><ele>880.0</ele><time>2026-04-04T16:08:58Z</time></trkpt><trkpt lat="45.94714779572779" lon="10.222340488085097"><ele>880.0</ele><time>2026-04-04T16:08:59Z</time></trkpt><trkpt lat="45.9471213980199" lon="10.22243547332692"><ele>879.9999999999999</ele><time>2026-04-04T16:09:00Z</time></trkpt><trkpt lat="45.9470738030819" lon="10.22252618840892"><ele>880.0</ele><time>2026-04-04T16:09:01Z</time></trkpt><trkpt lat="45.94699835469804" lon="10.222598570577581"><ele>881.0</ele><time>2026-04-04T16:09:02Z</time></trkpt><trkpt lat="45.946952982316816" lon="10.22267949351656"><ele>882.0</ele><time>2026-04-04T16:09:03Z</time></trkpt><trkpt lat="45.946898877365896" lon="10.22278735891681"><ele>883.0</ele><time>2026-04-04T16:09:04Z</time></trkpt><trkpt lat="45.94684310541614" lon="10.222899543450282"><ele>884.0</ele><time>2026-04-04T16:09:05Z</time></trkpt><trkpt lat="45.946782498639976" lon="10.22302145339666"><ele>885.0</ele><time>2026-04-04T16:09:06Z</time></trkpt><trkpt lat="45.94672048102478" lon="10.223142828408125"><ele>882.6</ele><time>2026-04-04T16:09:07Z</time></trkpt><trkpt lat="45.946650445531844" lon="10.223273467353517"><ele>880.2</ele><time>2026-04-04T16:09:08Z</time></trkpt><trkpt lat="45.946605490821945" lon="10.223390911115848"><ele>877.8</ele><time>2026-04-04T16:09:09Z</time></trkpt><trkpt lat="45.94652983346368" lon="10.223500558741842"><ele>875.4</ele><time>2026-04-04T16:09:10Z</time></trkpt><trkpt lat="45.94648442028176" lon="10.223627690869014"><ele>873.0</ele><time>2026-04-04T16:09:11Z</time></trkpt><trkpt lat="45.9464364077822" lon="10.22376601647473"><ele>873.0</ele><time>2026-04-04T16:09:12Z</time></trkpt><trkpt lat="45.94638892590487" lon="10.223909468355265"><ele>873.0</ele><time>2026-04-04T16:09:13Z</time></trkpt><trkpt lat="45.94633518471127" lon="10.22408345955153"><ele>873.0</ele><time>2026-04-04T16:09:14Z</time></trkpt><trkpt lat="45.94630694975198" lon="10.224233388899584"><ele>873.0</ele><time>2026-04-04T16:09:15Z</time></trkpt><trkpt lat="45.94627041771998" lon="10.224398850861721"><ele>874.5</ele><time>2026-04-04T16:09:16Z</time></trkpt><trkpt lat="45.94624548435168" lon="10.224577215795117"><ele>876.0</ele><time>2026-04-04T16:09:17Z</time></trkpt><trkpt lat="45.94622366985083" lon="10.224745830301886"><ele>877.5</ele><time>2026-04-04T16:09:18Z</time></trkpt><trkpt lat="45.94619734638912" lon="10.224909272499497"><ele>879.0</ele><time>2026-04-04T16:09:19Z</time></trkpt><trkpt lat="45.946170944590456" lon="10.225073201155856"><ele>880.0</ele><time>2026-04-04T16:09:20Z</time></trkpt><trkpt lat="45.946145904841124" lon="10.225231647858338"><ele>881.0000000000001</ele><time>2026-04-04T16:09:21Z</time></trkpt><trkpt lat="45.94612255708632" lon="10.225385722306838"><ele>882.0000000000001</ele><time>2026-04-04T16:09:22Z</time></trkpt><trkpt lat="45.94610160342282" lon="10.225539444995611"><ele>883.0</ele><time>2026-04-04T16:09:23Z</time></trkpt><trkpt lat="45.9460854227643" lon="10.225695105780266"><ele>884.0</ele><time>2026-04-04T16:09:24Z</time></trkpt><trkpt lat="45.94606930245106" lon="10.225839320717911"><ele>885.2</ele><time>2026-04-04T16:09:25Z</time></trkpt><trkpt lat="45.94605449309684" lon="10.22597864857207"><ele>886.4000000000001</ele><time>2026-04-04T16:09:26Z</time></trkpt><trkpt lat="45.94606601751431" lon="10.226103656477727"><ele>887.6</ele><time>2026-04-04T16:09:27Z</time></trkpt><trkpt lat="45.94608027055853" lon="10.22622656408812"><ele>888.8</ele><time>2026-04-04T16:09:28Z</time></trkpt><trkpt lat="45.946125390637235" lon="10.22635408946257"><ele>890.0</ele><time>2026-04-04T16:09:29Z</time></trkpt><trkpt lat="45.94616515420201" lon="10.22647430707489"><ele>889.5000000000001</ele><time>2026-04-04T16:09:30Z</time></trkpt><trkpt lat="45.94619767383601" lon="10.226602152781377"><ele>889.0</ele><time>2026-04-04T16:09:31Z</time></trkpt><trkpt lat="45.94622946785211" lon="10.226720073353645"><ele>888.5</ele><time>2026-04-04T16:09:32Z</time></trkpt><trkpt lat="45.946256560241984" lon="10.22684158176557"><ele>888.0</ele><time>2026-04-04T16:09:33Z</time></trkpt><trkpt lat="45.9462859290705" lon="10.226957976748272"><ele>887.5000000000001</ele><time>2026-04-04T16:09:34Z</time></trkpt><trkpt lat="45.946312080362915" lon="10.22707375416297"><ele>887.0</ele><time>2026-04-04T16:09:35Z</time></trkpt><trkpt lat="45.94633710952175" lon="10.227193990004759"><ele>886.5000000000001</ele><time>2026-04-04T16:09:36Z</time></trkpt><trkpt lat="45.94636267843084" lon="10.227320608364884"><ele>886.0</ele><time>2026-04-04T16:09:37Z</time></trkpt><trkpt lat="45.94637888288908" lon="10.227447614990774"><ele>885.5</ele><time>2026-04-04T16:09:38Z</time></trkpt><trkpt lat="45.94640716663668" lon="10.22755989218808"><ele>885.0</ele><time>2026-04-04T16:09:39Z</time></trkpt><trkpt lat="45.94644101441276" lon="10.227660712889579"><ele>884.5000000000001</ele><time>2026-04-04T16:09:40Z</time></trkpt><trkpt lat="45.9464891417222" lon="10.22775537088277"><ele>884.0</ele><time>2026-04-04T16:09:41Z</time></trkpt><trkpt lat="45.94652908515134" lon="10.22784353400467"><ele>884.0</ele><time>2026-04-04T16:09:42Z</time></trkpt><trkpt lat="45.946554132091556" lon="10.227954735692254"><ele>884.0000000000001</ele><time>2026-04-04T16:09:43Z</time></trkpt><trkpt lat="45.946551305569486" lon="10.228060593750795"><ele>884.0000000000001</ele><time>2026-04-04T16:09:44Z</time></trkpt><trkpt lat="45.94655688284005" lon="10.228241384875188"><ele>884.0</ele><time>2026-04-04T16:09:46Z</time></trkpt><trkpt lat="45.946558816221454" lon="10.22837547878104"><ele>884.0</ele><time>2026-04-04T16:09:48Z</time></trkpt><trkpt lat="45.94657497866319" lon="10.228488296136241"><ele>883.4000000000001</ele><time>2026-04-04T16:09:54Z</time></trkpt><trkpt lat="45.94656162417445" lon="10.22865095647951"><ele>882.8000000000001</ele><time>2026-04-04T16:09:56Z</time></trkpt><trkpt lat="45.94666853975614" lon="10.228763643398947"><ele>882.1999999999999</ele><time>2026-04-04T16:09:57Z</time></trkpt><trkpt lat="45.94667574509261" lon="10.228896497627197"><ele>881.5999999999999</ele><time>2026-04-04T16:09:58Z</time></trkpt><trkpt lat="45.946684730733615" lon="10.229012592251273"><ele>881.0</ele><time>2026-04-04T16:09:59Z</time></trkpt><trkpt lat="45.946675775071995" lon="10.22918162547062"><ele>880.8333333333334</ele><time>2026-04-04T16:10:01Z</time></trkpt><trkpt lat="45.946667302490994" lon="10.229294330940514"><ele>880.6666666666667</ele><time>2026-04-04T16:10:04Z</time></trkpt><trkpt lat="45.94665713298651" lon="10.229436163319246"><ele>880.5</ele><time>2026-04-04T16:10:06Z</time></trkpt><trkpt lat="45.94665634867572" lon="10.22956212838999"><ele>880.3333333333333</ele><time>2026-04-04T16:10:07Z</time></trkpt><trkpt lat="45.946642649449" lon="10.229692843552089"><ele>880.1666666666666</ele><time>2026-04-04T16:10:08Z</time></trkpt><trkpt lat="45.94662155514359" lon="10.229805615100886"><ele>880.0</ele><time>2026-04-04T16:10:09Z</time></trkpt><trkpt lat="45.94659896737897" lon="10.229906414060492"><ele>880.0</ele><time>2026-04-04T16:10:10Z</time></trkpt><trkpt lat="45.94656606232757" lon="10.230028647152425"><ele>880.0</ele><time>2026-04-04T16:10:11Z</time></trkpt><trkpt lat="45.94654801751985" lon="10.230116293923924"><ele>880.0</ele><time>2026-04-04T16:10:12Z</time></trkpt><trkpt lat="45.94653027581605" lon="10.230378780694863"><ele>880.0</ele><time>2026-04-04T16:10:14Z</time></trkpt><trkpt lat="45.946523390945075" lon="10.230551755955586"><ele>881.0</ele><time>2026-04-04T16:10:15Z</time></trkpt><trkpt lat="45.94651856548192" lon="10.230675409955959"><ele>882.0</ele><time>2026-04-04T16:10:16Z</time></trkpt><trkpt lat="45.94652057985323" lon="10.230829869554277"><ele>883.0</ele><time>2026-04-04T16:10:18Z</time></trkpt><trkpt lat="45.94651894057806" lon="10.230963515681802"><ele>884.0</ele><time>2026-04-04T16:10:20Z</time></trkpt><trkpt lat="45.94655084111034" lon="10.231096818497091"><ele>885.0</ele><time>2026-04-04T16:10:22Z</time></trkpt><trkpt lat="45.94640030358983" lon="10.230944823434283"><ele>885.0</ele><time>2026-04-04T16:10:34Z</time></trkpt><trkpt lat="45.9463120928599" lon="10.230985858001908"><ele>885.0</ele><time>2026-04-04T16:10:35Z</time></trkpt><trkpt lat="45.94624233677427" lon="10.231040710756368"><ele>885.0</ele><time>2026-04-04T16:10:36Z</time></trkpt><trkpt lat="45.946168563464475" lon="10.231053612471921"><ele>885.0</ele><time>2026-04-04T16:10:37Z</time></trkpt><trkpt lat="45.94610459279764" lon="10.231076118162012"><ele>885.0</ele><time>2026-04-04T16:10:38Z</time></trkpt><trkpt lat="45.94601953319426" lon="10.231061913587654"><ele>885.0</ele><time>2026-04-04T16:10:40Z</time></trkpt><trkpt lat="45.9459548425381" lon="10.231065884613326"><ele>882.25</ele><time>2026-04-04T16:10:43Z</time></trkpt><trkpt lat="45.945751643601234" lon="10.231123569244465"><ele>879.5</ele><time>2026-04-04T16:11:44Z</time></trkpt><trkpt lat="45.94568601708814" lon="10.23122295567179"><ele>876.75</ele><time>2026-04-04T16:11:45Z</time></trkpt><trkpt lat="45.94562205731937" lon="10.23132930468556"><ele>874.0</ele><time>2026-04-04T16:11:46Z</time></trkpt><trkpt lat="45.94554914379723" lon="10.23143688036316"><ele>875.2</ele><time>2026-04-04T16:11:47Z</time></trkpt><trkpt lat="45.94548233892205" lon="10.231561572881436"><ele>876.4000000000001</ele><time>2026-04-04T16:11:48Z</time></trkpt><trkpt lat="45.94540281675129" lon="10.231672612803385"><ele>877.6</ele><time>2026-04-04T16:11:49Z</time></trkpt><trkpt lat="45.94532330371773" lon="10.231779676380159"><ele>878.8</ele><time>2026-04-04T16:11:50Z</time></trkpt><trkpt lat="45.94523718088402" lon="10.231828677223543"><ele>880.0</ele><time>2026-04-04T16:11:51Z</time></trkpt><trkpt lat="45.94514486138108" lon="10.231886706363829"><ele>880.0</ele><time>2026-04-04T16:11:52Z</time></trkpt><trkpt lat="45.94505668844053" lon="10.231946898121407"><ele>880.0</ele><time>2026-04-04T16:11:53Z</time></trkpt><trkpt lat="45.94496591472066" lon="10.232016760181196"><ele>880.0</ele><time>2026-04-04T16:11:54Z</time></trkpt><trkpt lat="45.94488474850636" lon="10.232098127809778"><ele>880.0</ele><time>2026-04-04T16:11:55Z</time></trkpt><trkpt lat="45.94481326536225" lon="10.232200873156483"><ele>880.0</ele><time>2026-04-04T16:11:56Z</time></trkpt><trkpt lat="45.94475719330966" lon="10.232322333332794"><ele>878.6</ele><time>2026-04-04T16:11:57Z</time></trkpt><trkpt lat="45.9447191953205" lon="10.232463174262055"><ele>877.2</ele><time>2026-04-04T16:11:58Z</time></trkpt><trkpt lat="45.94468318980391" lon="10.232610776223412"><ele>875.8</ele><time>2026-04-04T16:11:59Z</time></trkpt><trkpt lat="45.94465096513107" lon="10.232759183532359"><ele>874.4</ele><time>2026-04-04T16:12:00Z</time></trkpt><trkpt lat="45.944618210693655" lon="10.232914934542459"><ele>873.0</ele><time>2026-04-04T16:12:01Z</time></trkpt><trkpt lat="45.944587497462564" lon="10.233082065524846"><ele>872.0</ele><time>2026-04-04T16:12:02Z</time></trkpt><trkpt lat="45.944565301422806" lon="10.233249255809605"><ele>871.0</ele><time>2026-04-04T16:12:03Z</time></trkpt><trkpt lat="45.94457601781242" lon="10.233426187418365"><ele>870.0</ele><time>2026-04-04T16:12:04Z</time></trkpt><trkpt lat="45.944580724909" lon="10.233603669449781"><ele>869.0</ele><time>2026-04-04T16:12:05Z</time></trkpt><trkpt lat="45.94461074496007" lon="10.233775100646483"><ele>869.0</ele><time>2026-04-04T16:12:06Z</time></trkpt><trkpt lat="45.944661378370995" lon="10.233937557137455"><ele>869.0</ele><time>2026-04-04T16:12:07Z</time></trkpt><trkpt lat="45.94473356683312" lon="10.234079627688708"><ele>869.0</ele><time>2026-04-04T16:12:08Z</time></trkpt><trkpt lat="45.944815547618504" lon="10.234197716921063"><ele>869.0</ele><time>2026-04-04T16:12:09Z</time></trkpt><trkpt lat="45.94487833507108" lon="10.234327079836435"><ele>870.5</ele><time>2026-04-04T16:12:10Z</time></trkpt><trkpt lat="45.944966434048986" lon="10.234419066560257"><ele>872.0</ele><time>2026-04-04T16:12:11Z</time></trkpt><trkpt lat="45.945073370144684" lon="10.234473553444326"><ele>873.5</ele><time>2026-04-04T16:12:12Z</time></trkpt><trkpt lat="45.945055585879906" lon="10.234792636498309"><ele>875.0</ele><time>2026-04-04T16:12:13Z</time></trkpt><trkpt lat="45.94509068764471" lon="10.23495874356655"><ele>871.2</ele><time>2026-04-04T16:12:14Z</time></trkpt><trkpt lat="45.94510923595079" lon="10.235101395148886"><ele>867.4</ele><time>2026-04-04T16:12:15Z</time></trkpt><trkpt lat="45.94510983619699" lon="10.235238215040198"><ele>863.5999999999999</ele><time>2026-04-04T16:12:16Z</time></trkpt><trkpt lat="45.945112930046996" lon="10.235378452500148"><ele>859.8</ele><time>2026-04-04T16:12:17Z</time></trkpt><trkpt lat="45.9451313059905" lon="10.235522862299328"><ele>856.0</ele><time>2026-04-04T16:12:18Z</time></trkpt><trkpt lat="45.94515420079304" lon="10.235664836716058"><ele>852.1999999999999</ele><time>2026-04-04T16:12:19Z</time></trkpt><trkpt lat="45.94516459927033" lon="10.235805973218463"><ele>848.3999999999999</ele><time>2026-04-04T16:12:20Z</time></trkpt><trkpt lat="45.945176662193255" lon="10.235945061582958"><ele>844.6</ele><time>2026-04-04T16:12:21Z</time></trkpt><trkpt lat="45.94519828361408" lon="10.2360929875858"><ele>840.8</ele><time>2026-04-04T16:12:22Z</time></trkpt><trkpt lat="45.945224692168395" lon="10.236234268245285"><ele>837.0</ele><time>2026-04-04T16:12:23.001Z</time></trkpt><trkpt lat="45.94526775577231" lon="10.236369479846482"><ele>834.2</ele><time>2026-04-04T16:12:24.001Z</time></trkpt><trkpt lat="45.94529746786633" lon="10.236498219196202"><ele>831.4000000000001</ele><time>2026-04-04T16:12:25.001Z</time></trkpt><trkpt lat="45.94533340017446" lon="10.236609011477006"><ele>828.5999999999999</ele><time>2026-04-04T16:12:26.001Z</time></trkpt><trkpt lat="45.94538569121945" lon="10.236716411391809"><ele>825.8</ele><time>2026-04-04T16:12:27.001Z</time></trkpt><trkpt lat="45.945440413915556" lon="10.236843801292805"><ele>823.0</ele><time>2026-04-04T16:12:28.001Z</time></trkpt><trkpt lat="45.9455145469274" lon="10.236954269124075"><ele>823.0</ele><time>2026-04-04T16:12:29.001Z</time></trkpt><trkpt lat="45.94558591099285" lon="10.237025196900582"><ele>823.0</ele><time>2026-04-04T16:12:30.001Z</time></trkpt><trkpt lat="45.94566170725253" lon="10.23705338881966"><ele>823.0</ele><time>2026-04-04T16:12:31.001Z</time></trkpt><trkpt lat="45.945757853739316" lon="10.237020215115763"><ele>823.0</ele><time>2026-04-04T16:12:32.001Z</time></trkpt><trkpt lat="45.94584424872662" lon="10.236949120175645"><ele>823.0</ele><time>2026-04-04T16:12:33.001Z</time></trkpt><trkpt lat="45.945939308407496" lon="10.236889251519147"><ele>825.2</ele><time>2026-04-04T16:12:34.001Z</time></trkpt><trkpt lat="45.94602521888991" lon="10.236857373320081"><ele>827.4</ele><time>2026-04-04T16:12:35.001Z</time></trkpt><trkpt lat="45.94611846308021" lon="10.236859927558884"><ele>829.6</ele><time>2026-04-04T16:12:36.001Z</time></trkpt><trkpt lat="45.94623632366952" lon="10.236891030434547"><ele>831.8000000000001</ele><time>2026-04-04T16:12:37.001Z</time></trkpt><trkpt lat="45.94634837037053" lon="10.236897290714198"><ele>834.0</ele><time>2026-04-04T16:12:38.001Z</time></trkpt><trkpt lat="45.94645251486254" lon="10.236921062909584"><ele>834.0</ele><time>2026-04-04T16:12:39.001Z</time></trkpt><trkpt lat="45.9465627831133" lon="10.236968759089688"><ele>834.0</ele><time>2026-04-04T16:12:40.001Z</time></trkpt><trkpt lat="45.9466586740069" lon="10.237030059394945"><ele>834.0</ele><time>2026-04-04T16:12:41.001Z</time></trkpt><trkpt lat="45.94675766774219" lon="10.237099986226381"><ele>834.0</ele><time>2026-04-04T16:12:42.001Z</time></trkpt><trkpt lat="45.94684396134911" lon="10.237174232998873"><ele>834.0</ele><time>2026-04-04T16:12:43.001Z</time></trkpt><trkpt lat="45.94693152768246" lon="10.237230614349983"><ele>831.25</ele><time>2026-04-04T16:12:44.001Z</time></trkpt><trkpt lat="45.94703039315307" lon="10.237290983356088"><ele>828.5</ele><time>2026-04-04T16:12:45.001Z</time></trkpt><trkpt lat="45.94711840564392" lon="10.23740362113958"><ele>825.75</ele><time>2026-04-04T16:12:46.001Z</time></trkpt><trkpt lat="45.94720316743267" lon="10.237499075231048"><ele>823.0</ele><time>2026-04-04T16:12:47.001Z</time></trkpt><trkpt lat="45.9472911230241" lon="10.237612726653971"><ele>823.0</ele><time>2026-04-04T16:12:48.001Z</time></trkpt><trkpt lat="45.94739443650128" lon="10.237690877722503"><ele>823.0</ele><time>2026-04-04T16:12:49.001Z</time></trkpt><trkpt lat="45.94747859067637" lon="10.237806617511074"><ele>823.0</ele><time>2026-04-04T16:12:50.001Z</time></trkpt><trkpt lat="45.947559622173344" lon="10.237911482497818"><ele>823.0</ele><time>2026-04-04T16:12:51.001Z</time></trkpt><trkpt lat="45.9476317889529" lon="10.238008994627492"><ele>823.0</ele><time>2026-04-04T16:12:52.001Z</time></trkpt><trkpt lat="45.94770248546168" lon="10.238095347571779"><ele>823.8</ele><time>2026-04-04T16:12:53.001Z</time></trkpt><trkpt lat="45.94777507184066" lon="10.238205559639495"><ele>824.5999999999999</ele><time>2026-04-04T16:12:54.001Z</time></trkpt><trkpt lat="45.94782735097812" lon="10.238321201532113"><ele>825.4000000000001</ele><time>2026-04-04T16:12:55.001Z</time></trkpt><trkpt lat="45.94788313742137" lon="10.23844323378861"><ele>826.2</ele><time>2026-04-04T16:12:56.001Z</time></trkpt><trkpt lat="45.94794007666768" lon="10.238553667166547"><ele>827.0</ele><time>2026-04-04T16:12:57.001Z</time></trkpt><trkpt lat="45.948009275456144" lon="10.238677080898958"><ele>827.0</ele><time>2026-04-04T16:12:58.001Z</time></trkpt><trkpt lat="45.94807360905744" lon="10.238823373995174"><ele>827.0</ele><time>2026-04-04T16:12:59.001Z</time></trkpt><trkpt lat="45.94812481889496" lon="10.238965984854747"><ele>827.0</ele><time>2026-04-04T16:13:00.001Z</time></trkpt><trkpt lat="45.94818097759893" lon="10.239109436100279"><ele>827.0</ele><time>2026-04-04T16:13:01.001Z</time></trkpt><trkpt lat="45.94824526729166" lon="10.239249247708125"><ele>829.2</ele><time>2026-04-04T16:13:02.001Z</time></trkpt><trkpt lat="45.94830806262612" lon="10.239370492453174"><ele>831.4000000000001</ele><time>2026-04-04T16:13:03.001Z</time></trkpt><trkpt lat="45.94836705900375" lon="10.239472605127009"><ele>833.5999999999999</ele><time>2026-04-04T16:13:04.001Z</time></trkpt><trkpt lat="45.948423904306686" lon="10.239567684621116"><ele>835.8</ele><time>2026-04-04T16:13:05.001Z</time></trkpt><trkpt lat="45.9484684719685" lon="10.239676234531334"><ele>838.0</ele><time>2026-04-04T16:13:06.001Z</time></trkpt><trkpt lat="45.94850332443602" lon="10.239786738145726"><ele>829.8</ele><time>2026-04-04T16:13:07.001Z</time></trkpt><trkpt lat="45.94855460587815" lon="10.239928679671168"><ele>821.5999999999999</ele><time>2026-04-04T16:13:09.001Z</time></trkpt><trkpt lat="45.94854250484923" lon="10.24003952737805"><ele>813.4000000000001</ele><time>2026-04-04T16:13:15.001Z</time></trkpt><trkpt lat="45.94855464049639" lon="10.240138035883938"><ele>805.2</ele><time>2026-04-04T16:13:17.001Z</time></trkpt><trkpt lat="45.948654958339134" lon="10.240325676622431"><ele>797.0</ele><time>2026-04-04T16:13:18.001Z</time></trkpt><trkpt lat="45.94872539962905" lon="10.240430211784647"><ele>797.0</ele><time>2026-04-04T16:13:19.001Z</time></trkpt><trkpt lat="45.94878631367295" lon="10.240550174816665"><ele>797.0</ele><time>2026-04-04T16:13:20.001Z</time></trkpt><trkpt lat="45.948848702147515" lon="10.240695885225314"><ele>797.0</ele><time>2026-04-04T16:13:21.001Z</time></trkpt><trkpt lat="45.948900865286966" lon="10.24079723532814"><ele>797.0</ele><time>2026-04-04T16:13:22.001Z</time></trkpt><trkpt lat="45.94898416967689" lon="10.240870546139725"><ele>797.0</ele><time>2026-04-04T16:13:23.001Z</time></trkpt><trkpt lat="45.949063870706915" lon="10.24096054544376"><ele>798.6</ele><time>2026-04-04T16:13:24.001Z</time></trkpt><trkpt lat="45.949134824914495" lon="10.241055645466398"><ele>800.2</ele><time>2026-04-04T16:13:25.001Z</time></trkpt><trkpt lat="45.949205012980336" lon="10.24116308699429"><ele>801.8</ele><time>2026-04-04T16:13:26.001Z</time></trkpt><trkpt lat="45.94927905692997" lon="10.24126768058664"><ele>803.4</ele><time>2026-04-04T16:13:27.001Z</time></trkpt><trkpt lat="45.94934914918857" lon="10.241375873473173"><ele>805.0</ele><time>2026-04-04T16:13:28.001Z</time></trkpt><trkpt lat="45.949423616988554" lon="10.241500092234654"><ele>797.8</ele><time>2026-04-04T16:13:29.001Z</time></trkpt><trkpt lat="45.94949319466473" lon="10.241601238311903"><ele>790.6</ele><time>2026-04-04T16:13:30.001Z</time></trkpt><trkpt lat="45.949554740546105" lon="10.241706604792855"><ele>783.4000000000001</ele><time>2026-04-04T16:13:31.001Z</time></trkpt><trkpt lat="45.94960578324644" lon="10.241829162755796"><ele>776.2</ele><time>2026-04-04T16:13:32.001Z</time></trkpt><trkpt lat="45.94967692381682" lon="10.24193802210692"><ele>769.0</ele><time>2026-04-04T16:13:33.001Z</time></trkpt><trkpt lat="45.949739933174136" lon="10.242046167608565"><ele>769.0</ele><time>2026-04-04T16:13:34.001Z</time></trkpt><trkpt lat="45.949794718485016" lon="10.242178126436215"><ele>769.0</ele><time>2026-04-04T16:13:35.001Z</time></trkpt><trkpt lat="45.949842481611256" lon="10.242320731815287"><ele>769.0</ele><time>2026-04-04T16:13:36.001Z</time></trkpt><trkpt lat="45.94990189886542" lon="10.242461483359321"><ele>769.0</ele><time>2026-04-04T16:13:37.001Z</time></trkpt><trkpt lat="45.94996598339409" lon="10.242598272496144"><ele>769.0</ele><time>2026-04-04T16:13:38.001Z</time></trkpt><trkpt lat="45.949993975127875" lon="10.242731812652707"><ele>767.8000000000001</ele><time>2026-04-04T16:13:39.001Z</time></trkpt><trkpt lat="45.950046644957126" lon="10.242894203842738"><ele>766.6</ele><time>2026-04-04T16:13:40.001Z</time></trkpt><trkpt lat="45.950092310761825" lon="10.243041589164244"><ele>765.4</ele><time>2026-04-04T16:13:41.001Z</time></trkpt><trkpt lat="45.95015442151689" lon="10.2431755532911"><ele>764.2</ele><time>2026-04-04T16:13:42.001Z</time></trkpt><trkpt lat="45.95020109104269" lon="10.243299997030858"><ele>763.0</ele><time>2026-04-04T16:13:43.001Z</time></trkpt><trkpt lat="45.95024228191514" lon="10.24341419989512"><ele>763.0</ele><time>2026-04-04T16:13:44.001Z</time></trkpt><trkpt lat="45.95026208169478" lon="10.243508261532192"><ele>763.0</ele><time>2026-04-04T16:13:45.001Z</time></trkpt><trkpt lat="45.95030170639675" lon="10.243631661334291"><ele>763.0</ele><time>2026-04-04T16:13:46.001Z</time></trkpt><trkpt lat="45.95032666169937" lon="10.243749601541388"><ele>763.0</ele><time>2026-04-04T16:13:47.001Z</time></trkpt><trkpt lat="45.95035187252463" lon="10.243868628627933"><ele>763.0</ele><time>2026-04-04T16:13:48.001Z</time></trkpt><trkpt lat="45.950380565454516" lon="10.243991283305888"><ele>763.0</ele><time>2026-04-04T16:13:49.001Z</time></trkpt><trkpt lat="45.95042383890744" lon="10.244117545644249"><ele>760.4</ele><time>2026-04-04T16:13:50.001Z</time></trkpt><trkpt lat="45.950457127377234" lon="10.244245201990053"><ele>757.8</ele><time>2026-04-04T16:13:51.001Z</time></trkpt><trkpt lat="45.95048825307" lon="10.24436501255377"><ele>755.2</ele><time>2026-04-04T16:13:52.001Z</time></trkpt><trkpt lat="45.95054201428536" lon="10.244482134409616"><ele>752.6</ele><time>2026-04-04T16:13:53.001Z</time></trkpt><trkpt lat="45.9506133441003" lon="10.244580529259444"><ele>750.0</ele><time>2026-04-04T16:13:54.001Z</time></trkpt><trkpt lat="45.95067837006534" lon="10.24466922750711"><ele>750.0</ele><time>2026-04-04T16:13:55.001Z</time></trkpt><trkpt lat="45.95073407789539" lon="10.2447680285807"><ele>750.0</ele><time>2026-04-04T16:13:56.001Z</time></trkpt><trkpt lat="45.95079872270844" lon="10.244873720757742"><ele>750.0</ele><time>2026-04-04T16:13:57.001Z</time></trkpt><trkpt lat="45.95086931343098" lon="10.244976771743067"><ele>750.0</ele><time>2026-04-04T16:13:58.001Z</time></trkpt><trkpt lat="45.95094049692285" lon="10.245073602217449"><ele>750.0</ele><time>2026-04-04T16:13:59.001Z</time></trkpt><trkpt lat="45.95099742965488" lon="10.245173737838723"><ele>749.6</ele><time>2026-04-04T16:14:00.001Z</time></trkpt><trkpt lat="45.95105449477825" lon="10.245256729397754"><ele>749.2</ele><time>2026-04-04T16:14:01.001Z</time></trkpt><trkpt lat="45.95109294548989" lon="10.24535910522212"><ele>748.8</ele><time>2026-04-04T16:14:02.001Z</time></trkpt><trkpt lat="45.95112678898478" lon="10.245482533856467"><ele>748.4</ele><time>2026-04-04T16:14:03.001Z</time></trkpt><trkpt lat="45.95116885554458" lon="10.245619012774334"><ele>748.0</ele><time>2026-04-04T16:14:04.001Z</time></trkpt><trkpt lat="45.95120680142559" lon="10.245744522217235"><ele>748.0</ele><time>2026-04-04T16:14:05.001Z</time></trkpt><trkpt lat="45.951247583890755" lon="10.245867185075177"><ele>748.0</ele><time>2026-04-04T16:14:06.001Z</time></trkpt><trkpt lat="45.95127655215233" lon="10.245997410326748"><ele>748.0</ele><time>2026-04-04T16:14:07.001Z</time></trkpt><trkpt lat="45.95127246235153" lon="10.246140366116874"><ele>748.0</ele><time>2026-04-04T16:14:08.001Z</time></trkpt><trkpt lat="45.95128628609778" lon="10.24629138300111"><ele>748.0</ele><time>2026-04-04T16:14:09.001Z</time></trkpt><trkpt lat="45.95131024438858" lon="10.246430304889861"><ele>745.2</ele><time>2026-04-04T16:14:10.001Z</time></trkpt><trkpt lat="45.95133547821818" lon="10.246569390284813"><ele>742.4</ele><time>2026-04-04T16:14:11.001Z</time></trkpt><trkpt lat="45.95133449407837" lon="10.246702390821055"><ele>739.6</ele><time>2026-04-04T16:14:12.001Z</time></trkpt><trkpt lat="45.951332564800126" lon="10.246856334296055"><ele>736.8000000000001</ele><time>2026-04-04T16:14:13.001Z</time></trkpt><trkpt lat="45.951351542215676" lon="10.246995241493673"><ele>734.0</ele><time>2026-04-04T16:14:14.001Z</time></trkpt><trkpt lat="45.95138800980724" lon="10.247136406363525"><ele>734.0</ele><time>2026-04-04T16:14:15.001Z</time></trkpt><trkpt lat="45.95141914166966" lon="10.247283298547602"><ele>734.0</ele><time>2026-04-04T16:14:16.001Z</time></trkpt><trkpt lat="45.95145235926575" lon="10.24743156523246"><ele>734.0</ele><time>2026-04-04T16:14:17.001Z</time></trkpt><trkpt lat="45.95148104201404" lon="10.247575885026308"><ele>734.0</ele><time>2026-04-04T16:14:18.001Z</time></trkpt><trkpt lat="45.95151991341146" lon="10.247706393282492"><ele>734.0</ele><time>2026-04-04T16:14:19.001Z</time></trkpt><trkpt lat="45.95156740634447" lon="10.247818809087708"><ele>731.5</ele><time>2026-04-04T16:14:20.001Z</time></trkpt><trkpt lat="45.95162656194398" lon="10.247910603868847"><ele>729.0</ele><time>2026-04-04T16:14:21.001Z</time></trkpt><trkpt lat="45.951692013659475" lon="10.24799200372686"><ele>726.5</ele><time>2026-04-04T16:14:22.001Z</time></trkpt><trkpt lat="45.95175613328413" lon="10.248092344588601"><ele>724.0</ele><time>2026-04-04T16:14:23.001Z</time></trkpt><trkpt lat="45.95181936651009" lon="10.248198432542804"><ele>721.5</ele><time>2026-04-04T16:14:24.001Z</time></trkpt><trkpt lat="45.95185201977868" lon="10.248293861609257"><ele>719.0</ele><time>2026-04-04T16:14:25.001Z</time></trkpt><trkpt lat="45.95189925700961" lon="10.248388750222745"><ele>721.8333333333333</ele><time>2026-04-04T16:14:26.001Z</time></trkpt><trkpt lat="45.95193671876879" lon="10.248493370481969"><ele>724.6666666666666</ele><time>2026-04-04T16:14:27.001Z</time></trkpt><trkpt lat="45.951964986028905" lon="10.24861309459008"><ele>727.5</ele><time>2026-04-04T16:14:28.001Z</time></trkpt><trkpt lat="45.9520127105057" lon="10.24873076690121"><ele>730.3333333333334</ele><time>2026-04-04T16:14:29.001Z</time></trkpt><trkpt lat="45.95204159198494" lon="10.248848991061925"><ele>733.1666666666667</ele><time>2026-04-04T16:14:30.001Z</time></trkpt><trkpt lat="45.95204960237127" lon="10.24896473517522"><ele>736.0</ele><time>2026-04-04T16:14:31.001Z</time></trkpt><trkpt lat="45.95206043229991" lon="10.24910810053647"><ele>736.0</ele><time>2026-04-04T16:14:32.001Z</time></trkpt><trkpt lat="45.95208980194891" lon="10.249243681432507"><ele>736.0</ele><time>2026-04-04T16:14:33.001Z</time></trkpt><trkpt lat="45.95211604120315" lon="10.24937438105991"><ele>736.0</ele><time>2026-04-04T16:14:34.001Z</time></trkpt><trkpt lat="45.952117294414215" lon="10.24951094034161"><ele>736.0</ele><time>2026-04-04T16:14:35.001Z</time></trkpt><trkpt lat="45.952128540583686" lon="10.249656159113842"><ele>736.0</ele><time>2026-04-04T16:14:36.001Z</time></trkpt><trkpt lat="45.95214463676326" lon="10.249793210980389"><ele>731.0</ele><time>2026-04-04T16:14:37.001Z</time></trkpt><trkpt lat="45.952156002457045" lon="10.249935816088566"><ele>726.0</ele><time>2026-04-04T16:14:38.001Z</time></trkpt><trkpt lat="45.952174520292026" lon="10.250073251039977"><ele>721.0</ele><time>2026-04-04T16:14:39.001Z</time></trkpt><trkpt lat="45.95219830830376" lon="10.250212562094822"><ele>716.0</ele><time>2026-04-04T16:14:40.001Z</time></trkpt><trkpt lat="45.95225671196856" lon="10.250369749424467"><ele>711.0</ele><time>2026-04-04T16:14:41Z</time></trkpt><trkpt lat="45.95233453827353" lon="10.250529392078452"><ele>706.5</ele><time>2026-04-04T16:14:42Z</time></trkpt><trkpt lat="45.95238343472184" lon="10.250693170316678"><ele>702.0</ele><time>2026-04-04T16:14:43Z</time></trkpt><trkpt lat="45.95243063231885" lon="10.25086401967247"><ele>697.5</ele><time>2026-04-04T16:14:44Z</time></trkpt><trkpt lat="45.95249573735736" lon="10.251021785995045"><ele>693.0</ele><time>2026-04-04T16:14:45Z</time></trkpt><trkpt lat="45.95256942785848" lon="10.251147646449457"><ele>702.0</ele><time>2026-04-04T16:14:46Z</time></trkpt><trkpt lat="45.9526500396957" lon="10.251260833063943"><ele>711.0</ele><time>2026-04-04T16:14:47Z</time></trkpt><trkpt lat="45.9527217760739" lon="10.251389863334685"><ele>720.0</ele><time>2026-04-04T16:14:48Z</time></trkpt><trkpt lat="45.952790804084536" lon="10.251542840429456"><ele>729.0</ele><time>2026-04-04T16:14:49Z</time></trkpt><trkpt lat="45.952850388019705" lon="10.251700088575037"><ele>729.0</ele><time>2026-04-04T16:14:50Z</time></trkpt><trkpt lat="45.95289475606256" lon="10.25184547811874"><ele>729.0</ele><time>2026-04-04T16:14:51Z</time></trkpt><trkpt lat="45.95296022624014" lon="10.251992901031105"><ele>729.0</ele><time>2026-04-04T16:14:52Z</time></trkpt><trkpt lat="45.95300401815353" lon="10.252136507813157"><ele>729.0</ele><time>2026-04-04T16:14:53Z</time></trkpt><trkpt lat="45.953054958715924" lon="10.252281821319894"><ele>720.0</ele><time>2026-04-04T16:14:54Z</time></trkpt><trkpt lat="45.9530814020376" lon="10.252439186545232"><ele>711.0</ele><time>2026-04-04T16:14:55Z</time></trkpt><trkpt lat="45.953114176031" lon="10.252598919323683"><ele>702.0</ele><time>2026-04-04T16:14:56Z</time></trkpt><trkpt lat="45.95315254030997" lon="10.252762616098009"><ele>693.0</ele><time>2026-04-04T16:14:57Z</time></trkpt><trkpt lat="45.953198449234115" lon="10.252920673519052"><ele>693.0</ele><time>2026-04-04T16:14:58Z</time></trkpt><trkpt lat="45.953247396411534" lon="10.253085125866946"><ele>693.0</ele><time>2026-04-04T16:14:59Z</time></trkpt><trkpt lat="45.953304603729705" lon="10.253243088986185"><ele>693.0</ele><time>2026-04-04T16:15:00Z</time></trkpt><trkpt lat="45.95335640923583" lon="10.253408092011101"><ele>693.0</ele><time>2026-04-04T16:15:01Z</time></trkpt><trkpt lat="45.953421395096036" lon="10.253558158981848"><ele>693.5</ele><time>2026-04-04T16:15:02Z</time></trkpt><trkpt lat="45.953486447891166" lon="10.25373582519528"><ele>694.0</ele><time>2026-04-04T16:15:03Z</time></trkpt><trkpt lat="45.95355619073647" lon="10.253886281005059"><ele>694.5</ele><time>2026-04-04T16:15:04Z</time></trkpt><trkpt lat="45.9536198218962" lon="10.254039898703338"><ele>695.0</ele><time>2026-04-04T16:15:05Z</time></trkpt><trkpt lat="45.95367422375786" lon="10.254192141984266"><ele>695.0</ele><time>2026-04-04T16:15:06Z</time></trkpt><trkpt lat="45.95370626565217" lon="10.254347117906901"><ele>695.0</ele><time>2026-04-04T16:15:07Z</time></trkpt><trkpt lat="45.95374555093459" lon="10.254508286079968"><ele>695.0</ele><time>2026-04-04T16:15:08Z</time></trkpt><trkpt lat="45.95376919809382" lon="10.254684390379497"><ele>695.0</ele><time>2026-04-04T16:15:09Z</time></trkpt><trkpt lat="45.953794303347415" lon="10.254846449560523"><ele>691.8</ele><time>2026-04-04T16:15:10Z</time></trkpt><trkpt lat="45.95379322966092" lon="10.255030656512226"><ele>688.6</ele><time>2026-04-04T16:15:11Z</time></trkpt><trkpt lat="45.953797754302514" lon="10.255214364587868"><ele>685.4000000000001</ele><time>2026-04-04T16:15:12Z</time></trkpt><trkpt lat="45.95379957113221" lon="10.255366632955713"><ele>682.2</ele><time>2026-04-04T16:15:13Z</time></trkpt><trkpt lat="45.95381064487763" lon="10.255485755508559"><ele>679.0</ele><time>2026-04-04T16:15:14Z</time></trkpt><trkpt lat="45.95382510139922" lon="10.255576362004739"><ele>679.0</ele><time>2026-04-04T16:15:15Z</time></trkpt><trkpt lat="45.95382866548563" lon="10.255682935618486"><ele>679.0</ele><time>2026-04-04T16:15:17Z</time></trkpt><trkpt lat="45.95377795556348" lon="10.255578568440761"><ele>679.0</ele><time>2026-04-04T16:15:20Z</time></trkpt><trkpt lat="45.95375610085065" lon="10.25547178015266"><ele>679.0</ele><time>2026-04-04T16:15:21Z</time></trkpt><trkpt lat="45.953694303771016" lon="10.255392263537047"><ele>679.0</ele><time>2026-04-04T16:15:22Z</time></trkpt><trkpt lat="45.9536290520888" lon="10.255301328198806"><ele>679.0</ele><time>2026-04-04T16:15:23Z</time></trkpt><trkpt lat="45.95355349365782" lon="10.255164300374219"><ele>679.0</ele><time>2026-04-04T16:15:24Z</time></trkpt><trkpt lat="45.95347622996572" lon="10.2550599828829"><ele>679.0</ele><time>2026-04-04T16:15:25Z</time></trkpt><trkpt lat="45.95341655354817" lon="10.254953087366017"><ele>679.0</ele><time>2026-04-04T16:15:26Z</time></trkpt><trkpt lat="45.95336314212608" lon="10.25482614470595"><ele>679.0</ele><time>2026-04-04T16:15:27Z</time></trkpt><trkpt lat="45.95330877447723" lon="10.254673124491374"><ele>679.0</ele><time>2026-04-04T16:15:28Z</time></trkpt><trkpt lat="45.953258285665115" lon="10.254519763280843"><ele>673.4000000000001</ele><time>2026-04-04T16:15:29Z</time></trkpt><trkpt lat="45.95320758531167" lon="10.254384602628809"><ele>667.8</ele><time>2026-04-04T16:15:30Z</time></trkpt><trkpt lat="45.95315564236998" lon="10.254263294203666"><ele>662.2</ele><time>2026-04-04T16:15:31Z</time></trkpt><trkpt lat="45.95310228157467" lon="10.254147595120623"><ele>656.5999999999999</ele><time>2026-04-04T16:15:32Z</time></trkpt><trkpt lat="45.95305699642052" lon="10.254048596660125"><ele>651.0</ele><time>2026-04-04T16:15:33Z</time></trkpt><trkpt lat="45.95301254838399" lon="10.253955630192353"><ele>651.0</ele><time>2026-04-04T16:15:34Z</time></trkpt><trkpt lat="45.95296744297103" lon="10.253888094459752"><ele>651.0</ele><time>2026-04-04T16:15:35Z</time></trkpt><trkpt lat="45.952868242295224" lon="10.25389612326765"><ele>651.0</ele><time>2026-04-04T16:15:37Z</time></trkpt><trkpt lat="45.95283778516819" lon="10.253993554804865"><ele>651.0</ele><time>2026-04-04T16:15:38Z</time></trkpt><trkpt lat="45.952836118608296" lon="10.254125747545991"><ele>651.0</ele><time>2026-04-04T16:15:39Z</time></trkpt><trkpt lat="45.95283340121335" lon="10.254269137133857"><ele>651.0</ele><time>2026-04-04T16:15:40Z</time></trkpt><trkpt lat="45.95281827481393" lon="10.254402995709919"><ele>651.0</ele><time>2026-04-04T16:15:41Z</time></trkpt><trkpt lat="45.952813899198276" lon="10.254580328501227"><ele>651.0</ele><time>2026-04-04T16:15:42Z</time></trkpt><trkpt lat="45.95284317458805" lon="10.254713861361758"><ele>651.0</ele><time>2026-04-04T16:15:43Z</time></trkpt><trkpt lat="45.95286846909816" lon="10.254857608995133"><ele>651.0</ele><time>2026-04-04T16:15:44Z</time></trkpt><trkpt lat="45.95289749529643" lon="10.254997068370468"><ele>651.0</ele><time>2026-04-04T16:15:45Z</time></trkpt><trkpt lat="45.9529241702999" lon="10.255122951443543"><ele>648.8333333333334</ele><time>2026-04-04T16:15:46Z</time></trkpt><trkpt lat="45.9529532831994" lon="10.25524259311997"><ele>646.6666666666666</ele><time>2026-04-04T16:15:47Z</time></trkpt><trkpt lat="45.95298925015945" lon="10.255344316296643"><ele>644.5</ele><time>2026-04-04T16:15:48Z</time></trkpt><trkpt lat="45.95299705662341" lon="10.255449736349709"><ele>642.3333333333333</ele><time>2026-04-04T16:15:49Z</time></trkpt><trkpt lat="45.952972687615045" lon="10.25554749421346"><ele>640.1666666666666</ele><time>2026-04-04T16:15:50Z</time></trkpt><trkpt lat="45.9529120110513" lon="10.255611764216487"><ele>638.0</ele><time>2026-04-04T16:15:51Z</time></trkpt><trkpt lat="45.9528260655074" lon="10.255616144013514"><ele>635.8</ele><time>2026-04-04T16:15:53Z</time></trkpt><trkpt lat="45.95274951780323" lon="10.255733317019104"><ele>633.5999999999999</ele><time>2026-04-04T16:15:58Z</time></trkpt><trkpt lat="45.95270469992587" lon="10.255844982933171"><ele>631.4000000000001</ele><time>2026-04-04T16:15:59Z</time></trkpt><trkpt lat="45.95266961565739" lon="10.255965453890374"><ele>629.2</ele><time>2026-04-04T16:16:00Z</time></trkpt><trkpt lat="45.95264825624055" lon="10.256057531553335"><ele>627.0</ele><time>2026-04-04T16:16:01Z</time></trkpt><trkpt lat="45.952602406158725" lon="10.256212491415736"><ele>627.0</ele><time>2026-04-04T16:16:03Z</time></trkpt><trkpt lat="45.95260062069258" lon="10.256401160994182"><ele>627.0</ele><time>2026-04-04T16:16:05Z</time></trkpt><trkpt lat="45.9526121952372" lon="10.256497643141682"><ele>627.0</ele><time>2026-04-04T16:16:06Z</time></trkpt><trkpt lat="45.95263521705317" lon="10.256684516012385"><ele>627.0</ele><time>2026-04-04T16:16:08Z</time></trkpt><trkpt lat="45.95265556104934" lon="10.25683437138085"><ele>627.0</ele><time>2026-04-04T16:16:10Z</time></trkpt><trkpt lat="45.95266970775221" lon="10.256968493175627"><ele>626.0</ele><time>2026-04-04T16:16:12Z</time></trkpt><trkpt lat="45.95274081328335" lon="10.257215347472362"><ele>625.0</ele><time>2026-04-04T16:16:14Z</time></trkpt><trkpt lat="45.95285213969306" lon="10.257223063549624"><ele>624.0</ele><time>2026-04-04T16:16:15Z</time></trkpt><trkpt lat="45.95286375749587" lon="10.25731879549309"><ele>623.0</ele><time>2026-04-04T16:16:16Z</time></trkpt><trkpt lat="45.95287619195409" lon="10.257419432817338"><ele>622.0</ele><time>2026-04-04T16:16:17Z</time></trkpt><trkpt lat="45.952843553198704" lon="10.257512326462603"><ele>621.0</ele><time>2026-04-04T16:16:18Z</time></trkpt><trkpt lat="45.952692292928305" lon="10.257617306705377"><ele>620.0</ele><time>2026-04-04T16:16:19.001Z</time></trkpt><trkpt lat="45.95268867985065" lon="10.257741155099414"><ele>619.0</ele><time>2026-04-04T16:16:20.001Z</time></trkpt><trkpt lat="45.95269600958717" lon="10.257879950240202"><ele>618.0</ele><time>2026-04-04T16:16:21.001Z</time></trkpt><trkpt lat="45.952719530035495" lon="10.258013322400528"><ele>617.0</ele><time>2026-04-04T16:16:22.001Z</time></trkpt><trkpt lat="45.95276949763708" lon="10.258134273890901"><ele>615.8000000000001</ele><time>2026-04-04T16:16:23.001Z</time></trkpt><trkpt lat="45.95280114477476" lon="10.25824239400908"><ele>614.6</ele><time>2026-04-04T16:16:24.001Z</time></trkpt><trkpt lat="45.952842508274024" lon="10.25835546948587"><ele>613.4000000000001</ele><time>2026-04-04T16:16:25.001Z</time></trkpt><trkpt lat="45.952769185904714" lon="10.25853962462999"><ele>612.2</ele><time>2026-04-04T16:16:26.001Z</time></trkpt><trkpt lat="45.952735734740855" lon="10.25869592230575"><ele>611.0</ele><time>2026-04-04T16:16:27.001Z</time></trkpt><trkpt lat="45.95271420247398" lon="10.258862121963459"><ele>610.0</ele><time>2026-04-04T16:16:28.001Z</time></trkpt><trkpt lat="45.95269899102948" lon="10.25903058683201"><ele>609.0</ele><time>2026-04-04T16:16:29.001Z</time></trkpt><trkpt lat="45.952699218842625" lon="10.25918632388703"><ele>608.0</ele><time>2026-04-04T16:16:30.001Z</time></trkpt><trkpt lat="45.95271317755417" lon="10.259344392013759"><ele>607.0</ele><time>2026-04-04T16:16:31.001Z</time></trkpt><trkpt lat="45.95271359516599" lon="10.259492463793805"><ele>606.0</ele><time>2026-04-04T16:16:32.001Z</time></trkpt><trkpt lat="45.95271673578603" lon="10.259637000567652"><ele>606.0</ele><time>2026-04-04T16:16:33.001Z</time></trkpt><trkpt lat="45.95271239892593" lon="10.259775987507819"><ele>606.0</ele><time>2026-04-04T16:16:34.001Z</time></trkpt><trkpt lat="45.952721412205335" lon="10.259895151727823"><ele>606.0</ele><time>2026-04-04T16:16:35.001Z</time></trkpt><trkpt lat="45.95272672709389" lon="10.260020775813842"><ele>606.0</ele><time>2026-04-04T16:16:36.001Z</time></trkpt><trkpt lat="45.95274865657606" lon="10.260160926245778"><ele>606.0</ele><time>2026-04-04T16:16:37.001Z</time></trkpt><trkpt lat="45.95279489235998" lon="10.260301849604362"><ele>602.0</ele><time>2026-04-04T16:16:38.001Z</time></trkpt><trkpt lat="45.9528262677842" lon="10.260446522651243"><ele>598.0</ele><time>2026-04-04T16:16:39.001Z</time></trkpt><trkpt lat="45.952836021954376" lon="10.260585329321527"><ele>594.0</ele><time>2026-04-04T16:16:40.001Z</time></trkpt><trkpt lat="45.952839266348974" lon="10.260722984887572"><ele>590.0</ele><time>2026-04-04T16:16:41.001Z</time></trkpt><trkpt lat="45.95285435615953" lon="10.260846566218005"><ele>586.0</ele><time>2026-04-04T16:16:42.001Z</time></trkpt><trkpt lat="45.95287968425492" lon="10.26097743668445"><ele>581.6</ele><time>2026-04-04T16:16:44.001Z</time></trkpt><trkpt lat="45.95284344176631" lon="10.261150378326418"><ele>577.2</ele><time>2026-04-04T16:16:46.001Z</time></trkpt><trkpt lat="45.952870804088406" lon="10.261244369317494"><ele>572.8</ele><time>2026-04-04T16:16:47Z</time></trkpt><trkpt lat="45.95292485239165" lon="10.261350527341385"><ele>568.4</ele><time>2026-04-04T16:16:48Z</time></trkpt><trkpt lat="45.95297504975975" lon="10.26145386896228"><ele>564.0</ele><time>2026-04-04T16:16:49Z</time></trkpt><trkpt lat="45.9530290483696" lon="10.261551376714856"><ele>558.4</ele><time>2026-04-04T16:16:50Z</time></trkpt><trkpt lat="45.95310321616202" lon="10.261623671658384"><ele>552.8</ele><time>2026-04-04T16:16:52Z</time></trkpt><trkpt lat="45.95321348351363" lon="10.261669953019089"><ele>547.2</ele><time>2026-04-04T16:16:54Z</time></trkpt><trkpt lat="45.953314313655085" lon="10.261620892757252"><ele>541.6</ele><time>2026-04-04T16:16:56Z</time></trkpt><trkpt lat="45.95330138923279" lon="10.261763535152447"><ele>536.0</ele><time>2026-04-04T16:17:00Z</time></trkpt><trkpt lat="45.953234264873544" lon="10.261861517082533"><ele>536.0</ele><time>2026-04-04T16:17:01Z</time></trkpt><trkpt lat="45.95315283938316" lon="10.261986748994394"><ele>536.0</ele><time>2026-04-04T16:17:03Z</time></trkpt><trkpt lat="45.953091358359195" lon="10.262032558503915"><ele>536.0</ele><time>2026-04-04T16:17:04Z</time></trkpt><trkpt lat="45.95303055314186" lon="10.262127163922816"><ele>536.0</ele><time>2026-04-04T16:17:05Z</time></trkpt><trkpt lat="45.952942890699745" lon="10.262193541976698"><ele>536.0</ele><time>2026-04-04T16:17:06Z</time></trkpt><trkpt lat="45.9528431030637" lon="10.262270015864805"><ele>536.0</ele><time>2026-04-04T16:17:08Z</time></trkpt><trkpt lat="45.95273987798601" lon="10.262245689071628"><ele>536.0</ele><time>2026-04-04T16:17:10Z</time></trkpt><trkpt lat="45.95270652223915" lon="10.26236852817401"><ele>536.0</ele><time>2026-04-04T16:17:12Z</time></trkpt><trkpt lat="45.95269695431363" lon="10.262488682668781"><ele>536.0</ele><time>2026-04-04T16:17:13Z</time></trkpt><trkpt lat="45.95268338321322" lon="10.262596914601078"><ele>536.0</ele><time>2026-04-04T16:17:14Z</time></trkpt><trkpt lat="45.95265885167017" lon="10.262721045555208"><ele>536.0</ele><time>2026-04-04T16:17:15Z</time></trkpt><trkpt lat="45.95264508789665" lon="10.262846620242959"><ele>532.2</ele><time>2026-04-04T16:17:16Z</time></trkpt><trkpt lat="45.95262737682021" lon="10.262966535257405"><ele>528.4000000000001</ele><time>2026-04-04T16:17:17Z</time></trkpt><trkpt lat="45.952609952558916" lon="10.263091316389213"><ele>524.6</ele><time>2026-04-04T16:17:18Z</time></trkpt><trkpt lat="45.95262761960647" lon="10.263282658966231"><ele>520.8000000000001</ele><time>2026-04-04T16:17:20Z</time></trkpt><trkpt lat="45.952668479885446" lon="10.26337852905928"><ele>517.0</ele><time>2026-04-04T16:17:21Z</time></trkpt><trkpt lat="45.95272522777845" lon="10.263435745657102"><ele>512.2</ele><time>2026-04-04T16:17:22Z</time></trkpt><trkpt lat="45.952771849935736" lon="10.26357155829512"><ele>507.40000000000003</ele><time>2026-04-04T16:17:24Z</time></trkpt><trkpt lat="45.9526827761086" lon="10.263531688281066"><ele>502.59999999999997</ele><time>2026-04-04T16:17:28Z</time></trkpt><trkpt lat="45.952621987700155" lon="10.263503593498925"><ele>497.79999999999995</ele><time>2026-04-04T16:17:29Z</time></trkpt><trkpt lat="45.952542656350055" lon="10.263471858579766"><ele>493.0</ele><time>2026-04-04T16:17:30Z</time></trkpt><trkpt lat="45.95241234869395" lon="10.26346610359772"><ele>491.2</ele><time>2026-04-04T16:17:32Z</time></trkpt><trkpt lat="45.95235115750953" lon="10.263428058216336"><ele>489.4</ele><time>2026-04-04T16:17:33Z</time></trkpt><trkpt lat="45.952242526088945" lon="10.263404917236663"><ele>487.59999999999997</ele><time>2026-04-04T16:17:35Z</time></trkpt><trkpt lat="45.95216640706291" lon="10.26341023737623"><ele>485.79999999999995</ele><time>2026-04-04T16:17:36Z</time></trkpt><trkpt lat="45.952053041463564" lon="10.26351430496984"><ele>484.0</ele><time>2026-04-04T16:17:37Z</time></trkpt><trkpt lat="45.95197103314846" lon="10.263582291471632"><ele>484.0</ele><time>2026-04-04T16:17:38Z</time></trkpt><trkpt lat="45.95190464572861" lon="10.263654594944855"><ele>484.0</ele><time>2026-04-04T16:17:39Z</time></trkpt><trkpt lat="45.95182560914285" lon="10.26375688399191"><ele>484.0</ele><time>2026-04-04T16:17:40Z</time></trkpt><trkpt lat="45.95174767791575" lon="10.263850171627857"><ele>484.0</ele><time>2026-04-04T16:17:41Z</time></trkpt><trkpt lat="45.95167461344267" lon="10.263920010894813"><ele>484.0</ele><time>2026-04-04T16:17:42Z</time></trkpt><trkpt lat="45.951615639128946" lon="10.264033782812604"><ele>479.6</ele><time>2026-04-04T16:17:43Z</time></trkpt><trkpt lat="45.95155625163624" lon="10.264149646947818"><ele>475.2</ele><time>2026-04-04T16:17:44Z</time></trkpt><trkpt lat="45.95149561209864" lon="10.264252287069676"><ele>470.80000000000007</ele><time>2026-04-04T16:17:45Z</time></trkpt><trkpt lat="45.951439420592635" lon="10.264372095505221"><ele>466.40000000000003</ele><time>2026-04-04T16:17:46Z</time></trkpt><trkpt lat="45.95139409180894" lon="10.264475935259851"><ele>462.0</ele><time>2026-04-04T16:17:47Z</time></trkpt><trkpt lat="45.951328045004374" lon="10.264556904644962"><ele>462.0</ele><time>2026-04-04T16:17:49Z</time></trkpt><trkpt lat="45.951440657879566" lon="10.264706399277369"><ele>462.00000000000006</ele><time>2026-04-04T16:17:51Z</time></trkpt><trkpt lat="45.9514856844141" lon="10.26477760107841"><ele>462.00000000000006</ele><time>2026-04-04T16:17:52Z</time></trkpt><trkpt lat="45.951577729886765" lon="10.264763267116823"><ele>462.0</ele><time>2026-04-04T16:17:54Z</time></trkpt><trkpt lat="45.951697830239794" lon="10.264801142858156"><ele>462.0</ele><time>2026-04-04T16:17:56Z</time></trkpt><trkpt lat="45.95175805436906" lon="10.264853748656598"><ele>461.6</ele><time>2026-04-04T16:17:57Z</time></trkpt><trkpt lat="45.95185111319828" lon="10.264835692788541"><ele>461.20000000000005</ele><time>2026-04-04T16:17:59Z</time></trkpt><trkpt lat="45.95189862508949" lon="10.264727779673148"><ele>460.8</ele><time>2026-04-04T16:18:00Z</time></trkpt><trkpt lat="45.95194074873913" lon="10.264578634532073"><ele>460.4</ele><time>2026-04-04T16:18:01Z</time></trkpt><trkpt lat="45.95198205722853" lon="10.264455476066493"><ele>460.0</ele><time>2026-04-04T16:18:02Z</time></trkpt><trkpt lat="45.95202968038334" lon="10.264367043569973"><ele>460.0</ele><time>2026-04-04T16:18:03Z</time></trkpt><trkpt lat="45.95212375872245" lon="10.264310635907801"><ele>460.0</ele><time>2026-04-04T16:18:05Z</time></trkpt><trkpt lat="45.9521764552795" lon="10.264403837662808"><ele>460.0</ele><time>2026-04-04T16:18:07Z</time></trkpt><trkpt lat="45.9522006047061" lon="10.264593227240521"><ele>460.0</ele><time>2026-04-04T16:18:09Z</time></trkpt><trkpt lat="45.9522223123656" lon="10.264738886222462"><ele>460.0</ele><time>2026-04-04T16:18:10Z</time></trkpt><trkpt lat="45.952254155576384" lon="10.264908946630085"><ele>456.83333333333337</ele><time>2026-04-04T16:18:11Z</time></trkpt><trkpt lat="45.952295875685245" lon="10.265027376485772"><ele>453.6666666666667</ele><time>2026-04-04T16:18:12Z</time></trkpt><trkpt lat="45.95234344121918" lon="10.265152432906667"><ele>450.5</ele><time>2026-04-04T16:18:13Z</time></trkpt><trkpt lat="45.95238738849293" lon="10.265261210823578"><ele>447.33333333333337</ele><time>2026-04-04T16:18:14Z</time></trkpt><trkpt lat="45.95242635569423" lon="10.265344603816304"><ele>444.1666666666667</ele><time>2026-04-04T16:18:15Z</time></trkpt><trkpt lat="45.95246225125461" lon="10.265421500550882"><ele>441.0</ele><time>2026-04-04T16:18:16Z</time></trkpt><trkpt lat="45.95252823813205" lon="10.265526054097817"><ele>439.4</ele><time>2026-04-04T16:18:18Z</time></trkpt><trkpt lat="45.95239106588372" lon="10.265642965663332"><ele>437.8</ele><time>2026-04-04T16:18:22Z</time></trkpt><trkpt lat="45.95231109637789" lon="10.265727670556235"><ele>436.19999999999993</ele><time>2026-04-04T16:18:23Z</time></trkpt><trkpt lat="45.95225802362078" lon="10.265840463126349"><ele>434.59999999999997</ele><time>2026-04-04T16:18:24Z</time></trkpt><trkpt lat="45.952230277059115" lon="10.265954633025595"><ele>433.0</ele><time>2026-04-04T16:18:25Z</time></trkpt><trkpt lat="45.95219999205045" lon="10.266064948324795"><ele>433.0</ele><time>2026-04-04T16:18:26Z</time></trkpt><trkpt lat="45.9521984808183" lon="10.266230113673116"><ele>432.99999999999994</ele><time>2026-04-04T16:18:27Z</time></trkpt><trkpt lat="45.95216223130416" lon="10.266378875970942"><ele>432.99999999999994</ele><time>2026-04-04T16:18:28Z</time></trkpt><trkpt lat="45.95212820356196" lon="10.266522896924885"><ele>433.0</ele><time>2026-04-04T16:18:29Z</time></trkpt><trkpt lat="45.95211381651191" lon="10.266683150636403"><ele>433.0</ele><time>2026-04-04T16:18:30Z</time></trkpt><trkpt lat="45.95206457797963" lon="10.266830828092873"><ele>432.00000000000006</ele><time>2026-04-04T16:18:31Z</time></trkpt><trkpt lat="45.95203558046027" lon="10.266989809378389"><ele>431.0</ele><time>2026-04-04T16:18:32Z</time></trkpt><trkpt lat="45.95201599955589" lon="10.267111852786975"><ele>430.0</ele><time>2026-04-04T16:18:33Z</time></trkpt><trkpt lat="45.95203202640694" lon="10.26720993953147"><ele>429.0</ele><time>2026-04-04T16:18:34Z</time></trkpt><trkpt lat="45.9520603527206" lon="10.267321719871408"><ele>428.00000000000006</ele><time>2026-04-04T16:18:35Z</time></trkpt><trkpt lat="45.95208632151349" lon="10.267434385887142"><ele>427.0</ele><time>2026-04-04T16:18:36Z</time></trkpt><trkpt lat="45.952108367235994" lon="10.267533348202827"><ele>422.50000000000006</ele><time>2026-04-04T16:18:37Z</time></trkpt><trkpt lat="45.95213905540361" lon="10.267617631845138"><ele>418.0</ele><time>2026-04-04T16:18:38Z</time></trkpt><trkpt lat="45.95219428943128" lon="10.267699587725001"><ele>413.5</ele><time>2026-04-04T16:18:39Z</time></trkpt><trkpt lat="45.95227824018907" lon="10.26776318852462"><ele>409.0</ele><time>2026-04-04T16:18:40Z</time></trkpt><trkpt lat="45.952356919211006" lon="10.267810040716974"><ele>404.50000000000006</ele><time>2026-04-04T16:18:41Z</time></trkpt><trkpt lat="45.95241768763049" lon="10.267842205346923"><ele>400.0</ele><time>2026-04-04T16:18:42.001Z</time></trkpt><trkpt lat="45.952433462495065" lon="10.267995543865013"><ele>396.33333333333337</ele><time>2026-04-04T16:18:44.001Z</time></trkpt><trkpt lat="45.952352626708766" lon="10.26811612818526"><ele>392.6666666666667</ele><time>2026-04-04T16:18:46.001Z</time></trkpt><trkpt lat="45.952320736352185" lon="10.268209912275122"><ele>389.0</ele><time>2026-04-04T16:18:47.001Z</time></trkpt><trkpt lat="45.952277384273096" lon="10.268323913373962"><ele>385.33333333333337</ele><time>2026-04-04T16:18:48.001Z</time></trkpt><trkpt lat="45.95222856232335" lon="10.26843419979018"><ele>381.6666666666667</ele><time>2026-04-04T16:18:49.001Z</time></trkpt><trkpt lat="45.95217304025843" lon="10.268507442077242"><ele>378.0</ele><time>2026-04-04T16:18:50.001Z</time></trkpt><trkpt lat="45.9521275003305" lon="10.268573041373593"><ele>378.0</ele><time>2026-04-04T16:18:51.001Z</time></trkpt><trkpt lat="45.951874656043316" lon="10.268451689003452"><ele>378.0</ele><time>2026-04-04T16:18:53Z</time></trkpt><trkpt lat="45.951962934950714" lon="10.26844573575326"><ele>378.0</ele><time>2026-04-04T16:18:54Z</time></trkpt><trkpt lat="45.95189518297666" lon="10.268434740087212"><ele>378.0</ele><time>2026-04-04T16:18:55Z</time></trkpt><trkpt lat="45.951837721601656" lon="10.268490261819034"><ele>378.0</ele><time>2026-04-04T16:18:56Z</time></trkpt><trkpt lat="45.95189422047959" lon="10.268654960948414"><ele>378.0</ele><time>2026-04-04T16:18:57Z</time></trkpt><trkpt lat="45.951868101234034" lon="10.268827198404205"><ele>378.0</ele><time>2026-04-04T16:18:59Z</time></trkpt><trkpt lat="45.95175326379408" lon="10.268876285247938"><ele>378.0</ele><time>2026-04-04T16:19:01Z</time></trkpt><trkpt lat="45.95169496002397" lon="10.268914494008856"><ele>378.0</ele><time>2026-04-04T16:19:02Z</time></trkpt><trkpt lat="45.951615028075146" lon="10.268913476113667"><ele>377.79999999999995</ele><time>2026-04-04T16:19:04Z</time></trkpt><trkpt lat="45.95151904306629" lon="10.268758874003813"><ele>377.6</ele><time>2026-04-04T16:19:06Z</time></trkpt><trkpt lat="45.951477841248895" lon="10.268660558297405"><ele>377.4</ele><time>2026-04-04T16:19:07Z</time></trkpt><trkpt lat="45.95141973790666" lon="10.26859309597938"><ele>377.20000000000005</ele><time>2026-04-04T16:19:08Z</time></trkpt><trkpt lat="45.95132759003906" lon="10.268536957289173"><ele>377.0</ele><time>2026-04-04T16:19:10Z</time></trkpt><trkpt lat="45.95125324365985" lon="10.268512602404098"><ele>377.0</ele><time>2026-04-04T16:19:12Z</time></trkpt><trkpt lat="45.951146050136614" lon="10.26876645183491"><ele>377.0</ele><time>2026-04-04T16:19:13Z</time></trkpt><trkpt lat="45.951092962872245" lon="10.268901329938195"><ele>377.0</ele><time>2026-04-04T16:19:14Z</time></trkpt><trkpt lat="45.9510426585488" lon="10.26902899997443"><ele>377.0</ele><time>2026-04-04T16:19:15Z</time></trkpt><trkpt lat="45.95099567108917" lon="10.269148251980607"><ele>373.40000000000003</ele><time>2026-04-04T16:19:16Z</time></trkpt><trkpt lat="45.9509494309482" lon="10.26926560729219"><ele>369.8</ele><time>2026-04-04T16:19:17Z</time></trkpt><trkpt lat="45.95090506472" lon="10.269378206842315"><ele>366.2</ele><time>2026-04-04T16:19:18Z</time></trkpt><trkpt lat="45.950856443347924" lon="10.269507578770781"><ele>362.6</ele><time>2026-04-04T16:19:19Z</time></trkpt><trkpt lat="45.95081055599907" lon="10.269631553073355"><ele>359.0</ele><time>2026-04-04T16:19:20Z</time></trkpt><trkpt lat="45.95076103179613" lon="10.269753617012713"><ele>356.4</ele><time>2026-04-04T16:19:21Z</time></trkpt><trkpt lat="45.95069493287865" lon="10.269857668454467"><ele>353.79999999999995</ele><time>2026-04-04T16:19:22Z</time></trkpt><trkpt lat="45.95064148319735" lon="10.269963484220376"><ele>351.20000000000005</ele><time>2026-04-04T16:19:23Z</time></trkpt><trkpt lat="45.95059106970163" lon="10.27003241820331"><ele>348.6</ele><time>2026-04-04T16:19:24Z</time></trkpt><trkpt lat="45.95056598248465" lon="10.270215402295403"><ele>346.0</ele><time>2026-04-04T16:19:26Z</time></trkpt><trkpt lat="45.95057592202594" lon="10.2703509827723"><ele>346.0</ele><time>2026-04-04T16:19:27Z</time></trkpt><trkpt lat="45.95060848740626" lon="10.27050388004472"><ele>346.0</ele><time>2026-04-04T16:19:28Z</time></trkpt><trkpt lat="45.95061853506883" lon="10.270628601335211"><ele>346.0</ele><time>2026-04-04T16:19:29Z</time></trkpt><trkpt lat="45.95063357382348" lon="10.2707540070169"><ele>346.0</ele><time>2026-04-04T16:19:30Z</time></trkpt><trkpt lat="45.950680132437206" lon="10.270852794758428"><ele>346.0</ele><time>2026-04-04T16:19:31Z</time></trkpt><trkpt lat="45.95077558828839" lon="10.270909906300199"><ele>344.3333333333333</ele><time>2026-04-04T16:19:32Z</time></trkpt><trkpt lat="45.95085763010177" lon="10.270963491224435"><ele>342.66666666666663</ele><time>2026-04-04T16:19:33Z</time></trkpt><trkpt lat="45.95092163781931" lon="10.271025149273367"><ele>341.0</ele><time>2026-04-04T16:19:34Z</time></trkpt><trkpt lat="45.95099413615641" lon="10.27108250591287"><ele>339.3333333333333</ele><time>2026-04-04T16:19:35Z</time></trkpt><trkpt lat="45.9510604869088" lon="10.271116394142423"><ele>337.6666666666667</ele><time>2026-04-04T16:19:36Z</time></trkpt><trkpt lat="45.951136955506435" lon="10.271156920808348"><ele>336.0</ele><time>2026-04-04T16:19:38Z</time></trkpt><trkpt lat="45.95097146104129" lon="10.271365113568267"><ele>333.8</ele><time>2026-04-04T16:19:40Z</time></trkpt><trkpt lat="45.95090733449995" lon="10.27148253968736"><ele>331.6</ele><time>2026-04-04T16:19:41Z</time></trkpt><trkpt lat="45.95081581606701" lon="10.271592933399546"><ele>329.4</ele><time>2026-04-04T16:19:42Z</time></trkpt><trkpt lat="45.950723165591334" lon="10.271691841816141"><ele>327.2</ele><time>2026-04-04T16:19:43Z</time></trkpt><trkpt lat="45.95064703903939" lon="10.271768778220808"><ele>325.0</ele><time>2026-04-04T16:19:44Z</time></trkpt><trkpt lat="45.95056684958383" lon="10.271850486834248"><ele>325.0</ele><time>2026-04-04T16:19:45Z</time></trkpt><trkpt lat="45.950477918142944" lon="10.271954888204"><ele>325.0</ele><time>2026-04-04T16:19:46Z</time></trkpt><trkpt lat="45.950407455031" lon="10.272049504744425"><ele>325.0</ele><time>2026-04-04T16:19:47Z</time></trkpt><trkpt lat="45.95035620555785" lon="10.272117675603301"><ele>325.0</ele><time>2026-04-04T16:19:48Z</time></trkpt><trkpt lat="45.95030400874306" lon="10.272185604788048"><ele>325.0</ele><time>2026-04-04T16:19:49Z</time></trkpt><trkpt lat="45.950251261663" lon="10.272253756825997"><ele>325.0</ele><time>2026-04-04T16:19:51Z</time></trkpt><trkpt lat="45.950210809205444" lon="10.272333351388047"><ele>323.4</ele><time>2026-04-04T16:20:28Z</time></trkpt><trkpt lat="45.950158426627716" lon="10.272445330254962"><ele>321.8</ele><time>2026-04-04T16:20:30Z</time></trkpt><trkpt lat="45.950105060904704" lon="10.27251298173097"><ele>320.2</ele><time>2026-04-04T16:20:32Z</time></trkpt><trkpt lat="45.950131018572584" lon="10.27264402643967"><ele>318.6</ele><time>2026-04-04T16:20:39Z</time></trkpt><trkpt lat="45.950192925089524" lon="10.272741286133327"><ele>317.0</ele><time>2026-04-04T16:20:40Z</time></trkpt><trkpt lat="45.95027127808975" lon="10.272836175034811"><ele>317.0</ele><time>2026-04-04T16:20:41Z</time></trkpt><trkpt lat="45.95035296758951" lon="10.272913753366037"><ele>317.0</ele><time>2026-04-04T16:20:42Z</time></trkpt><trkpt lat="45.95041980332584" lon="10.272994657730177"><ele>317.0</ele><time>2026-04-04T16:20:43Z</time></trkpt><trkpt lat="45.950489001825524" lon="10.273073767220318"><ele>317.0</ele><time>2026-04-04T16:20:44Z</time></trkpt><trkpt lat="45.950552997656736" lon="10.273152861150955"><ele>317.0</ele><time>2026-04-04T16:20:45Z</time></trkpt><trkpt lat="45.95061682760255" lon="10.273233958422521"><ele>317.0</ele><time>2026-04-04T16:20:46Z</time></trkpt><trkpt lat="45.95068690143397" lon="10.273314466975792"><ele>315.4</ele><time>2026-04-04T16:20:47Z</time></trkpt><trkpt lat="45.950758627606774" lon="10.273397930424414"><ele>313.79999999999995</ele><time>2026-04-04T16:20:48Z</time></trkpt><trkpt lat="45.95081845324306" lon="10.2735034187725"><ele>312.2</ele><time>2026-04-04T16:20:49Z</time></trkpt><trkpt lat="45.950842927998295" lon="10.273628516191284"><ele>310.59999999999997</ele><time>2026-04-04T16:20:50Z</time></trkpt><trkpt lat="45.9508298928458" lon="10.273764226490789"><ele>309.0</ele><time>2026-04-04T16:20:51Z</time></trkpt><trkpt lat="45.95074144698621" lon="10.273874233798287"><ele>307.59999999999997</ele><time>2026-04-04T16:20:52Z</time></trkpt><trkpt lat="45.95067492142213" lon="10.274009148381039"><ele>306.2</ele><time>2026-04-04T16:20:53Z</time></trkpt><trkpt lat="45.95063297149305" lon="10.27413669517721"><ele>304.79999999999995</ele><time>2026-04-04T16:20:54Z</time></trkpt><trkpt lat="45.95056517978787" lon="10.274240403079554"><ele>303.4</ele><time>2026-04-04T16:20:55Z</time></trkpt><trkpt lat="45.95050990383476" lon="10.27435852246573"><ele>302.0</ele><time>2026-04-04T16:20:56Z</time></trkpt><trkpt lat="45.95045285626057" lon="10.274478865563081"><ele>302.0</ele><time>2026-04-04T16:20:57Z</time></trkpt><trkpt lat="45.95040611487833" lon="10.274610984982818"><ele>302.0</ele><time>2026-04-04T16:20:58Z</time></trkpt><trkpt lat="45.95033919579926" lon="10.274718711242286"><ele>302.0</ele><time>2026-04-04T16:20:59Z</time></trkpt><trkpt lat="45.95027692217459" lon="10.274836219715958"><ele>302.0</ele><time>2026-04-04T16:21:00Z</time></trkpt><trkpt lat="45.9502305566055" lon="10.274974142473942"><ele>302.0</ele><time>2026-04-04T16:21:01Z</time></trkpt><trkpt lat="45.950169054185345" lon="10.275106760628587"><ele>301.0</ele><time>2026-04-04T16:21:02Z</time></trkpt><trkpt lat="45.95010911527668" lon="10.275244922448296"><ele>300.0</ele><time>2026-04-04T16:21:03Z</time></trkpt><trkpt lat="45.950032697171984" lon="10.275366964841272"><ele>299.0</ele><time>2026-04-04T16:21:04Z</time></trkpt><trkpt lat="45.94998019766712" lon="10.275505794747248"><ele>298.0</ele><time>2026-04-04T16:21:05Z</time></trkpt><trkpt lat="45.949919818055704" lon="10.27563465433264"><ele>297.0</ele><time>2026-04-04T16:21:06Z</time></trkpt><trkpt lat="45.949846332879304" lon="10.275746727474178"><ele>296.0</ele><time>2026-04-04T16:21:07Z</time></trkpt><trkpt lat="45.94978175484859" lon="10.27586645826639"><ele>295.0</ele><time>2026-04-04T16:21:08Z</time></trkpt><trkpt lat="45.94973411249227" lon="10.276006684278949"><ele>294.0</ele><time>2026-04-04T16:21:09Z</time></trkpt><trkpt lat="45.94965924576792" lon="10.276113122450507"><ele>293.0</ele><time>2026-04-04T16:21:10Z</time></trkpt><trkpt lat="45.94957863241181" lon="10.276211013614654"><ele>292.0</ele><time>2026-04-04T16:21:11Z</time></trkpt><trkpt lat="45.94950441393119" lon="10.276310334958962"><ele>292.0</ele><time>2026-04-04T16:21:12Z</time></trkpt><trkpt lat="45.94942931283199" lon="10.276404283300849"><ele>292.0</ele><time>2026-04-04T16:21:13Z</time></trkpt><trkpt lat="45.94932930053939" lon="10.27644309364594"><ele>292.0</ele><time>2026-04-04T16:21:14Z</time></trkpt><trkpt lat="45.949283316747014" lon="10.276574959378275"><ele>292.0</ele><time>2026-04-04T16:21:15Z</time></trkpt><trkpt lat="45.94920952644865" lon="10.276652893441518"><ele>292.0</ele><time>2026-04-04T16:21:16Z</time></trkpt><trkpt lat="45.94913810896396" lon="10.276730524331597"><ele>290.4</ele><time>2026-04-04T16:21:17Z</time></trkpt><trkpt lat="45.94907185415521" lon="10.276813275406488"><ele>288.79999999999995</ele><time>2026-04-04T16:21:18Z</time></trkpt><trkpt lat="45.949011709845095" lon="10.276900201813858"><ele>287.2</ele><time>2026-04-04T16:21:19Z</time></trkpt><trkpt lat="45.94892945012863" lon="10.276931465005408"><ele>285.59999999999997</ele><time>2026-04-04T16:21:20Z</time></trkpt><trkpt lat="45.94887978369156" lon="10.277001941307951"><ele>284.0</ele><time>2026-04-04T16:21:21Z</time></trkpt><trkpt lat="45.948917741211766" lon="10.277333039909166"><ele>283.8</ele><time>2026-04-04T16:21:31Z</time></trkpt><trkpt lat="45.948994905007375" lon="10.27740461116566"><ele>283.59999999999997</ele><time>2026-04-04T16:21:32Z</time></trkpt><trkpt lat="45.94909567267215" lon="10.277468183120531"><ele>283.4</ele><time>2026-04-04T16:21:33Z</time></trkpt><trkpt lat="45.94919419593585" lon="10.277544086878667"><ele>283.2</ele><time>2026-04-04T16:21:34Z</time></trkpt><trkpt lat="45.949303047622394" lon="10.277630114585168"><ele>283.0</ele><time>2026-04-04T16:21:35Z</time></trkpt><trkpt lat="45.949403766047325" lon="10.277715173453089"><ele>283.0</ele><time>2026-04-04T16:21:36Z</time></trkpt><trkpt lat="45.94949753365614" lon="10.277786409950778"><ele>283.0</ele><time>2026-04-04T16:21:37Z</time></trkpt><trkpt lat="45.94959607534807" lon="10.277869878428154"><ele>283.0</ele><time>2026-04-04T16:21:38Z</time></trkpt><trkpt lat="45.949701234439516" lon="10.277946130635751"><ele>283.0</ele><time>2026-04-04T16:21:39Z</time></trkpt><trkpt lat="45.94980896927396" lon="10.277998899425501"><ele>283.0</ele><time>2026-04-04T16:21:40Z</time></trkpt><trkpt lat="45.949917750070654" lon="10.278034057801557"><ele>283.0</ele><time>2026-04-04T16:21:41Z</time></trkpt><trkpt lat="45.95001916771218" lon="10.278059865028782"><ele>283.0</ele><time>2026-04-04T16:21:42Z</time></trkpt><trkpt lat="45.95012818169879" lon="10.278073822881101"><ele>283.0</ele><time>2026-04-04T16:21:43Z</time></trkpt><trkpt lat="45.950240385866955" lon="10.278090811252964"><ele>283.0</ele><time>2026-04-04T16:21:44Z</time></trkpt><trkpt lat="45.95034755157655" lon="10.278096885140478"><ele>282.8</ele><time>2026-04-04T16:21:45Z</time></trkpt><trkpt lat="45.950456705795965" lon="10.278088289173889"><ele>282.6</ele><time>2026-04-04T16:21:46Z</time></trkpt><trkpt lat="45.95056254304516" lon="10.278053435508998"><ele>282.4</ele><time>2026-04-04T16:21:47Z</time></trkpt><trkpt lat="45.950659619049276" lon="10.278015094765443"><ele>282.2</ele><time>2026-04-04T16:21:48Z</time></trkpt><trkpt lat="45.95075582457876" lon="10.277963655720427"><ele>282.0</ele><time>2026-04-04T16:21:49Z</time></trkpt><trkpt lat="45.95086398128747" lon="10.277901106332862"><ele>281.75</ele><time>2026-04-04T16:21:50Z</time></trkpt><trkpt lat="45.95097135425965" lon="10.277845131639577"><ele>281.5</ele><time>2026-04-04T16:21:51Z</time></trkpt><trkpt lat="45.95107875453619" lon="10.277801662507967"><ele>281.25</ele><time>2026-04-04T16:21:52Z</time></trkpt><trkpt lat="45.951193974222186" lon="10.277765551901808"><ele>281.0</ele><time>2026-04-04T16:21:53Z</time></trkpt><trkpt lat="45.951313186542414" lon="10.27774762369664"><ele>281.0</ele><time>2026-04-04T16:21:54Z</time></trkpt><trkpt lat="45.95145338898232" lon="10.27777263786706"><ele>281.0</ele><time>2026-04-04T16:21:55Z</time></trkpt><trkpt lat="45.95159200000229" lon="10.277774486630728"><ele>281.0</ele><time>2026-04-04T16:21:56Z</time></trkpt><trkpt lat="45.95171487148791" lon="10.277776708303938"><ele>281.0</ele><time>2026-04-04T16:21:57Z</time></trkpt><trkpt lat="45.95183497391715" lon="10.277817974115937"><ele>281.5</ele><time>2026-04-04T16:21:58Z</time></trkpt><trkpt lat="45.95196987383494" lon="10.2778374402903"><ele>282.0</ele><time>2026-04-04T16:21:59Z</time></trkpt><trkpt lat="45.95208466126971" lon="10.277883981880976"><ele>282.5</ele><time>2026-04-04T16:22:00Z</time></trkpt><trkpt lat="45.95219463319631" lon="10.277918156844228"><ele>283.0</ele><time>2026-04-04T16:22:01Z</time></trkpt><trkpt lat="45.95230439263264" lon="10.277935733968219"><ele>283.0</ele><time>2026-04-04T16:22:02Z</time></trkpt><trkpt lat="45.9523930211641" lon="10.277960002072351"><ele>283.0</ele><time>2026-04-04T16:22:03Z</time></trkpt><trkpt lat="45.95246734480266" lon="10.27799047275334"><ele>283.0</ele><time>2026-04-04T16:22:04Z</time></trkpt><trkpt lat="45.952543370582504" lon="10.278041109134389"><ele>283.0</ele><time>2026-04-04T16:22:06Z</time></trkpt><trkpt lat="45.95262430351839" lon="10.278054073952022"><ele>283.0</ele><time>2026-04-04T16:24:23Z</time></trkpt><trkpt lat="45.95274533594043" lon="10.278061195441012"><ele>282.75</ele><time>2026-04-04T16:24:25Z</time></trkpt><trkpt lat="45.95286381078311" lon="10.278094904137314"><ele>282.5</ele><time>2026-04-04T16:24:26Z</time></trkpt><trkpt lat="45.95296868761274" lon="10.278121361113714"><ele>282.25</ele><time>2026-04-04T16:24:27Z</time></trkpt><trkpt lat="45.95308705982898" lon="10.278159702069352"><ele>282.0</ele><time>2026-04-04T16:24:28Z</time></trkpt><trkpt lat="45.953206589078945" lon="10.278198250300008"><ele>282.0</ele><time>2026-04-04T16:24:29Z</time></trkpt><trkpt lat="45.9533257687452" lon="10.278278026240267"><ele>282.0</ele><time>2026-04-04T16:24:30Z</time></trkpt><trkpt lat="45.95343692744157" lon="10.278399253260542"><ele>282.0</ele><time>2026-04-04T16:24:31Z</time></trkpt><trkpt lat="45.95353332370441" lon="10.2785428494424"><ele>282.0</ele><time>2026-04-04T16:24:32Z</time></trkpt><trkpt lat="45.95362907026836" lon="10.278711364405128"><ele>287.75</ele><time>2026-04-04T16:24:33Z</time></trkpt><trkpt lat="45.953711996975684" lon="10.278884184756627"><ele>293.5</ele><time>2026-04-04T16:24:34Z</time></trkpt><trkpt lat="45.95379100193895" lon="10.279055142221623"><ele>299.25</ele><time>2026-04-04T16:24:35Z</time></trkpt><trkpt lat="45.95385711628562" lon="10.279223355097841"><ele>305.0</ele><time>2026-04-04T16:24:36Z</time></trkpt><trkpt lat="45.953918271315914" lon="10.279385808566463"><ele>305.0</ele><time>2026-04-04T16:24:37Z</time></trkpt><trkpt lat="45.953972044684114" lon="10.279548086516154"><ele>305.0</ele><time>2026-04-04T16:24:38Z</time></trkpt><trkpt lat="45.95402104347642" lon="10.279713354710227"><ele>305.0</ele><time>2026-04-04T16:24:39Z</time></trkpt><trkpt lat="45.954069503248284" lon="10.279876553078457"><ele>305.0</ele><time>2026-04-04T16:24:40Z</time></trkpt><trkpt lat="45.95411980451709" lon="10.28003686921689"><ele>301.5</ele><time>2026-04-04T16:24:41Z</time></trkpt><trkpt lat="45.9541713045269" lon="10.280197506026422"><ele>298.0</ele><time>2026-04-04T16:24:42Z</time></trkpt><trkpt lat="45.954224178440846" lon="10.280357818689717"><ele>294.5</ele><time>2026-04-04T16:24:43Z</time></trkpt><trkpt lat="45.954268282970354" lon="10.280508450183135"><ele>291.0</ele><time>2026-04-04T16:24:44Z</time></trkpt><trkpt lat="45.95430908095826" lon="10.280644246723211"><ele>289.0</ele><time>2026-04-04T16:24:45Z</time></trkpt><trkpt lat="45.95433010850853" lon="10.28074925133018"><ele>287.0</ele><time>2026-04-04T16:24:46Z</time></trkpt><trkpt lat="45.954348690815486" lon="10.2808829291885"><ele>285.0</ele><time>2026-04-04T16:24:48Z</time></trkpt><trkpt lat="45.9542229483781" lon="10.280912531174964"><ele>283.0</ele><time>2026-04-04T16:24:49Z</time></trkpt><trkpt lat="45.95413117751355" lon="10.280953802419777"><ele>281.0</ele><time>2026-04-04T16:24:50Z</time></trkpt><trkpt lat="45.954035681263484" lon="10.281007938133188"><ele>281.0</ele><time>2026-04-04T16:24:51Z</time></trkpt><trkpt lat="45.953966526969246" lon="10.281092591766344"><ele>281.0</ele><time>2026-04-04T16:24:52Z</time></trkpt><trkpt lat="45.9538489797993" lon="10.281115874698395"><ele>281.0</ele><time>2026-04-04T16:24:53Z</time></trkpt><trkpt lat="45.95372437249641" lon="10.281188224349782"><ele>281.0</ele><time>2026-04-04T16:24:54Z</time></trkpt><trkpt lat="45.95363677467345" lon="10.281239085506964"><ele>281.0</ele><time>2026-04-04T16:24:55Z</time></trkpt><trkpt lat="45.95355953734547" lon="10.281289540440838"><ele>281.0</ele><time>2026-04-04T16:24:56Z</time></trkpt><trkpt lat="45.953493870572174" lon="10.28134949396948"><ele>281.0</ele><time>2026-04-04T16:24:57Z</time></trkpt><trkpt lat="45.95341886969754" lon="10.281372864543128"><ele>281.0</ele><time>2026-04-04T16:24:58Z</time></trkpt><trkpt lat="45.953462629801514" lon="10.281440483062672"><ele>281.0</ele><time>2026-04-04T16:25:02Z</time></trkpt><trkpt lat="45.95348350323857" lon="10.281583883117504"><ele>281.0</ele><time>2026-04-04T16:25:04Z</time></trkpt><trkpt lat="45.95351405210898" lon="10.28175522426319"><ele>281.0</ele><time>2026-04-04T16:25:05Z</time></trkpt><trkpt lat="45.95356671484027" lon="10.281914669265452"><ele>280.6666666666667</ele><time>2026-04-04T16:25:06Z</time></trkpt><trkpt lat="45.95363140474371" lon="10.282180223145808"><ele>280.3333333333333</ele><time>2026-04-04T16:25:07Z</time></trkpt><trkpt lat="45.953685755548186" lon="10.282403334728725"><ele>280.0</ele><time>2026-04-04T16:25:08Z</time></trkpt><trkpt lat="45.95358553983893" lon="10.28265707241296"><ele>279.6</ele><time>2026-04-04T16:25:09Z</time></trkpt><trkpt lat="45.953591499862846" lon="10.282821535394252"><ele>279.2</ele><time>2026-04-04T16:25:10Z</time></trkpt><trkpt lat="45.953608335320816" lon="10.282937960463915"><ele>278.8</ele><time>2026-04-04T16:25:11Z</time></trkpt><trkpt lat="45.9535378630195" lon="10.282940926273326"><ele>278.4</ele><time>2026-04-04T16:25:14Z</time></trkpt><trkpt lat="45.953390662313694" lon="10.282905017582953"><ele>278.0</ele><time>2026-04-04T16:25:16Z</time></trkpt><trkpt lat="45.95329553216649" lon="10.28288448239723"><ele>278.0</ele><time>2026-04-04T16:25:17Z</time></trkpt><trkpt lat="45.95322267952096" lon="10.282866305461063"><ele>278.0</ele><time>2026-04-04T16:25:18Z</time></trkpt><trkpt lat="45.95315452593384" lon="10.282869838856092"><ele>278.0</ele><time>2026-04-04T16:25:20Z</time></trkpt><trkpt lat="45.95311193263245" lon="10.283007557190306"><ele>278.0</ele><time>2026-04-04T16:25:22Z</time></trkpt><trkpt lat="45.95308609152796" lon="10.28310008472367"><ele>278.0</ele><time>2026-04-04T16:25:23Z</time></trkpt><trkpt lat="45.95305674720453" lon="10.283181692623044"><ele>278.0</ele><time>2026-04-04T16:25:24Z</time></trkpt><trkpt lat="45.95303389496759" lon="10.283270956441267"><ele>278.0</ele><time>2026-04-04T16:25:25Z</time></trkpt><trkpt lat="45.95300933603164" lon="10.283359697301133"><ele>278.1666666666667</ele><time>2026-04-04T16:25:26Z</time></trkpt><trkpt lat="45.95298304306949" lon="10.28345200144823"><ele>278.33333333333337</ele><time>2026-04-04T16:25:27Z</time></trkpt><trkpt lat="45.95295336107457" lon="10.283559146293053"><ele>278.5</ele><time>2026-04-04T16:25:28Z</time></trkpt><trkpt lat="45.952927404095014" lon="10.2836865326276"><ele>278.6666666666667</ele><time>2026-04-04T16:25:29Z</time></trkpt><trkpt lat="45.95290776162827" lon="10.28381603903633"><ele>278.8333333333333</ele><time>2026-04-04T16:25:30Z</time></trkpt><trkpt lat="45.95290215347886" lon="10.283938548972262"><ele>279.0</ele><time>2026-04-04T16:25:31Z</time></trkpt><trkpt lat="45.95294221868299" lon="10.284048575283993"><ele>280.0</ele><time>2026-04-04T16:25:32Z</time></trkpt><trkpt lat="45.952995110148926" lon="10.284148084897634"><ele>281.0</ele><time>2026-04-04T16:25:33Z</time></trkpt><trkpt lat="45.95306292464639" lon="10.284249843246325"><ele>282.0</ele><time>2026-04-04T16:25:34Z</time></trkpt><trkpt lat="45.95314035310915" lon="10.284308641167852"><ele>283.0</ele><time>2026-04-04T16:25:35Z</time></trkpt><trkpt lat="45.953244844211504" lon="10.284341903710757"><ele>284.0</ele><time>2026-04-04T16:25:36Z</time></trkpt><trkpt lat="45.95333055037386" lon="10.284367205445463"><ele>282.59999999999997</ele><time>2026-04-04T16:25:37Z</time></trkpt><trkpt lat="45.953441249673716" lon="10.284407725462065"><ele>281.2</ele><time>2026-04-04T16:25:38Z</time></trkpt><trkpt lat="45.953515889263386" lon="10.284429295615364"><ele>279.79999999999995</ele><time>2026-04-04T16:25:39Z</time></trkpt><trkpt lat="45.95359992572138" lon="10.284444244567434"><ele>278.4</ele><time>2026-04-04T16:25:40Z</time></trkpt><trkpt lat="45.95370168936468" lon="10.284445923607977"><ele>277.0</ele><time>2026-04-04T16:25:41Z</time></trkpt><trkpt lat="45.953805933985315" lon="10.28442310230737"><ele>277.0</ele><time>2026-04-04T16:25:42Z</time></trkpt><trkpt lat="45.95388701137811" lon="10.284353472073763"><ele>277.0</ele><time>2026-04-04T16:25:43Z</time></trkpt><trkpt lat="45.9540291918534" lon="10.284288007261278"><ele>277.0</ele><time>2026-04-04T16:25:44Z</time></trkpt><trkpt lat="45.95417552345274" lon="10.284255448266697"><ele>277.0</ele><time>2026-04-04T16:25:45Z</time></trkpt><trkpt lat="45.95430068624244" lon="10.284245665746646"><ele>276.75</ele><time>2026-04-04T16:25:46Z</time></trkpt><trkpt lat="45.95441125570813" lon="10.284287404313465"><ele>276.5</ele><time>2026-04-04T16:25:47Z</time></trkpt><trkpt lat="45.954501791891445" lon="10.284381371121317"><ele>276.25</ele><time>2026-04-04T16:25:48Z</time></trkpt><trkpt lat="45.954609596882904" lon="10.284476681242824"><ele>276.0</ele><time>2026-04-04T16:25:49Z</time></trkpt><trkpt lat="45.95474014288031" lon="10.2845414106039"><ele>276.0</ele><time>2026-04-04T16:25:50Z</time></trkpt><trkpt lat="45.95497671759982" lon="10.284094108038321"><ele>276.0</ele><time>2026-04-04T16:25:51Z</time></trkpt><trkpt lat="45.95506470070989" lon="10.284056566420043"><ele>278.6</ele><time>2026-04-04T16:25:52Z</time></trkpt><trkpt lat="45.9551484741136" lon="10.283887065581707"><ele>281.20000000000005</ele><time>2026-04-04T16:25:54Z</time></trkpt><trkpt lat="45.955112461168355" lon="10.283766434113312"><ele>283.79999999999995</ele><time>2026-04-04T16:25:56Z</time></trkpt><trkpt lat="45.9551093716128" lon="10.283646826458124"><ele>286.4</ele><time>2026-04-04T16:25:58Z</time></trkpt><trkpt lat="45.955168947737974" lon="10.283505045086498"><ele>289.0</ele><time>2026-04-04T16:26:01Z</time></trkpt><trkpt lat="45.95522792144235" lon="10.283449029766093"><ele>289.0</ele><time>2026-04-04T16:26:02Z</time></trkpt><trkpt lat="45.95529079305686" lon="10.283399328542405"><ele>289.0</ele><time>2026-04-04T16:26:03Z</time></trkpt><trkpt lat="45.95539477439939" lon="10.283395846517493"><ele>289.0</ele><time>2026-04-04T16:26:05Z</time></trkpt><trkpt lat="45.95545391133792" lon="10.283442159832822"><ele>289.0</ele><time>2026-04-04T16:26:06Z</time></trkpt><trkpt lat="45.9555120724396" lon="10.283524297169613"><ele>289.0</ele><time>2026-04-04T16:26:07Z</time></trkpt><trkpt lat="45.95561357937968" lon="10.283650191991526"><ele>289.0</ele><time>2026-04-04T16:26:08Z</time></trkpt><trkpt lat="45.95581355956342" lon="10.28384181871119"><ele>289.0</ele><time>2026-04-04T16:26:09Z</time></trkpt><trkpt lat="45.95594985176308" lon="10.284008735266662"><ele>289.0</ele><time>2026-04-04T16:26:10Z</time></trkpt><trkpt lat="45.955968748535945" lon="10.28415291382141"><ele>288.0</ele><time>2026-04-04T16:26:11Z</time></trkpt><trkpt lat="45.95611230065429" lon="10.284381112496108"><ele>287.0</ele><time>2026-04-04T16:26:12Z</time></trkpt><trkpt lat="45.95620116066584" lon="10.284648140502481"><ele>286.0</ele><time>2026-04-04T16:26:13Z</time></trkpt><trkpt lat="45.956223971209575" lon="10.284888870959131"><ele>284.66666666666663</ele><time>2026-04-04T16:26:14Z</time></trkpt><trkpt lat="45.956255008803446" lon="10.285128219731677"><ele>283.3333333333333</ele><time>2026-04-04T16:26:15Z</time></trkpt><trkpt lat="45.95629759950503" lon="10.285365163990036"><ele>282.0</ele><time>2026-04-04T16:26:16Z</time></trkpt><trkpt lat="45.95633142801472" lon="10.285525177512513"><ele>282.0</ele><time>2026-04-04T16:26:17Z</time></trkpt><trkpt lat="45.95633647816612" lon="10.285677034529618"><ele>282.0</ele><time>2026-04-04T16:26:18Z</time></trkpt><trkpt lat="45.95634933446522" lon="10.285817138882512"><ele>282.0</ele><time>2026-04-04T16:26:20Z</time></trkpt><trkpt lat="45.95637377431609" lon="10.285911298456703"><ele>282.0</ele><time>2026-04-04T16:26:21Z</time></trkpt><trkpt lat="45.9564069487635" lon="10.286016844723868"><ele>282.0</ele><time>2026-04-04T16:26:22Z</time></trkpt><trkpt lat="45.95644026074847" lon="10.28611795020781"><ele>282.0</ele><time>2026-04-04T16:26:23Z</time></trkpt><trkpt lat="45.956475774557624" lon="10.286262309323433"><ele>282.0</ele><time>2026-04-04T16:26:24Z</time></trkpt><trkpt lat="45.95650869830688" lon="10.286440704066978"><ele>282.0</ele><time>2026-04-04T16:26:25Z</time></trkpt><trkpt lat="45.95652523115473" lon="10.286607510063027"><ele>282.0</ele><time>2026-04-04T16:26:26Z</time></trkpt><trkpt lat="45.95653883721633" lon="10.286786017185158"><ele>282.0</ele><time>2026-04-04T16:26:27Z</time></trkpt><trkpt lat="45.95657812953427" lon="10.286972437299362"><ele>282.0</ele><time>2026-04-04T16:26:28Z</time></trkpt><trkpt lat="45.95659793226945" lon="10.287163111434314"><ele>282.0</ele><time>2026-04-04T16:26:29Z</time></trkpt><trkpt lat="45.95661608530209" lon="10.287336010183315"><ele>282.0</ele><time>2026-04-04T16:26:30Z</time></trkpt><trkpt lat="45.956633885811996" lon="10.28748814123384"><ele>282.0</ele><time>2026-04-04T16:26:31Z</time></trkpt><trkpt lat="45.95665483470697" lon="10.28763190848822"><ele>282.2</ele><time>2026-04-04T16:26:32Z</time></trkpt><trkpt lat="45.95666918188279" lon="10.287771374464272"><ele>282.4</ele><time>2026-04-04T16:26:33Z</time></trkpt><trkpt lat="45.956694461949375" lon="10.28791384238682"><ele>282.6</ele><time>2026-04-04T16:26:34Z</time></trkpt><trkpt lat="45.956731465181896" lon="10.288068056811307"><ele>282.8</ele><time>2026-04-04T16:26:35Z</time></trkpt><trkpt lat="45.95677284949044" lon="10.28823290121127"><ele>283.0</ele><time>2026-04-04T16:26:36Z</time></trkpt><trkpt lat="45.956797076367366" lon="10.288379511734279"><ele>283.4</ele><time>2026-04-04T16:26:37Z</time></trkpt><trkpt lat="45.95678295712559" lon="10.288527490744537"><ele>283.8</ele><time>2026-04-04T16:26:38Z</time></trkpt><trkpt lat="45.956773770813875" lon="10.288664370084778"><ele>284.2</ele><time>2026-04-04T16:26:39Z</time></trkpt><trkpt lat="45.956763403543526" lon="10.288776136304715"><ele>284.6</ele><time>2026-04-04T16:26:40Z</time></trkpt><trkpt lat="45.95668678093912" lon="10.288859237679258"><ele>285.0</ele><time>2026-04-04T16:26:42Z</time></trkpt><trkpt lat="45.95658825743778" lon="10.2889276052049"><ele>285.75</ele><time>2026-04-04T16:26:44Z</time></trkpt><trkpt lat="45.95645510239346" lon="10.28903078963399"><ele>286.5</ele><time>2026-04-04T16:26:45Z</time></trkpt><trkpt lat="45.956344864693186" lon="10.289106591756225"><ele>287.25</ele><time>2026-04-04T16:26:46Z</time></trkpt><trkpt lat="45.95624579503854" lon="10.289211845176817"><ele>288.0</ele><time>2026-04-04T16:26:47Z</time></trkpt><trkpt lat="45.95614456957451" lon="10.289378216713676"><ele>288.0</ele><time>2026-04-04T16:26:48Z</time></trkpt><trkpt lat="45.956122770575405" lon="10.289636360025204"><ele>288.0</ele><time>2026-04-04T16:26:49Z</time></trkpt><trkpt lat="45.95610851274152" lon="10.289841431098731"><ele>288.0</ele><time>2026-04-04T16:26:50Z</time></trkpt><trkpt lat="45.956134330966115" lon="10.290065709980599"><ele>288.0</ele><time>2026-04-04T16:26:51Z</time></trkpt><trkpt lat="45.95618046021062" lon="10.290323334345727"><ele>288.0</ele><time>2026-04-04T16:26:52Z</time></trkpt><trkpt lat="45.956221281265265" lon="10.290593999496348"><ele>288.0</ele><time>2026-04-04T16:26:53Z</time></trkpt><trkpt lat="45.956262093450405" lon="10.290861467214425"><ele>289.0</ele><time>2026-04-04T16:26:54Z</time></trkpt><trkpt lat="45.95630010125516" lon="10.29112689386878"><ele>290.0</ele><time>2026-04-04T16:26:55Z</time></trkpt><trkpt lat="45.956321260501234" lon="10.291413532351735"><ele>291.0</ele><time>2026-04-04T16:26:56Z</time></trkpt><trkpt lat="45.956305747266136" lon="10.291693074176688"><ele>293.0</ele><time>2026-04-04T16:26:57Z</time></trkpt><trkpt lat="45.95622190346862" lon="10.291942194251718"><ele>295.0</ele><time>2026-04-04T16:26:58Z</time></trkpt><trkpt lat="45.95613137920906" lon="10.292194357437452"><ele>297.0</ele><time>2026-04-04T16:26:59Z</time></trkpt><trkpt lat="45.95604023741522" lon="10.292461518863812"><ele>300.5</ele><time>2026-04-04T16:27:00Z</time></trkpt><trkpt lat="45.955943239717605" lon="10.292760945633713"><ele>304.0</ele><time>2026-04-04T16:27:01Z</time></trkpt><trkpt lat="45.95585900339208" lon="10.29305424790753"><ele>308.3333333333333</ele><time>2026-04-04T16:27:02Z</time></trkpt><trkpt lat="45.9557688369767" lon="10.293349185358316"><ele>312.6666666666667</ele><time>2026-04-04T16:27:03Z</time></trkpt><trkpt lat="45.95567196530903" lon="10.29361650580321"><ele>317.0</ele><time>2026-04-04T16:27:04Z</time></trkpt><trkpt lat="45.955518830974334" lon="10.293821663927197"><ele>313.0</ele><time>2026-04-04T16:27:05Z</time></trkpt><trkpt lat="45.95532866584386" lon="10.294012617175031"><ele>309.0</ele><time>2026-04-04T16:27:06Z</time></trkpt><trkpt lat="45.955143682856765" lon="10.294182130590105"><ele>314.0</ele><time>2026-04-04T16:27:07Z</time></trkpt><trkpt lat="45.95492241750536" lon="10.294385651223738"><ele>319.0</ele><time>2026-04-04T16:27:08Z</time></trkpt><trkpt lat="45.95470012833497" lon="10.29456553067686"><ele>316.0</ele><time>2026-04-04T16:27:09Z</time></trkpt><trkpt lat="45.95447313877738" lon="10.294766646783774"><ele>313.0</ele><time>2026-04-04T16:27:10Z</time></trkpt><trkpt lat="45.95426878825118" lon="10.294928523800628"><ele>315.66666666666663</ele><time>2026-04-04T16:27:11Z</time></trkpt><trkpt lat="45.95410828700251" lon="10.29509046824638"><ele>318.3333333333333</ele><time>2026-04-04T16:27:12Z</time></trkpt><trkpt lat="45.95396435676712" lon="10.295243951937847"><ele>321.0</ele><time>2026-04-04T16:27:13Z</time></trkpt><trkpt lat="45.953841795270115" lon="10.295438174189062"><ele>320.6666666666667</ele><time>2026-04-04T16:27:14Z</time></trkpt><trkpt lat="45.95374773593626" lon="10.295665553991128"><ele>320.33333333333337</ele><time>2026-04-04T16:27:15Z</time></trkpt><trkpt lat="45.95368568722582" lon="10.295905715936803"><ele>320.0</ele><time>2026-04-04T16:27:16Z</time></trkpt><trkpt lat="45.95364661699068" lon="10.296128244545809"><ele>320.0</ele><time>2026-04-04T16:27:17Z</time></trkpt><trkpt lat="45.95361443231967" lon="10.296348896986155"><ele>320.0</ele><time>2026-04-04T16:27:18Z</time></trkpt><trkpt lat="45.95357136825843" lon="10.296522922349201"><ele>320.0</ele><time>2026-04-04T16:27:19Z</time></trkpt><trkpt lat="45.95358031331523" lon="10.296668211960311"><ele>320.0</ele><time>2026-04-04T16:27:20Z</time></trkpt><trkpt lat="45.95358688315593" lon="10.296772018827797"><ele>322.2</ele><time>2026-04-04T16:27:21Z</time></trkpt><trkpt lat="45.953577466815766" lon="10.29691962079837"><ele>324.4</ele><time>2026-04-04T16:27:23Z</time></trkpt><trkpt lat="45.95365247032394" lon="10.29693616497113"><ele>326.6</ele><time>2026-04-04T16:28:10Z</time></trkpt><trkpt lat="45.95360531710529" lon="10.297000441932235"><ele>328.8</ele><time>2026-04-04T16:28:45Z</time></trkpt><trkpt lat="45.95360898709003" lon="10.297157226816559"><ele>331.0</ele><time>2026-04-04T16:28:49Z</time></trkpt><trkpt lat="45.953704224501664" lon="10.297297050891691"><ele>332.6</ele><time>2026-04-04T16:28:51Z</time></trkpt><trkpt lat="45.95375353523591" lon="10.297391369123456"><ele>334.20000000000005</ele><time>2026-04-04T16:28:52Z</time></trkpt><trkpt lat="45.953838688846965" lon="10.297510710819346"><ele>335.79999999999995</ele><time>2026-04-04T16:28:53Z</time></trkpt><trkpt lat="45.95389446211827" lon="10.297668197981471"><ele>337.4</ele><time>2026-04-04T16:28:54Z</time></trkpt><trkpt lat="45.953911332088076" lon="10.297842113774635"><ele>339.0</ele><time>2026-04-04T16:28:55Z</time></trkpt><trkpt lat="45.953940449039436" lon="10.297945636468862"><ele>338.5</ele><time>2026-04-04T16:28:56Z</time></trkpt><trkpt lat="45.954040870250466" lon="10.298512774565117"><ele>338.0</ele><time>2026-04-04T16:28:58Z</time></trkpt><trkpt lat="45.95411961274208" lon="10.298625095993426"><ele>339.2</ele><time>2026-04-04T16:28:59Z</time></trkpt><trkpt lat="45.954207687456616" lon="10.298724625339968"><ele>340.4</ele><time>2026-04-04T16:29:00Z</time></trkpt><trkpt lat="45.95428226846837" lon="10.29881228474447"><ele>341.59999999999997</ele><time>2026-04-04T16:29:01Z</time></trkpt><trkpt lat="45.9543692715665" lon="10.298856951395456"><ele>342.79999999999995</ele><time>2026-04-04T16:29:02Z</time></trkpt><trkpt lat="45.95441505841141" lon="10.298929177521346"><ele>344.0</ele><time>2026-04-04T16:29:03Z</time></trkpt><trkpt lat="45.95446983085097" lon="10.299015577871733"><ele>344.0</ele><time>2026-04-04T16:29:04Z</time></trkpt><trkpt lat="45.95454654316391" lon="10.29913576399556"><ele>344.0</ele><time>2026-04-04T16:29:05Z</time></trkpt><trkpt lat="45.954610121300455" lon="10.29925047065293"><ele>344.0</ele><time>2026-04-04T16:29:06Z</time></trkpt><trkpt lat="45.95471952194623" lon="10.299406014026257"><ele>344.0</ele><time>2026-04-04T16:29:07Z</time></trkpt><trkpt lat="45.95484457666493" lon="10.299600661128576"><ele>344.0</ele><time>2026-04-04T16:29:08Z</time></trkpt><trkpt lat="45.95490209808468" lon="10.299690192944576"><ele>344.0</ele><time>2026-04-04T16:29:09Z</time></trkpt><trkpt lat="45.95495808741346" lon="10.299777340023017"><ele>344.0</ele><time>2026-04-04T16:29:10Z</time></trkpt><trkpt lat="45.95504387170936" lon="10.299909941054324"><ele>344.0</ele><time>2026-04-04T16:29:11Z</time></trkpt><trkpt lat="45.95485155854362" lon="10.300000342776814"><ele>342.75</ele><time>2026-04-04T16:29:12Z</time></trkpt><trkpt lat="45.95477380589959" lon="10.300159182247198"><ele>341.5</ele><time>2026-04-04T16:29:13Z</time></trkpt><trkpt lat="45.95468125180111" lon="10.300347646824648"><ele>340.25</ele><time>2026-04-04T16:29:14Z</time></trkpt><trkpt lat="45.95460317344071" lon="10.300477606323547"><ele>339.0</ele><time>2026-04-04T16:29:15Z</time></trkpt><trkpt lat="45.95453890222183" lon="10.300545097069943"><ele>339.0</ele><time>2026-04-04T16:29:16Z</time></trkpt><trkpt lat="45.954425098050955" lon="10.300614487397699"><ele>339.0</ele><time>2026-04-04T16:29:18Z</time></trkpt><trkpt lat="45.95437741818415" lon="10.300541833297789"><ele>339.0</ele><time>2026-04-04T16:29:19Z</time></trkpt><trkpt lat="45.954323817856476" lon="10.300663393040539"><ele>339.0</ele><time>2026-04-04T16:29:20Z</time></trkpt><trkpt lat="45.95426356871186" lon="10.300813380358665"><ele>339.0</ele><time>2026-04-04T16:29:22Z</time></trkpt><trkpt lat="45.95425648080733" lon="10.300986373960226"><ele>344.3333333333333</ele><time>2026-04-04T16:29:23Z</time></trkpt><trkpt lat="45.95418497234044" lon="10.301248063582152"><ele>349.66666666666663</ele><time>2026-04-04T16:29:24Z</time></trkpt><trkpt lat="45.95410855227915" lon="10.30137661785119"><ele>355.0</ele><time>2026-04-04T16:29:25Z</time></trkpt><trkpt lat="45.9539589222719" lon="10.301464813846291"><ele>355.0</ele><time>2026-04-04T16:29:26Z</time></trkpt><trkpt lat="45.95381523174505" lon="10.30155691344895"><ele>355.0</ele><time>2026-04-04T16:29:27Z</time></trkpt><trkpt lat="45.953678459615794" lon="10.301683434072297"><ele>355.0</ele><time>2026-04-04T16:29:28Z</time></trkpt><trkpt lat="45.953515494850926" lon="10.301848342171423"><ele>360.5</ele><time>2026-04-04T16:29:29Z</time></trkpt><trkpt lat="45.95330990114972" lon="10.302053775150073"><ele>366.0</ele><time>2026-04-04T16:29:30Z</time></trkpt><trkpt lat="45.953062889791475" lon="10.302325670380121"><ele>366.0</ele><time>2026-04-04T16:29:31Z</time></trkpt><trkpt lat="45.95292171636786" lon="10.302454386447605"><ele>366.0</ele><time>2026-04-04T16:29:32Z</time></trkpt><trkpt lat="45.95277588863301" lon="10.302561257241402"><ele>366.0</ele><time>2026-04-04T16:29:33Z</time></trkpt><trkpt lat="45.952645664106576" lon="10.30277145964139"><ele>370.0</ele><time>2026-04-04T16:29:34Z</time></trkpt><trkpt lat="45.95251856552922" lon="10.303001454171662"><ele>374.0</ele><time>2026-04-04T16:29:35Z</time></trkpt><trkpt lat="45.95240364123793" lon="10.303190543600538"><ele>378.0</ele><time>2026-04-04T16:29:36Z</time></trkpt><trkpt lat="45.95230993668848" lon="10.303331684412885"><ele>378.0</ele><time>2026-04-04T16:29:37Z</time></trkpt><trkpt lat="45.952252645130976" lon="10.30346412722446"><ele>378.0</ele><time>2026-04-04T16:29:38Z</time></trkpt><trkpt lat="45.95224548955649" lon="10.303612766422173"><ele>378.0</ele><time>2026-04-04T16:29:39Z</time></trkpt><trkpt lat="45.95231799973741" lon="10.303761310803047"><ele>378.0</ele><time>2026-04-04T16:29:40Z</time></trkpt><trkpt lat="45.9524117573085" lon="10.303941005968838"><ele>378.0</ele><time>2026-04-04T16:29:41Z</time></trkpt><trkpt lat="45.9525229178571" lon="10.30411576183702"><ele>378.0</ele><time>2026-04-04T16:29:42Z</time></trkpt><trkpt lat="45.95256964773786" lon="10.304244827789253"><ele>378.0</ele><time>2026-04-04T16:29:43Z</time></trkpt><trkpt lat="45.95256589598264" lon="10.304346630514573"><ele>378.0</ele><time>2026-04-04T16:29:44Z</time></trkpt><trkpt lat="45.95245390647773" lon="10.304382416517457"><ele>378.0</ele><time>2026-04-04T16:29:45Z</time></trkpt><trkpt lat="45.95242711991528" lon="10.30447856075951"><ele>378.0</ele><time>2026-04-04T16:29:46Z</time></trkpt><trkpt lat="45.9524649143513" lon="10.30458797272191"><ele>378.0</ele><time>2026-04-04T16:29:47Z</time></trkpt><trkpt lat="45.95258219593095" lon="10.304653437627968"><ele>378.0</ele><time>2026-04-04T16:29:48Z</time></trkpt><trkpt lat="45.95267945137343" lon="10.304763964510414"><ele>378.0</ele><time>2026-04-04T16:29:49Z</time></trkpt><trkpt lat="45.952779088382364" lon="10.304932652279263"><ele>379.59999999999997</ele><time>2026-04-04T16:29:50Z</time></trkpt><trkpt lat="45.952887332638774" lon="10.305083137705136"><ele>381.2</ele><time>2026-04-04T16:29:51Z</time></trkpt><trkpt lat="45.95297636228249" lon="10.305195329166065"><ele>382.8</ele><time>2026-04-04T16:29:52Z</time></trkpt><trkpt lat="45.95303669565949" lon="10.305283986238667"><ele>384.4</ele><time>2026-04-04T16:29:53Z</time></trkpt><trkpt lat="45.95309111053504" lon="10.305334108797792"><ele>386.0</ele><time>2026-04-04T16:29:54Z</time></trkpt><trkpt lat="45.953175485270144" lon="10.305442949746249"><ele>386.0</ele><time>2026-04-04T16:29:56Z</time></trkpt><trkpt lat="45.953293836196956" lon="10.305523796097914"><ele>386.0</ele><time>2026-04-04T16:29:57Z</time></trkpt><trkpt lat="45.953433816402594" lon="10.305642910735859"><ele>386.0</ele><time>2026-04-04T16:29:58Z</time></trkpt><trkpt lat="45.95353601229781" lon="10.305738357308345"><ele>386.0</ele><time>2026-04-04T16:29:59Z</time></trkpt><trkpt lat="45.95358995316762" lon="10.305806326002315"><ele>386.75</ele><time>2026-04-04T16:30:00Z</time></trkpt><trkpt lat="45.9534855277753" lon="10.305904279051646"><ele>387.5</ele><time>2026-04-04T16:30:03Z</time></trkpt><trkpt lat="45.95340558008017" lon="10.306072156114908"><ele>388.25</ele><time>2026-04-04T16:30:04Z</time></trkpt><trkpt lat="45.953329846083946" lon="10.306248279082265"><ele>389.0</ele><time>2026-04-04T16:30:06Z</time></trkpt><trkpt lat="45.95331412958736" lon="10.30640342705814"><ele>389.79999999999995</ele><time>2026-04-04T16:30:07Z</time></trkpt><trkpt lat="45.953255704439854" lon="10.306515268724102"><ele>390.59999999999997</ele><time>2026-04-04T16:30:08Z</time></trkpt><trkpt lat="45.95326665690365" lon="10.306627053678252"><ele>391.4</ele><time>2026-04-04T16:30:09Z</time></trkpt><trkpt lat="45.95328838937768" lon="10.30674069112587"><ele>392.2</ele><time>2026-04-04T16:30:10Z</time></trkpt><trkpt lat="45.953280963207334" lon="10.306831642051828"><ele>393.0</ele><time>2026-04-04T16:30:11Z</time></trkpt><trkpt lat="45.953313520011456" lon="10.307020333215128"><ele>393.0</ele><time>2026-04-04T16:30:12Z</time></trkpt><trkpt lat="45.95333994307888" lon="10.307175498840781"><ele>393.0</ele><time>2026-04-04T16:30:13Z</time></trkpt><trkpt lat="45.95340875621596" lon="10.307441084636272"><ele>393.0</ele><time>2026-04-04T16:30:14Z</time></trkpt><trkpt lat="45.95342800525553" lon="10.307690600202907"><ele>392.75</ele><time>2026-04-04T16:30:15Z</time></trkpt><trkpt lat="45.95342204281186" lon="10.307918176604048"><ele>392.5</ele><time>2026-04-04T16:30:16Z</time></trkpt><trkpt lat="45.95341832528298" lon="10.30810653043492"><ele>392.25</ele><time>2026-04-04T16:30:17Z</time></trkpt><trkpt lat="45.953413957534224" lon="10.308327828365176"><ele>392.0</ele><time>2026-04-04T16:30:18Z</time></trkpt><trkpt lat="45.95379064555339" lon="10.308518698117386"><ele>392.0</ele><time>2026-04-04T16:30:19Z</time></trkpt><trkpt lat="45.95383977524239" lon="10.308673681485672"><ele>392.0</ele><time>2026-04-04T16:30:20Z</time></trkpt><trkpt lat="45.953861948837805" lon="10.308804273701393"><ele>392.0</ele><time>2026-04-04T16:30:21Z</time></trkpt><trkpt lat="45.95388309347828" lon="10.309019705657837"><ele>392.0</ele><time>2026-04-04T16:30:22Z</time></trkpt><trkpt lat="45.95389318555596" lon="10.309211132345588"><ele>397.0</ele><time>2026-04-04T16:30:23Z</time></trkpt><trkpt lat="45.95391571955788" lon="10.30939650251011"><ele>402.0</ele><time>2026-04-04T16:30:24Z</time></trkpt><trkpt lat="45.953971057660844" lon="10.309609174802144"><ele>407.0</ele><time>2026-04-04T16:30:25Z</time></trkpt><trkpt lat="45.95402314241642" lon="10.309778102218893"><ele>412.0</ele><time>2026-04-04T16:30:26Z</time></trkpt><trkpt lat="45.95406868684416" lon="10.309928588345791"><ele>415.40000000000003</ele><time>2026-04-04T16:30:27Z</time></trkpt><trkpt lat="45.954129416063424" lon="10.310025304206514"><ele>418.8</ele><time>2026-04-04T16:30:28Z</time></trkpt><trkpt lat="45.954177695703436" lon="10.310173883189908"><ele>422.2</ele><time>2026-04-04T16:30:30Z</time></trkpt><trkpt lat="45.954187433390445" lon="10.310277755075091"><ele>425.6</ele><time>2026-04-04T16:30:31Z</time></trkpt><trkpt lat="45.95411841096635" lon="10.310442671250827"><ele>429.0</ele><time>2026-04-04T16:30:33Z</time></trkpt><trkpt lat="45.95399798910998" lon="10.310570851191525"><ele>427.75</ele><time>2026-04-04T16:30:34Z</time></trkpt><trkpt lat="45.953900534750446" lon="10.31072523728463"><ele>426.5</ele><time>2026-04-04T16:30:35Z</time></trkpt><trkpt lat="45.953860097674315" lon="10.310807810831658"><ele>425.25</ele><time>2026-04-04T16:30:36Z</time></trkpt><trkpt lat="45.95371006972335" lon="10.310975153878651"><ele>424.0</ele><time>2026-04-04T16:30:38Z</time></trkpt><trkpt lat="45.95365219962102" lon="10.311034215559811"><ele>424.0</ele><time>2026-04-04T16:30:39Z</time></trkpt><trkpt lat="45.95358358251514" lon="10.311093866198874"><ele>424.0</ele><time>2026-04-04T16:30:40Z</time></trkpt><trkpt lat="45.953471965253776" lon="10.311110583665823"><ele>424.0</ele><time>2026-04-04T16:30:42Z</time></trkpt><trkpt lat="45.953387191211334" lon="10.311100302124506"><ele>424.0</ele><time>2026-04-04T16:30:43Z</time></trkpt><trkpt lat="45.95326118173555" lon="10.31105601584415"><ele>424.0</ele><time>2026-04-04T16:30:44Z</time></trkpt><trkpt lat="45.95306744574828" lon="10.31099692603171"><ele>436.33333333333337</ele><time>2026-04-04T16:30:45Z</time></trkpt><trkpt lat="45.95288546151666" lon="10.31096156973944"><ele>448.66666666666663</ele><time>2026-04-04T16:30:46Z</time></trkpt><trkpt lat="45.95271452420068" lon="10.310922505679683"><ele>461.0</ele><time>2026-04-04T16:30:47Z</time></trkpt><trkpt lat="45.95258975194106" lon="10.310889609253355"><ele>465.20000000000005</ele><time>2026-04-04T16:30:48Z</time></trkpt><trkpt lat="45.95249553699306" lon="10.310886698202584"><ele>469.40000000000003</ele><time>2026-04-04T16:30:49Z</time></trkpt><trkpt lat="45.95238628215896" lon="10.310881501078493"><ele>473.6</ele><time>2026-04-04T16:30:50Z</time></trkpt><trkpt lat="45.95230655643304" lon="10.310861329279723"><ele>477.8</ele><time>2026-04-04T16:30:51Z</time></trkpt><trkpt lat="45.9522483444264" lon="10.31099514203851"><ele>482.0</ele><time>2026-04-04T16:30:54Z</time></trkpt><trkpt lat="45.952215876377984" lon="10.31114675744233"><ele>481.99999999999994</ele><time>2026-04-04T16:30:56Z</time></trkpt><trkpt lat="45.95214887719747" lon="10.311186042656407"><ele>482.0</ele><time>2026-04-04T16:30:58Z</time></trkpt><trkpt lat="45.952054579077426" lon="10.311288208380184"><ele>482.0</ele><time>2026-04-04T16:31:00Z</time></trkpt><trkpt lat="45.95198202219329" lon="10.311328814253585"><ele>482.0</ele><time>2026-04-04T16:31:01Z</time></trkpt><trkpt lat="45.95189512480099" lon="10.311329277690708"><ele>481.99999999999994</ele><time>2026-04-04T16:31:02Z</time></trkpt><trkpt lat="45.951827346744636" lon="10.311303014636492"><ele>482.0</ele><time>2026-04-04T16:31:04Z</time></trkpt><trkpt lat="45.95179656135061" lon="10.311209285683914"><ele>482.0</ele><time>2026-04-04T16:31:05Z</time></trkpt><trkpt lat="45.951739209264666" lon="10.311023513232996"><ele>482.00000000000006</ele><time>2026-04-04T16:31:07Z</time></trkpt><trkpt lat="45.951668887275524" lon="10.310995949031007"><ele>482.00000000000006</ele><time>2026-04-04T16:31:08Z</time></trkpt><trkpt lat="45.951654191266236" lon="10.310829315914983"><ele>482.0</ele><time>2026-04-04T16:31:09Z</time></trkpt><trkpt lat="45.9515654808063" lon="10.310798231976396"><ele>482.0</ele><time>2026-04-04T16:31:10Z</time></trkpt><trkpt lat="45.951459870425346" lon="10.310735407456898"><ele>481.5</ele><time>2026-04-04T16:31:11Z</time></trkpt><trkpt lat="45.95107601942999" lon="10.310462228999429"><ele>481.0</ele><time>2026-04-04T16:31:12Z</time></trkpt><trkpt lat="45.95099963595741" lon="10.31053620894307"><ele>497.0</ele><time>2026-04-04T16:31:14Z</time></trkpt><trkpt lat="45.95122016986051" lon="10.311591640757793"><ele>497.0</ele><time>2026-04-04T16:31:16Z</time></trkpt><trkpt lat="45.95117416884609" lon="10.311715202413101"><ele>497.00000000000006</ele><time>2026-04-04T16:31:17Z</time></trkpt><trkpt lat="45.95112855786776" lon="10.311895340081271"><ele>497.00000000000006</ele><time>2026-04-04T16:31:18Z</time></trkpt><trkpt lat="45.95108875101405" lon="10.311990529484078"><ele>497.0</ele><time>2026-04-04T16:31:19Z</time></trkpt><trkpt lat="45.951035742340665" lon="10.31211331622702"><ele>497.0</ele><time>2026-04-04T16:31:21Z</time></trkpt><trkpt lat="45.95096899059125" lon="10.312236140781332"><ele>497.0</ele><time>2026-04-04T16:31:23Z</time></trkpt><trkpt lat="45.950933380800784" lon="10.31210738133764"><ele>497.0</ele><time>2026-04-04T16:31:26Z</time></trkpt><trkpt lat="45.95089768670028" lon="10.312023158191977"><ele>497.0</ele><time>2026-04-04T16:31:28Z</time></trkpt><trkpt lat="45.950820529930255" lon="10.312060859844403"><ele>497.0</ele><time>2026-04-04T16:31:30Z</time></trkpt><trkpt lat="45.95078423204702" lon="10.312141339935657"><ele>497.0</ele><time>2026-04-04T16:31:33Z</time></trkpt><trkpt lat="45.95080669020061" lon="10.312047070538819"><ele>497.0</ele><time>2026-04-04T16:32:02Z</time></trkpt><trkpt lat="45.95086915379997" lon="10.312015608711524"><ele>497.0</ele><time>2026-04-04T16:32:20Z</time></trkpt><trkpt lat="45.95088815276015" lon="10.312108819505674"><ele>497.0</ele><time>2026-04-04T16:32:28Z</time></trkpt><trkpt lat="45.950961140983516" lon="10.312067693413288"><ele>497.0</ele><time>2026-04-04T16:32:46Z</time></trkpt><trkpt lat="45.9509010053083" lon="10.312024205577279"><ele>497.0</ele><time>2026-04-04T16:45:31.001Z</time></trkpt><trkpt lat="45.95096095622078" lon="10.311988960666692"><ele>497.0</ele><time>2026-04-04T16:52:04Z</time></trkpt><trkpt lat="45.950913058286226" lon="10.311891333637156"><ele>497.0</ele><time>2026-04-04T16:57:14Z</time></trkpt><trkpt lat="45.950900534005264" lon="10.31200781880759"><ele>497.0</ele><time>2026-04-04T16:57:18Z</time></trkpt><trkpt lat="45.95085929902422" lon="10.311937068854943"><ele>497.0</ele><time>2026-04-04T16:57:23Z</time></trkpt><trkpt lat="45.95092430457838" lon="10.311995198302121"><ele>497.0</ele><time>2026-04-04T16:59:14Z</time></trkpt><trkpt lat="45.95095666546873" lon="10.312077445880016"><ele>497.0</ele><time>2026-04-04T16:59:17Z</time></trkpt><trkpt lat="45.95100051140302" lon="10.31221312328173"><ele>497.0</ele><time>2026-04-04T16:59:19Z</time></trkpt><trkpt lat="45.95097067035349" lon="10.312129251403437"><ele>497.0</ele><time>2026-04-04T16:59:25Z</time></trkpt></trkseg></trk></gpx>